<?xml version="1.0" encoding="UTF-8" standalone="no" ?>
<gpx xmlns="http://www.topografix.com/GPX/1/1" xmlns:xsi="http://www.w3.org/2001/XMLSchema-instance" xsi:schemaLocation="http://www.topografix.com/GPX/1/1 http://www.topografix.com/GPX/1/1/gpx.xsd" version="1.1" creator="VisuGPX - https://www.visugpx.com">
  <metadata>
    <name>Trail des Passerelles du Monteynard 2020 - Maratrail sur TraceDeTrail.fr</name>
  </metadata>
  <trk>
    <name><![CDATA[Trail des Passerelles du Monteynard 2020 - Maratrail sur TraceDeTrail.fr]]></name>
    <trkseg>
      <trkpt lat="44.90863" lon="5.67131">
        <ele>489</ele>
        <time>2000-01-01T02:18:23.000Z</time>
      </trkpt>
      <trkpt lat="44.90842" lon="5.67124">
        <ele>490</ele>
        <time>2000-01-01T02:18:33.000Z</time>
      </trkpt>
      <trkpt lat="44.90821" lon="5.6712">
        <ele>490</ele>
        <time>2000-01-01T02:18:43.000Z</time>
      </trkpt>
      <trkpt lat="44.90803" lon="5.67109">
        <ele>494</ele>
        <time>2000-01-01T02:18:53.000Z</time>
      </trkpt>
      <trkpt lat="44.90787" lon="5.67101">
        <ele>494.4</ele>
        <time>2000-01-01T02:19:03.000Z</time>
      </trkpt>
      <trkpt lat="44.90787" lon="5.67098">
        <ele>494.9</ele>
        <time>2000-01-01T02:19:13.000Z</time>
      </trkpt>
      <trkpt lat="44.90778" lon="5.671">
        <ele>493</ele>
        <time>2000-01-01T02:19:23.000Z</time>
      </trkpt>
      <trkpt lat="44.90773" lon="5.67105">
        <ele>494.4</ele>
        <time>2000-01-01T02:19:33.000Z</time>
      </trkpt>
      <trkpt lat="44.90766" lon="5.67119">
        <ele>492.7</ele>
        <time>2000-01-01T02:19:43.000Z</time>
      </trkpt>
      <trkpt lat="44.90762" lon="5.67127">
        <ele>493</ele>
        <time>2000-01-01T02:19:53.000Z</time>
      </trkpt>
      <trkpt lat="44.90757" lon="5.67133">
        <ele>491.3</ele>
        <time>2000-01-01T02:20:03.000Z</time>
      </trkpt>
      <trkpt lat="44.90752" lon="5.67133">
        <ele>491.7</ele>
        <time>2000-01-01T02:20:13.000Z</time>
      </trkpt>
      <trkpt lat="44.90747" lon="5.67128">
        <ele>492.7</ele>
        <time>2000-01-01T02:20:23.000Z</time>
      </trkpt>
      <trkpt lat="44.90745" lon="5.67125">
        <ele>493</ele>
        <time>2000-01-01T02:20:33.000Z</time>
      </trkpt>
      <trkpt lat="44.90743" lon="5.67121">
        <ele>493.8</ele>
        <time>2000-01-01T02:20:43.000Z</time>
      </trkpt>
      <trkpt lat="44.90743" lon="5.67117">
        <ele>494.4</ele>
        <time>2000-01-01T02:20:53.000Z</time>
      </trkpt>
      <trkpt lat="44.90743" lon="5.67115">
        <ele>494.7</ele>
        <time>2000-01-01T02:21:03.000Z</time>
      </trkpt>
      <trkpt lat="44.90746" lon="5.67107">
        <ele>495.7</ele>
        <time>2000-01-01T02:21:13.000Z</time>
      </trkpt>
      <trkpt lat="44.90754" lon="5.671">
        <ele>498</ele>
        <time>2000-01-01T02:21:23.000Z</time>
      </trkpt>
      <trkpt lat="44.90765" lon="5.6709">
        <ele>497.4</ele>
        <time>2000-01-01T02:21:33.000Z</time>
      </trkpt>
      <trkpt lat="44.90785" lon="5.67078">
        <ele>498</ele>
        <time>2000-01-01T02:21:43.000Z</time>
      </trkpt>
      <trkpt lat="44.90802" lon="5.67069">
        <ele>498.4</ele>
        <time>2000-01-01T02:21:53.000Z</time>
      </trkpt>
      <trkpt lat="44.90814" lon="5.6706">
        <ele>499</ele>
        <time>2000-01-01T02:22:03.000Z</time>
      </trkpt>
      <trkpt lat="44.90826" lon="5.67044">
        <ele>500.3</ele>
        <time>2000-01-01T02:22:13.000Z</time>
      </trkpt>
      <trkpt lat="44.90838" lon="5.67023">
        <ele>503</ele>
        <time>2000-01-01T02:22:23.000Z</time>
      </trkpt>
      <trkpt lat="44.9085" lon="5.67">
        <ele>509</ele>
        <time>2000-01-01T02:22:33.000Z</time>
      </trkpt>
      <trkpt lat="44.90852" lon="5.66995">
        <ele>507.1</ele>
        <time>2000-01-01T02:22:43.000Z</time>
      </trkpt>
      <trkpt lat="44.9084" lon="5.67">
        <ele>507.3</ele>
        <time>2000-01-01T02:22:53.000Z</time>
      </trkpt>
      <trkpt lat="44.90827" lon="5.67002">
        <ele>509</ele>
        <time>2000-01-01T02:23:03.000Z</time>
      </trkpt>
      <trkpt lat="44.90811" lon="5.67002">
        <ele>509.2</ele>
        <time>2000-01-01T02:23:13.000Z</time>
      </trkpt>
      <trkpt lat="44.90794" lon="5.66996">
        <ele>512</ele>
        <time>2000-01-01T02:23:23.000Z</time>
      </trkpt>
      <trkpt lat="44.90771" lon="5.66986">
        <ele>515</ele>
        <time>2000-01-01T02:23:33.000Z</time>
      </trkpt>
      <trkpt lat="44.90755" lon="5.66978">
        <ele>516.1</ele>
        <time>2000-01-01T02:23:43.000Z</time>
      </trkpt>
      <trkpt lat="44.90746" lon="5.66973">
        <ele>517</ele>
        <time>2000-01-01T02:23:53.000Z</time>
      </trkpt>
      <trkpt lat="44.90721" lon="5.66959">
        <ele>522</ele>
        <time>2000-01-01T02:24:03.000Z</time>
      </trkpt>
      <trkpt lat="44.90695" lon="5.66941">
        <ele>524</ele>
        <time>2000-01-01T02:24:13.000Z</time>
      </trkpt>
      <trkpt lat="44.90677" lon="5.66928">
        <ele>528</ele>
        <time>2000-01-01T02:24:23.000Z</time>
      </trkpt>
      <trkpt lat="44.90676" lon="5.66928">
        <ele>526.8</ele>
        <time>2000-01-01T02:24:33.000Z</time>
      </trkpt>
      <trkpt lat="44.90662" lon="5.66923">
        <ele>527.9</ele>
        <time>2000-01-01T02:24:43.000Z</time>
      </trkpt>
      <trkpt lat="44.9064" lon="5.66921">
        <ele>528</ele>
        <time>2000-01-01T02:24:53.000Z</time>
      </trkpt>
      <trkpt lat="44.90627" lon="5.6693">
        <ele>526.6</ele>
        <time>2000-01-01T02:25:03.000Z</time>
      </trkpt>
      <trkpt lat="44.90602" lon="5.66949">
        <ele>525</ele>
        <time>2000-01-01T02:25:13.000Z</time>
      </trkpt>
      <trkpt lat="44.90588" lon="5.66961">
        <ele>523.3</ele>
        <time>2000-01-01T02:25:23.000Z</time>
      </trkpt>
      <trkpt lat="44.90575" lon="5.66966">
        <ele>524</ele>
        <time>2000-01-01T02:25:33.000Z</time>
      </trkpt>
      <trkpt lat="44.90565" lon="5.66969">
        <ele>523.8</ele>
        <time>2000-01-01T02:25:43.000Z</time>
      </trkpt>
      <trkpt lat="44.90555" lon="5.66971">
        <ele>524</ele>
        <time>2000-01-01T02:25:53.000Z</time>
      </trkpt>
      <trkpt lat="44.90548" lon="5.66973">
        <ele>524.4</ele>
        <time>2000-01-01T02:26:03.000Z</time>
      </trkpt>
      <trkpt lat="44.90532" lon="5.66974">
        <ele>526</ele>
        <time>2000-01-01T02:26:13.000Z</time>
      </trkpt>
      <trkpt lat="44.90527" lon="5.66975">
        <ele>525.7</ele>
        <time>2000-01-01T02:26:23.000Z</time>
      </trkpt>
      <trkpt lat="44.90508" lon="5.66981">
        <ele>527</ele>
        <time>2000-01-01T02:26:33.000Z</time>
      </trkpt>
      <trkpt lat="44.90488" lon="5.66991">
        <ele>527</ele>
        <time>2000-01-01T02:26:43.000Z</time>
      </trkpt>
      <trkpt lat="44.90473" lon="5.67001">
        <ele>526.8</ele>
        <time>2000-01-01T02:26:53.000Z</time>
      </trkpt>
      <trkpt lat="44.9045" lon="5.67012">
        <ele>527</ele>
        <time>2000-01-01T02:27:03.000Z</time>
      </trkpt>
      <trkpt lat="44.90435" lon="5.67016">
        <ele>526.2</ele>
        <time>2000-01-01T02:27:13.000Z</time>
      </trkpt>
      <trkpt lat="44.90426" lon="5.67017">
        <ele>526</ele>
        <time>2000-01-01T02:27:23.000Z</time>
      </trkpt>
      <trkpt lat="44.90417" lon="5.67018">
        <ele>527</ele>
        <time>2000-01-01T02:27:33.000Z</time>
      </trkpt>
      <trkpt lat="44.9041" lon="5.6702">
        <ele>526.9</ele>
        <time>2000-01-01T02:27:43.000Z</time>
      </trkpt>
      <trkpt lat="44.90402" lon="5.67024">
        <ele>526</ele>
        <time>2000-01-01T02:27:53.000Z</time>
      </trkpt>
      <trkpt lat="44.90379" lon="5.67034">
        <ele>525</ele>
        <time>2000-01-01T02:28:03.000Z</time>
      </trkpt>
      <trkpt lat="44.90357" lon="5.67042">
        <ele>524</ele>
        <time>2000-01-01T02:28:13.000Z</time>
      </trkpt>
      <trkpt lat="44.90351" lon="5.67045">
        <ele>524.2</ele>
        <time>2000-01-01T02:28:23.000Z</time>
      </trkpt>
      <trkpt lat="44.90347" lon="5.67048">
        <ele>524.1</ele>
        <time>2000-01-01T02:28:33.000Z</time>
      </trkpt>
      <trkpt lat="44.90344" lon="5.67053">
        <ele>523.6</ele>
        <time>2000-01-01T02:28:43.000Z</time>
      </trkpt>
      <trkpt lat="44.90342" lon="5.67058">
        <ele>523</ele>
        <time>2000-01-01T02:28:53.000Z</time>
      </trkpt>
      <trkpt lat="44.90338" lon="5.67064">
        <ele>522.4</ele>
        <time>2000-01-01T02:29:03.000Z</time>
      </trkpt>
      <trkpt lat="44.90331" lon="5.67072">
        <ele>521.9</ele>
        <time>2000-01-01T02:29:13.000Z</time>
      </trkpt>
      <trkpt lat="44.90316" lon="5.67082">
        <ele>523</ele>
        <time>2000-01-01T02:29:23.000Z</time>
      </trkpt>
      <trkpt lat="44.90301" lon="5.6709">
        <ele>522</ele>
        <time>2000-01-01T02:29:33.000Z</time>
      </trkpt>
      <trkpt lat="44.9028" lon="5.67098">
        <ele>523</ele>
        <time>2000-01-01T02:29:43.000Z</time>
      </trkpt>
      <trkpt lat="44.90258" lon="5.67104">
        <ele>522</ele>
        <time>2000-01-01T02:29:53.000Z</time>
      </trkpt>
      <trkpt lat="44.90233" lon="5.67109">
        <ele>522</ele>
        <time>2000-01-01T02:30:03.000Z</time>
      </trkpt>
      <trkpt lat="44.90213" lon="5.6711">
        <ele>522</ele>
        <time>2000-01-01T02:30:13.000Z</time>
      </trkpt>
      <trkpt lat="44.90196" lon="5.67109">
        <ele>521.3</ele>
        <time>2000-01-01T02:30:23.000Z</time>
      </trkpt>
      <trkpt lat="44.90189" lon="5.67109">
        <ele>522</ele>
        <time>2000-01-01T02:30:33.000Z</time>
      </trkpt>
      <trkpt lat="44.90184" lon="5.6711">
        <ele>521.5</ele>
        <time>2000-01-01T02:30:43.000Z</time>
      </trkpt>
      <trkpt lat="44.90178" lon="5.67111">
        <ele>521.6</ele>
        <time>2000-01-01T02:30:53.000Z</time>
      </trkpt>
      <trkpt lat="44.90167" lon="5.67119">
        <ele>522</ele>
        <time>2000-01-01T02:31:03.000Z</time>
      </trkpt>
      <trkpt lat="44.90142" lon="5.67136">
        <ele>522</ele>
        <time>2000-01-01T02:31:13.000Z</time>
      </trkpt>
      <trkpt lat="44.90118" lon="5.6715">
        <ele>521</ele>
        <time>2000-01-01T02:31:23.000Z</time>
      </trkpt>
      <trkpt lat="44.90098" lon="5.67157">
        <ele>520</ele>
        <time>2000-01-01T02:31:33.000Z</time>
      </trkpt>
      <trkpt lat="44.90078" lon="5.67161">
        <ele>520</ele>
        <time>2000-01-01T02:31:43.000Z</time>
      </trkpt>
      <trkpt lat="44.90068" lon="5.67166">
        <ele>519.2</ele>
        <time>2000-01-01T02:31:53.000Z</time>
      </trkpt>
      <trkpt lat="44.90059" lon="5.67167">
        <ele>520</ele>
        <time>2000-01-01T02:32:03.000Z</time>
      </trkpt>
      <trkpt lat="44.90057" lon="5.67176">
        <ele>519.2</ele>
        <time>2000-01-01T02:32:13.000Z</time>
      </trkpt>
      <trkpt lat="44.90054" lon="5.67187">
        <ele>518.6</ele>
        <time>2000-01-01T02:32:23.000Z</time>
      </trkpt>
      <trkpt lat="44.90043" lon="5.67202">
        <ele>518</ele>
        <time>2000-01-01T02:32:33.000Z</time>
      </trkpt>
      <trkpt lat="44.90028" lon="5.67214">
        <ele>515.9</ele>
        <time>2000-01-01T02:32:43.000Z</time>
      </trkpt>
      <trkpt lat="44.90006" lon="5.67227">
        <ele>514</ele>
        <time>2000-01-01T02:32:53.000Z</time>
      </trkpt>
      <trkpt lat="44.89982" lon="5.67242">
        <ele>511</ele>
        <time>2000-01-01T02:33:03.000Z</time>
      </trkpt>
      <trkpt lat="44.8996" lon="5.67256">
        <ele>511</ele>
        <time>2000-01-01T02:33:13.000Z</time>
      </trkpt>
      <trkpt lat="44.89937" lon="5.6727">
        <ele>507</ele>
        <time>2000-01-01T02:33:23.000Z</time>
      </trkpt>
      <trkpt lat="44.89911" lon="5.67288">
        <ele>506</ele>
        <time>2000-01-01T02:33:33.000Z</time>
      </trkpt>
      <trkpt lat="44.89889" lon="5.67302">
        <ele>503</ele>
        <time>2000-01-01T02:33:43.000Z</time>
      </trkpt>
      <trkpt lat="44.89869" lon="5.67319">
        <ele>502</ele>
        <time>2000-01-01T02:33:53.000Z</time>
      </trkpt>
      <trkpt lat="44.89851" lon="5.67335">
        <ele>498</ele>
        <time>2000-01-01T02:34:03.000Z</time>
      </trkpt>
      <trkpt lat="44.89851" lon="5.67336">
        <ele>497.1</ele>
        <time>2000-01-01T02:34:13.000Z</time>
      </trkpt>
      <trkpt lat="44.89835" lon="5.67347">
        <ele>496.5</ele>
        <time>2000-01-01T02:34:23.000Z</time>
      </trkpt>
      <trkpt lat="44.89822" lon="5.67352">
        <ele>495</ele>
        <time>2000-01-01T02:34:33.000Z</time>
      </trkpt>
      <trkpt lat="44.89811" lon="5.67356">
        <ele>495.7</ele>
        <time>2000-01-01T02:34:43.000Z</time>
      </trkpt>
      <trkpt lat="44.89801" lon="5.67358">
        <ele>495</ele>
        <time>2000-01-01T02:34:53.000Z</time>
      </trkpt>
      <trkpt lat="44.89784" lon="5.67362">
        <ele>495.8</ele>
        <time>2000-01-01T02:35:03.000Z</time>
      </trkpt>
      <trkpt lat="44.8976" lon="5.67366">
        <ele>495</ele>
        <time>2000-01-01T02:35:13.000Z</time>
      </trkpt>
      <trkpt lat="44.89748" lon="5.67372">
        <ele>496.3</ele>
        <time>2000-01-01T02:35:23.000Z</time>
      </trkpt>
      <trkpt lat="44.89732" lon="5.67382">
        <ele>495</ele>
        <time>2000-01-01T02:35:33.000Z</time>
      </trkpt>
      <trkpt lat="44.8971" lon="5.67395">
        <ele>495</ele>
        <time>2000-01-01T02:35:43.000Z</time>
      </trkpt>
      <trkpt lat="44.89699" lon="5.67401">
        <ele>495.1</ele>
        <time>2000-01-01T02:35:53.000Z</time>
      </trkpt>
      <trkpt lat="44.89698" lon="5.67402">
        <ele>495.1</ele>
        <time>2000-01-01T02:36:03.000Z</time>
      </trkpt>
      <trkpt lat="44.89692" lon="5.67403">
        <ele>494.9</ele>
        <time>2000-01-01T02:36:13.000Z</time>
      </trkpt>
      <trkpt lat="44.8969" lon="5.67402">
        <ele>495</ele>
        <time>2000-01-01T02:36:23.000Z</time>
      </trkpt>
      <trkpt lat="44.89685" lon="5.67401">
        <ele>494.6</ele>
        <time>2000-01-01T02:36:33.000Z</time>
      </trkpt>
      <trkpt lat="44.8968" lon="5.67398">
        <ele>494.7</ele>
        <time>2000-01-01T02:36:43.000Z</time>
      </trkpt>
      <trkpt lat="44.89676" lon="5.67395">
        <ele>494.7</ele>
        <time>2000-01-01T02:36:53.000Z</time>
      </trkpt>
      <trkpt lat="44.89674" lon="5.67391">
        <ele>495.1</ele>
        <time>2000-01-01T02:37:03.000Z</time>
      </trkpt>
      <trkpt lat="44.89672" lon="5.67386">
        <ele>495</ele>
        <time>2000-01-01T02:37:13.000Z</time>
      </trkpt>
      <trkpt lat="44.8967" lon="5.6738">
        <ele>496.4</ele>
        <time>2000-01-01T02:37:23.000Z</time>
      </trkpt>
      <trkpt lat="44.89669" lon="5.67373">
        <ele>497.3</ele>
        <time>2000-01-01T02:37:33.000Z</time>
      </trkpt>
      <trkpt lat="44.89664" lon="5.67364">
        <ele>498.8</ele>
        <time>2000-01-01T02:37:43.000Z</time>
      </trkpt>
      <trkpt lat="44.89665" lon="5.67361">
        <ele>499</ele>
        <time>2000-01-01T02:37:53.000Z</time>
      </trkpt>
      <trkpt lat="44.89664" lon="5.67358">
        <ele>499.9</ele>
        <time>2000-01-01T02:38:03.000Z</time>
      </trkpt>
      <trkpt lat="44.89662" lon="5.67356">
        <ele>500.4</ele>
        <time>2000-01-01T02:38:13.000Z</time>
      </trkpt>
      <trkpt lat="44.8966" lon="5.67356">
        <ele>500.6</ele>
        <time>2000-01-01T02:38:23.000Z</time>
      </trkpt>
      <trkpt lat="44.89656" lon="5.67354">
        <ele>501.3</ele>
        <time>2000-01-01T02:38:33.000Z</time>
      </trkpt>
      <trkpt lat="44.89649" lon="5.67352">
        <ele>502.2</ele>
        <time>2000-01-01T02:38:43.000Z</time>
      </trkpt>
      <trkpt lat="44.89645" lon="5.67351">
        <ele>503</ele>
        <time>2000-01-01T02:38:53.000Z</time>
      </trkpt>
      <trkpt lat="44.89636" lon="5.67351">
        <ele>503.6</ele>
        <time>2000-01-01T02:39:03.000Z</time>
      </trkpt>
      <trkpt lat="44.89622" lon="5.67352">
        <ele>505</ele>
        <time>2000-01-01T02:39:13.000Z</time>
      </trkpt>
      <trkpt lat="44.89615" lon="5.67352">
        <ele>506.4</ele>
        <time>2000-01-01T02:39:23.000Z</time>
      </trkpt>
      <trkpt lat="44.89604" lon="5.67353">
        <ele>507.8</ele>
        <time>2000-01-01T02:39:33.000Z</time>
      </trkpt>
      <trkpt lat="44.8956" lon="5.67355">
        <ele>513</ele>
        <time>2000-01-01T02:39:43.000Z</time>
      </trkpt>
      <trkpt lat="44.89526" lon="5.67355">
        <ele>516</ele>
        <time>2000-01-01T02:39:53.000Z</time>
      </trkpt>
      <trkpt lat="44.8951" lon="5.67355">
        <ele>516.5</ele>
        <time>2000-01-01T02:40:03.000Z</time>
      </trkpt>
      <trkpt lat="44.89481" lon="5.67355">
        <ele>519</ele>
        <time>2000-01-01T02:40:13.000Z</time>
      </trkpt>
      <trkpt lat="44.89463" lon="5.67358">
        <ele>519.2</ele>
        <time>2000-01-01T02:40:23.000Z</time>
      </trkpt>
      <trkpt lat="44.89449" lon="5.67363">
        <ele>520</ele>
        <time>2000-01-01T02:40:33.000Z</time>
      </trkpt>
      <trkpt lat="44.89436" lon="5.67369">
        <ele>518.9</ele>
        <time>2000-01-01T02:40:43.000Z</time>
      </trkpt>
      <trkpt lat="44.89431" lon="5.67369">
        <ele>519.3</ele>
        <time>2000-01-01T02:40:53.000Z</time>
      </trkpt>
      <trkpt lat="44.89428" lon="5.67369">
        <ele>521</ele>
        <time>2000-01-01T02:41:03.000Z</time>
      </trkpt>
      <trkpt lat="44.89425" lon="5.67367">
        <ele>520.1</ele>
        <time>2000-01-01T02:41:13.000Z</time>
      </trkpt>
      <trkpt lat="44.89422" lon="5.67365">
        <ele>520.8</ele>
        <time>2000-01-01T02:41:23.000Z</time>
      </trkpt>
      <trkpt lat="44.8942" lon="5.67363">
        <ele>521.4</ele>
        <time>2000-01-01T02:41:33.000Z</time>
      </trkpt>
      <trkpt lat="44.89418" lon="5.67359">
        <ele>522.1</ele>
        <time>2000-01-01T02:41:43.000Z</time>
      </trkpt>
      <trkpt lat="44.89416" lon="5.67355">
        <ele>522.7</ele>
        <time>2000-01-01T02:41:53.000Z</time>
      </trkpt>
      <trkpt lat="44.89415" lon="5.6735">
        <ele>523</ele>
        <time>2000-01-01T02:42:03.000Z</time>
      </trkpt>
      <trkpt lat="44.89415" lon="5.67347">
        <ele>523.6</ele>
        <time>2000-01-01T02:42:13.000Z</time>
      </trkpt>
      <trkpt lat="44.89414" lon="5.67343">
        <ele>524.1</ele>
        <time>2000-01-01T02:42:23.000Z</time>
      </trkpt>
      <trkpt lat="44.89416" lon="5.67338">
        <ele>524.5</ele>
        <time>2000-01-01T02:42:33.000Z</time>
      </trkpt>
      <trkpt lat="44.89417" lon="5.67335">
        <ele>524.8</ele>
        <time>2000-01-01T02:42:43.000Z</time>
      </trkpt>
      <trkpt lat="44.89421" lon="5.6733">
        <ele>525.3</ele>
        <time>2000-01-01T02:42:53.000Z</time>
      </trkpt>
      <trkpt lat="44.89424" lon="5.67325">
        <ele>526</ele>
        <time>2000-01-01T02:43:03.000Z</time>
      </trkpt>
      <trkpt lat="44.89428" lon="5.67322">
        <ele>526.1</ele>
        <time>2000-01-01T02:43:13.000Z</time>
      </trkpt>
      <trkpt lat="44.89433" lon="5.67319">
        <ele>526.2</ele>
        <time>2000-01-01T02:43:23.000Z</time>
      </trkpt>
      <trkpt lat="44.89442" lon="5.67312">
        <ele>526</ele>
        <time>2000-01-01T02:43:33.000Z</time>
      </trkpt>
      <trkpt lat="44.89449" lon="5.67302">
        <ele>527.3</ele>
        <time>2000-01-01T02:43:43.000Z</time>
      </trkpt>
      <trkpt lat="44.89459" lon="5.6729">
        <ele>528</ele>
        <time>2000-01-01T02:43:53.000Z</time>
      </trkpt>
      <trkpt lat="44.89463" lon="5.67284">
        <ele>529</ele>
        <time>2000-01-01T02:44:03.000Z</time>
      </trkpt>
      <trkpt lat="44.89463" lon="5.67284">
        <ele>529</ele>
        <time>2000-01-01T02:44:13.000Z</time>
      </trkpt>
      <trkpt lat="44.89471" lon="5.67273">
        <ele>530.3</ele>
        <time>2000-01-01T02:44:23.000Z</time>
      </trkpt>
      <trkpt lat="44.8948" lon="5.67264">
        <ele>532</ele>
        <time>2000-01-01T02:44:33.000Z</time>
      </trkpt>
      <trkpt lat="44.89488" lon="5.67258">
        <ele>533</ele>
        <time>2000-01-01T02:44:43.000Z</time>
      </trkpt>
      <trkpt lat="44.89505" lon="5.67248">
        <ele>533</ele>
        <time>2000-01-01T02:44:53.000Z</time>
      </trkpt>
      <trkpt lat="44.89518" lon="5.67241">
        <ele>534.9</ele>
        <time>2000-01-01T02:45:03.000Z</time>
      </trkpt>
      <trkpt lat="44.89535" lon="5.67231">
        <ele>535</ele>
        <time>2000-01-01T02:45:13.000Z</time>
      </trkpt>
      <trkpt lat="44.89517" lon="5.67234">
        <ele>536.1</ele>
        <time>2000-01-01T02:45:23.000Z</time>
      </trkpt>
      <trkpt lat="44.89504" lon="5.67237">
        <ele>537</ele>
        <time>2000-01-01T02:45:33.000Z</time>
      </trkpt>
      <trkpt lat="44.89471" lon="5.67249">
        <ele>538</ele>
        <time>2000-01-01T02:45:43.000Z</time>
      </trkpt>
      <trkpt lat="44.89448" lon="5.67257">
        <ele>537</ele>
        <time>2000-01-01T02:45:53.000Z</time>
      </trkpt>
      <trkpt lat="44.89423" lon="5.67266">
        <ele>537</ele>
        <time>2000-01-01T02:46:03.000Z</time>
      </trkpt>
      <trkpt lat="44.89416" lon="5.67267">
        <ele>536.8</ele>
        <time>2000-01-01T02:46:13.000Z</time>
      </trkpt>
      <trkpt lat="44.8939" lon="5.67273">
        <ele>537</ele>
        <time>2000-01-01T02:46:23.000Z</time>
      </trkpt>
      <trkpt lat="44.89365" lon="5.67281">
        <ele>537</ele>
        <time>2000-01-01T02:46:33.000Z</time>
      </trkpt>
      <trkpt lat="44.89338" lon="5.6729">
        <ele>537</ele>
        <time>2000-01-01T02:46:43.000Z</time>
      </trkpt>
      <trkpt lat="44.89314" lon="5.67297">
        <ele>538</ele>
        <time>2000-01-01T02:46:53.000Z</time>
      </trkpt>
      <trkpt lat="44.8929" lon="5.67302">
        <ele>538</ele>
        <time>2000-01-01T02:47:03.000Z</time>
      </trkpt>
      <trkpt lat="44.89276" lon="5.67304">
        <ele>538.2</ele>
        <time>2000-01-01T02:47:13.000Z</time>
      </trkpt>
      <trkpt lat="44.89261" lon="5.67301">
        <ele>538</ele>
        <time>2000-01-01T02:47:23.000Z</time>
      </trkpt>
      <trkpt lat="44.89231" lon="5.67295">
        <ele>538</ele>
        <time>2000-01-01T02:47:33.000Z</time>
      </trkpt>
      <trkpt lat="44.89205" lon="5.67294">
        <ele>538</ele>
        <time>2000-01-01T02:47:43.000Z</time>
      </trkpt>
      <trkpt lat="44.89183" lon="5.67299">
        <ele>536</ele>
        <time>2000-01-01T02:47:53.000Z</time>
      </trkpt>
      <trkpt lat="44.89144" lon="5.67311">
        <ele>535</ele>
        <time>2000-01-01T02:48:03.000Z</time>
      </trkpt>
      <trkpt lat="44.8912" lon="5.67318">
        <ele>535</ele>
        <time>2000-01-01T02:48:13.000Z</time>
      </trkpt>
      <trkpt lat="44.89097" lon="5.67325">
        <ele>531</ele>
        <time>2000-01-01T02:48:23.000Z</time>
      </trkpt>
      <trkpt lat="44.89073" lon="5.67327">
        <ele>530</ele>
        <time>2000-01-01T02:48:33.000Z</time>
      </trkpt>
      <trkpt lat="44.89049" lon="5.67327">
        <ele>530</ele>
        <time>2000-01-01T02:48:43.000Z</time>
      </trkpt>
      <trkpt lat="44.89025" lon="5.67328">
        <ele>529</ele>
        <time>2000-01-01T02:48:53.000Z</time>
      </trkpt>
      <trkpt lat="44.88999" lon="5.67329">
        <ele>528</ele>
        <time>2000-01-01T02:49:03.000Z</time>
      </trkpt>
      <trkpt lat="44.88969" lon="5.67331">
        <ele>525</ele>
        <time>2000-01-01T02:49:13.000Z</time>
      </trkpt>
      <trkpt lat="44.88946" lon="5.67334">
        <ele>525</ele>
        <time>2000-01-01T02:49:23.000Z</time>
      </trkpt>
      <trkpt lat="44.88935" lon="5.67333">
        <ele>523.7</ele>
        <time>2000-01-01T02:49:33.000Z</time>
      </trkpt>
      <trkpt lat="44.8893" lon="5.67333">
        <ele>523.5</ele>
        <time>2000-01-01T02:49:43.000Z</time>
      </trkpt>
      <trkpt lat="44.88917" lon="5.67329">
        <ele>524</ele>
        <time>2000-01-01T02:49:53.000Z</time>
      </trkpt>
      <trkpt lat="44.88912" lon="5.67329">
        <ele>524.4</ele>
        <time>2000-01-01T02:50:03.000Z</time>
      </trkpt>
      <trkpt lat="44.88908" lon="5.6733">
        <ele>524.6</ele>
        <time>2000-01-01T02:50:13.000Z</time>
      </trkpt>
      <trkpt lat="44.88904" lon="5.67334">
        <ele>524.2</ele>
        <time>2000-01-01T02:50:23.000Z</time>
      </trkpt>
      <trkpt lat="44.88901" lon="5.67337">
        <ele>523.9</ele>
        <time>2000-01-01T02:50:33.000Z</time>
      </trkpt>
      <trkpt lat="44.88898" lon="5.67343">
        <ele>524</ele>
        <time>2000-01-01T02:50:43.000Z</time>
      </trkpt>
      <trkpt lat="44.88895" lon="5.67347">
        <ele>522.4</ele>
        <time>2000-01-01T02:50:53.000Z</time>
      </trkpt>
      <trkpt lat="44.8889" lon="5.67351">
        <ele>522.1</ele>
        <time>2000-01-01T02:51:03.000Z</time>
      </trkpt>
      <trkpt lat="44.88882" lon="5.67353">
        <ele>522.5</ele>
        <time>2000-01-01T02:51:13.000Z</time>
      </trkpt>
      <trkpt lat="44.88863" lon="5.67355">
        <ele>524</ele>
        <time>2000-01-01T02:51:23.000Z</time>
      </trkpt>
      <trkpt lat="44.88838" lon="5.6736">
        <ele>526</ele>
        <time>2000-01-01T02:51:33.000Z</time>
      </trkpt>
      <trkpt lat="44.88809" lon="5.67366">
        <ele>528</ele>
        <time>2000-01-01T02:51:43.000Z</time>
      </trkpt>
      <trkpt lat="44.88762" lon="5.67379">
        <ele>528</ele>
        <time>2000-01-01T02:51:53.000Z</time>
      </trkpt>
      <trkpt lat="44.88722" lon="5.67392">
        <ele>528</ele>
        <time>2000-01-01T02:52:03.000Z</time>
      </trkpt>
      <trkpt lat="44.88698" lon="5.674">
        <ele>528</ele>
        <time>2000-01-01T02:52:13.000Z</time>
      </trkpt>
      <trkpt lat="44.88695" lon="5.67401">
        <ele>527.8</ele>
        <time>2000-01-01T02:52:23.000Z</time>
      </trkpt>
      <trkpt lat="44.8868" lon="5.67407">
        <ele>527.6</ele>
        <time>2000-01-01T02:52:33.000Z</time>
      </trkpt>
      <trkpt lat="44.88663" lon="5.67412">
        <ele>528</ele>
        <time>2000-01-01T02:52:43.000Z</time>
      </trkpt>
      <trkpt lat="44.88641" lon="5.67415">
        <ele>529</ele>
        <time>2000-01-01T02:52:53.000Z</time>
      </trkpt>
      <trkpt lat="44.88612" lon="5.67418">
        <ele>530</ele>
        <time>2000-01-01T02:53:03.000Z</time>
      </trkpt>
      <trkpt lat="44.88577" lon="5.67423">
        <ele>530</ele>
        <time>2000-01-01T02:53:13.000Z</time>
      </trkpt>
      <trkpt lat="44.8854" lon="5.67428">
        <ele>530</ele>
        <time>2000-01-01T02:53:23.000Z</time>
      </trkpt>
      <trkpt lat="44.8853" lon="5.67431">
        <ele>531.3</ele>
        <time>2000-01-01T02:53:33.000Z</time>
      </trkpt>
      <trkpt lat="44.88526" lon="5.67436">
        <ele>530.7</ele>
        <time>2000-01-01T02:53:43.000Z</time>
      </trkpt>
      <trkpt lat="44.8852" lon="5.67443">
        <ele>530</ele>
        <time>2000-01-01T02:53:53.000Z</time>
      </trkpt>
      <trkpt lat="44.88509" lon="5.67454">
        <ele>529.3</ele>
        <time>2000-01-01T02:54:03.000Z</time>
      </trkpt>
      <trkpt lat="44.88496" lon="5.67461">
        <ele>530</ele>
        <time>2000-01-01T02:54:13.000Z</time>
      </trkpt>
      <trkpt lat="44.88473" lon="5.67468">
        <ele>532</ele>
        <time>2000-01-01T02:54:23.000Z</time>
      </trkpt>
      <trkpt lat="44.88443" lon="5.67477">
        <ele>532</ele>
        <time>2000-01-01T02:54:33.000Z</time>
      </trkpt>
      <trkpt lat="44.88415" lon="5.67483">
        <ele>533</ele>
        <time>2000-01-01T02:54:43.000Z</time>
      </trkpt>
      <trkpt lat="44.88394" lon="5.67487">
        <ele>534</ele>
        <time>2000-01-01T02:54:53.000Z</time>
      </trkpt>
      <trkpt lat="44.88371" lon="5.67492">
        <ele>534</ele>
        <time>2000-01-01T02:55:03.000Z</time>
      </trkpt>
      <trkpt lat="44.88357" lon="5.675">
        <ele>534.4</ele>
        <time>2000-01-01T02:55:13.000Z</time>
      </trkpt>
      <trkpt lat="44.88339" lon="5.67517">
        <ele>536</ele>
        <time>2000-01-01T02:55:23.000Z</time>
      </trkpt>
      <trkpt lat="44.88319" lon="5.67537">
        <ele>536</ele>
        <time>2000-01-01T02:55:33.000Z</time>
      </trkpt>
      <trkpt lat="44.88303" lon="5.67551">
        <ele>535.5</ele>
        <time>2000-01-01T02:55:43.000Z</time>
      </trkpt>
      <trkpt lat="44.88291" lon="5.67559">
        <ele>536</ele>
        <time>2000-01-01T02:55:53.000Z</time>
      </trkpt>
      <trkpt lat="44.88282" lon="5.67563">
        <ele>535.9</ele>
        <time>2000-01-01T02:56:03.000Z</time>
      </trkpt>
      <trkpt lat="44.88274" lon="5.67563">
        <ele>536.6</ele>
        <time>2000-01-01T02:56:13.000Z</time>
      </trkpt>
      <trkpt lat="44.88265" lon="5.67564">
        <ele>538</ele>
        <time>2000-01-01T02:56:23.000Z</time>
      </trkpt>
      <trkpt lat="44.88259" lon="5.67566">
        <ele>537.6</ele>
        <time>2000-01-01T02:56:33.000Z</time>
      </trkpt>
      <trkpt lat="44.8825" lon="5.67565">
        <ele>538.6</ele>
        <time>2000-01-01T02:56:43.000Z</time>
      </trkpt>
      <trkpt lat="44.8824" lon="5.67565">
        <ele>541</ele>
        <time>2000-01-01T02:56:53.000Z</time>
      </trkpt>
      <trkpt lat="44.88217" lon="5.67568">
        <ele>544</ele>
        <time>2000-01-01T02:57:03.000Z</time>
      </trkpt>
      <trkpt lat="44.88203" lon="5.67569">
        <ele>543.2</ele>
        <time>2000-01-01T02:57:13.000Z</time>
      </trkpt>
      <trkpt lat="44.88185" lon="5.67571">
        <ele>545</ele>
        <time>2000-01-01T02:57:23.000Z</time>
      </trkpt>
      <trkpt lat="44.88167" lon="5.67573">
        <ele>546.6</ele>
        <time>2000-01-01T02:57:33.000Z</time>
      </trkpt>
      <trkpt lat="44.88146" lon="5.67575">
        <ele>551</ele>
        <time>2000-01-01T02:57:43.000Z</time>
      </trkpt>
      <trkpt lat="44.88124" lon="5.67578">
        <ele>554</ele>
        <time>2000-01-01T02:57:53.000Z</time>
      </trkpt>
      <trkpt lat="44.88106" lon="5.67583">
        <ele>554</ele>
        <time>2000-01-01T02:58:03.000Z</time>
      </trkpt>
      <trkpt lat="44.88083" lon="5.67592">
        <ele>555</ele>
        <time>2000-01-01T02:58:13.000Z</time>
      </trkpt>
      <trkpt lat="44.88054" lon="5.67608">
        <ele>556</ele>
        <time>2000-01-01T02:58:23.000Z</time>
      </trkpt>
      <trkpt lat="44.88021" lon="5.67622">
        <ele>558</ele>
        <time>2000-01-01T02:58:33.000Z</time>
      </trkpt>
      <trkpt lat="44.88002" lon="5.67631">
        <ele>554</ele>
        <time>2000-01-01T02:58:43.000Z</time>
      </trkpt>
      <trkpt lat="44.87998" lon="5.67634">
        <ele>558.6</ele>
        <time>2000-01-01T02:58:53.000Z</time>
      </trkpt>
      <trkpt lat="44.87989" lon="5.67648">
        <ele>554.8</ele>
        <time>2000-01-01T02:59:03.000Z</time>
      </trkpt>
      <trkpt lat="44.87977" lon="5.6766">
        <ele>551</ele>
        <time>2000-01-01T02:59:13.000Z</time>
      </trkpt>
      <trkpt lat="44.87967" lon="5.67666">
        <ele>548.7</ele>
        <time>2000-01-01T02:59:23.000Z</time>
      </trkpt>
      <trkpt lat="44.8794" lon="5.67678">
        <ele>549</ele>
        <time>2000-01-01T02:59:33.000Z</time>
      </trkpt>
      <trkpt lat="44.87929" lon="5.67682">
        <ele>542.9</ele>
        <time>2000-01-01T02:59:43.000Z</time>
      </trkpt>
      <trkpt lat="44.87921" lon="5.67685">
        <ele>544</ele>
        <time>2000-01-01T02:59:53.000Z</time>
      </trkpt>
      <trkpt lat="44.87901" lon="5.67691">
        <ele>546</ele>
        <time>2000-01-01T03:00:03.000Z</time>
      </trkpt>
      <trkpt lat="44.87884" lon="5.67694">
        <ele>543.9</ele>
        <time>2000-01-01T03:00:13.000Z</time>
      </trkpt>
      <trkpt lat="44.8786" lon="5.67698">
        <ele>546</ele>
        <time>2000-01-01T03:00:23.000Z</time>
      </trkpt>
      <trkpt lat="44.87833" lon="5.67701">
        <ele>547</ele>
        <time>2000-01-01T03:00:33.000Z</time>
      </trkpt>
      <trkpt lat="44.87809" lon="5.67704">
        <ele>549</ele>
        <time>2000-01-01T03:00:43.000Z</time>
      </trkpt>
      <trkpt lat="44.87787" lon="5.67708">
        <ele>548</ele>
        <time>2000-01-01T03:00:53.000Z</time>
      </trkpt>
      <trkpt lat="44.87762" lon="5.67712">
        <ele>548</ele>
        <time>2000-01-01T03:01:03.000Z</time>
      </trkpt>
      <trkpt lat="44.87735" lon="5.67716">
        <ele>549</ele>
        <time>2000-01-01T03:01:13.000Z</time>
      </trkpt>
      <trkpt lat="44.87705" lon="5.67719">
        <ele>548</ele>
        <time>2000-01-01T03:01:23.000Z</time>
      </trkpt>
      <trkpt lat="44.87676" lon="5.67723">
        <ele>547</ele>
        <time>2000-01-01T03:01:33.000Z</time>
      </trkpt>
      <trkpt lat="44.87656" lon="5.67724">
        <ele>547</ele>
        <time>2000-01-01T03:01:43.000Z</time>
      </trkpt>
      <trkpt lat="44.8764" lon="5.67723">
        <ele>546.6</ele>
        <time>2000-01-01T03:01:53.000Z</time>
      </trkpt>
      <trkpt lat="44.87619" lon="5.67722">
        <ele>546</ele>
        <time>2000-01-01T03:02:03.000Z</time>
      </trkpt>
      <trkpt lat="44.87602" lon="5.67719">
        <ele>545.3</ele>
        <time>2000-01-01T03:02:13.000Z</time>
      </trkpt>
      <trkpt lat="44.87581" lon="5.67714">
        <ele>546</ele>
        <time>2000-01-01T03:02:23.000Z</time>
      </trkpt>
      <trkpt lat="44.87542" lon="5.67703">
        <ele>547</ele>
        <time>2000-01-01T03:02:33.000Z</time>
      </trkpt>
      <trkpt lat="44.87518" lon="5.67696">
        <ele>546</ele>
        <time>2000-01-01T03:02:43.000Z</time>
      </trkpt>
      <trkpt lat="44.8751" lon="5.67694">
        <ele>547</ele>
        <time>2000-01-01T03:02:53.000Z</time>
      </trkpt>
      <trkpt lat="44.87502" lon="5.67694">
        <ele>545.6</ele>
        <time>2000-01-01T03:03:03.000Z</time>
      </trkpt>
      <trkpt lat="44.87481" lon="5.67699">
        <ele>545</ele>
        <time>2000-01-01T03:03:13.000Z</time>
      </trkpt>
      <trkpt lat="44.87462" lon="5.67702">
        <ele>543</ele>
        <time>2000-01-01T03:03:23.000Z</time>
      </trkpt>
      <trkpt lat="44.87451" lon="5.67702">
        <ele>539.8</ele>
        <time>2000-01-01T03:03:33.000Z</time>
      </trkpt>
      <trkpt lat="44.87441" lon="5.67701">
        <ele>545</ele>
        <time>2000-01-01T03:03:43.000Z</time>
      </trkpt>
      <trkpt lat="44.87432" lon="5.67698">
        <ele>542.6</ele>
        <time>2000-01-01T03:03:53.000Z</time>
      </trkpt>
      <trkpt lat="44.87401" lon="5.67684">
        <ele>548</ele>
        <time>2000-01-01T03:04:03.000Z</time>
      </trkpt>
      <trkpt lat="44.87365" lon="5.67668">
        <ele>549</ele>
        <time>2000-01-01T03:04:13.000Z</time>
      </trkpt>
      <trkpt lat="44.87345" lon="5.67661">
        <ele>549</ele>
        <time>2000-01-01T03:04:23.000Z</time>
      </trkpt>
      <trkpt lat="44.8734" lon="5.6766">
        <ele>550.3</ele>
        <time>2000-01-01T03:04:33.000Z</time>
      </trkpt>
      <trkpt lat="44.87325" lon="5.67655">
        <ele>549</ele>
        <time>2000-01-01T03:04:43.000Z</time>
      </trkpt>
      <trkpt lat="44.87323" lon="5.67654">
        <ele>549.2</ele>
        <time>2000-01-01T03:04:53.000Z</time>
      </trkpt>
      <trkpt lat="44.8732" lon="5.67654">
        <ele>548.6</ele>
        <time>2000-01-01T03:05:03.000Z</time>
      </trkpt>
      <trkpt lat="44.8731" lon="5.67657">
        <ele>545.9</ele>
        <time>2000-01-01T03:05:13.000Z</time>
      </trkpt>
      <trkpt lat="44.87296" lon="5.67661">
        <ele>538</ele>
        <time>2000-01-01T03:05:23.000Z</time>
      </trkpt>
      <trkpt lat="44.87287" lon="5.67663">
        <ele>533.7</ele>
        <time>2000-01-01T03:05:33.000Z</time>
      </trkpt>
      <trkpt lat="44.87284" lon="5.67667">
        <ele>531.3</ele>
        <time>2000-01-01T03:05:43.000Z</time>
      </trkpt>
      <trkpt lat="44.87282" lon="5.67674">
        <ele>528.7</ele>
        <time>2000-01-01T03:05:53.000Z</time>
      </trkpt>
      <trkpt lat="44.87283" lon="5.67682">
        <ele>527</ele>
        <time>2000-01-01T03:06:03.000Z</time>
      </trkpt>
      <trkpt lat="44.87288" lon="5.67697">
        <ele>526.9</ele>
        <time>2000-01-01T03:06:13.000Z</time>
      </trkpt>
      <trkpt lat="44.87296" lon="5.67715">
        <ele>526</ele>
        <time>2000-01-01T03:06:23.000Z</time>
      </trkpt>
      <trkpt lat="44.87296" lon="5.6772">
        <ele>525.4</ele>
        <time>2000-01-01T03:06:33.000Z</time>
      </trkpt>
      <trkpt lat="44.87294" lon="5.67724">
        <ele>523.1</ele>
        <time>2000-01-01T03:06:43.000Z</time>
      </trkpt>
      <trkpt lat="44.87292" lon="5.67726">
        <ele>521.3</ele>
        <time>2000-01-01T03:06:53.000Z</time>
      </trkpt>
      <trkpt lat="44.87288" lon="5.67726">
        <ele>519.2</ele>
        <time>2000-01-01T03:07:03.000Z</time>
      </trkpt>
      <trkpt lat="44.87282" lon="5.67723">
        <ele>518</ele>
        <time>2000-01-01T03:07:13.000Z</time>
      </trkpt>
      <trkpt lat="44.87254" lon="5.6771">
        <ele>500</ele>
        <time>2000-01-01T03:07:23.000Z</time>
      </trkpt>
      <trkpt lat="44.87222" lon="5.67695">
        <ele>489</ele>
        <time>2000-01-01T03:07:33.000Z</time>
      </trkpt>
      <trkpt lat="44.8719" lon="5.6768">
        <ele>492</ele>
        <time>2000-01-01T03:07:43.000Z</time>
      </trkpt>
      <trkpt lat="44.87145" lon="5.67659">
        <ele>496</ele>
        <time>2000-01-01T03:07:53.000Z</time>
      </trkpt>
      <trkpt lat="44.87113" lon="5.67645">
        <ele>515</ele>
        <time>2000-01-01T03:08:03.000Z</time>
      </trkpt>
      <trkpt lat="44.87112" lon="5.67645">
        <ele>514.2</ele>
        <time>2000-01-01T03:08:13.000Z</time>
      </trkpt>
      <trkpt lat="44.8711" lon="5.67647">
        <ele>515.4</ele>
        <time>2000-01-01T03:08:23.000Z</time>
      </trkpt>
      <trkpt lat="44.87108" lon="5.67652">
        <ele>516.5</ele>
        <time>2000-01-01T03:08:33.000Z</time>
      </trkpt>
      <trkpt lat="44.87105" lon="5.67654">
        <ele>518.4</ele>
        <time>2000-01-01T03:08:43.000Z</time>
      </trkpt>
      <trkpt lat="44.87101" lon="5.67656">
        <ele>520.9</ele>
        <time>2000-01-01T03:08:53.000Z</time>
      </trkpt>
      <trkpt lat="44.8709" lon="5.67657">
        <ele>529</ele>
        <time>2000-01-01T03:09:03.000Z</time>
      </trkpt>
      <trkpt lat="44.87082" lon="5.67657">
        <ele>533.1</ele>
        <time>2000-01-01T03:09:13.000Z</time>
      </trkpt>
      <trkpt lat="44.87094" lon="5.67646">
        <ele>529</ele>
        <time>2000-01-01T03:09:23.000Z</time>
      </trkpt>
      <trkpt lat="44.87091" lon="5.67645">
        <ele>527.8</ele>
        <time>2000-01-01T03:09:33.000Z</time>
      </trkpt>
      <trkpt lat="44.87087" lon="5.67648">
        <ele>530.3</ele>
        <time>2000-01-01T03:09:43.000Z</time>
      </trkpt>
      <trkpt lat="44.87084" lon="5.67648">
        <ele>532.2</ele>
        <time>2000-01-01T03:09:53.000Z</time>
      </trkpt>
      <trkpt lat="44.87086" lon="5.67644">
        <ele>531.1</ele>
        <time>2000-01-01T03:10:03.000Z</time>
      </trkpt>
      <trkpt lat="44.87086" lon="5.67639">
        <ele>531.3</ele>
        <time>2000-01-01T03:10:13.000Z</time>
      </trkpt>
      <trkpt lat="44.87085" lon="5.67636">
        <ele>535</ele>
        <time>2000-01-01T03:10:23.000Z</time>
      </trkpt>
      <trkpt lat="44.87084" lon="5.67636">
        <ele>532.4</ele>
        <time>2000-01-01T03:10:33.000Z</time>
      </trkpt>
      <trkpt lat="44.87083" lon="5.6764">
        <ele>533.2</ele>
        <time>2000-01-01T03:10:43.000Z</time>
      </trkpt>
      <trkpt lat="44.87081" lon="5.67642">
        <ele>534.2</ele>
        <time>2000-01-01T03:10:53.000Z</time>
      </trkpt>
      <trkpt lat="44.8708" lon="5.67643">
        <ele>534.8</ele>
        <time>2000-01-01T03:11:03.000Z</time>
      </trkpt>
      <trkpt lat="44.87076" lon="5.67629">
        <ele>536.8</ele>
        <time>2000-01-01T03:11:13.000Z</time>
      </trkpt>
      <trkpt lat="44.87077" lon="5.67623">
        <ele>540</ele>
        <time>2000-01-01T03:11:23.000Z</time>
      </trkpt>
      <trkpt lat="44.87077" lon="5.67617">
        <ele>535.6</ele>
        <time>2000-01-01T03:11:33.000Z</time>
      </trkpt>
      <trkpt lat="44.87075" lon="5.67611">
        <ele>536.7</ele>
        <time>2000-01-01T03:11:43.000Z</time>
      </trkpt>
      <trkpt lat="44.87067" lon="5.67604">
        <ele>541.5</ele>
        <time>2000-01-01T03:11:53.000Z</time>
      </trkpt>
      <trkpt lat="44.87065" lon="5.67599">
        <ele>546</ele>
        <time>2000-01-01T03:12:03.000Z</time>
      </trkpt>
      <trkpt lat="44.8706" lon="5.67594">
        <ele>545.9</ele>
        <time>2000-01-01T03:12:13.000Z</time>
      </trkpt>
      <trkpt lat="44.87055" lon="5.67592">
        <ele>549.6</ele>
        <time>2000-01-01T03:12:23.000Z</time>
      </trkpt>
      <trkpt lat="44.87044" lon="5.67592">
        <ele>558</ele>
        <time>2000-01-01T03:12:33.000Z</time>
      </trkpt>
      <trkpt lat="44.87041" lon="5.67589">
        <ele>557.9</ele>
        <time>2000-01-01T03:12:43.000Z</time>
      </trkpt>
      <trkpt lat="44.87039" lon="5.67582">
        <ele>559.1</ele>
        <time>2000-01-01T03:12:53.000Z</time>
      </trkpt>
      <trkpt lat="44.87039" lon="5.67575">
        <ele>559</ele>
        <time>2000-01-01T03:13:03.000Z</time>
      </trkpt>
      <trkpt lat="44.87035" lon="5.6757">
        <ele>558</ele>
        <time>2000-01-01T03:13:13.000Z</time>
      </trkpt>
      <trkpt lat="44.87033" lon="5.67562">
        <ele>562.7</ele>
        <time>2000-01-01T03:13:23.000Z</time>
      </trkpt>
      <trkpt lat="44.87034" lon="5.67555">
        <ele>562</ele>
        <time>2000-01-01T03:13:33.000Z</time>
      </trkpt>
      <trkpt lat="44.8704" lon="5.67536">
        <ele>558</ele>
        <time>2000-01-01T03:13:43.000Z</time>
      </trkpt>
      <trkpt lat="44.87038" lon="5.67528">
        <ele>560.4</ele>
        <time>2000-01-01T03:13:53.000Z</time>
      </trkpt>
      <trkpt lat="44.87034" lon="5.67524">
        <ele>563.2</ele>
        <time>2000-01-01T03:14:03.000Z</time>
      </trkpt>
      <trkpt lat="44.87032" lon="5.67519">
        <ele>564.9</ele>
        <time>2000-01-01T03:14:13.000Z</time>
      </trkpt>
      <trkpt lat="44.87032" lon="5.67509">
        <ele>568</ele>
        <time>2000-01-01T03:14:23.000Z</time>
      </trkpt>
      <trkpt lat="44.87028" lon="5.67502">
        <ele>568.7</ele>
        <time>2000-01-01T03:14:33.000Z</time>
      </trkpt>
      <trkpt lat="44.87027" lon="5.67496">
        <ele>569.9</ele>
        <time>2000-01-01T03:14:43.000Z</time>
      </trkpt>
      <trkpt lat="44.87026" lon="5.67483">
        <ele>574</ele>
        <time>2000-01-01T03:14:53.000Z</time>
      </trkpt>
      <trkpt lat="44.87024" lon="5.67475">
        <ele>573.9</ele>
        <time>2000-01-01T03:15:03.000Z</time>
      </trkpt>
      <trkpt lat="44.87024" lon="5.67463">
        <ele>575.5</ele>
        <time>2000-01-01T03:15:13.000Z</time>
      </trkpt>
      <trkpt lat="44.87027" lon="5.67455">
        <ele>573</ele>
        <time>2000-01-01T03:15:23.000Z</time>
      </trkpt>
      <trkpt lat="44.87031" lon="5.6745">
        <ele>574.6</ele>
        <time>2000-01-01T03:15:33.000Z</time>
      </trkpt>
      <trkpt lat="44.87035" lon="5.67442">
        <ele>573.7</ele>
        <time>2000-01-01T03:15:43.000Z</time>
      </trkpt>
      <trkpt lat="44.87036" lon="5.67438">
        <ele>573.4</ele>
        <time>2000-01-01T03:15:53.000Z</time>
      </trkpt>
      <trkpt lat="44.87041" lon="5.67431">
        <ele>573</ele>
        <time>2000-01-01T03:16:03.000Z</time>
      </trkpt>
      <trkpt lat="44.87045" lon="5.67427">
        <ele>569.6</ele>
        <time>2000-01-01T03:16:13.000Z</time>
      </trkpt>
      <trkpt lat="44.87044" lon="5.67419">
        <ele>570.3</ele>
        <time>2000-01-01T03:16:23.000Z</time>
      </trkpt>
      <trkpt lat="44.87039" lon="5.67416">
        <ele>572.6</ele>
        <time>2000-01-01T03:16:33.000Z</time>
      </trkpt>
      <trkpt lat="44.87034" lon="5.67411">
        <ele>576</ele>
        <time>2000-01-01T03:16:43.000Z</time>
      </trkpt>
      <trkpt lat="44.87025" lon="5.67404">
        <ele>576</ele>
        <time>2000-01-01T03:16:53.000Z</time>
      </trkpt>
      <trkpt lat="44.87021" lon="5.67399">
        <ele>575.5</ele>
        <time>2000-01-01T03:17:03.000Z</time>
      </trkpt>
      <trkpt lat="44.87016" lon="5.67401">
        <ele>577</ele>
        <time>2000-01-01T03:17:13.000Z</time>
      </trkpt>
      <trkpt lat="44.87008" lon="5.67423">
        <ele>581.1</ele>
        <time>2000-01-01T03:17:23.000Z</time>
      </trkpt>
      <trkpt lat="44.87006" lon="5.6743">
        <ele>583</ele>
        <time>2000-01-01T03:17:33.000Z</time>
      </trkpt>
      <trkpt lat="44.87001" lon="5.67439">
        <ele>583.4</ele>
        <time>2000-01-01T03:17:43.000Z</time>
      </trkpt>
      <trkpt lat="44.86997" lon="5.67451">
        <ele>584</ele>
        <time>2000-01-01T03:17:53.000Z</time>
      </trkpt>
      <trkpt lat="44.86994" lon="5.67459">
        <ele>585</ele>
        <time>2000-01-01T03:18:03.000Z</time>
      </trkpt>
      <trkpt lat="44.86985" lon="5.67476">
        <ele>585</ele>
        <time>2000-01-01T03:18:13.000Z</time>
      </trkpt>
      <trkpt lat="44.86983" lon="5.67484">
        <ele>585</ele>
        <time>2000-01-01T03:18:23.000Z</time>
      </trkpt>
      <trkpt lat="44.86975" lon="5.67492">
        <ele>586</ele>
        <time>2000-01-01T03:18:33.000Z</time>
      </trkpt>
      <trkpt lat="44.86971" lon="5.67499">
        <ele>586.2</ele>
        <time>2000-01-01T03:18:43.000Z</time>
      </trkpt>
      <trkpt lat="44.86966" lon="5.67505">
        <ele>587</ele>
        <time>2000-01-01T03:18:53.000Z</time>
      </trkpt>
      <trkpt lat="44.86953" lon="5.67532">
        <ele>589</ele>
        <time>2000-01-01T03:19:03.000Z</time>
      </trkpt>
      <trkpt lat="44.86951" lon="5.67543">
        <ele>589.1</ele>
        <time>2000-01-01T03:19:13.000Z</time>
      </trkpt>
      <trkpt lat="44.86953" lon="5.67552">
        <ele>589.3</ele>
        <time>2000-01-01T03:19:23.000Z</time>
      </trkpt>
      <trkpt lat="44.86958" lon="5.67571">
        <ele>590</ele>
        <time>2000-01-01T03:19:33.000Z</time>
      </trkpt>
      <trkpt lat="44.86956" lon="5.67578">
        <ele>589.3</ele>
        <time>2000-01-01T03:19:43.000Z</time>
      </trkpt>
      <trkpt lat="44.86957" lon="5.67587">
        <ele>589.1</ele>
        <time>2000-01-01T03:19:53.000Z</time>
      </trkpt>
      <trkpt lat="44.86955" lon="5.67602">
        <ele>590</ele>
        <time>2000-01-01T03:20:03.000Z</time>
      </trkpt>
      <trkpt lat="44.86953" lon="5.6761">
        <ele>589.5</ele>
        <time>2000-01-01T03:20:13.000Z</time>
      </trkpt>
      <trkpt lat="44.86938" lon="5.67633">
        <ele>592</ele>
        <time>2000-01-01T03:20:23.000Z</time>
      </trkpt>
      <trkpt lat="44.86929" lon="5.67654">
        <ele>592.4</ele>
        <time>2000-01-01T03:20:33.000Z</time>
      </trkpt>
      <trkpt lat="44.86928" lon="5.67659">
        <ele>593</ele>
        <time>2000-01-01T03:20:43.000Z</time>
      </trkpt>
      <trkpt lat="44.86925" lon="5.67666">
        <ele>592.8</ele>
        <time>2000-01-01T03:20:53.000Z</time>
      </trkpt>
      <trkpt lat="44.8692" lon="5.67672">
        <ele>593</ele>
        <time>2000-01-01T03:21:03.000Z</time>
      </trkpt>
      <trkpt lat="44.86918" lon="5.67679">
        <ele>592.8</ele>
        <time>2000-01-01T03:21:13.000Z</time>
      </trkpt>
      <trkpt lat="44.8691" lon="5.67685">
        <ele>594</ele>
        <time>2000-01-01T03:21:23.000Z</time>
      </trkpt>
      <trkpt lat="44.86901" lon="5.67702">
        <ele>594.5</ele>
        <time>2000-01-01T03:21:33.000Z</time>
      </trkpt>
      <trkpt lat="44.86898" lon="5.67709">
        <ele>596</ele>
        <time>2000-01-01T03:21:43.000Z</time>
      </trkpt>
      <trkpt lat="44.86895" lon="5.67715">
        <ele>595.4</ele>
        <time>2000-01-01T03:21:53.000Z</time>
      </trkpt>
      <trkpt lat="44.86891" lon="5.67729">
        <ele>596.4</ele>
        <time>2000-01-01T03:22:03.000Z</time>
      </trkpt>
      <trkpt lat="44.86886" lon="5.67735">
        <ele>598</ele>
        <time>2000-01-01T03:22:13.000Z</time>
      </trkpt>
      <trkpt lat="44.86875" lon="5.67763">
        <ele>601</ele>
        <time>2000-01-01T03:22:23.000Z</time>
      </trkpt>
      <trkpt lat="44.86875" lon="5.67767">
        <ele>600.4</ele>
        <time>2000-01-01T03:22:33.000Z</time>
      </trkpt>
      <trkpt lat="44.86867" lon="5.67779">
        <ele>602.8</ele>
        <time>2000-01-01T03:22:43.000Z</time>
      </trkpt>
      <trkpt lat="44.86864" lon="5.67787">
        <ele>604</ele>
        <time>2000-01-01T03:22:53.000Z</time>
      </trkpt>
      <trkpt lat="44.86857" lon="5.67801">
        <ele>605.6</ele>
        <time>2000-01-01T03:23:03.000Z</time>
      </trkpt>
      <trkpt lat="44.86854" lon="5.67816">
        <ele>607</ele>
        <time>2000-01-01T03:23:13.000Z</time>
      </trkpt>
      <trkpt lat="44.86853" lon="5.67817">
        <ele>606.4</ele>
        <time>2000-01-01T03:23:23.000Z</time>
      </trkpt>
      <trkpt lat="44.8685" lon="5.67828">
        <ele>607</ele>
        <time>2000-01-01T03:23:33.000Z</time>
      </trkpt>
      <trkpt lat="44.86837" lon="5.6785">
        <ele>609</ele>
        <time>2000-01-01T03:23:43.000Z</time>
      </trkpt>
      <trkpt lat="44.86833" lon="5.6786">
        <ele>609.9</ele>
        <time>2000-01-01T03:23:53.000Z</time>
      </trkpt>
      <trkpt lat="44.86824" lon="5.67873">
        <ele>610</ele>
        <time>2000-01-01T03:24:03.000Z</time>
      </trkpt>
      <trkpt lat="44.86822" lon="5.67883">
        <ele>610.1</ele>
        <time>2000-01-01T03:24:13.000Z</time>
      </trkpt>
      <trkpt lat="44.86813" lon="5.67899">
        <ele>611</ele>
        <time>2000-01-01T03:24:23.000Z</time>
      </trkpt>
      <trkpt lat="44.86807" lon="5.67909">
        <ele>612.3</ele>
        <time>2000-01-01T03:24:33.000Z</time>
      </trkpt>
      <trkpt lat="44.86801" lon="5.67923">
        <ele>613</ele>
        <time>2000-01-01T03:24:43.000Z</time>
      </trkpt>
      <trkpt lat="44.86799" lon="5.67929">
        <ele>612.9</ele>
        <time>2000-01-01T03:24:53.000Z</time>
      </trkpt>
      <trkpt lat="44.86793" lon="5.67936">
        <ele>613.1</ele>
        <time>2000-01-01T03:25:03.000Z</time>
      </trkpt>
      <trkpt lat="44.8679" lon="5.67943">
        <ele>613.8</ele>
        <time>2000-01-01T03:25:13.000Z</time>
      </trkpt>
      <trkpt lat="44.86786" lon="5.67948">
        <ele>613</ele>
        <time>2000-01-01T03:25:23.000Z</time>
      </trkpt>
      <trkpt lat="44.8678" lon="5.6796">
        <ele>615.3</ele>
        <time>2000-01-01T03:25:33.000Z</time>
      </trkpt>
      <trkpt lat="44.86771" lon="5.67972">
        <ele>617</ele>
        <time>2000-01-01T03:25:43.000Z</time>
      </trkpt>
      <trkpt lat="44.86765" lon="5.67986">
        <ele>615</ele>
        <time>2000-01-01T03:25:53.000Z</time>
      </trkpt>
      <trkpt lat="44.86761" lon="5.6799">
        <ele>615.3</ele>
        <time>2000-01-01T03:26:03.000Z</time>
      </trkpt>
      <trkpt lat="44.86754" lon="5.68002">
        <ele>618</ele>
        <time>2000-01-01T03:26:13.000Z</time>
      </trkpt>
      <trkpt lat="44.86746" lon="5.68013">
        <ele>617.9</ele>
        <time>2000-01-01T03:26:23.000Z</time>
      </trkpt>
      <trkpt lat="44.86741" lon="5.68025">
        <ele>618</ele>
        <time>2000-01-01T03:26:33.000Z</time>
      </trkpt>
      <trkpt lat="44.86732" lon="5.68038">
        <ele>617.7</ele>
        <time>2000-01-01T03:26:43.000Z</time>
      </trkpt>
      <trkpt lat="44.86725" lon="5.6805">
        <ele>618</ele>
        <time>2000-01-01T03:26:53.000Z</time>
      </trkpt>
      <trkpt lat="44.86721" lon="5.68062">
        <ele>620.3</ele>
        <time>2000-01-01T03:27:03.000Z</time>
      </trkpt>
      <trkpt lat="44.86722" lon="5.68067">
        <ele>621.2</ele>
        <time>2000-01-01T03:27:13.000Z</time>
      </trkpt>
      <trkpt lat="44.86722" lon="5.68077">
        <ele>621</ele>
        <time>2000-01-01T03:27:23.000Z</time>
      </trkpt>
      <trkpt lat="44.86718" lon="5.68093">
        <ele>622</ele>
        <time>2000-01-01T03:27:33.000Z</time>
      </trkpt>
      <trkpt lat="44.86718" lon="5.68099">
        <ele>622</ele>
        <time>2000-01-01T03:27:43.000Z</time>
      </trkpt>
      <trkpt lat="44.86716" lon="5.68107">
        <ele>623</ele>
        <time>2000-01-01T03:27:53.000Z</time>
      </trkpt>
      <trkpt lat="44.86711" lon="5.68118">
        <ele>622.5</ele>
        <time>2000-01-01T03:28:03.000Z</time>
      </trkpt>
      <trkpt lat="44.86705" lon="5.6812">
        <ele>623</ele>
        <time>2000-01-01T03:28:13.000Z</time>
      </trkpt>
      <trkpt lat="44.86698" lon="5.68132">
        <ele>625</ele>
        <time>2000-01-01T03:28:23.000Z</time>
      </trkpt>
      <trkpt lat="44.86692" lon="5.68137">
        <ele>626.3</ele>
        <time>2000-01-01T03:28:33.000Z</time>
      </trkpt>
      <trkpt lat="44.86688" lon="5.68142">
        <ele>626.5</ele>
        <time>2000-01-01T03:28:43.000Z</time>
      </trkpt>
      <trkpt lat="44.86687" lon="5.68151">
        <ele>627.7</ele>
        <time>2000-01-01T03:28:53.000Z</time>
      </trkpt>
      <trkpt lat="44.86687" lon="5.68165">
        <ele>630</ele>
        <time>2000-01-01T03:29:03.000Z</time>
      </trkpt>
      <trkpt lat="44.86686" lon="5.68181">
        <ele>631.3</ele>
        <time>2000-01-01T03:29:13.000Z</time>
      </trkpt>
      <trkpt lat="44.8668" lon="5.682">
        <ele>634</ele>
        <time>2000-01-01T03:29:23.000Z</time>
      </trkpt>
      <trkpt lat="44.86676" lon="5.68209">
        <ele>634.9</ele>
        <time>2000-01-01T03:29:33.000Z</time>
      </trkpt>
      <trkpt lat="44.86674" lon="5.68215">
        <ele>635.8</ele>
        <time>2000-01-01T03:29:43.000Z</time>
      </trkpt>
      <trkpt lat="44.86674" lon="5.68221">
        <ele>636.5</ele>
        <time>2000-01-01T03:29:53.000Z</time>
      </trkpt>
      <trkpt lat="44.8667" lon="5.68228">
        <ele>637</ele>
        <time>2000-01-01T03:30:03.000Z</time>
      </trkpt>
      <trkpt lat="44.86667" lon="5.68232">
        <ele>639.3</ele>
        <time>2000-01-01T03:30:13.000Z</time>
      </trkpt>
      <trkpt lat="44.86661" lon="5.68231">
        <ele>639.3</ele>
        <time>2000-01-01T03:30:23.000Z</time>
      </trkpt>
      <trkpt lat="44.86656" lon="5.68236">
        <ele>640.2</ele>
        <time>2000-01-01T03:30:33.000Z</time>
      </trkpt>
      <trkpt lat="44.86652" lon="5.68261">
        <ele>644</ele>
        <time>2000-01-01T03:30:43.000Z</time>
      </trkpt>
      <trkpt lat="44.86648" lon="5.68264">
        <ele>645</ele>
        <time>2000-01-01T03:30:53.000Z</time>
      </trkpt>
      <trkpt lat="44.86647" lon="5.6827">
        <ele>646.1</ele>
        <time>2000-01-01T03:31:03.000Z</time>
      </trkpt>
      <trkpt lat="44.86645" lon="5.68278">
        <ele>647.6</ele>
        <time>2000-01-01T03:31:13.000Z</time>
      </trkpt>
      <trkpt lat="44.86642" lon="5.68283">
        <ele>647</ele>
        <time>2000-01-01T03:31:23.000Z</time>
      </trkpt>
      <trkpt lat="44.86636" lon="5.68282">
        <ele>648.3</ele>
        <time>2000-01-01T03:31:33.000Z</time>
      </trkpt>
      <trkpt lat="44.86632" lon="5.68285">
        <ele>648.4</ele>
        <time>2000-01-01T03:31:43.000Z</time>
      </trkpt>
      <trkpt lat="44.86627" lon="5.68292">
        <ele>649</ele>
        <time>2000-01-01T03:31:53.000Z</time>
      </trkpt>
      <trkpt lat="44.86624" lon="5.68294">
        <ele>648</ele>
        <time>2000-01-01T03:32:03.000Z</time>
      </trkpt>
      <trkpt lat="44.86621" lon="5.68301">
        <ele>650</ele>
        <time>2000-01-01T03:32:13.000Z</time>
      </trkpt>
      <trkpt lat="44.86618" lon="5.68306">
        <ele>650.6</ele>
        <time>2000-01-01T03:32:23.000Z</time>
      </trkpt>
      <trkpt lat="44.86608" lon="5.68312">
        <ele>648</ele>
        <time>2000-01-01T03:32:33.000Z</time>
      </trkpt>
      <trkpt lat="44.8659" lon="5.68313">
        <ele>646.4</ele>
        <time>2000-01-01T03:32:43.000Z</time>
      </trkpt>
      <trkpt lat="44.86586" lon="5.68312">
        <ele>643</ele>
        <time>2000-01-01T03:32:53.000Z</time>
      </trkpt>
      <trkpt lat="44.86575" lon="5.68317">
        <ele>643.5</ele>
        <time>2000-01-01T03:33:03.000Z</time>
      </trkpt>
      <trkpt lat="44.86571" lon="5.68322">
        <ele>643.3</ele>
        <time>2000-01-01T03:33:13.000Z</time>
      </trkpt>
      <trkpt lat="44.86567" lon="5.68327">
        <ele>643</ele>
        <time>2000-01-01T03:33:23.000Z</time>
      </trkpt>
      <trkpt lat="44.86567" lon="5.68335">
        <ele>644.1</ele>
        <time>2000-01-01T03:33:33.000Z</time>
      </trkpt>
      <trkpt lat="44.86565" lon="5.68349">
        <ele>645.1</ele>
        <time>2000-01-01T03:33:43.000Z</time>
      </trkpt>
      <trkpt lat="44.86561" lon="5.68357">
        <ele>642</ele>
        <time>2000-01-01T03:33:53.000Z</time>
      </trkpt>
      <trkpt lat="44.86558" lon="5.68359">
        <ele>644.4</ele>
        <time>2000-01-01T03:34:03.000Z</time>
      </trkpt>
      <trkpt lat="44.86556" lon="5.68364">
        <ele>644.4</ele>
        <time>2000-01-01T03:34:13.000Z</time>
      </trkpt>
      <trkpt lat="44.86549" lon="5.68369">
        <ele>643.3</ele>
        <time>2000-01-01T03:34:23.000Z</time>
      </trkpt>
      <trkpt lat="44.86543" lon="5.68381">
        <ele>642</ele>
        <time>2000-01-01T03:34:33.000Z</time>
      </trkpt>
      <trkpt lat="44.86542" lon="5.68386">
        <ele>643.7</ele>
        <time>2000-01-01T03:34:43.000Z</time>
      </trkpt>
      <trkpt lat="44.86539" lon="5.68389">
        <ele>643.4</ele>
        <time>2000-01-01T03:34:53.000Z</time>
      </trkpt>
      <trkpt lat="44.86523" lon="5.68399">
        <ele>641</ele>
        <time>2000-01-01T03:35:03.000Z</time>
      </trkpt>
      <trkpt lat="44.86518" lon="5.68404">
        <ele>640.4</ele>
        <time>2000-01-01T03:35:13.000Z</time>
      </trkpt>
      <trkpt lat="44.86512" lon="5.68417">
        <ele>640.6</ele>
        <time>2000-01-01T03:35:23.000Z</time>
      </trkpt>
      <trkpt lat="44.86511" lon="5.68422">
        <ele>641</ele>
        <time>2000-01-01T03:35:33.000Z</time>
      </trkpt>
      <trkpt lat="44.8651" lon="5.68436">
        <ele>642.7</ele>
        <time>2000-01-01T03:35:43.000Z</time>
      </trkpt>
      <trkpt lat="44.86504" lon="5.68448">
        <ele>641</ele>
        <time>2000-01-01T03:35:53.000Z</time>
      </trkpt>
      <trkpt lat="44.86492" lon="5.68466">
        <ele>644</ele>
        <time>2000-01-01T03:36:03.000Z</time>
      </trkpt>
      <trkpt lat="44.86491" lon="5.68471">
        <ele>644</ele>
        <time>2000-01-01T03:36:13.000Z</time>
      </trkpt>
      <trkpt lat="44.86487" lon="5.68478">
        <ele>644.8</ele>
        <time>2000-01-01T03:36:23.000Z</time>
      </trkpt>
      <trkpt lat="44.86484" lon="5.68482">
        <ele>644.8</ele>
        <time>2000-01-01T03:36:33.000Z</time>
      </trkpt>
      <trkpt lat="44.8648" lon="5.68489">
        <ele>644.9</ele>
        <time>2000-01-01T03:36:43.000Z</time>
      </trkpt>
      <trkpt lat="44.86476" lon="5.68502">
        <ele>644</ele>
        <time>2000-01-01T03:36:53.000Z</time>
      </trkpt>
      <trkpt lat="44.86472" lon="5.68509">
        <ele>645.9</ele>
        <time>2000-01-01T03:37:03.000Z</time>
      </trkpt>
      <trkpt lat="44.86464" lon="5.68516">
        <ele>645.5</ele>
        <time>2000-01-01T03:37:13.000Z</time>
      </trkpt>
      <trkpt lat="44.8646" lon="5.68521">
        <ele>644</ele>
        <time>2000-01-01T03:37:23.000Z</time>
      </trkpt>
      <trkpt lat="44.8646" lon="5.68527">
        <ele>646.2</ele>
        <time>2000-01-01T03:37:33.000Z</time>
      </trkpt>
      <trkpt lat="44.86457" lon="5.68536">
        <ele>646.4</ele>
        <time>2000-01-01T03:37:43.000Z</time>
      </trkpt>
      <trkpt lat="44.86456" lon="5.68546">
        <ele>647</ele>
        <time>2000-01-01T03:37:53.000Z</time>
      </trkpt>
      <trkpt lat="44.86453" lon="5.68582">
        <ele>649</ele>
        <time>2000-01-01T03:38:03.000Z</time>
      </trkpt>
      <trkpt lat="44.86456" lon="5.68591">
        <ele>651.9</ele>
        <time>2000-01-01T03:38:13.000Z</time>
      </trkpt>
      <trkpt lat="44.86459" lon="5.68597">
        <ele>653.3</ele>
        <time>2000-01-01T03:38:23.000Z</time>
      </trkpt>
      <trkpt lat="44.86457" lon="5.68603">
        <ele>654</ele>
        <time>2000-01-01T03:38:33.000Z</time>
      </trkpt>
      <trkpt lat="44.86458" lon="5.68611">
        <ele>653</ele>
        <time>2000-01-01T03:38:43.000Z</time>
      </trkpt>
      <trkpt lat="44.86456" lon="5.68618">
        <ele>656.4</ele>
        <time>2000-01-01T03:38:53.000Z</time>
      </trkpt>
      <trkpt lat="44.86451" lon="5.68628">
        <ele>657</ele>
        <time>2000-01-01T03:39:03.000Z</time>
      </trkpt>
      <trkpt lat="44.86449" lon="5.68636">
        <ele>655</ele>
        <time>2000-01-01T03:39:13.000Z</time>
      </trkpt>
      <trkpt lat="44.86452" lon="5.68645">
        <ele>660.6</ele>
        <time>2000-01-01T03:39:23.000Z</time>
      </trkpt>
      <trkpt lat="44.86447" lon="5.68656">
        <ele>661.5</ele>
        <time>2000-01-01T03:39:33.000Z</time>
      </trkpt>
      <trkpt lat="44.86441" lon="5.68666">
        <ele>660</ele>
        <time>2000-01-01T03:39:43.000Z</time>
      </trkpt>
      <trkpt lat="44.86439" lon="5.68674">
        <ele>663.6</ele>
        <time>2000-01-01T03:39:53.000Z</time>
      </trkpt>
      <trkpt lat="44.86434" lon="5.68686">
        <ele>665</ele>
        <time>2000-01-01T03:40:03.000Z</time>
      </trkpt>
      <trkpt lat="44.8643" lon="5.68698">
        <ele>663</ele>
        <time>2000-01-01T03:40:13.000Z</time>
      </trkpt>
      <trkpt lat="44.86426" lon="5.68704">
        <ele>666.9</ele>
        <time>2000-01-01T03:40:23.000Z</time>
      </trkpt>
      <trkpt lat="44.86423" lon="5.6871">
        <ele>667.3</ele>
        <time>2000-01-01T03:40:33.000Z</time>
      </trkpt>
      <trkpt lat="44.86415" lon="5.68722">
        <ele>666</ele>
        <time>2000-01-01T03:40:43.000Z</time>
      </trkpt>
      <trkpt lat="44.86412" lon="5.68731">
        <ele>668.9</ele>
        <time>2000-01-01T03:40:53.000Z</time>
      </trkpt>
      <trkpt lat="44.86409" lon="5.68735">
        <ele>669.1</ele>
        <time>2000-01-01T03:41:03.000Z</time>
      </trkpt>
      <trkpt lat="44.86404" lon="5.68739">
        <ele>668.9</ele>
        <time>2000-01-01T03:41:13.000Z</time>
      </trkpt>
      <trkpt lat="44.86399" lon="5.68741">
        <ele>666</ele>
        <time>2000-01-01T03:41:23.000Z</time>
      </trkpt>
      <trkpt lat="44.86388" lon="5.68745">
        <ele>667.2</ele>
        <time>2000-01-01T03:41:33.000Z</time>
      </trkpt>
      <trkpt lat="44.86386" lon="5.68754">
        <ele>668.4</ele>
        <time>2000-01-01T03:41:43.000Z</time>
      </trkpt>
      <trkpt lat="44.86387" lon="5.68759">
        <ele>667</ele>
        <time>2000-01-01T03:41:53.000Z</time>
      </trkpt>
      <trkpt lat="44.86384" lon="5.68767">
        <ele>670</ele>
        <time>2000-01-01T03:42:03.000Z</time>
      </trkpt>
      <trkpt lat="44.86381" lon="5.68766">
        <ele>669.6</ele>
        <time>2000-01-01T03:42:13.000Z</time>
      </trkpt>
      <trkpt lat="44.86375" lon="5.68768">
        <ele>669.3</ele>
        <time>2000-01-01T03:42:23.000Z</time>
      </trkpt>
      <trkpt lat="44.86372" lon="5.6877">
        <ele>667</ele>
        <time>2000-01-01T03:42:33.000Z</time>
      </trkpt>
      <trkpt lat="44.86365" lon="5.68773">
        <ele>668.9</ele>
        <time>2000-01-01T03:42:43.000Z</time>
      </trkpt>
      <trkpt lat="44.86362" lon="5.68779">
        <ele>669.3</ele>
        <time>2000-01-01T03:42:53.000Z</time>
      </trkpt>
      <trkpt lat="44.8636" lon="5.68787">
        <ele>670.2</ele>
        <time>2000-01-01T03:43:03.000Z</time>
      </trkpt>
      <trkpt lat="44.86361" lon="5.68794">
        <ele>670</ele>
        <time>2000-01-01T03:43:13.000Z</time>
      </trkpt>
      <trkpt lat="44.8636" lon="5.68803">
        <ele>672.6</ele>
        <time>2000-01-01T03:43:23.000Z</time>
      </trkpt>
      <trkpt lat="44.86355" lon="5.68812">
        <ele>673.7</ele>
        <time>2000-01-01T03:43:33.000Z</time>
      </trkpt>
      <trkpt lat="44.86343" lon="5.68821">
        <ele>673</ele>
        <time>2000-01-01T03:43:43.000Z</time>
      </trkpt>
      <trkpt lat="44.86341" lon="5.68828">
        <ele>675.6</ele>
        <time>2000-01-01T03:43:53.000Z</time>
      </trkpt>
      <trkpt lat="44.86331" lon="5.68837">
        <ele>676.6</ele>
        <time>2000-01-01T03:44:03.000Z</time>
      </trkpt>
      <trkpt lat="44.86317" lon="5.68846">
        <ele>675</ele>
        <time>2000-01-01T03:44:13.000Z</time>
      </trkpt>
      <trkpt lat="44.86313" lon="5.6885">
        <ele>678.1</ele>
        <time>2000-01-01T03:44:23.000Z</time>
      </trkpt>
      <trkpt lat="44.86307" lon="5.6885">
        <ele>677.7</ele>
        <time>2000-01-01T03:44:33.000Z</time>
      </trkpt>
      <trkpt lat="44.86301" lon="5.68856">
        <ele>678.9</ele>
        <time>2000-01-01T03:44:43.000Z</time>
      </trkpt>
      <trkpt lat="44.86294" lon="5.6886">
        <ele>677</ele>
        <time>2000-01-01T03:44:53.000Z</time>
      </trkpt>
      <trkpt lat="44.86291" lon="5.6886">
        <ele>679.8</ele>
        <time>2000-01-01T03:45:03.000Z</time>
      </trkpt>
      <trkpt lat="44.86281" lon="5.68865">
        <ele>680.9</ele>
        <time>2000-01-01T03:45:13.000Z</time>
      </trkpt>
      <trkpt lat="44.86272" lon="5.68867">
        <ele>679</ele>
        <time>2000-01-01T03:45:23.000Z</time>
      </trkpt>
      <trkpt lat="44.86268" lon="5.68874">
        <ele>683.1</ele>
        <time>2000-01-01T03:45:33.000Z</time>
      </trkpt>
      <trkpt lat="44.86266" lon="5.68881">
        <ele>684.7</ele>
        <time>2000-01-01T03:45:43.000Z</time>
      </trkpt>
      <trkpt lat="44.8626" lon="5.68882">
        <ele>685.2</ele>
        <time>2000-01-01T03:45:53.000Z</time>
      </trkpt>
      <trkpt lat="44.86247" lon="5.68875">
        <ele>683</ele>
        <time>2000-01-01T03:46:03.000Z</time>
      </trkpt>
      <trkpt lat="44.8624" lon="5.68875">
        <ele>684.4</ele>
        <time>2000-01-01T03:46:13.000Z</time>
      </trkpt>
      <trkpt lat="44.86238" lon="5.68881">
        <ele>685.5</ele>
        <time>2000-01-01T03:46:23.000Z</time>
      </trkpt>
      <trkpt lat="44.86238" lon="5.68884">
        <ele>686.1</ele>
        <time>2000-01-01T03:46:33.000Z</time>
      </trkpt>
      <trkpt lat="44.86242" lon="5.68887">
        <ele>686.6</ele>
        <time>2000-01-01T03:46:43.000Z</time>
      </trkpt>
      <trkpt lat="44.86247" lon="5.6889">
        <ele>687</ele>
        <time>2000-01-01T03:46:53.000Z</time>
      </trkpt>
      <trkpt lat="44.86254" lon="5.68894">
        <ele>688</ele>
        <time>2000-01-01T03:47:03.000Z</time>
      </trkpt>
      <trkpt lat="44.86255" lon="5.68896">
        <ele>688.4</ele>
        <time>2000-01-01T03:47:13.000Z</time>
      </trkpt>
      <trkpt lat="44.86252" lon="5.68908">
        <ele>691.1</ele>
        <time>2000-01-01T03:47:23.000Z</time>
      </trkpt>
      <trkpt lat="44.86248" lon="5.68917">
        <ele>691</ele>
        <time>2000-01-01T03:47:33.000Z</time>
      </trkpt>
      <trkpt lat="44.86237" lon="5.68926">
        <ele>694.8</ele>
        <time>2000-01-01T03:47:43.000Z</time>
      </trkpt>
      <trkpt lat="44.86237" lon="5.68927">
        <ele>695</ele>
        <time>2000-01-01T03:47:53.000Z</time>
      </trkpt>
      <trkpt lat="44.86238" lon="5.68928">
        <ele>695.2</ele>
        <time>2000-01-01T03:48:03.000Z</time>
      </trkpt>
      <trkpt lat="44.8625" lon="5.6893">
        <ele>693</ele>
        <time>2000-01-01T03:48:13.000Z</time>
      </trkpt>
      <trkpt lat="44.86259" lon="5.68931">
        <ele>695.1</ele>
        <time>2000-01-01T03:48:23.000Z</time>
      </trkpt>
      <trkpt lat="44.86275" lon="5.68931">
        <ele>692</ele>
        <time>2000-01-01T03:48:33.000Z</time>
      </trkpt>
      <trkpt lat="44.86284" lon="5.6893">
        <ele>693.4</ele>
        <time>2000-01-01T03:48:43.000Z</time>
      </trkpt>
      <trkpt lat="44.8629" lon="5.68928">
        <ele>692.7</ele>
        <time>2000-01-01T03:48:53.000Z</time>
      </trkpt>
      <trkpt lat="44.86295" lon="5.68928">
        <ele>692</ele>
        <time>2000-01-01T03:49:03.000Z</time>
      </trkpt>
      <trkpt lat="44.86304" lon="5.68926">
        <ele>691.4</ele>
        <time>2000-01-01T03:49:13.000Z</time>
      </trkpt>
      <trkpt lat="44.86311" lon="5.68927">
        <ele>690.8</ele>
        <time>2000-01-01T03:49:23.000Z</time>
      </trkpt>
      <trkpt lat="44.86342" lon="5.68903">
        <ele>688</ele>
        <time>2000-01-01T03:49:33.000Z</time>
      </trkpt>
      <trkpt lat="44.8635" lon="5.68895">
        <ele>687.2</ele>
        <time>2000-01-01T03:49:43.000Z</time>
      </trkpt>
      <trkpt lat="44.86356" lon="5.68896">
        <ele>686.8</ele>
        <time>2000-01-01T03:49:53.000Z</time>
      </trkpt>
      <trkpt lat="44.86365" lon="5.68892">
        <ele>687</ele>
        <time>2000-01-01T03:50:03.000Z</time>
      </trkpt>
      <trkpt lat="44.8637" lon="5.68894">
        <ele>685.3</ele>
        <time>2000-01-01T03:50:13.000Z</time>
      </trkpt>
      <trkpt lat="44.86372" lon="5.68895">
        <ele>684.9</ele>
        <time>2000-01-01T03:50:23.000Z</time>
      </trkpt>
      <trkpt lat="44.86376" lon="5.68894">
        <ele>684.4</ele>
        <time>2000-01-01T03:50:33.000Z</time>
      </trkpt>
      <trkpt lat="44.8638" lon="5.68893">
        <ele>683.9</ele>
        <time>2000-01-01T03:50:43.000Z</time>
      </trkpt>
      <trkpt lat="44.86382" lon="5.68893">
        <ele>683.6</ele>
        <time>2000-01-01T03:50:53.000Z</time>
      </trkpt>
      <trkpt lat="44.86384" lon="5.68895">
        <ele>684</ele>
        <time>2000-01-01T03:51:03.000Z</time>
      </trkpt>
      <trkpt lat="44.86384" lon="5.68898">
        <ele>682.8</ele>
        <time>2000-01-01T03:51:13.000Z</time>
      </trkpt>
      <trkpt lat="44.86383" lon="5.68905">
        <ele>682.2</ele>
        <time>2000-01-01T03:51:23.000Z</time>
      </trkpt>
      <trkpt lat="44.86384" lon="5.68907">
        <ele>681.9</ele>
        <time>2000-01-01T03:51:33.000Z</time>
      </trkpt>
      <trkpt lat="44.86385" lon="5.68907">
        <ele>681.7</ele>
        <time>2000-01-01T03:51:43.000Z</time>
      </trkpt>
      <trkpt lat="44.8639" lon="5.68906">
        <ele>680.9</ele>
        <time>2000-01-01T03:51:53.000Z</time>
      </trkpt>
      <trkpt lat="44.86392" lon="5.68906">
        <ele>680.5</ele>
        <time>2000-01-01T03:52:03.000Z</time>
      </trkpt>
      <trkpt lat="44.86392" lon="5.68907">
        <ele>680.4</ele>
        <time>2000-01-01T03:52:13.000Z</time>
      </trkpt>
      <trkpt lat="44.86392" lon="5.68915">
        <ele>680</ele>
        <time>2000-01-01T03:52:23.000Z</time>
      </trkpt>
      <trkpt lat="44.86393" lon="5.68916">
        <ele>679</ele>
        <time>2000-01-01T03:52:33.000Z</time>
      </trkpt>
      <trkpt lat="44.86396" lon="5.68916">
        <ele>678.3</ele>
        <time>2000-01-01T03:52:43.000Z</time>
      </trkpt>
      <trkpt lat="44.86398" lon="5.68914">
        <ele>678.1</ele>
        <time>2000-01-01T03:52:53.000Z</time>
      </trkpt>
      <trkpt lat="44.864" lon="5.68914">
        <ele>677.6</ele>
        <time>2000-01-01T03:53:03.000Z</time>
      </trkpt>
      <trkpt lat="44.86401" lon="5.68915">
        <ele>677.2</ele>
        <time>2000-01-01T03:53:13.000Z</time>
      </trkpt>
      <trkpt lat="44.86403" lon="5.68925">
        <ele>675.4</ele>
        <time>2000-01-01T03:53:23.000Z</time>
      </trkpt>
      <trkpt lat="44.86405" lon="5.68926">
        <ele>677</ele>
        <time>2000-01-01T03:53:33.000Z</time>
      </trkpt>
      <trkpt lat="44.86411" lon="5.68927">
        <ele>673.2</ele>
        <time>2000-01-01T03:53:43.000Z</time>
      </trkpt>
      <trkpt lat="44.86412" lon="5.68928">
        <ele>672.9</ele>
        <time>2000-01-01T03:53:53.000Z</time>
      </trkpt>
      <trkpt lat="44.86413" lon="5.6893">
        <ele>672.4</ele>
        <time>2000-01-01T03:54:03.000Z</time>
      </trkpt>
      <trkpt lat="44.86414" lon="5.68936">
        <ele>671.5</ele>
        <time>2000-01-01T03:54:13.000Z</time>
      </trkpt>
      <trkpt lat="44.8642" lon="5.68943">
        <ele>671</ele>
        <time>2000-01-01T03:54:23.000Z</time>
      </trkpt>
      <trkpt lat="44.86431" lon="5.68954">
        <ele>665.9</ele>
        <time>2000-01-01T03:54:33.000Z</time>
      </trkpt>
      <trkpt lat="44.86436" lon="5.68964">
        <ele>665</ele>
        <time>2000-01-01T03:54:43.000Z</time>
      </trkpt>
      <trkpt lat="44.86439" lon="5.68967">
        <ele>663.4</ele>
        <time>2000-01-01T03:54:53.000Z</time>
      </trkpt>
      <trkpt lat="44.8644" lon="5.68967">
        <ele>663.2</ele>
        <time>2000-01-01T03:55:03.000Z</time>
      </trkpt>
      <trkpt lat="44.86443" lon="5.6897">
        <ele>662.4</ele>
        <time>2000-01-01T03:55:13.000Z</time>
      </trkpt>
      <trkpt lat="44.86454" lon="5.6899">
        <ele>661</ele>
        <time>2000-01-01T03:55:23.000Z</time>
      </trkpt>
      <trkpt lat="44.86462" lon="5.68999">
        <ele>658.9</ele>
        <time>2000-01-01T03:55:33.000Z</time>
      </trkpt>
      <trkpt lat="44.86473" lon="5.69008">
        <ele>657</ele>
        <time>2000-01-01T03:55:43.000Z</time>
      </trkpt>
      <trkpt lat="44.86489" lon="5.69023">
        <ele>655</ele>
        <time>2000-01-01T03:55:53.000Z</time>
      </trkpt>
      <trkpt lat="44.86497" lon="5.69032">
        <ele>653.2</ele>
        <time>2000-01-01T03:56:03.000Z</time>
      </trkpt>
      <trkpt lat="44.86515" lon="5.69041">
        <ele>651</ele>
        <time>2000-01-01T03:56:13.000Z</time>
      </trkpt>
      <trkpt lat="44.8654" lon="5.69051">
        <ele>650</ele>
        <time>2000-01-01T03:56:23.000Z</time>
      </trkpt>
      <trkpt lat="44.86539" lon="5.69053">
        <ele>647.9</ele>
        <time>2000-01-01T03:56:33.000Z</time>
      </trkpt>
      <trkpt lat="44.86535" lon="5.6906">
        <ele>648.1</ele>
        <time>2000-01-01T03:56:43.000Z</time>
      </trkpt>
      <trkpt lat="44.86523" lon="5.6908">
        <ele>650</ele>
        <time>2000-01-01T03:56:53.000Z</time>
      </trkpt>
      <trkpt lat="44.8652" lon="5.69086">
        <ele>649</ele>
        <time>2000-01-01T03:57:03.000Z</time>
      </trkpt>
      <trkpt lat="44.86515" lon="5.69098">
        <ele>649.3</ele>
        <time>2000-01-01T03:57:13.000Z</time>
      </trkpt>
      <trkpt lat="44.86508" lon="5.69116">
        <ele>650</ele>
        <time>2000-01-01T03:57:23.000Z</time>
      </trkpt>
      <trkpt lat="44.86504" lon="5.69126">
        <ele>649.9</ele>
        <time>2000-01-01T03:57:33.000Z</time>
      </trkpt>
      <trkpt lat="44.865" lon="5.69135">
        <ele>650.1</ele>
        <time>2000-01-01T03:57:43.000Z</time>
      </trkpt>
      <trkpt lat="44.86493" lon="5.69143">
        <ele>651</ele>
        <time>2000-01-01T03:57:53.000Z</time>
      </trkpt>
      <trkpt lat="44.86488" lon="5.69151">
        <ele>651.7</ele>
        <time>2000-01-01T03:58:03.000Z</time>
      </trkpt>
      <trkpt lat="44.86481" lon="5.69155">
        <ele>652.7</ele>
        <time>2000-01-01T03:58:13.000Z</time>
      </trkpt>
      <trkpt lat="44.86474" lon="5.6916">
        <ele>653</ele>
        <time>2000-01-01T03:58:23.000Z</time>
      </trkpt>
      <trkpt lat="44.86463" lon="5.69167">
        <ele>655</ele>
        <time>2000-01-01T03:58:33.000Z</time>
      </trkpt>
      <trkpt lat="44.86456" lon="5.69171">
        <ele>656</ele>
        <time>2000-01-01T03:58:43.000Z</time>
      </trkpt>
      <trkpt lat="44.86448" lon="5.6918">
        <ele>656.2</ele>
        <time>2000-01-01T03:58:53.000Z</time>
      </trkpt>
      <trkpt lat="44.86435" lon="5.69193">
        <ele>659</ele>
        <time>2000-01-01T03:59:03.000Z</time>
      </trkpt>
      <trkpt lat="44.86427" lon="5.69201">
        <ele>658.9</ele>
        <time>2000-01-01T03:59:13.000Z</time>
      </trkpt>
      <trkpt lat="44.86413" lon="5.69214">
        <ele>661</ele>
        <time>2000-01-01T03:59:23.000Z</time>
      </trkpt>
      <trkpt lat="44.86404" lon="5.6922">
        <ele>661.9</ele>
        <time>2000-01-01T03:59:33.000Z</time>
      </trkpt>
      <trkpt lat="44.86394" lon="5.69227">
        <ele>664</ele>
        <time>2000-01-01T03:59:43.000Z</time>
      </trkpt>
      <trkpt lat="44.86384" lon="5.69234">
        <ele>664.3</ele>
        <time>2000-01-01T03:59:53.000Z</time>
      </trkpt>
      <trkpt lat="44.86375" lon="5.69243">
        <ele>666</ele>
        <time>2000-01-01T04:00:03.000Z</time>
      </trkpt>
      <trkpt lat="44.86367" lon="5.69256">
        <ele>666.1</ele>
        <time>2000-01-01T04:00:13.000Z</time>
      </trkpt>
      <trkpt lat="44.8636" lon="5.69269">
        <ele>667</ele>
        <time>2000-01-01T04:00:23.000Z</time>
      </trkpt>
      <trkpt lat="44.86354" lon="5.69286">
        <ele>668.1</ele>
        <time>2000-01-01T04:00:33.000Z</time>
      </trkpt>
      <trkpt lat="44.8635" lon="5.69297">
        <ele>668</ele>
        <time>2000-01-01T04:00:43.000Z</time>
      </trkpt>
      <trkpt lat="44.86348" lon="5.69307">
        <ele>668.8</ele>
        <time>2000-01-01T04:00:53.000Z</time>
      </trkpt>
      <trkpt lat="44.86346" lon="5.69314">
        <ele>669</ele>
        <time>2000-01-01T04:01:03.000Z</time>
      </trkpt>
      <trkpt lat="44.86343" lon="5.69339">
        <ele>668</ele>
        <time>2000-01-01T04:01:13.000Z</time>
      </trkpt>
      <trkpt lat="44.86345" lon="5.69358">
        <ele>667.6</ele>
        <time>2000-01-01T04:01:23.000Z</time>
      </trkpt>
      <trkpt lat="44.86344" lon="5.69368">
        <ele>668</ele>
        <time>2000-01-01T04:01:33.000Z</time>
      </trkpt>
      <trkpt lat="44.86343" lon="5.69378">
        <ele>667.9</ele>
        <time>2000-01-01T04:01:43.000Z</time>
      </trkpt>
      <trkpt lat="44.86344" lon="5.69387">
        <ele>667.7</ele>
        <time>2000-01-01T04:01:53.000Z</time>
      </trkpt>
      <trkpt lat="44.86351" lon="5.694">
        <ele>665</ele>
        <time>2000-01-01T04:02:03.000Z</time>
      </trkpt>
      <trkpt lat="44.86362" lon="5.69411">
        <ele>663</ele>
        <time>2000-01-01T04:02:13.000Z</time>
      </trkpt>
      <trkpt lat="44.86368" lon="5.69413">
        <ele>663</ele>
        <time>2000-01-01T04:02:23.000Z</time>
      </trkpt>
      <trkpt lat="44.86368" lon="5.69425">
        <ele>661.2</ele>
        <time>2000-01-01T04:02:33.000Z</time>
      </trkpt>
      <trkpt lat="44.86365" lon="5.6944">
        <ele>663</ele>
        <time>2000-01-01T04:02:43.000Z</time>
      </trkpt>
      <trkpt lat="44.86358" lon="5.69457">
        <ele>662.2</ele>
        <time>2000-01-01T04:02:53.000Z</time>
      </trkpt>
      <trkpt lat="44.86351" lon="5.69468">
        <ele>663</ele>
        <time>2000-01-01T04:03:03.000Z</time>
      </trkpt>
      <trkpt lat="44.86342" lon="5.69481">
        <ele>664.7</ele>
        <time>2000-01-01T04:03:13.000Z</time>
      </trkpt>
      <trkpt lat="44.86335" lon="5.69486">
        <ele>667</ele>
        <time>2000-01-01T04:03:23.000Z</time>
      </trkpt>
      <trkpt lat="44.86325" lon="5.69492">
        <ele>668.1</ele>
        <time>2000-01-01T04:03:33.000Z</time>
      </trkpt>
      <trkpt lat="44.86317" lon="5.695">
        <ele>672</ele>
        <time>2000-01-01T04:03:43.000Z</time>
      </trkpt>
      <trkpt lat="44.86314" lon="5.69505">
        <ele>670</ele>
        <time>2000-01-01T04:03:53.000Z</time>
      </trkpt>
      <trkpt lat="44.8631" lon="5.69515">
        <ele>670.5</ele>
        <time>2000-01-01T04:04:03.000Z</time>
      </trkpt>
      <trkpt lat="44.86302" lon="5.69536">
        <ele>672</ele>
        <time>2000-01-01T04:04:13.000Z</time>
      </trkpt>
      <trkpt lat="44.86296" lon="5.69559">
        <ele>671.8</ele>
        <time>2000-01-01T04:04:23.000Z</time>
      </trkpt>
      <trkpt lat="44.86287" lon="5.69595">
        <ele>672</ele>
        <time>2000-01-01T04:04:33.000Z</time>
      </trkpt>
      <trkpt lat="44.86277" lon="5.69634">
        <ele>670</ele>
        <time>2000-01-01T04:04:43.000Z</time>
      </trkpt>
      <trkpt lat="44.86273" lon="5.69658">
        <ele>666.9</ele>
        <time>2000-01-01T04:04:53.000Z</time>
      </trkpt>
      <trkpt lat="44.86271" lon="5.69681">
        <ele>665</ele>
        <time>2000-01-01T04:05:03.000Z</time>
      </trkpt>
      <trkpt lat="44.8627" lon="5.69708">
        <ele>661.4</ele>
        <time>2000-01-01T04:05:13.000Z</time>
      </trkpt>
      <trkpt lat="44.8627" lon="5.69727">
        <ele>662</ele>
        <time>2000-01-01T04:05:23.000Z</time>
      </trkpt>
      <trkpt lat="44.86272" lon="5.69743">
        <ele>657.2</ele>
        <time>2000-01-01T04:05:33.000Z</time>
      </trkpt>
      <trkpt lat="44.86275" lon="5.69758">
        <ele>657</ele>
        <time>2000-01-01T04:05:43.000Z</time>
      </trkpt>
      <trkpt lat="44.8628" lon="5.69777">
        <ele>653.5</ele>
        <time>2000-01-01T04:05:53.000Z</time>
      </trkpt>
      <trkpt lat="44.86285" lon="5.69794">
        <ele>652</ele>
        <time>2000-01-01T04:06:03.000Z</time>
      </trkpt>
      <trkpt lat="44.86294" lon="5.69824">
        <ele>650</ele>
        <time>2000-01-01T04:06:13.000Z</time>
      </trkpt>
      <trkpt lat="44.86302" lon="5.69847">
        <ele>650.2</ele>
        <time>2000-01-01T04:06:23.000Z</time>
      </trkpt>
      <trkpt lat="44.86304" lon="5.69852">
        <ele>650</ele>
        <time>2000-01-01T04:06:33.000Z</time>
      </trkpt>
      <trkpt lat="44.86312" lon="5.69877">
        <ele>651</ele>
        <time>2000-01-01T04:06:43.000Z</time>
      </trkpt>
      <trkpt lat="44.86318" lon="5.69896">
        <ele>655.2</ele>
        <time>2000-01-01T04:06:53.000Z</time>
      </trkpt>
      <trkpt lat="44.86322" lon="5.69909">
        <ele>655</ele>
        <time>2000-01-01T04:07:03.000Z</time>
      </trkpt>
      <trkpt lat="44.86324" lon="5.69914">
        <ele>657.5</ele>
        <time>2000-01-01T04:07:13.000Z</time>
      </trkpt>
      <trkpt lat="44.86326" lon="5.69917">
        <ele>657.6</ele>
        <time>2000-01-01T04:07:23.000Z</time>
      </trkpt>
      <trkpt lat="44.86328" lon="5.69919">
        <ele>657.4</ele>
        <time>2000-01-01T04:07:33.000Z</time>
      </trkpt>
      <trkpt lat="44.86332" lon="5.6992">
        <ele>656.5</ele>
        <time>2000-01-01T04:07:43.000Z</time>
      </trkpt>
      <trkpt lat="44.86335" lon="5.69921">
        <ele>655.9</ele>
        <time>2000-01-01T04:07:53.000Z</time>
      </trkpt>
      <trkpt lat="44.8634" lon="5.69921">
        <ele>650</ele>
        <time>2000-01-01T04:08:03.000Z</time>
      </trkpt>
      <trkpt lat="44.86358" lon="5.69915">
        <ele>649.6</ele>
        <time>2000-01-01T04:08:13.000Z</time>
      </trkpt>
      <trkpt lat="44.86377" lon="5.69909">
        <ele>646</ele>
        <time>2000-01-01T04:08:23.000Z</time>
      </trkpt>
      <trkpt lat="44.86388" lon="5.69907">
        <ele>640.9</ele>
        <time>2000-01-01T04:08:33.000Z</time>
      </trkpt>
      <trkpt lat="44.86392" lon="5.69907">
        <ele>639.8</ele>
        <time>2000-01-01T04:08:43.000Z</time>
      </trkpt>
      <trkpt lat="44.86395" lon="5.69908">
        <ele>638.9</ele>
        <time>2000-01-01T04:08:53.000Z</time>
      </trkpt>
      <trkpt lat="44.86396" lon="5.69906">
        <ele>640</ele>
        <time>2000-01-01T04:09:03.000Z</time>
      </trkpt>
      <trkpt lat="44.8642" lon="5.69886">
        <ele>631</ele>
        <time>2000-01-01T04:09:13.000Z</time>
      </trkpt>
      <trkpt lat="44.86428" lon="5.69878">
        <ele>628.2</ele>
        <time>2000-01-01T04:09:23.000Z</time>
      </trkpt>
      <trkpt lat="44.86441" lon="5.69868">
        <ele>623</ele>
        <time>2000-01-01T04:09:33.000Z</time>
      </trkpt>
      <trkpt lat="44.86443" lon="5.69861">
        <ele>622.5</ele>
        <time>2000-01-01T04:09:43.000Z</time>
      </trkpt>
      <trkpt lat="44.86452" lon="5.69855">
        <ele>619.6</ele>
        <time>2000-01-01T04:09:53.000Z</time>
      </trkpt>
      <trkpt lat="44.86455" lon="5.69851">
        <ele>620</ele>
        <time>2000-01-01T04:10:03.000Z</time>
      </trkpt>
      <trkpt lat="44.8646" lon="5.69846">
        <ele>617</ele>
        <time>2000-01-01T04:10:13.000Z</time>
      </trkpt>
      <trkpt lat="44.86466" lon="5.69836">
        <ele>614.9</ele>
        <time>2000-01-01T04:10:23.000Z</time>
      </trkpt>
      <trkpt lat="44.8647" lon="5.69835">
        <ele>616</ele>
        <time>2000-01-01T04:10:33.000Z</time>
      </trkpt>
      <trkpt lat="44.86482" lon="5.69823">
        <ele>609.5</ele>
        <time>2000-01-01T04:10:43.000Z</time>
      </trkpt>
      <trkpt lat="44.86487" lon="5.69826">
        <ele>609</ele>
        <time>2000-01-01T04:10:53.000Z</time>
      </trkpt>
      <trkpt lat="44.86492" lon="5.69824">
        <ele>606.3</ele>
        <time>2000-01-01T04:11:03.000Z</time>
      </trkpt>
      <trkpt lat="44.8649" lon="5.6981">
        <ele>606.4</ele>
        <time>2000-01-01T04:11:13.000Z</time>
      </trkpt>
      <trkpt lat="44.86496" lon="5.69813">
        <ele>607</ele>
        <time>2000-01-01T04:11:23.000Z</time>
      </trkpt>
      <trkpt lat="44.86498" lon="5.69806">
        <ele>603.7</ele>
        <time>2000-01-01T04:11:33.000Z</time>
      </trkpt>
      <trkpt lat="44.86503" lon="5.69808">
        <ele>602.2</ele>
        <time>2000-01-01T04:11:43.000Z</time>
      </trkpt>
      <trkpt lat="44.86505" lon="5.69803">
        <ele>601.6</ele>
        <time>2000-01-01T04:11:53.000Z</time>
      </trkpt>
      <trkpt lat="44.86506" lon="5.69796">
        <ele>602</ele>
        <time>2000-01-01T04:12:03.000Z</time>
      </trkpt>
      <trkpt lat="44.8651" lon="5.69793">
        <ele>600.1</ele>
        <time>2000-01-01T04:12:13.000Z</time>
      </trkpt>
      <trkpt lat="44.86512" lon="5.69787">
        <ele>599.5</ele>
        <time>2000-01-01T04:12:23.000Z</time>
      </trkpt>
      <trkpt lat="44.86517" lon="5.69787">
        <ele>598.1</ele>
        <time>2000-01-01T04:12:33.000Z</time>
      </trkpt>
      <trkpt lat="44.86515" lon="5.69781">
        <ele>600</ele>
        <time>2000-01-01T04:12:43.000Z</time>
      </trkpt>
      <trkpt lat="44.86519" lon="5.6978">
        <ele>597.5</ele>
        <time>2000-01-01T04:12:53.000Z</time>
      </trkpt>
      <trkpt lat="44.86522" lon="5.69777">
        <ele>596.7</ele>
        <time>2000-01-01T04:13:03.000Z</time>
      </trkpt>
      <trkpt lat="44.86524" lon="5.69768">
        <ele>596.1</ele>
        <time>2000-01-01T04:13:13.000Z</time>
      </trkpt>
      <trkpt lat="44.86529" lon="5.69777">
        <ele>597</ele>
        <time>2000-01-01T04:13:23.000Z</time>
      </trkpt>
      <trkpt lat="44.86531" lon="5.6978">
        <ele>594.1</ele>
        <time>2000-01-01T04:13:33.000Z</time>
      </trkpt>
      <trkpt lat="44.86533" lon="5.69787">
        <ele>593.5</ele>
        <time>2000-01-01T04:13:43.000Z</time>
      </trkpt>
      <trkpt lat="44.86533" lon="5.69794">
        <ele>593.5</ele>
        <time>2000-01-01T04:13:53.000Z</time>
      </trkpt>
      <trkpt lat="44.8653" lon="5.69807">
        <ele>594</ele>
        <time>2000-01-01T04:14:03.000Z</time>
      </trkpt>
      <trkpt lat="44.8653" lon="5.69814">
        <ele>594.7</ele>
        <time>2000-01-01T04:14:13.000Z</time>
      </trkpt>
      <trkpt lat="44.86533" lon="5.69821">
        <ele>594.2</ele>
        <time>2000-01-01T04:14:23.000Z</time>
      </trkpt>
      <trkpt lat="44.86538" lon="5.6982">
        <ele>592.8</ele>
        <time>2000-01-01T04:14:33.000Z</time>
      </trkpt>
      <trkpt lat="44.86545" lon="5.69817">
        <ele>591</ele>
        <time>2000-01-01T04:14:43.000Z</time>
      </trkpt>
      <trkpt lat="44.86549" lon="5.69817">
        <ele>589.6</ele>
        <time>2000-01-01T04:14:53.000Z</time>
      </trkpt>
      <trkpt lat="44.86552" lon="5.69819">
        <ele>588.9</ele>
        <time>2000-01-01T04:15:03.000Z</time>
      </trkpt>
      <trkpt lat="44.86555" lon="5.69826">
        <ele>588.6</ele>
        <time>2000-01-01T04:15:13.000Z</time>
      </trkpt>
      <trkpt lat="44.86559" lon="5.69832">
        <ele>591</ele>
        <time>2000-01-01T04:15:23.000Z</time>
      </trkpt>
      <trkpt lat="44.86558" lon="5.69846">
        <ele>589.8</ele>
        <time>2000-01-01T04:15:33.000Z</time>
      </trkpt>
      <trkpt lat="44.8656" lon="5.69852">
        <ele>590</ele>
        <time>2000-01-01T04:15:43.000Z</time>
      </trkpt>
      <trkpt lat="44.86565" lon="5.69864">
        <ele>591</ele>
        <time>2000-01-01T04:15:53.000Z</time>
      </trkpt>
      <trkpt lat="44.8657" lon="5.69866">
        <ele>589.9</ele>
        <time>2000-01-01T04:16:03.000Z</time>
      </trkpt>
      <trkpt lat="44.86575" lon="5.69871">
        <ele>589.8</ele>
        <time>2000-01-01T04:16:13.000Z</time>
      </trkpt>
      <trkpt lat="44.86584" lon="5.69879">
        <ele>590</ele>
        <time>2000-01-01T04:16:23.000Z</time>
      </trkpt>
      <trkpt lat="44.86593" lon="5.69895">
        <ele>590.7</ele>
        <time>2000-01-01T04:16:33.000Z</time>
      </trkpt>
      <trkpt lat="44.86597" lon="5.69898">
        <ele>590</ele>
        <time>2000-01-01T04:16:43.000Z</time>
      </trkpt>
      <trkpt lat="44.86608" lon="5.69903">
        <ele>588.3</ele>
        <time>2000-01-01T04:16:53.000Z</time>
      </trkpt>
      <trkpt lat="44.86618" lon="5.6992">
        <ele>589</ele>
        <time>2000-01-01T04:17:03.000Z</time>
      </trkpt>
      <trkpt lat="44.8662" lon="5.69927">
        <ele>589.2</ele>
        <time>2000-01-01T04:17:13.000Z</time>
      </trkpt>
      <trkpt lat="44.86627" lon="5.69938">
        <ele>588.8</ele>
        <time>2000-01-01T04:17:23.000Z</time>
      </trkpt>
      <trkpt lat="44.86638" lon="5.69951">
        <ele>589</ele>
        <time>2000-01-01T04:17:33.000Z</time>
      </trkpt>
      <trkpt lat="44.8664" lon="5.69957">
        <ele>587.4</ele>
        <time>2000-01-01T04:17:43.000Z</time>
      </trkpt>
      <trkpt lat="44.8664" lon="5.69964">
        <ele>588.4</ele>
        <time>2000-01-01T04:17:53.000Z</time>
      </trkpt>
      <trkpt lat="44.86643" lon="5.6997">
        <ele>588.2</ele>
        <time>2000-01-01T04:18:03.000Z</time>
      </trkpt>
      <trkpt lat="44.86644" lon="5.69976">
        <ele>589</ele>
        <time>2000-01-01T04:18:13.000Z</time>
      </trkpt>
      <trkpt lat="44.86642" lon="5.7001">
        <ele>589</ele>
        <time>2000-01-01T04:18:23.000Z</time>
      </trkpt>
      <trkpt lat="44.86644" lon="5.70016">
        <ele>592.1</ele>
        <time>2000-01-01T04:18:33.000Z</time>
      </trkpt>
      <trkpt lat="44.8666" lon="5.70035">
        <ele>586</ele>
        <time>2000-01-01T04:18:43.000Z</time>
      </trkpt>
      <trkpt lat="44.86665" lon="5.70033">
        <ele>585.2</ele>
        <time>2000-01-01T04:18:53.000Z</time>
      </trkpt>
      <trkpt lat="44.86668" lon="5.70038">
        <ele>584.4</ele>
        <time>2000-01-01T04:19:03.000Z</time>
      </trkpt>
      <trkpt lat="44.86674" lon="5.70039">
        <ele>581.6</ele>
        <time>2000-01-01T04:19:13.000Z</time>
      </trkpt>
      <trkpt lat="44.86677" lon="5.70032">
        <ele>583</ele>
        <time>2000-01-01T04:19:23.000Z</time>
      </trkpt>
      <trkpt lat="44.86681" lon="5.7003">
        <ele>577.4</ele>
        <time>2000-01-01T04:19:33.000Z</time>
      </trkpt>
      <trkpt lat="44.8669" lon="5.70028">
        <ele>573.1</ele>
        <time>2000-01-01T04:19:43.000Z</time>
      </trkpt>
      <trkpt lat="44.86693" lon="5.70021">
        <ele>573</ele>
        <time>2000-01-01T04:19:53.000Z</time>
      </trkpt>
      <trkpt lat="44.86696" lon="5.70007">
        <ele>569.5</ele>
        <time>2000-01-01T04:20:03.000Z</time>
      </trkpt>
      <trkpt lat="44.86704" lon="5.70015">
        <ele>571</ele>
        <time>2000-01-01T04:20:13.000Z</time>
      </trkpt>
      <trkpt lat="44.86706" lon="5.70021">
        <ele>565</ele>
        <time>2000-01-01T04:20:23.000Z</time>
      </trkpt>
      <trkpt lat="44.86705" lon="5.70029">
        <ele>565.7</ele>
        <time>2000-01-01T04:20:33.000Z</time>
      </trkpt>
      <trkpt lat="44.86704" lon="5.70036">
        <ele>566.3</ele>
        <time>2000-01-01T04:20:43.000Z</time>
      </trkpt>
      <trkpt lat="44.86704" lon="5.70042">
        <ele>569</ele>
        <time>2000-01-01T04:20:53.000Z</time>
      </trkpt>
      <trkpt lat="44.86717" lon="5.70052">
        <ele>559.1</ele>
        <time>2000-01-01T04:21:03.000Z</time>
      </trkpt>
      <trkpt lat="44.86721" lon="5.70065">
        <ele>557</ele>
        <time>2000-01-01T04:21:13.000Z</time>
      </trkpt>
      <trkpt lat="44.86724" lon="5.70085">
        <ele>554.7</ele>
        <time>2000-01-01T04:21:23.000Z</time>
      </trkpt>
      <trkpt lat="44.86724" lon="5.70115">
        <ele>556</ele>
        <time>2000-01-01T04:21:33.000Z</time>
      </trkpt>
      <trkpt lat="44.86726" lon="5.7012">
        <ele>551.9</ele>
        <time>2000-01-01T04:21:43.000Z</time>
      </trkpt>
      <trkpt lat="44.86727" lon="5.70141">
        <ele>555</ele>
        <time>2000-01-01T04:21:53.000Z</time>
      </trkpt>
      <trkpt lat="44.86728" lon="5.70146">
        <ele>549.4</ele>
        <time>2000-01-01T04:22:03.000Z</time>
      </trkpt>
      <trkpt lat="44.86728" lon="5.70166">
        <ele>548.7</ele>
        <time>2000-01-01T04:22:13.000Z</time>
      </trkpt>
      <trkpt lat="44.86731" lon="5.70175">
        <ele>547</ele>
        <time>2000-01-01T04:22:23.000Z</time>
      </trkpt>
      <trkpt lat="44.86733" lon="5.70188">
        <ele>544.4</ele>
        <time>2000-01-01T04:22:33.000Z</time>
      </trkpt>
      <trkpt lat="44.86732" lon="5.70194">
        <ele>545</ele>
        <time>2000-01-01T04:22:43.000Z</time>
      </trkpt>
      <trkpt lat="44.86735" lon="5.70203">
        <ele>547</ele>
        <time>2000-01-01T04:22:53.000Z</time>
      </trkpt>
      <trkpt lat="44.86739" lon="5.70222">
        <ele>539.5</ele>
        <time>2000-01-01T04:23:03.000Z</time>
      </trkpt>
      <trkpt lat="44.86742" lon="5.70227">
        <ele>537.9</ele>
        <time>2000-01-01T04:23:13.000Z</time>
      </trkpt>
      <trkpt lat="44.86745" lon="5.70239">
        <ele>538</ele>
        <time>2000-01-01T04:23:23.000Z</time>
      </trkpt>
      <trkpt lat="44.86751" lon="5.7025">
        <ele>534.4</ele>
        <time>2000-01-01T04:23:33.000Z</time>
      </trkpt>
      <trkpt lat="44.86765" lon="5.7026">
        <ele>531</ele>
        <time>2000-01-01T04:23:43.000Z</time>
      </trkpt>
      <trkpt lat="44.86769" lon="5.70263">
        <ele>525.9</ele>
        <time>2000-01-01T04:23:53.000Z</time>
      </trkpt>
      <trkpt lat="44.86774" lon="5.70269">
        <ele>524.2</ele>
        <time>2000-01-01T04:24:03.000Z</time>
      </trkpt>
      <trkpt lat="44.86777" lon="5.70277">
        <ele>524.3</ele>
        <time>2000-01-01T04:24:13.000Z</time>
      </trkpt>
      <trkpt lat="44.86779" lon="5.70281">
        <ele>531</ele>
        <time>2000-01-01T04:24:23.000Z</time>
      </trkpt>
      <trkpt lat="44.86779" lon="5.70288">
        <ele>525.2</ele>
        <time>2000-01-01T04:24:33.000Z</time>
      </trkpt>
      <trkpt lat="44.86777" lon="5.70295">
        <ele>527.5</ele>
        <time>2000-01-01T04:24:43.000Z</time>
      </trkpt>
      <trkpt lat="44.86775" lon="5.70311">
        <ele>526</ele>
        <time>2000-01-01T04:24:53.000Z</time>
      </trkpt>
      <trkpt lat="44.86776" lon="5.70318">
        <ele>532.1</ele>
        <time>2000-01-01T04:25:03.000Z</time>
      </trkpt>
      <trkpt lat="44.86801" lon="5.70338">
        <ele>521</ele>
        <time>2000-01-01T04:25:13.000Z</time>
      </trkpt>
      <trkpt lat="44.86805" lon="5.70345">
        <ele>521</ele>
        <time>2000-01-01T04:25:23.000Z</time>
      </trkpt>
      <trkpt lat="44.86817" lon="5.70353">
        <ele>519</ele>
        <time>2000-01-01T04:25:33.000Z</time>
      </trkpt>
      <trkpt lat="44.8682" lon="5.70356">
        <ele>514.9</ele>
        <time>2000-01-01T04:25:43.000Z</time>
      </trkpt>
      <trkpt lat="44.86821" lon="5.70361">
        <ele>515.2</ele>
        <time>2000-01-01T04:25:53.000Z</time>
      </trkpt>
      <trkpt lat="44.86827" lon="5.70365">
        <ele>512.5</ele>
        <time>2000-01-01T04:26:03.000Z</time>
      </trkpt>
      <trkpt lat="44.86829" lon="5.7037">
        <ele>511.8</ele>
        <time>2000-01-01T04:26:13.000Z</time>
      </trkpt>
      <trkpt lat="44.86831" lon="5.70378">
        <ele>516</ele>
        <time>2000-01-01T04:26:23.000Z</time>
      </trkpt>
      <trkpt lat="44.86834" lon="5.70384">
        <ele>510.3</ele>
        <time>2000-01-01T04:26:33.000Z</time>
      </trkpt>
      <trkpt lat="44.86833" lon="5.70392">
        <ele>511.3</ele>
        <time>2000-01-01T04:26:43.000Z</time>
      </trkpt>
      <trkpt lat="44.86837" lon="5.70415">
        <ele>513</ele>
        <time>2000-01-01T04:26:53.000Z</time>
      </trkpt>
      <trkpt lat="44.86835" lon="5.70451">
        <ele>510</ele>
        <time>2000-01-01T04:27:03.000Z</time>
      </trkpt>
      <trkpt lat="44.86836" lon="5.70459">
        <ele>507.4</ele>
        <time>2000-01-01T04:27:13.000Z</time>
      </trkpt>
      <trkpt lat="44.86838" lon="5.70466">
        <ele>506</ele>
        <time>2000-01-01T04:27:23.000Z</time>
      </trkpt>
      <trkpt lat="44.8684" lon="5.70474">
        <ele>504.4</ele>
        <time>2000-01-01T04:27:33.000Z</time>
      </trkpt>
      <trkpt lat="44.8684" lon="5.70486">
        <ele>503</ele>
        <time>2000-01-01T04:27:43.000Z</time>
      </trkpt>
      <trkpt lat="44.86842" lon="5.70494">
        <ele>501.2</ele>
        <time>2000-01-01T04:27:53.000Z</time>
      </trkpt>
      <trkpt lat="44.86845" lon="5.70507">
        <ele>499</ele>
        <time>2000-01-01T04:28:03.000Z</time>
      </trkpt>
      <trkpt lat="44.86848" lon="5.70513">
        <ele>500</ele>
        <time>2000-01-01T04:28:13.000Z</time>
      </trkpt>
      <trkpt lat="44.86854" lon="5.70516">
        <ele>495.5</ele>
        <time>2000-01-01T04:28:23.000Z</time>
      </trkpt>
      <trkpt lat="44.8686" lon="5.70525">
        <ele>492.7</ele>
        <time>2000-01-01T04:28:33.000Z</time>
      </trkpt>
      <trkpt lat="44.86862" lon="5.70533">
        <ele>496</ele>
        <time>2000-01-01T04:28:43.000Z</time>
      </trkpt>
      <trkpt lat="44.86861" lon="5.70547">
        <ele>489.3</ele>
        <time>2000-01-01T04:28:53.000Z</time>
      </trkpt>
      <trkpt lat="44.86859" lon="5.70554">
        <ele>489.1</ele>
        <time>2000-01-01T04:29:03.000Z</time>
      </trkpt>
      <trkpt lat="44.86856" lon="5.70558">
        <ele>489.8</ele>
        <time>2000-01-01T04:29:13.000Z</time>
      </trkpt>
      <trkpt lat="44.86852" lon="5.7056">
        <ele>497</ele>
        <time>2000-01-01T04:29:23.000Z</time>
      </trkpt>
      <trkpt lat="44.86848" lon="5.70556">
        <ele>493.2</ele>
        <time>2000-01-01T04:29:33.000Z</time>
      </trkpt>
      <trkpt lat="44.86843" lon="5.70555">
        <ele>495.2</ele>
        <time>2000-01-01T04:29:43.000Z</time>
      </trkpt>
      <trkpt lat="44.86837" lon="5.70558">
        <ele>497.4</ele>
        <time>2000-01-01T04:29:53.000Z</time>
      </trkpt>
      <trkpt lat="44.86834" lon="5.70572">
        <ele>498</ele>
        <time>2000-01-01T04:30:03.000Z</time>
      </trkpt>
      <trkpt lat="44.86834" lon="5.70579">
        <ele>497.9</ele>
        <time>2000-01-01T04:30:13.000Z</time>
      </trkpt>
      <trkpt lat="44.86826" lon="5.70587">
        <ele>502</ele>
        <time>2000-01-01T04:30:23.000Z</time>
      </trkpt>
      <trkpt lat="44.86822" lon="5.70592">
        <ele>505</ele>
        <time>2000-01-01T04:30:33.000Z</time>
      </trkpt>
      <trkpt lat="44.86819" lon="5.70598">
        <ele>505.7</ele>
        <time>2000-01-01T04:30:43.000Z</time>
      </trkpt>
      <trkpt lat="44.86805" lon="5.70641">
        <ele>516</ele>
        <time>2000-01-01T04:30:53.000Z</time>
      </trkpt>
      <trkpt lat="44.86798" lon="5.70668">
        <ele>526</ele>
        <time>2000-01-01T04:31:03.000Z</time>
      </trkpt>
      <trkpt lat="44.86791" lon="5.70706">
        <ele>528</ele>
        <time>2000-01-01T04:31:13.000Z</time>
      </trkpt>
      <trkpt lat="44.86789" lon="5.70719">
        <ele>528.6</ele>
        <time>2000-01-01T04:31:23.000Z</time>
      </trkpt>
      <trkpt lat="44.8679" lon="5.70727">
        <ele>528</ele>
        <time>2000-01-01T04:31:33.000Z</time>
      </trkpt>
      <trkpt lat="44.86788" lon="5.70739">
        <ele>531</ele>
        <time>2000-01-01T04:31:43.000Z</time>
      </trkpt>
      <trkpt lat="44.86789" lon="5.70768">
        <ele>526</ele>
        <time>2000-01-01T04:31:53.000Z</time>
      </trkpt>
      <trkpt lat="44.86788" lon="5.70774">
        <ele>526.4</ele>
        <time>2000-01-01T04:32:03.000Z</time>
      </trkpt>
      <trkpt lat="44.86785" lon="5.7078">
        <ele>527.6</ele>
        <time>2000-01-01T04:32:13.000Z</time>
      </trkpt>
      <trkpt lat="44.86795" lon="5.70797">
        <ele>522</ele>
        <time>2000-01-01T04:32:23.000Z</time>
      </trkpt>
      <trkpt lat="44.86828" lon="5.70824">
        <ele>495</ele>
        <time>2000-01-01T04:32:33.000Z</time>
      </trkpt>
      <trkpt lat="44.86861" lon="5.70852">
        <ele>484</ele>
        <time>2000-01-01T04:32:43.000Z</time>
      </trkpt>
      <trkpt lat="44.86894" lon="5.70879">
        <ele>484</ele>
        <time>2000-01-01T04:32:53.000Z</time>
      </trkpt>
      <trkpt lat="44.86927" lon="5.70907">
        <ele>496</ele>
        <time>2000-01-01T04:33:03.000Z</time>
      </trkpt>
      <trkpt lat="44.86962" lon="5.70936">
        <ele>532</ele>
        <time>2000-01-01T04:33:13.000Z</time>
      </trkpt>
      <trkpt lat="44.86967" lon="5.7094">
        <ele>540.1</ele>
        <time>2000-01-01T04:33:23.000Z</time>
      </trkpt>
      <trkpt lat="44.86971" lon="5.70944">
        <ele>544.2</ele>
        <time>2000-01-01T04:33:33.000Z</time>
      </trkpt>
      <trkpt lat="44.86974" lon="5.70947">
        <ele>546.4</ele>
        <time>2000-01-01T04:33:43.000Z</time>
      </trkpt>
      <trkpt lat="44.8698" lon="5.70949">
        <ele>540</ele>
        <time>2000-01-01T04:33:53.000Z</time>
      </trkpt>
      <trkpt lat="44.86984" lon="5.7095">
        <ele>548</ele>
        <time>2000-01-01T04:34:03.000Z</time>
      </trkpt>
      <trkpt lat="44.86989" lon="5.70953">
        <ele>549.6</ele>
        <time>2000-01-01T04:34:13.000Z</time>
      </trkpt>
      <trkpt lat="44.86992" lon="5.70955">
        <ele>550.7</ele>
        <time>2000-01-01T04:34:23.000Z</time>
      </trkpt>
      <trkpt lat="44.86994" lon="5.70954">
        <ele>550.2</ele>
        <time>2000-01-01T04:34:33.000Z</time>
      </trkpt>
      <trkpt lat="44.86995" lon="5.70955">
        <ele>550.7</ele>
        <time>2000-01-01T04:34:43.000Z</time>
      </trkpt>
      <trkpt lat="44.86996" lon="5.70955">
        <ele>550.7</ele>
        <time>2000-01-01T04:34:53.000Z</time>
      </trkpt>
      <trkpt lat="44.86997" lon="5.70956">
        <ele>551.2</ele>
        <time>2000-01-01T04:35:03.000Z</time>
      </trkpt>
      <trkpt lat="44.86998" lon="5.70956">
        <ele>550</ele>
        <time>2000-01-01T04:35:13.000Z</time>
      </trkpt>
      <trkpt lat="44.86999" lon="5.70956">
        <ele>551.2</ele>
        <time>2000-01-01T04:35:23.000Z</time>
      </trkpt>
      <trkpt lat="44.87" lon="5.70956">
        <ele>551.2</ele>
        <time>2000-01-01T04:35:33.000Z</time>
      </trkpt>
      <trkpt lat="44.87001" lon="5.70956">
        <ele>551.5</ele>
        <time>2000-01-01T04:35:43.000Z</time>
      </trkpt>
      <trkpt lat="44.87002" lon="5.70957">
        <ele>552.3</ele>
        <time>2000-01-01T04:35:53.000Z</time>
      </trkpt>
      <trkpt lat="44.87004" lon="5.70958">
        <ele>553.3</ele>
        <time>2000-01-01T04:36:03.000Z</time>
      </trkpt>
      <trkpt lat="44.87003" lon="5.7096">
        <ele>554.1</ele>
        <time>2000-01-01T04:36:13.000Z</time>
      </trkpt>
      <trkpt lat="44.87003" lon="5.70961">
        <ele>554.6</ele>
        <time>2000-01-01T04:36:23.000Z</time>
      </trkpt>
      <trkpt lat="44.87001" lon="5.70961">
        <ele>554.2</ele>
        <time>2000-01-01T04:36:33.000Z</time>
      </trkpt>
      <trkpt lat="44.87" lon="5.70965">
        <ele>556.1</ele>
        <time>2000-01-01T04:36:43.000Z</time>
      </trkpt>
      <trkpt lat="44.86999" lon="5.70966">
        <ele>556.6</ele>
        <time>2000-01-01T04:36:53.000Z</time>
      </trkpt>
      <trkpt lat="44.86999" lon="5.70965">
        <ele>556.1</ele>
        <time>2000-01-01T04:37:03.000Z</time>
      </trkpt>
      <trkpt lat="44.86999" lon="5.70961">
        <ele>553.9</ele>
        <time>2000-01-01T04:37:13.000Z</time>
      </trkpt>
      <trkpt lat="44.86998" lon="5.7096">
        <ele>553.4</ele>
        <time>2000-01-01T04:37:23.000Z</time>
      </trkpt>
      <trkpt lat="44.86997" lon="5.70961">
        <ele>554</ele>
        <time>2000-01-01T04:37:33.000Z</time>
      </trkpt>
      <trkpt lat="44.86995" lon="5.70961">
        <ele>553.9</ele>
        <time>2000-01-01T04:37:43.000Z</time>
      </trkpt>
      <trkpt lat="44.86986" lon="5.70963">
        <ele>555</ele>
        <time>2000-01-01T04:37:53.000Z</time>
      </trkpt>
      <trkpt lat="44.86978" lon="5.70963">
        <ele>555</ele>
        <time>2000-01-01T04:38:03.000Z</time>
      </trkpt>
      <trkpt lat="44.86977" lon="5.70963">
        <ele>554</ele>
        <time>2000-01-01T04:38:13.000Z</time>
      </trkpt>
      <trkpt lat="44.86976" lon="5.70963">
        <ele>555</ele>
        <time>2000-01-01T04:38:23.000Z</time>
      </trkpt>
      <trkpt lat="44.86975" lon="5.70963">
        <ele>555</ele>
        <time>2000-01-01T04:38:33.000Z</time>
      </trkpt>
      <trkpt lat="44.86965" lon="5.70964">
        <ele>552.4</ele>
        <time>2000-01-01T04:38:43.000Z</time>
      </trkpt>
      <trkpt lat="44.86962" lon="5.70965">
        <ele>551.7</ele>
        <time>2000-01-01T04:38:53.000Z</time>
      </trkpt>
      <trkpt lat="44.86961" lon="5.70966">
        <ele>551.8</ele>
        <time>2000-01-01T04:39:03.000Z</time>
      </trkpt>
      <trkpt lat="44.86959" lon="5.70967">
        <ele>551.5</ele>
        <time>2000-01-01T04:39:13.000Z</time>
      </trkpt>
      <trkpt lat="44.86957" lon="5.70968">
        <ele>555</ele>
        <time>2000-01-01T04:39:23.000Z</time>
      </trkpt>
      <trkpt lat="44.86955" lon="5.70969">
        <ele>550.8</ele>
        <time>2000-01-01T04:39:33.000Z</time>
      </trkpt>
      <trkpt lat="44.86953" lon="5.7097">
        <ele>550.5</ele>
        <time>2000-01-01T04:39:43.000Z</time>
      </trkpt>
      <trkpt lat="44.8695" lon="5.70972">
        <ele>550.3</ele>
        <time>2000-01-01T04:39:53.000Z</time>
      </trkpt>
      <trkpt lat="44.8695" lon="5.70972">
        <ele>550.3</ele>
        <time>2000-01-01T04:40:03.000Z</time>
      </trkpt>
      <trkpt lat="44.8695" lon="5.70973">
        <ele>550.6</ele>
        <time>2000-01-01T04:40:13.000Z</time>
      </trkpt>
      <trkpt lat="44.8695" lon="5.70974">
        <ele>550.9</ele>
        <time>2000-01-01T04:40:23.000Z</time>
      </trkpt>
      <trkpt lat="44.8695" lon="5.70974">
        <ele>550.9</ele>
        <time>2000-01-01T04:40:33.000Z</time>
      </trkpt>
      <trkpt lat="44.86951" lon="5.70975">
        <ele>551.6</ele>
        <time>2000-01-01T04:40:43.000Z</time>
      </trkpt>
      <trkpt lat="44.86952" lon="5.70975">
        <ele>552.1</ele>
        <time>2000-01-01T04:40:53.000Z</time>
      </trkpt>
      <trkpt lat="44.86953" lon="5.70976">
        <ele>552.8</ele>
        <time>2000-01-01T04:41:03.000Z</time>
      </trkpt>
      <trkpt lat="44.86958" lon="5.70975">
        <ele>554.7</ele>
        <time>2000-01-01T04:41:13.000Z</time>
      </trkpt>
      <trkpt lat="44.86959" lon="5.70974">
        <ele>554.8</ele>
        <time>2000-01-01T04:41:23.000Z</time>
      </trkpt>
      <trkpt lat="44.8696" lon="5.70974">
        <ele>556</ele>
        <time>2000-01-01T04:41:33.000Z</time>
      </trkpt>
      <trkpt lat="44.86961" lon="5.70974">
        <ele>555.7</ele>
        <time>2000-01-01T04:41:43.000Z</time>
      </trkpt>
      <trkpt lat="44.86963" lon="5.70975">
        <ele>556.8</ele>
        <time>2000-01-01T04:41:53.000Z</time>
      </trkpt>
      <trkpt lat="44.86964" lon="5.70975">
        <ele>557.2</ele>
        <time>2000-01-01T04:42:03.000Z</time>
      </trkpt>
      <trkpt lat="44.86965" lon="5.70975">
        <ele>557.7</ele>
        <time>2000-01-01T04:42:13.000Z</time>
      </trkpt>
      <trkpt lat="44.86966" lon="5.70976">
        <ele>558.4</ele>
        <time>2000-01-01T04:42:23.000Z</time>
      </trkpt>
      <trkpt lat="44.86965" lon="5.70977">
        <ele>558.3</ele>
        <time>2000-01-01T04:42:33.000Z</time>
      </trkpt>
      <trkpt lat="44.86964" lon="5.70978">
        <ele>558.1</ele>
        <time>2000-01-01T04:42:43.000Z</time>
      </trkpt>
      <trkpt lat="44.8696" lon="5.70981">
        <ele>557.2</ele>
        <time>2000-01-01T04:42:53.000Z</time>
      </trkpt>
      <trkpt lat="44.86958" lon="5.70982">
        <ele>556.7</ele>
        <time>2000-01-01T04:43:03.000Z</time>
      </trkpt>
      <trkpt lat="44.86958" lon="5.70984">
        <ele>557.2</ele>
        <time>2000-01-01T04:43:13.000Z</time>
      </trkpt>
      <trkpt lat="44.86958" lon="5.70985">
        <ele>557.5</ele>
        <time>2000-01-01T04:43:23.000Z</time>
      </trkpt>
      <trkpt lat="44.86957" lon="5.70986">
        <ele>557.4</ele>
        <time>2000-01-01T04:43:33.000Z</time>
      </trkpt>
      <trkpt lat="44.86957" lon="5.70987">
        <ele>557.7</ele>
        <time>2000-01-01T04:43:43.000Z</time>
      </trkpt>
      <trkpt lat="44.86956" lon="5.70988">
        <ele>556</ele>
        <time>2000-01-01T04:43:53.000Z</time>
      </trkpt>
      <trkpt lat="44.86956" lon="5.70989">
        <ele>557.8</ele>
        <time>2000-01-01T04:44:03.000Z</time>
      </trkpt>
      <trkpt lat="44.86957" lon="5.7099">
        <ele>558.5</ele>
        <time>2000-01-01T04:44:13.000Z</time>
      </trkpt>
      <trkpt lat="44.86958" lon="5.70989">
        <ele>558.7</ele>
        <time>2000-01-01T04:44:23.000Z</time>
      </trkpt>
      <trkpt lat="44.86961" lon="5.70985">
        <ele>558.8</ele>
        <time>2000-01-01T04:44:33.000Z</time>
      </trkpt>
      <trkpt lat="44.8696" lon="5.70991">
        <ele>560.1</ele>
        <time>2000-01-01T04:44:43.000Z</time>
      </trkpt>
      <trkpt lat="44.86959" lon="5.70992">
        <ele>560</ele>
        <time>2000-01-01T04:44:53.000Z</time>
      </trkpt>
      <trkpt lat="44.86957" lon="5.70995">
        <ele>560</ele>
        <time>2000-01-01T04:45:03.000Z</time>
      </trkpt>
      <trkpt lat="44.86956" lon="5.70996">
        <ele>559.8</ele>
        <time>2000-01-01T04:45:13.000Z</time>
      </trkpt>
      <trkpt lat="44.86956" lon="5.70996">
        <ele>559.8</ele>
        <time>2000-01-01T04:45:23.000Z</time>
      </trkpt>
      <trkpt lat="44.86952" lon="5.71">
        <ele>559</ele>
        <time>2000-01-01T04:45:33.000Z</time>
      </trkpt>
      <trkpt lat="44.86952" lon="5.71001">
        <ele>559.4</ele>
        <time>2000-01-01T04:45:43.000Z</time>
      </trkpt>
      <trkpt lat="44.86953" lon="5.71003">
        <ele>560.3</ele>
        <time>2000-01-01T04:45:53.000Z</time>
      </trkpt>
      <trkpt lat="44.86954" lon="5.71003">
        <ele>560.7</ele>
        <time>2000-01-01T04:46:03.000Z</time>
      </trkpt>
      <trkpt lat="44.86957" lon="5.71002">
        <ele>561.9</ele>
        <time>2000-01-01T04:46:13.000Z</time>
      </trkpt>
      <trkpt lat="44.86962" lon="5.71">
        <ele>563.6</ele>
        <time>2000-01-01T04:46:23.000Z</time>
      </trkpt>
      <trkpt lat="44.86963" lon="5.71001">
        <ele>564.3</ele>
        <time>2000-01-01T04:46:33.000Z</time>
      </trkpt>
      <trkpt lat="44.86963" lon="5.71002">
        <ele>564.6</ele>
        <time>2000-01-01T04:46:43.000Z</time>
      </trkpt>
      <trkpt lat="44.86962" lon="5.71004">
        <ele>564.7</ele>
        <time>2000-01-01T04:46:53.000Z</time>
      </trkpt>
      <trkpt lat="44.86958" lon="5.7101">
        <ele>561</ele>
        <time>2000-01-01T04:47:03.000Z</time>
      </trkpt>
      <trkpt lat="44.86958" lon="5.71011">
        <ele>564.4</ele>
        <time>2000-01-01T04:47:13.000Z</time>
      </trkpt>
      <trkpt lat="44.86958" lon="5.71013">
        <ele>564.9</ele>
        <time>2000-01-01T04:47:23.000Z</time>
      </trkpt>
      <trkpt lat="44.8696" lon="5.71019">
        <ele>567.5</ele>
        <time>2000-01-01T04:47:33.000Z</time>
      </trkpt>
      <trkpt lat="44.86962" lon="5.71025">
        <ele>570.3</ele>
        <time>2000-01-01T04:47:43.000Z</time>
      </trkpt>
      <trkpt lat="44.86962" lon="5.71031">
        <ele>571.7</ele>
        <time>2000-01-01T04:47:53.000Z</time>
      </trkpt>
      <trkpt lat="44.86962" lon="5.71037">
        <ele>572</ele>
        <time>2000-01-01T04:48:03.000Z</time>
      </trkpt>
      <trkpt lat="44.86961" lon="5.71042">
        <ele>573.3</ele>
        <time>2000-01-01T04:48:13.000Z</time>
      </trkpt>
      <trkpt lat="44.86958" lon="5.71058">
        <ele>574.5</ele>
        <time>2000-01-01T04:48:23.000Z</time>
      </trkpt>
      <trkpt lat="44.86957" lon="5.71063">
        <ele>572</ele>
        <time>2000-01-01T04:48:33.000Z</time>
      </trkpt>
      <trkpt lat="44.86958" lon="5.71069">
        <ele>575.5</ele>
        <time>2000-01-01T04:48:43.000Z</time>
      </trkpt>
      <trkpt lat="44.8696" lon="5.7107">
        <ele>576.8</ele>
        <time>2000-01-01T04:48:53.000Z</time>
      </trkpt>
      <trkpt lat="44.86962" lon="5.71068">
        <ele>577.8</ele>
        <time>2000-01-01T04:49:03.000Z</time>
      </trkpt>
      <trkpt lat="44.86963" lon="5.71062">
        <ele>577.9</ele>
        <time>2000-01-01T04:49:13.000Z</time>
      </trkpt>
      <trkpt lat="44.86965" lon="5.71054">
        <ele>578.3</ele>
        <time>2000-01-01T04:49:23.000Z</time>
      </trkpt>
      <trkpt lat="44.86969" lon="5.71047">
        <ele>573</ele>
        <time>2000-01-01T04:49:33.000Z</time>
      </trkpt>
      <trkpt lat="44.86974" lon="5.71044">
        <ele>581.2</ele>
        <time>2000-01-01T04:49:43.000Z</time>
      </trkpt>
      <trkpt lat="44.8698" lon="5.71041">
        <ele>581.6</ele>
        <time>2000-01-01T04:49:53.000Z</time>
      </trkpt>
      <trkpt lat="44.86986" lon="5.71043">
        <ele>583</ele>
        <time>2000-01-01T04:50:03.000Z</time>
      </trkpt>
      <trkpt lat="44.86995" lon="5.71051">
        <ele>586</ele>
        <time>2000-01-01T04:50:13.000Z</time>
      </trkpt>
      <trkpt lat="44.87007" lon="5.7106">
        <ele>588</ele>
        <time>2000-01-01T04:50:23.000Z</time>
      </trkpt>
      <trkpt lat="44.87013" lon="5.71066">
        <ele>588</ele>
        <time>2000-01-01T04:50:33.000Z</time>
      </trkpt>
      <trkpt lat="44.87016" lon="5.71074">
        <ele>588.9</ele>
        <time>2000-01-01T04:50:43.000Z</time>
      </trkpt>
      <trkpt lat="44.87021" lon="5.71076">
        <ele>589.1</ele>
        <time>2000-01-01T04:50:53.000Z</time>
      </trkpt>
      <trkpt lat="44.87042" lon="5.71089">
        <ele>590</ele>
        <time>2000-01-01T04:51:03.000Z</time>
      </trkpt>
      <trkpt lat="44.87087" lon="5.71113">
        <ele>593</ele>
        <time>2000-01-01T04:51:13.000Z</time>
      </trkpt>
      <trkpt lat="44.87109" lon="5.71124">
        <ele>596</ele>
        <time>2000-01-01T04:51:23.000Z</time>
      </trkpt>
      <trkpt lat="44.87116" lon="5.71127">
        <ele>598.8</ele>
        <time>2000-01-01T04:51:33.000Z</time>
      </trkpt>
      <trkpt lat="44.87127" lon="5.71135">
        <ele>599</ele>
        <time>2000-01-01T04:51:43.000Z</time>
      </trkpt>
      <trkpt lat="44.87144" lon="5.71152">
        <ele>603</ele>
        <time>2000-01-01T04:51:53.000Z</time>
      </trkpt>
      <trkpt lat="44.87165" lon="5.71177">
        <ele>608</ele>
        <time>2000-01-01T04:52:03.000Z</time>
      </trkpt>
      <trkpt lat="44.87171" lon="5.71183">
        <ele>610.2</ele>
        <time>2000-01-01T04:52:13.000Z</time>
      </trkpt>
      <trkpt lat="44.87178" lon="5.71182">
        <ele>610.7</ele>
        <time>2000-01-01T04:52:23.000Z</time>
      </trkpt>
      <trkpt lat="44.87206" lon="5.71167">
        <ele>609</ele>
        <time>2000-01-01T04:52:33.000Z</time>
      </trkpt>
      <trkpt lat="44.87233" lon="5.7115">
        <ele>613</ele>
        <time>2000-01-01T04:52:43.000Z</time>
      </trkpt>
      <trkpt lat="44.8724" lon="5.71149">
        <ele>614.9</ele>
        <time>2000-01-01T04:52:53.000Z</time>
      </trkpt>
      <trkpt lat="44.87242" lon="5.7115">
        <ele>615.4</ele>
        <time>2000-01-01T04:53:03.000Z</time>
      </trkpt>
      <trkpt lat="44.87258" lon="5.71173">
        <ele>618</ele>
        <time>2000-01-01T04:53:13.000Z</time>
      </trkpt>
      <trkpt lat="44.87282" lon="5.71215">
        <ele>626</ele>
        <time>2000-01-01T04:53:23.000Z</time>
      </trkpt>
      <trkpt lat="44.87297" lon="5.71251">
        <ele>631</ele>
        <time>2000-01-01T04:53:33.000Z</time>
      </trkpt>
      <trkpt lat="44.87316" lon="5.71299">
        <ele>639</ele>
        <time>2000-01-01T04:53:43.000Z</time>
      </trkpt>
      <trkpt lat="44.87326" lon="5.71332">
        <ele>645</ele>
        <time>2000-01-01T04:53:53.000Z</time>
      </trkpt>
      <trkpt lat="44.8733" lon="5.7136">
        <ele>649</ele>
        <time>2000-01-01T04:54:03.000Z</time>
      </trkpt>
      <trkpt lat="44.87322" lon="5.7139">
        <ele>649</ele>
        <time>2000-01-01T04:54:13.000Z</time>
      </trkpt>
      <trkpt lat="44.87319" lon="5.71406">
        <ele>649.7</ele>
        <time>2000-01-01T04:54:23.000Z</time>
      </trkpt>
      <trkpt lat="44.87317" lon="5.71429">
        <ele>649</ele>
        <time>2000-01-01T04:54:33.000Z</time>
      </trkpt>
      <trkpt lat="44.87318" lon="5.71456">
        <ele>649</ele>
        <time>2000-01-01T04:54:43.000Z</time>
      </trkpt>
      <trkpt lat="44.87322" lon="5.7149">
        <ele>650</ele>
        <time>2000-01-01T04:54:53.000Z</time>
      </trkpt>
      <trkpt lat="44.87329" lon="5.71524">
        <ele>650</ele>
        <time>2000-01-01T04:55:03.000Z</time>
      </trkpt>
      <trkpt lat="44.87338" lon="5.71555">
        <ele>651</ele>
        <time>2000-01-01T04:55:13.000Z</time>
      </trkpt>
      <trkpt lat="44.87343" lon="5.71571">
        <ele>654.1</ele>
        <time>2000-01-01T04:55:23.000Z</time>
      </trkpt>
      <trkpt lat="44.87336" lon="5.71585">
        <ele>650</ele>
        <time>2000-01-01T04:55:33.000Z</time>
      </trkpt>
      <trkpt lat="44.87328" lon="5.71609">
        <ele>650</ele>
        <time>2000-01-01T04:55:43.000Z</time>
      </trkpt>
      <trkpt lat="44.87321" lon="5.71626">
        <ele>652.1</ele>
        <time>2000-01-01T04:55:53.000Z</time>
      </trkpt>
      <trkpt lat="44.87311" lon="5.71655">
        <ele>651</ele>
        <time>2000-01-01T04:56:03.000Z</time>
      </trkpt>
      <trkpt lat="44.87305" lon="5.71675">
        <ele>652.5</ele>
        <time>2000-01-01T04:56:13.000Z</time>
      </trkpt>
      <trkpt lat="44.87304" lon="5.71681">
        <ele>651</ele>
        <time>2000-01-01T04:56:23.000Z</time>
      </trkpt>
      <trkpt lat="44.87302" lon="5.71688">
        <ele>652.9</ele>
        <time>2000-01-01T04:56:33.000Z</time>
      </trkpt>
      <trkpt lat="44.873" lon="5.71713">
        <ele>652</ele>
        <time>2000-01-01T04:56:43.000Z</time>
      </trkpt>
      <trkpt lat="44.87294" lon="5.71747">
        <ele>654</ele>
        <time>2000-01-01T04:56:53.000Z</time>
      </trkpt>
      <trkpt lat="44.87286" lon="5.71785">
        <ele>656</ele>
        <time>2000-01-01T04:57:03.000Z</time>
      </trkpt>
      <trkpt lat="44.87284" lon="5.71795">
        <ele>657.1</ele>
        <time>2000-01-01T04:57:13.000Z</time>
      </trkpt>
      <trkpt lat="44.87277" lon="5.71825">
        <ele>656</ele>
        <time>2000-01-01T04:57:23.000Z</time>
      </trkpt>
      <trkpt lat="44.87275" lon="5.71844">
        <ele>658.8</ele>
        <time>2000-01-01T04:57:33.000Z</time>
      </trkpt>
      <trkpt lat="44.87274" lon="5.71859">
        <ele>657</ele>
        <time>2000-01-01T04:57:43.000Z</time>
      </trkpt>
      <trkpt lat="44.87273" lon="5.71878">
        <ele>659.1</ele>
        <time>2000-01-01T04:57:53.000Z</time>
      </trkpt>
      <trkpt lat="44.87273" lon="5.7189">
        <ele>657</ele>
        <time>2000-01-01T04:58:03.000Z</time>
      </trkpt>
      <trkpt lat="44.87275" lon="5.71899">
        <ele>658.8</ele>
        <time>2000-01-01T04:58:13.000Z</time>
      </trkpt>
      <trkpt lat="44.87279" lon="5.71916">
        <ele>657</ele>
        <time>2000-01-01T04:58:23.000Z</time>
      </trkpt>
      <trkpt lat="44.87291" lon="5.71944">
        <ele>657</ele>
        <time>2000-01-01T04:58:33.000Z</time>
      </trkpt>
      <trkpt lat="44.87308" lon="5.71974">
        <ele>657</ele>
        <time>2000-01-01T04:58:43.000Z</time>
      </trkpt>
      <trkpt lat="44.87318" lon="5.71996">
        <ele>657.6</ele>
        <time>2000-01-01T04:58:53.000Z</time>
      </trkpt>
      <trkpt lat="44.87325" lon="5.72018">
        <ele>657</ele>
        <time>2000-01-01T04:59:03.000Z</time>
      </trkpt>
      <trkpt lat="44.87326" lon="5.72041">
        <ele>657.7</ele>
        <time>2000-01-01T04:59:13.000Z</time>
      </trkpt>
      <trkpt lat="44.87325" lon="5.72067">
        <ele>658</ele>
        <time>2000-01-01T04:59:23.000Z</time>
      </trkpt>
      <trkpt lat="44.87324" lon="5.72077">
        <ele>657.3</ele>
        <time>2000-01-01T04:59:33.000Z</time>
      </trkpt>
      <trkpt lat="44.87332" lon="5.72082">
        <ele>658.8</ele>
        <time>2000-01-01T04:59:43.000Z</time>
      </trkpt>
      <trkpt lat="44.87348" lon="5.72089">
        <ele>659</ele>
        <time>2000-01-01T04:59:53.000Z</time>
      </trkpt>
      <trkpt lat="44.87351" lon="5.7209">
        <ele>661.5</ele>
        <time>2000-01-01T05:00:03.000Z</time>
      </trkpt>
      <trkpt lat="44.87355" lon="5.72092">
        <ele>662.1</ele>
        <time>2000-01-01T05:00:13.000Z</time>
      </trkpt>
      <trkpt lat="44.87362" lon="5.72096">
        <ele>663.2</ele>
        <time>2000-01-01T05:00:23.000Z</time>
      </trkpt>
      <trkpt lat="44.87373" lon="5.72103">
        <ele>664</ele>
        <time>2000-01-01T05:00:33.000Z</time>
      </trkpt>
      <trkpt lat="44.87387" lon="5.72113">
        <ele>667.7</ele>
        <time>2000-01-01T05:00:43.000Z</time>
      </trkpt>
      <trkpt lat="44.87389" lon="5.72115">
        <ele>668.2</ele>
        <time>2000-01-01T05:00:53.000Z</time>
      </trkpt>
      <trkpt lat="44.87393" lon="5.72119">
        <ele>668</ele>
        <time>2000-01-01T05:01:03.000Z</time>
      </trkpt>
      <trkpt lat="44.87417" lon="5.72136">
        <ele>672</ele>
        <time>2000-01-01T05:01:13.000Z</time>
      </trkpt>
      <trkpt lat="44.87424" lon="5.72142">
        <ele>675.3</ele>
        <time>2000-01-01T05:01:23.000Z</time>
      </trkpt>
      <trkpt lat="44.87424" lon="5.72149">
        <ele>675.3</ele>
        <time>2000-01-01T05:01:33.000Z</time>
      </trkpt>
      <trkpt lat="44.87428" lon="5.72158">
        <ele>674</ele>
        <time>2000-01-01T05:01:43.000Z</time>
      </trkpt>
      <trkpt lat="44.87431" lon="5.72169">
        <ele>676.7</ele>
        <time>2000-01-01T05:01:53.000Z</time>
      </trkpt>
      <trkpt lat="44.87434" lon="5.72179">
        <ele>677.6</ele>
        <time>2000-01-01T05:02:03.000Z</time>
      </trkpt>
      <trkpt lat="44.87437" lon="5.72186">
        <ele>676</ele>
        <time>2000-01-01T05:02:13.000Z</time>
      </trkpt>
      <trkpt lat="44.87437" lon="5.7219">
        <ele>678.5</ele>
        <time>2000-01-01T05:02:23.000Z</time>
      </trkpt>
      <trkpt lat="44.87436" lon="5.72197">
        <ele>678.6</ele>
        <time>2000-01-01T05:02:33.000Z</time>
      </trkpt>
      <trkpt lat="44.87434" lon="5.72212">
        <ele>677</ele>
        <time>2000-01-01T05:02:43.000Z</time>
      </trkpt>
      <trkpt lat="44.87432" lon="5.72221">
        <ele>679.1</ele>
        <time>2000-01-01T05:02:53.000Z</time>
      </trkpt>
      <trkpt lat="44.87432" lon="5.72227">
        <ele>679.6</ele>
        <time>2000-01-01T05:03:03.000Z</time>
      </trkpt>
      <trkpt lat="44.87437" lon="5.72231">
        <ele>680.6</ele>
        <time>2000-01-01T05:03:13.000Z</time>
      </trkpt>
      <trkpt lat="44.87448" lon="5.72236">
        <ele>681</ele>
        <time>2000-01-01T05:03:23.000Z</time>
      </trkpt>
      <trkpt lat="44.87458" lon="5.72238">
        <ele>684.1</ele>
        <time>2000-01-01T05:03:33.000Z</time>
      </trkpt>
      <trkpt lat="44.87464" lon="5.72239">
        <ele>685</ele>
        <time>2000-01-01T05:03:43.000Z</time>
      </trkpt>
      <trkpt lat="44.87477" lon="5.72235">
        <ele>685</ele>
        <time>2000-01-01T05:03:53.000Z</time>
      </trkpt>
      <trkpt lat="44.87499" lon="5.7223">
        <ele>687</ele>
        <time>2000-01-01T05:04:03.000Z</time>
      </trkpt>
      <trkpt lat="44.87504" lon="5.72231">
        <ele>690.3</ele>
        <time>2000-01-01T05:04:13.000Z</time>
      </trkpt>
      <trkpt lat="44.87506" lon="5.72232">
        <ele>690.7</ele>
        <time>2000-01-01T05:04:23.000Z</time>
      </trkpt>
      <trkpt lat="44.87523" lon="5.72236">
        <ele>692</ele>
        <time>2000-01-01T05:04:33.000Z</time>
      </trkpt>
      <trkpt lat="44.87539" lon="5.72239">
        <ele>696.4</ele>
        <time>2000-01-01T05:04:43.000Z</time>
      </trkpt>
      <trkpt lat="44.87561" lon="5.72242">
        <ele>700</ele>
        <time>2000-01-01T05:04:53.000Z</time>
      </trkpt>
      <trkpt lat="44.87578" lon="5.72246">
        <ele>704</ele>
        <time>2000-01-01T05:05:03.000Z</time>
      </trkpt>
      <trkpt lat="44.87583" lon="5.72247">
        <ele>704</ele>
        <time>2000-01-01T05:05:13.000Z</time>
      </trkpt>
      <trkpt lat="44.87587" lon="5.72249">
        <ele>706.1</ele>
        <time>2000-01-01T05:05:23.000Z</time>
      </trkpt>
      <trkpt lat="44.87596" lon="5.72254">
        <ele>708.5</ele>
        <time>2000-01-01T05:05:33.000Z</time>
      </trkpt>
      <trkpt lat="44.87604" lon="5.72263">
        <ele>708</ele>
        <time>2000-01-01T05:05:43.000Z</time>
      </trkpt>
      <trkpt lat="44.87611" lon="5.72277">
        <ele>711</ele>
        <time>2000-01-01T05:05:53.000Z</time>
      </trkpt>
      <trkpt lat="44.87616" lon="5.72293">
        <ele>710</ele>
        <time>2000-01-01T05:06:03.000Z</time>
      </trkpt>
      <trkpt lat="44.8762" lon="5.72312">
        <ele>714.7</ele>
        <time>2000-01-01T05:06:13.000Z</time>
      </trkpt>
      <trkpt lat="44.87622" lon="5.7233">
        <ele>715</ele>
        <time>2000-01-01T05:06:23.000Z</time>
      </trkpt>
      <trkpt lat="44.87623" lon="5.7235">
        <ele>716.4</ele>
        <time>2000-01-01T05:06:33.000Z</time>
      </trkpt>
      <trkpt lat="44.87624" lon="5.72371">
        <ele>716</ele>
        <time>2000-01-01T05:06:43.000Z</time>
      </trkpt>
      <trkpt lat="44.87626" lon="5.72386">
        <ele>718</ele>
        <time>2000-01-01T05:06:53.000Z</time>
      </trkpt>
      <trkpt lat="44.87631" lon="5.724">
        <ele>718</ele>
        <time>2000-01-01T05:07:03.000Z</time>
      </trkpt>
      <trkpt lat="44.87634" lon="5.72405">
        <ele>719.3</ele>
        <time>2000-01-01T05:07:13.000Z</time>
      </trkpt>
      <trkpt lat="44.87642" lon="5.72409">
        <ele>720.4</ele>
        <time>2000-01-01T05:07:23.000Z</time>
      </trkpt>
      <trkpt lat="44.87652" lon="5.72414">
        <ele>721</ele>
        <time>2000-01-01T05:07:33.000Z</time>
      </trkpt>
      <trkpt lat="44.87658" lon="5.72418">
        <ele>722.8</ele>
        <time>2000-01-01T05:07:43.000Z</time>
      </trkpt>
      <trkpt lat="44.87664" lon="5.72422">
        <ele>723.6</ele>
        <time>2000-01-01T05:07:53.000Z</time>
      </trkpt>
      <trkpt lat="44.87678" lon="5.7243">
        <ele>724</ele>
        <time>2000-01-01T05:08:03.000Z</time>
      </trkpt>
      <trkpt lat="44.87691" lon="5.72437">
        <ele>728.4</ele>
        <time>2000-01-01T05:08:13.000Z</time>
      </trkpt>
      <trkpt lat="44.87712" lon="5.72445">
        <ele>731</ele>
        <time>2000-01-01T05:08:23.000Z</time>
      </trkpt>
      <trkpt lat="44.87731" lon="5.72452">
        <ele>735</ele>
        <time>2000-01-01T05:08:33.000Z</time>
      </trkpt>
      <trkpt lat="44.87748" lon="5.72458">
        <ele>739.6</ele>
        <time>2000-01-01T05:08:43.000Z</time>
      </trkpt>
      <trkpt lat="44.87761" lon="5.72463">
        <ele>741</ele>
        <time>2000-01-01T05:08:53.000Z</time>
      </trkpt>
      <trkpt lat="44.87768" lon="5.72465">
        <ele>743.4</ele>
        <time>2000-01-01T05:09:03.000Z</time>
      </trkpt>
      <trkpt lat="44.87768" lon="5.72465">
        <ele>743.4</ele>
        <time>2000-01-01T05:09:13.000Z</time>
      </trkpt>
      <trkpt lat="44.87772" lon="5.72465">
        <ele>744.2</ele>
        <time>2000-01-01T05:09:23.000Z</time>
      </trkpt>
      <trkpt lat="44.87778" lon="5.72466">
        <ele>745.3</ele>
        <time>2000-01-01T05:09:33.000Z</time>
      </trkpt>
      <trkpt lat="44.87786" lon="5.72466">
        <ele>745</ele>
        <time>2000-01-01T05:09:43.000Z</time>
      </trkpt>
      <trkpt lat="44.87793" lon="5.72466">
        <ele>748.6</ele>
        <time>2000-01-01T05:09:53.000Z</time>
      </trkpt>
      <trkpt lat="44.878" lon="5.72465">
        <ele>750.3</ele>
        <time>2000-01-01T05:10:03.000Z</time>
      </trkpt>
      <trkpt lat="44.87806" lon="5.72467">
        <ele>750</ele>
        <time>2000-01-01T05:10:13.000Z</time>
      </trkpt>
      <trkpt lat="44.87806" lon="5.72467">
        <ele>751.5</ele>
        <time>2000-01-01T05:10:23.000Z</time>
      </trkpt>
      <trkpt lat="44.8781" lon="5.72473">
        <ele>752.2</ele>
        <time>2000-01-01T05:10:33.000Z</time>
      </trkpt>
      <trkpt lat="44.87814" lon="5.72479">
        <ele>753.1</ele>
        <time>2000-01-01T05:10:43.000Z</time>
      </trkpt>
      <trkpt lat="44.87821" lon="5.72485">
        <ele>754</ele>
        <time>2000-01-01T05:10:53.000Z</time>
      </trkpt>
      <trkpt lat="44.87827" lon="5.72488">
        <ele>756.2</ele>
        <time>2000-01-01T05:11:03.000Z</time>
      </trkpt>
      <trkpt lat="44.87827" lon="5.72488">
        <ele>756.2</ele>
        <time>2000-01-01T05:11:13.000Z</time>
      </trkpt>
      <trkpt lat="44.87831" lon="5.7249">
        <ele>757.1</ele>
        <time>2000-01-01T05:11:23.000Z</time>
      </trkpt>
      <trkpt lat="44.87837" lon="5.72487">
        <ele>759.1</ele>
        <time>2000-01-01T05:11:33.000Z</time>
      </trkpt>
      <trkpt lat="44.87844" lon="5.72484">
        <ele>760</ele>
        <time>2000-01-01T05:11:43.000Z</time>
      </trkpt>
      <trkpt lat="44.87849" lon="5.7248">
        <ele>763.1</ele>
        <time>2000-01-01T05:11:53.000Z</time>
      </trkpt>
      <trkpt lat="44.87856" lon="5.72478">
        <ele>765.3</ele>
        <time>2000-01-01T05:12:03.000Z</time>
      </trkpt>
      <trkpt lat="44.87861" lon="5.72476">
        <ele>766.8</ele>
        <time>2000-01-01T05:12:13.000Z</time>
      </trkpt>
      <trkpt lat="44.87867" lon="5.72477">
        <ele>767</ele>
        <time>2000-01-01T05:12:23.000Z</time>
      </trkpt>
      <trkpt lat="44.87876" lon="5.7248">
        <ele>771.5</ele>
        <time>2000-01-01T05:12:33.000Z</time>
      </trkpt>
      <trkpt lat="44.87884" lon="5.72488">
        <ele>773.8</ele>
        <time>2000-01-01T05:12:43.000Z</time>
      </trkpt>
      <trkpt lat="44.87892" lon="5.72501">
        <ele>776</ele>
        <time>2000-01-01T05:12:53.000Z</time>
      </trkpt>
      <trkpt lat="44.87897" lon="5.72517">
        <ele>777.6</ele>
        <time>2000-01-01T05:13:03.000Z</time>
      </trkpt>
      <trkpt lat="44.879" lon="5.72528">
        <ele>776</ele>
        <time>2000-01-01T05:13:13.000Z</time>
      </trkpt>
      <trkpt lat="44.87899" lon="5.72522">
        <ele>778.2</ele>
        <time>2000-01-01T05:13:23.000Z</time>
      </trkpt>
      <trkpt lat="44.87903" lon="5.72537">
        <ele>779.1</ele>
        <time>2000-01-01T05:13:33.000Z</time>
      </trkpt>
      <trkpt lat="44.87907" lon="5.72553">
        <ele>777</ele>
        <time>2000-01-01T05:13:43.000Z</time>
      </trkpt>
      <trkpt lat="44.87913" lon="5.72565">
        <ele>780.7</ele>
        <time>2000-01-01T05:13:53.000Z</time>
      </trkpt>
      <trkpt lat="44.87922" lon="5.72574">
        <ele>782</ele>
        <time>2000-01-01T05:14:03.000Z</time>
      </trkpt>
      <trkpt lat="44.87932" lon="5.7258">
        <ele>784.8</ele>
        <time>2000-01-01T05:14:13.000Z</time>
      </trkpt>
      <trkpt lat="44.87943" lon="5.72584">
        <ele>787</ele>
        <time>2000-01-01T05:14:23.000Z</time>
      </trkpt>
      <trkpt lat="44.87951" lon="5.72583">
        <ele>790.2</ele>
        <time>2000-01-01T05:14:33.000Z</time>
      </trkpt>
      <trkpt lat="44.87955" lon="5.72581">
        <ele>791.8</ele>
        <time>2000-01-01T05:14:43.000Z</time>
      </trkpt>
      <trkpt lat="44.87958" lon="5.72577">
        <ele>793.5</ele>
        <time>2000-01-01T05:14:53.000Z</time>
      </trkpt>
      <trkpt lat="44.87961" lon="5.72569">
        <ele>797</ele>
        <time>2000-01-01T05:15:03.000Z</time>
      </trkpt>
      <trkpt lat="44.87963" lon="5.72556">
        <ele>799.3</ele>
        <time>2000-01-01T05:15:13.000Z</time>
      </trkpt>
      <trkpt lat="44.87965" lon="5.72542">
        <ele>800</ele>
        <time>2000-01-01T05:15:23.000Z</time>
      </trkpt>
      <trkpt lat="44.87967" lon="5.72537">
        <ele>804.1</ele>
        <time>2000-01-01T05:15:33.000Z</time>
      </trkpt>
      <trkpt lat="44.8797" lon="5.72533">
        <ele>806.1</ele>
        <time>2000-01-01T05:15:43.000Z</time>
      </trkpt>
      <trkpt lat="44.87977" lon="5.72534">
        <ele>808.9</ele>
        <time>2000-01-01T05:15:53.000Z</time>
      </trkpt>
      <trkpt lat="44.8798" lon="5.72534">
        <ele>810.2</ele>
        <time>2000-01-01T05:16:03.000Z</time>
      </trkpt>
      <trkpt lat="44.87984" lon="5.72537">
        <ele>810</ele>
        <time>2000-01-01T05:16:13.000Z</time>
      </trkpt>
      <trkpt lat="44.87988" lon="5.72542">
        <ele>812</ele>
        <time>2000-01-01T05:16:23.000Z</time>
      </trkpt>
      <trkpt lat="44.87992" lon="5.72547">
        <ele>812.6</ele>
        <time>2000-01-01T05:16:33.000Z</time>
      </trkpt>
      <trkpt lat="44.87995" lon="5.72554">
        <ele>812.3</ele>
        <time>2000-01-01T05:16:43.000Z</time>
      </trkpt>
      <trkpt lat="44.87998" lon="5.72556">
        <ele>811</ele>
        <time>2000-01-01T05:16:53.000Z</time>
      </trkpt>
      <trkpt lat="44.88003" lon="5.72558">
        <ele>814.8</ele>
        <time>2000-01-01T05:17:03.000Z</time>
      </trkpt>
      <trkpt lat="44.88007" lon="5.72559">
        <ele>816.2</ele>
        <time>2000-01-01T05:17:13.000Z</time>
      </trkpt>
      <trkpt lat="44.88011" lon="5.72557">
        <ele>818.4</ele>
        <time>2000-01-01T05:17:23.000Z</time>
      </trkpt>
      <trkpt lat="44.88015" lon="5.72552">
        <ele>821.2</ele>
        <time>2000-01-01T05:17:33.000Z</time>
      </trkpt>
      <trkpt lat="44.88016" lon="5.72543">
        <ele>822</ele>
        <time>2000-01-01T05:17:43.000Z</time>
      </trkpt>
      <trkpt lat="44.88016" lon="5.72525">
        <ele>827.4</ele>
        <time>2000-01-01T05:17:53.000Z</time>
      </trkpt>
      <trkpt lat="44.88015" lon="5.72495">
        <ele>831</ele>
        <time>2000-01-01T05:18:03.000Z</time>
      </trkpt>
      <trkpt lat="44.88017" lon="5.72461">
        <ele>836</ele>
        <time>2000-01-01T05:18:13.000Z</time>
      </trkpt>
      <trkpt lat="44.8802" lon="5.7243">
        <ele>841</ele>
        <time>2000-01-01T05:18:23.000Z</time>
      </trkpt>
      <trkpt lat="44.8802" lon="5.72415">
        <ele>845.1</ele>
        <time>2000-01-01T05:18:33.000Z</time>
      </trkpt>
      <trkpt lat="44.88021" lon="5.72411">
        <ele>845.8</ele>
        <time>2000-01-01T05:18:43.000Z</time>
      </trkpt>
      <trkpt lat="44.88023" lon="5.7241">
        <ele>846.8</ele>
        <time>2000-01-01T05:18:53.000Z</time>
      </trkpt>
      <trkpt lat="44.88026" lon="5.72411">
        <ele>845</ele>
        <time>2000-01-01T05:19:03.000Z</time>
      </trkpt>
      <trkpt lat="44.88029" lon="5.72416">
        <ele>849.6</ele>
        <time>2000-01-01T05:19:13.000Z</time>
      </trkpt>
      <trkpt lat="44.88032" lon="5.72423">
        <ele>850.3</ele>
        <time>2000-01-01T05:19:23.000Z</time>
      </trkpt>
      <trkpt lat="44.88039" lon="5.72435">
        <ele>848</ele>
        <time>2000-01-01T05:19:33.000Z</time>
      </trkpt>
      <trkpt lat="44.88051" lon="5.7245">
        <ele>855.9</ele>
        <time>2000-01-01T05:19:43.000Z</time>
      </trkpt>
      <trkpt lat="44.88065" lon="5.72466">
        <ele>857</ele>
        <time>2000-01-01T05:19:53.000Z</time>
      </trkpt>
      <trkpt lat="44.88079" lon="5.72479">
        <ele>862.7</ele>
        <time>2000-01-01T05:20:03.000Z</time>
      </trkpt>
      <trkpt lat="44.88091" lon="5.72489">
        <ele>866</ele>
        <time>2000-01-01T05:20:13.000Z</time>
      </trkpt>
      <trkpt lat="44.88101" lon="5.72497">
        <ele>867.7</ele>
        <time>2000-01-01T05:20:23.000Z</time>
      </trkpt>
      <trkpt lat="44.88104" lon="5.72499">
        <ele>868.4</ele>
        <time>2000-01-01T05:20:33.000Z</time>
      </trkpt>
      <trkpt lat="44.88106" lon="5.725">
        <ele>869</ele>
        <time>2000-01-01T05:20:43.000Z</time>
      </trkpt>
      <trkpt lat="44.88108" lon="5.72499">
        <ele>870</ele>
        <time>2000-01-01T05:20:53.000Z</time>
      </trkpt>
      <trkpt lat="44.88109" lon="5.72497">
        <ele>870.9</ele>
        <time>2000-01-01T05:21:03.000Z</time>
      </trkpt>
      <trkpt lat="44.8811" lon="5.72494">
        <ele>872.1</ele>
        <time>2000-01-01T05:21:13.000Z</time>
      </trkpt>
      <trkpt lat="44.8811" lon="5.72491">
        <ele>872.8</ele>
        <time>2000-01-01T05:21:23.000Z</time>
      </trkpt>
      <trkpt lat="44.8811" lon="5.72487">
        <ele>873.8</ele>
        <time>2000-01-01T05:21:33.000Z</time>
      </trkpt>
      <trkpt lat="44.8811" lon="5.72484">
        <ele>874.6</ele>
        <time>2000-01-01T05:21:43.000Z</time>
      </trkpt>
      <trkpt lat="44.8811" lon="5.72479">
        <ele>875.8</ele>
        <time>2000-01-01T05:21:53.000Z</time>
      </trkpt>
      <trkpt lat="44.8811" lon="5.72475">
        <ele>876.8</ele>
        <time>2000-01-01T05:22:03.000Z</time>
      </trkpt>
      <trkpt lat="44.8811" lon="5.72472">
        <ele>877</ele>
        <time>2000-01-01T05:22:13.000Z</time>
      </trkpt>
      <trkpt lat="44.88111" lon="5.72467">
        <ele>878.9</ele>
        <time>2000-01-01T05:22:23.000Z</time>
      </trkpt>
      <trkpt lat="44.88111" lon="5.72461">
        <ele>880</ele>
        <time>2000-01-01T05:22:33.000Z</time>
      </trkpt>
      <trkpt lat="44.88111" lon="5.72456">
        <ele>880.9</ele>
        <time>2000-01-01T05:22:43.000Z</time>
      </trkpt>
      <trkpt lat="44.88111" lon="5.72452">
        <ele>881.6</ele>
        <time>2000-01-01T05:22:53.000Z</time>
      </trkpt>
      <trkpt lat="44.88112" lon="5.72449">
        <ele>882.6</ele>
        <time>2000-01-01T05:23:03.000Z</time>
      </trkpt>
      <trkpt lat="44.88111" lon="5.72444">
        <ele>883</ele>
        <time>2000-01-01T05:23:13.000Z</time>
      </trkpt>
      <trkpt lat="44.88111" lon="5.72437">
        <ele>884.3</ele>
        <time>2000-01-01T05:23:23.000Z</time>
      </trkpt>
      <trkpt lat="44.8811" lon="5.72434">
        <ele>884.4</ele>
        <time>2000-01-01T05:23:33.000Z</time>
      </trkpt>
      <trkpt lat="44.88109" lon="5.7243">
        <ele>884.6</ele>
        <time>2000-01-01T05:23:43.000Z</time>
      </trkpt>
      <trkpt lat="44.88109" lon="5.72426">
        <ele>885.4</ele>
        <time>2000-01-01T05:23:53.000Z</time>
      </trkpt>
      <trkpt lat="44.88108" lon="5.72421">
        <ele>885.8</ele>
        <time>2000-01-01T05:24:03.000Z</time>
      </trkpt>
      <trkpt lat="44.88107" lon="5.72417">
        <ele>884</ele>
        <time>2000-01-01T05:24:13.000Z</time>
      </trkpt>
      <trkpt lat="44.88107" lon="5.72411">
        <ele>886.7</ele>
        <time>2000-01-01T05:24:23.000Z</time>
      </trkpt>
      <trkpt lat="44.88106" lon="5.72405">
        <ele>886.9</ele>
        <time>2000-01-01T05:24:33.000Z</time>
      </trkpt>
      <trkpt lat="44.88105" lon="5.72398">
        <ele>887.2</ele>
        <time>2000-01-01T05:24:43.000Z</time>
      </trkpt>
      <trkpt lat="44.88105" lon="5.72397">
        <ele>887.3</ele>
        <time>2000-01-01T05:24:53.000Z</time>
      </trkpt>
      <trkpt lat="44.88105" lon="5.72392">
        <ele>887.8</ele>
        <time>2000-01-01T05:25:03.000Z</time>
      </trkpt>
      <trkpt lat="44.88104" lon="5.72386">
        <ele>887</ele>
        <time>2000-01-01T05:25:13.000Z</time>
      </trkpt>
      <trkpt lat="44.88104" lon="5.7238">
        <ele>888.9</ele>
        <time>2000-01-01T05:25:23.000Z</time>
      </trkpt>
      <trkpt lat="44.88103" lon="5.72374">
        <ele>889.2</ele>
        <time>2000-01-01T05:25:33.000Z</time>
      </trkpt>
      <trkpt lat="44.88103" lon="5.7237">
        <ele>889.7</ele>
        <time>2000-01-01T05:25:43.000Z</time>
      </trkpt>
      <trkpt lat="44.88102" lon="5.72366">
        <ele>889.8</ele>
        <time>2000-01-01T05:25:53.000Z</time>
      </trkpt>
      <trkpt lat="44.88102" lon="5.72361">
        <ele>890.4</ele>
        <time>2000-01-01T05:26:03.000Z</time>
      </trkpt>
      <trkpt lat="44.88103" lon="5.72357">
        <ele>891</ele>
        <time>2000-01-01T05:26:13.000Z</time>
      </trkpt>
      <trkpt lat="44.88104" lon="5.72355">
        <ele>892.2</ele>
        <time>2000-01-01T05:26:23.000Z</time>
      </trkpt>
      <trkpt lat="44.88105" lon="5.72353">
        <ele>893</ele>
        <time>2000-01-01T05:26:33.000Z</time>
      </trkpt>
      <trkpt lat="44.88108" lon="5.72354">
        <ele>894.4</ele>
        <time>2000-01-01T05:26:43.000Z</time>
      </trkpt>
      <trkpt lat="44.8811" lon="5.72356">
        <ele>895.2</ele>
        <time>2000-01-01T05:26:53.000Z</time>
      </trkpt>
      <trkpt lat="44.88121" lon="5.72368">
        <ele>899</ele>
        <time>2000-01-01T05:27:03.000Z</time>
      </trkpt>
      <trkpt lat="44.88136" lon="5.72385">
        <ele>902</ele>
        <time>2000-01-01T05:27:13.000Z</time>
      </trkpt>
      <trkpt lat="44.88151" lon="5.72402">
        <ele>907.9</ele>
        <time>2000-01-01T05:27:23.000Z</time>
      </trkpt>
      <trkpt lat="44.88167" lon="5.7242">
        <ele>911</ele>
        <time>2000-01-01T05:27:33.000Z</time>
      </trkpt>
      <trkpt lat="44.8817" lon="5.72424">
        <ele>912</ele>
        <time>2000-01-01T05:27:43.000Z</time>
      </trkpt>
      <trkpt lat="44.88173" lon="5.72427">
        <ele>912.6</ele>
        <time>2000-01-01T05:27:53.000Z</time>
      </trkpt>
      <trkpt lat="44.88175" lon="5.72429">
        <ele>913.1</ele>
        <time>2000-01-01T05:28:03.000Z</time>
      </trkpt>
      <trkpt lat="44.88176" lon="5.72429">
        <ele>913.5</ele>
        <time>2000-01-01T05:28:13.000Z</time>
      </trkpt>
      <trkpt lat="44.88178" lon="5.72427">
        <ele>914.6</ele>
        <time>2000-01-01T05:28:23.000Z</time>
      </trkpt>
      <trkpt lat="44.88179" lon="5.72425">
        <ele>915.4</ele>
        <time>2000-01-01T05:28:33.000Z</time>
      </trkpt>
      <trkpt lat="44.8818" lon="5.72422">
        <ele>916.3</ele>
        <time>2000-01-01T05:28:43.000Z</time>
      </trkpt>
      <trkpt lat="44.8818" lon="5.7242">
        <ele>914</ele>
        <time>2000-01-01T05:28:53.000Z</time>
      </trkpt>
      <trkpt lat="44.88179" lon="5.72417">
        <ele>916.8</ele>
        <time>2000-01-01T05:29:03.000Z</time>
      </trkpt>
      <trkpt lat="44.88179" lon="5.72414">
        <ele>917.3</ele>
        <time>2000-01-01T05:29:13.000Z</time>
      </trkpt>
      <trkpt lat="44.88177" lon="5.7241">
        <ele>917.2</ele>
        <time>2000-01-01T05:29:23.000Z</time>
      </trkpt>
      <trkpt lat="44.88176" lon="5.72407">
        <ele>917.3</ele>
        <time>2000-01-01T05:29:33.000Z</time>
      </trkpt>
      <trkpt lat="44.88175" lon="5.72403">
        <ele>917.6</ele>
        <time>2000-01-01T05:29:43.000Z</time>
      </trkpt>
      <trkpt lat="44.88174" lon="5.72399">
        <ele>917.9</ele>
        <time>2000-01-01T05:29:53.000Z</time>
      </trkpt>
      <trkpt lat="44.88172" lon="5.72394">
        <ele>918</ele>
        <time>2000-01-01T05:30:03.000Z</time>
      </trkpt>
      <trkpt lat="44.88171" lon="5.72389">
        <ele>918.5</ele>
        <time>2000-01-01T05:30:13.000Z</time>
      </trkpt>
      <trkpt lat="44.8817" lon="5.72385">
        <ele>918.8</ele>
        <time>2000-01-01T05:30:23.000Z</time>
      </trkpt>
      <trkpt lat="44.88169" lon="5.72379">
        <ele>919.3</ele>
        <time>2000-01-01T05:30:33.000Z</time>
      </trkpt>
      <trkpt lat="44.88168" lon="5.72373">
        <ele>919.8</ele>
        <time>2000-01-01T05:30:43.000Z</time>
      </trkpt>
      <trkpt lat="44.88167" lon="5.72369">
        <ele>920</ele>
        <time>2000-01-01T05:30:53.000Z</time>
      </trkpt>
      <trkpt lat="44.88166" lon="5.72363">
        <ele>919</ele>
        <time>2000-01-01T05:31:03.000Z</time>
      </trkpt>
      <trkpt lat="44.88166" lon="5.72359">
        <ele>921.2</ele>
        <time>2000-01-01T05:31:13.000Z</time>
      </trkpt>
      <trkpt lat="44.88166" lon="5.72355">
        <ele>922</ele>
        <time>2000-01-01T05:31:23.000Z</time>
      </trkpt>
      <trkpt lat="44.88168" lon="5.72353">
        <ele>923.3</ele>
        <time>2000-01-01T05:31:33.000Z</time>
      </trkpt>
      <trkpt lat="44.88169" lon="5.72353">
        <ele>923.7</ele>
        <time>2000-01-01T05:31:43.000Z</time>
      </trkpt>
      <trkpt lat="44.88171" lon="5.72354">
        <ele>924.2</ele>
        <time>2000-01-01T05:31:53.000Z</time>
      </trkpt>
      <trkpt lat="44.88173" lon="5.72356">
        <ele>924.6</ele>
        <time>2000-01-01T05:32:03.000Z</time>
      </trkpt>
      <trkpt lat="44.88176" lon="5.72358">
        <ele>925.3</ele>
        <time>2000-01-01T05:32:13.000Z</time>
      </trkpt>
      <trkpt lat="44.8818" lon="5.7236">
        <ele>922</ele>
        <time>2000-01-01T05:32:23.000Z</time>
      </trkpt>
      <trkpt lat="44.88183" lon="5.72362">
        <ele>927.3</ele>
        <time>2000-01-01T05:32:33.000Z</time>
      </trkpt>
      <trkpt lat="44.88186" lon="5.72364">
        <ele>928.2</ele>
        <time>2000-01-01T05:32:43.000Z</time>
      </trkpt>
      <trkpt lat="44.88189" lon="5.72366">
        <ele>929</ele>
        <time>2000-01-01T05:32:53.000Z</time>
      </trkpt>
      <trkpt lat="44.88193" lon="5.72369">
        <ele>930</ele>
        <time>2000-01-01T05:33:03.000Z</time>
      </trkpt>
      <trkpt lat="44.88196" lon="5.72371">
        <ele>930.6</ele>
        <time>2000-01-01T05:33:13.000Z</time>
      </trkpt>
      <trkpt lat="44.88199" lon="5.72374">
        <ele>929</ele>
        <time>2000-01-01T05:33:23.000Z</time>
      </trkpt>
      <trkpt lat="44.88202" lon="5.72377">
        <ele>931.2</ele>
        <time>2000-01-01T05:33:33.000Z</time>
      </trkpt>
      <trkpt lat="44.88205" lon="5.7238">
        <ele>931.4</ele>
        <time>2000-01-01T05:33:43.000Z</time>
      </trkpt>
      <trkpt lat="44.88208" lon="5.72382">
        <ele>931.8</ele>
        <time>2000-01-01T05:33:53.000Z</time>
      </trkpt>
      <trkpt lat="44.88211" lon="5.72384">
        <ele>932.2</ele>
        <time>2000-01-01T05:34:03.000Z</time>
      </trkpt>
      <trkpt lat="44.88215" lon="5.72386">
        <ele>932.8</ele>
        <time>2000-01-01T05:34:13.000Z</time>
      </trkpt>
      <trkpt lat="44.88217" lon="5.72388">
        <ele>932</ele>
        <time>2000-01-01T05:34:23.000Z</time>
      </trkpt>
      <trkpt lat="44.88221" lon="5.7239">
        <ele>933.5</ele>
        <time>2000-01-01T05:34:33.000Z</time>
      </trkpt>
      <trkpt lat="44.88224" lon="5.72392">
        <ele>933.7</ele>
        <time>2000-01-01T05:34:43.000Z</time>
      </trkpt>
      <trkpt lat="44.88226" lon="5.72393">
        <ele>933.8</ele>
        <time>2000-01-01T05:34:53.000Z</time>
      </trkpt>
      <trkpt lat="44.88229" lon="5.72394">
        <ele>934</ele>
        <time>2000-01-01T05:35:03.000Z</time>
      </trkpt>
      <trkpt lat="44.88231" lon="5.72394">
        <ele>934.3</ele>
        <time>2000-01-01T05:35:13.000Z</time>
      </trkpt>
      <trkpt lat="44.88233" lon="5.72393">
        <ele>934.8</ele>
        <time>2000-01-01T05:35:23.000Z</time>
      </trkpt>
      <trkpt lat="44.88235" lon="5.72391">
        <ele>935.4</ele>
        <time>2000-01-01T05:35:33.000Z</time>
      </trkpt>
      <trkpt lat="44.88237" lon="5.72389">
        <ele>937</ele>
        <time>2000-01-01T05:35:43.000Z</time>
      </trkpt>
      <trkpt lat="44.88238" lon="5.72387">
        <ele>936.7</ele>
        <time>2000-01-01T05:35:53.000Z</time>
      </trkpt>
      <trkpt lat="44.88238" lon="5.72384">
        <ele>937.4</ele>
        <time>2000-01-01T05:36:03.000Z</time>
      </trkpt>
      <trkpt lat="44.88238" lon="5.72381">
        <ele>938.1</ele>
        <time>2000-01-01T05:36:13.000Z</time>
      </trkpt>
      <trkpt lat="44.88237" lon="5.72377">
        <ele>938.9</ele>
        <time>2000-01-01T05:36:23.000Z</time>
      </trkpt>
      <trkpt lat="44.88236" lon="5.72373">
        <ele>939.7</ele>
        <time>2000-01-01T05:36:33.000Z</time>
      </trkpt>
      <trkpt lat="44.88235" lon="5.72369">
        <ele>940.5</ele>
        <time>2000-01-01T05:36:43.000Z</time>
      </trkpt>
      <trkpt lat="44.88235" lon="5.72365">
        <ele>941.4</ele>
        <time>2000-01-01T05:36:53.000Z</time>
      </trkpt>
      <trkpt lat="44.88235" lon="5.72361">
        <ele>941</ele>
        <time>2000-01-01T05:37:03.000Z</time>
      </trkpt>
      <trkpt lat="44.88234" lon="5.72355">
        <ele>943.5</ele>
        <time>2000-01-01T05:37:13.000Z</time>
      </trkpt>
      <trkpt lat="44.88233" lon="5.72349">
        <ele>944.7</ele>
        <time>2000-01-01T05:37:23.000Z</time>
      </trkpt>
      <trkpt lat="44.88232" lon="5.72342">
        <ele>946.1</ele>
        <time>2000-01-01T05:37:33.000Z</time>
      </trkpt>
      <trkpt lat="44.88231" lon="5.72337">
        <ele>947.1</ele>
        <time>2000-01-01T05:37:43.000Z</time>
      </trkpt>
      <trkpt lat="44.8823" lon="5.72332">
        <ele>946</ele>
        <time>2000-01-01T05:37:53.000Z</time>
      </trkpt>
      <trkpt lat="44.88229" lon="5.72326">
        <ele>949.4</ele>
        <time>2000-01-01T05:38:03.000Z</time>
      </trkpt>
      <trkpt lat="44.88227" lon="5.7232">
        <ele>950.5</ele>
        <time>2000-01-01T05:38:13.000Z</time>
      </trkpt>
      <trkpt lat="44.88225" lon="5.72315">
        <ele>951.3</ele>
        <time>2000-01-01T05:38:23.000Z</time>
      </trkpt>
      <trkpt lat="44.88224" lon="5.72309">
        <ele>952.6</ele>
        <time>2000-01-01T05:38:33.000Z</time>
      </trkpt>
      <trkpt lat="44.88223" lon="5.72303">
        <ele>954</ele>
        <time>2000-01-01T05:38:43.000Z</time>
      </trkpt>
      <trkpt lat="44.88221" lon="5.72299">
        <ele>954.5</ele>
        <time>2000-01-01T05:38:53.000Z</time>
      </trkpt>
      <trkpt lat="44.8822" lon="5.72295">
        <ele>955.3</ele>
        <time>2000-01-01T05:39:03.000Z</time>
      </trkpt>
      <trkpt lat="44.88219" lon="5.72292">
        <ele>955.7</ele>
        <time>2000-01-01T05:39:13.000Z</time>
      </trkpt>
      <trkpt lat="44.88219" lon="5.7229">
        <ele>956.3</ele>
        <time>2000-01-01T05:39:23.000Z</time>
      </trkpt>
      <trkpt lat="44.88219" lon="5.7229">
        <ele>956.3</ele>
        <time>2000-01-01T05:39:33.000Z</time>
      </trkpt>
      <trkpt lat="44.8822" lon="5.72287">
        <ele>957.5</ele>
        <time>2000-01-01T05:39:43.000Z</time>
      </trkpt>
      <trkpt lat="44.88221" lon="5.72288">
        <ele>957.6</ele>
        <time>2000-01-01T05:39:53.000Z</time>
      </trkpt>
      <trkpt lat="44.88222" lon="5.72288">
        <ele>958</ele>
        <time>2000-01-01T05:40:03.000Z</time>
      </trkpt>
      <trkpt lat="44.88226" lon="5.72289">
        <ele>958.8</ele>
        <time>2000-01-01T05:40:13.000Z</time>
      </trkpt>
      <trkpt lat="44.8823" lon="5.72291">
        <ele>956</ele>
        <time>2000-01-01T05:40:23.000Z</time>
      </trkpt>
      <trkpt lat="44.88233" lon="5.72291">
        <ele>960.1</ele>
        <time>2000-01-01T05:40:33.000Z</time>
      </trkpt>
      <trkpt lat="44.88237" lon="5.72292">
        <ele>960.9</ele>
        <time>2000-01-01T05:40:43.000Z</time>
      </trkpt>
      <trkpt lat="44.88241" lon="5.72292">
        <ele>962</ele>
        <time>2000-01-01T05:40:53.000Z</time>
      </trkpt>
      <trkpt lat="44.88245" lon="5.72292">
        <ele>963</ele>
        <time>2000-01-01T05:41:03.000Z</time>
      </trkpt>
      <trkpt lat="44.88248" lon="5.72291">
        <ele>964.2</ele>
        <time>2000-01-01T05:41:13.000Z</time>
      </trkpt>
      <trkpt lat="44.88252" lon="5.72289">
        <ele>969</ele>
        <time>2000-01-01T05:41:23.000Z</time>
      </trkpt>
      <trkpt lat="44.88256" lon="5.72286">
        <ele>967.6</ele>
        <time>2000-01-01T05:41:33.000Z</time>
      </trkpt>
      <trkpt lat="44.88259" lon="5.72284">
        <ele>968.9</ele>
        <time>2000-01-01T05:41:43.000Z</time>
      </trkpt>
      <trkpt lat="44.88264" lon="5.72281">
        <ele>970.9</ele>
        <time>2000-01-01T05:41:53.000Z</time>
      </trkpt>
      <trkpt lat="44.88267" lon="5.72278">
        <ele>972.6</ele>
        <time>2000-01-01T05:42:03.000Z</time>
      </trkpt>
      <trkpt lat="44.88271" lon="5.72275">
        <ele>976</ele>
        <time>2000-01-01T05:42:13.000Z</time>
      </trkpt>
      <trkpt lat="44.88274" lon="5.72272">
        <ele>976.3</ele>
        <time>2000-01-01T05:42:23.000Z</time>
      </trkpt>
      <trkpt lat="44.88277" lon="5.72269">
        <ele>978</ele>
        <time>2000-01-01T05:42:33.000Z</time>
      </trkpt>
      <trkpt lat="44.88281" lon="5.72266">
        <ele>979.6</ele>
        <time>2000-01-01T05:42:43.000Z</time>
      </trkpt>
      <trkpt lat="44.88284" lon="5.72264">
        <ele>980.7</ele>
        <time>2000-01-01T05:42:53.000Z</time>
      </trkpt>
      <trkpt lat="44.88286" lon="5.72262">
        <ele>981.7</ele>
        <time>2000-01-01T05:43:03.000Z</time>
      </trkpt>
      <trkpt lat="44.88289" lon="5.72262">
        <ele>981</ele>
        <time>2000-01-01T05:43:13.000Z</time>
      </trkpt>
      <trkpt lat="44.88293" lon="5.72261">
        <ele>983</ele>
        <time>2000-01-01T05:43:23.000Z</time>
      </trkpt>
      <trkpt lat="44.88302" lon="5.72261">
        <ele>984.2</ele>
        <time>2000-01-01T05:43:33.000Z</time>
      </trkpt>
      <trkpt lat="44.88305" lon="5.72261">
        <ele>984.6</ele>
        <time>2000-01-01T05:43:43.000Z</time>
      </trkpt>
      <trkpt lat="44.88311" lon="5.7226">
        <ele>985</ele>
        <time>2000-01-01T05:43:53.000Z</time>
      </trkpt>
      <trkpt lat="44.88316" lon="5.72259">
        <ele>986.7</ele>
        <time>2000-01-01T05:44:03.000Z</time>
      </trkpt>
      <trkpt lat="44.8832" lon="5.72257">
        <ele>988</ele>
        <time>2000-01-01T05:44:13.000Z</time>
      </trkpt>
      <trkpt lat="44.88325" lon="5.72254">
        <ele>990</ele>
        <time>2000-01-01T05:44:23.000Z</time>
      </trkpt>
      <trkpt lat="44.8833" lon="5.72252">
        <ele>993</ele>
        <time>2000-01-01T05:44:33.000Z</time>
      </trkpt>
      <trkpt lat="44.88337" lon="5.72251">
        <ele>993.1</ele>
        <time>2000-01-01T05:44:43.000Z</time>
      </trkpt>
      <trkpt lat="44.88342" lon="5.7225">
        <ele>994.2</ele>
        <time>2000-01-01T05:44:53.000Z</time>
      </trkpt>
      <trkpt lat="44.88347" lon="5.72248">
        <ele>995.9</ele>
        <time>2000-01-01T05:45:03.000Z</time>
      </trkpt>
      <trkpt lat="44.88352" lon="5.72247">
        <ele>1000</ele>
        <time>2000-01-01T05:45:13.000Z</time>
      </trkpt>
      <trkpt lat="44.88359" lon="5.72244">
        <ele>999.5</ele>
        <time>2000-01-01T05:45:23.000Z</time>
      </trkpt>
      <trkpt lat="44.88365" lon="5.72241">
        <ele>1001.6</ele>
        <time>2000-01-01T05:45:33.000Z</time>
      </trkpt>
      <trkpt lat="44.88371" lon="5.72239">
        <ele>1003.1</ele>
        <time>2000-01-01T05:45:43.000Z</time>
      </trkpt>
      <trkpt lat="44.88375" lon="5.72238">
        <ele>1006</ele>
        <time>2000-01-01T05:45:53.000Z</time>
      </trkpt>
      <trkpt lat="44.88363" lon="5.72219">
        <ele>1011.7</ele>
        <time>2000-01-01T05:46:03.000Z</time>
      </trkpt>
      <trkpt lat="44.88347" lon="5.72194">
        <ele>1023</ele>
        <time>2000-01-01T05:46:13.000Z</time>
      </trkpt>
      <trkpt lat="44.88335" lon="5.72175">
        <ele>1028.6</ele>
        <time>2000-01-01T05:46:23.000Z</time>
      </trkpt>
      <trkpt lat="44.88318" lon="5.72143">
        <ele>1035</ele>
        <time>2000-01-01T05:46:33.000Z</time>
      </trkpt>
      <trkpt lat="44.88291" lon="5.72117">
        <ele>1044</ele>
        <time>2000-01-01T05:46:43.000Z</time>
      </trkpt>
      <trkpt lat="44.8831" lon="5.721">
        <ele>1054</ele>
        <time>2000-01-01T05:46:53.000Z</time>
      </trkpt>
      <trkpt lat="44.88307" lon="5.72076">
        <ele>1061.9</ele>
        <time>2000-01-01T05:47:03.000Z</time>
      </trkpt>
      <trkpt lat="44.88327" lon="5.72072">
        <ele>1067</ele>
        <time>2000-01-01T05:47:13.000Z</time>
      </trkpt>
      <trkpt lat="44.88305" lon="5.72025">
        <ele>1080</ele>
        <time>2000-01-01T05:47:23.000Z</time>
      </trkpt>
      <trkpt lat="44.88282" lon="5.71978">
        <ele>1097</ele>
        <time>2000-01-01T05:47:33.000Z</time>
      </trkpt>
      <trkpt lat="44.88259" lon="5.71932">
        <ele>1104</ele>
        <time>2000-01-01T05:47:43.000Z</time>
      </trkpt>
      <trkpt lat="44.88236" lon="5.71885">
        <ele>1119</ele>
        <time>2000-01-01T05:47:53.000Z</time>
      </trkpt>
      <trkpt lat="44.88213" lon="5.71838">
        <ele>1133</ele>
        <time>2000-01-01T05:48:03.000Z</time>
      </trkpt>
      <trkpt lat="44.88199" lon="5.71809">
        <ele>1140</ele>
        <time>2000-01-01T05:48:13.000Z</time>
      </trkpt>
      <trkpt lat="44.88183" lon="5.71776">
        <ele>1144</ele>
        <time>2000-01-01T05:48:23.000Z</time>
      </trkpt>
      <trkpt lat="44.88207" lon="5.71756">
        <ele>1157</ele>
        <time>2000-01-01T05:48:33.000Z</time>
      </trkpt>
      <trkpt lat="44.88218" lon="5.71747">
        <ele>1164.3</ele>
        <time>2000-01-01T05:48:43.000Z</time>
      </trkpt>
      <trkpt lat="44.88229" lon="5.71738">
        <ele>1166</ele>
        <time>2000-01-01T05:48:53.000Z</time>
      </trkpt>
      <trkpt lat="44.8824" lon="5.71729">
        <ele>1172.2</ele>
        <time>2000-01-01T05:49:03.000Z</time>
      </trkpt>
      <trkpt lat="44.88245" lon="5.71732">
        <ele>1173.9</ele>
        <time>2000-01-01T05:49:13.000Z</time>
      </trkpt>
      <trkpt lat="44.88247" lon="5.71733">
        <ele>1172</ele>
        <time>2000-01-01T05:49:23.000Z</time>
      </trkpt>
      <trkpt lat="44.8825" lon="5.71733">
        <ele>1175.6</ele>
        <time>2000-01-01T05:49:33.000Z</time>
      </trkpt>
      <trkpt lat="44.88252" lon="5.71732">
        <ele>1176.3</ele>
        <time>2000-01-01T05:49:43.000Z</time>
      </trkpt>
      <trkpt lat="44.88255" lon="5.7173">
        <ele>1177.4</ele>
        <time>2000-01-01T05:49:53.000Z</time>
      </trkpt>
      <trkpt lat="44.88258" lon="5.71728">
        <ele>1178.4</ele>
        <time>2000-01-01T05:50:03.000Z</time>
      </trkpt>
      <trkpt lat="44.88262" lon="5.71725">
        <ele>1179.8</ele>
        <time>2000-01-01T05:50:13.000Z</time>
      </trkpt>
      <trkpt lat="44.88266" lon="5.71722">
        <ele>1179</ele>
        <time>2000-01-01T05:50:23.000Z</time>
      </trkpt>
      <trkpt lat="44.88271" lon="5.7172">
        <ele>1182.3</ele>
        <time>2000-01-01T05:50:33.000Z</time>
      </trkpt>
      <trkpt lat="44.88276" lon="5.71717">
        <ele>1183.3</ele>
        <time>2000-01-01T05:50:43.000Z</time>
      </trkpt>
      <trkpt lat="44.8828" lon="5.71715">
        <ele>1184.3</ele>
        <time>2000-01-01T05:50:53.000Z</time>
      </trkpt>
      <trkpt lat="44.88285" lon="5.71713">
        <ele>1185</ele>
        <time>2000-01-01T05:51:03.000Z</time>
      </trkpt>
      <trkpt lat="44.88291" lon="5.71711">
        <ele>1187.5</ele>
        <time>2000-01-01T05:51:13.000Z</time>
      </trkpt>
      <trkpt lat="44.88296" lon="5.71709">
        <ele>1189</ele>
        <time>2000-01-01T05:51:23.000Z</time>
      </trkpt>
      <trkpt lat="44.88301" lon="5.71708">
        <ele>1190.7</ele>
        <time>2000-01-01T05:51:33.000Z</time>
      </trkpt>
      <trkpt lat="44.88307" lon="5.71706">
        <ele>1188</ele>
        <time>2000-01-01T05:51:43.000Z</time>
      </trkpt>
      <trkpt lat="44.88312" lon="5.71705">
        <ele>1194.4</ele>
        <time>2000-01-01T05:51:53.000Z</time>
      </trkpt>
      <trkpt lat="44.88317" lon="5.71703">
        <ele>1195.9</ele>
        <time>2000-01-01T05:52:03.000Z</time>
      </trkpt>
      <trkpt lat="44.88323" lon="5.71702">
        <ele>1198.1</ele>
        <time>2000-01-01T05:52:13.000Z</time>
      </trkpt>
      <trkpt lat="44.88328" lon="5.717">
        <ele>1197</ele>
        <time>2000-01-01T05:52:23.000Z</time>
      </trkpt>
      <trkpt lat="44.88333" lon="5.71699">
        <ele>1201.5</ele>
        <time>2000-01-01T05:52:33.000Z</time>
      </trkpt>
      <trkpt lat="44.88338" lon="5.71698">
        <ele>1203.4</ele>
        <time>2000-01-01T05:52:43.000Z</time>
      </trkpt>
      <trkpt lat="44.88343" lon="5.71697">
        <ele>1205.2</ele>
        <time>2000-01-01T05:52:53.000Z</time>
      </trkpt>
      <trkpt lat="44.88348" lon="5.71697">
        <ele>1203</ele>
        <time>2000-01-01T05:53:03.000Z</time>
      </trkpt>
      <trkpt lat="44.88353" lon="5.71696">
        <ele>1209</ele>
        <time>2000-01-01T05:53:13.000Z</time>
      </trkpt>
      <trkpt lat="44.88358" lon="5.71695">
        <ele>1210.8</ele>
        <time>2000-01-01T05:53:23.000Z</time>
      </trkpt>
      <trkpt lat="44.88363" lon="5.71695">
        <ele>1212.8</ele>
        <time>2000-01-01T05:53:33.000Z</time>
      </trkpt>
      <trkpt lat="44.88367" lon="5.71694">
        <ele>1210</ele>
        <time>2000-01-01T05:53:43.000Z</time>
      </trkpt>
      <trkpt lat="44.88372" lon="5.71693">
        <ele>1215.5</ele>
        <time>2000-01-01T05:53:53.000Z</time>
      </trkpt>
      <trkpt lat="44.88376" lon="5.71692">
        <ele>1216.7</ele>
        <time>2000-01-01T05:54:03.000Z</time>
      </trkpt>
      <trkpt lat="44.88382" lon="5.71691">
        <ele>1218.6</ele>
        <time>2000-01-01T05:54:13.000Z</time>
      </trkpt>
      <trkpt lat="44.88387" lon="5.7169">
        <ele>1216</ele>
        <time>2000-01-01T05:54:23.000Z</time>
      </trkpt>
      <trkpt lat="44.88392" lon="5.71688">
        <ele>1221.5</ele>
        <time>2000-01-01T05:54:33.000Z</time>
      </trkpt>
      <trkpt lat="44.88397" lon="5.71686">
        <ele>1222.8</ele>
        <time>2000-01-01T05:54:43.000Z</time>
      </trkpt>
      <trkpt lat="44.88402" lon="5.71685">
        <ele>1224.3</ele>
        <time>2000-01-01T05:54:53.000Z</time>
      </trkpt>
      <trkpt lat="44.88407" lon="5.71684">
        <ele>1223</ele>
        <time>2000-01-01T05:55:03.000Z</time>
      </trkpt>
      <trkpt lat="44.88412" lon="5.71683">
        <ele>1227.4</ele>
        <time>2000-01-01T05:55:13.000Z</time>
      </trkpt>
      <trkpt lat="44.88418" lon="5.71683">
        <ele>1229.6</ele>
        <time>2000-01-01T05:55:23.000Z</time>
      </trkpt>
      <trkpt lat="44.88424" lon="5.71683">
        <ele>1231.8</ele>
        <time>2000-01-01T05:55:33.000Z</time>
      </trkpt>
      <trkpt lat="44.88429" lon="5.71683">
        <ele>1230</ele>
        <time>2000-01-01T05:55:43.000Z</time>
      </trkpt>
      <trkpt lat="44.88434" lon="5.71683">
        <ele>1235.4</ele>
        <time>2000-01-01T05:55:53.000Z</time>
      </trkpt>
      <trkpt lat="44.88439" lon="5.71683">
        <ele>1237.2</ele>
        <time>2000-01-01T05:56:03.000Z</time>
      </trkpt>
      <trkpt lat="44.88443" lon="5.71684">
        <ele>1238.8</ele>
        <time>2000-01-01T05:56:13.000Z</time>
      </trkpt>
      <trkpt lat="44.88448" lon="5.71684">
        <ele>1240.5</ele>
        <time>2000-01-01T05:56:23.000Z</time>
      </trkpt>
      <trkpt lat="44.88453" lon="5.71684">
        <ele>1240</ele>
        <time>2000-01-01T05:56:33.000Z</time>
      </trkpt>
      <trkpt lat="44.88457" lon="5.71685">
        <ele>1243.7</ele>
        <time>2000-01-01T05:56:43.000Z</time>
      </trkpt>
      <trkpt lat="44.88462" lon="5.71686">
        <ele>1245.6</ele>
        <time>2000-01-01T05:56:53.000Z</time>
      </trkpt>
      <trkpt lat="44.88466" lon="5.71687">
        <ele>1247.1</ele>
        <time>2000-01-01T05:57:03.000Z</time>
      </trkpt>
      <trkpt lat="44.8847" lon="5.71689">
        <ele>1248.9</ele>
        <time>2000-01-01T05:57:13.000Z</time>
      </trkpt>
      <trkpt lat="44.88474" lon="5.7169">
        <ele>1250</ele>
        <time>2000-01-01T05:57:23.000Z</time>
      </trkpt>
      <trkpt lat="44.88478" lon="5.71692">
        <ele>1252.4</ele>
        <time>2000-01-01T05:57:33.000Z</time>
      </trkpt>
      <trkpt lat="44.88482" lon="5.71693">
        <ele>1254.1</ele>
        <time>2000-01-01T05:57:43.000Z</time>
      </trkpt>
      <trkpt lat="44.88486" lon="5.71695">
        <ele>1256.1</ele>
        <time>2000-01-01T05:57:53.000Z</time>
      </trkpt>
      <trkpt lat="44.8849" lon="5.71696">
        <ele>1257.7</ele>
        <time>2000-01-01T05:58:03.000Z</time>
      </trkpt>
      <trkpt lat="44.88495" lon="5.71696">
        <ele>1255</ele>
        <time>2000-01-01T05:58:13.000Z</time>
      </trkpt>
      <trkpt lat="44.885" lon="5.71697">
        <ele>1261.5</ele>
        <time>2000-01-01T05:58:23.000Z</time>
      </trkpt>
      <trkpt lat="44.88504" lon="5.71697">
        <ele>1262.9</ele>
        <time>2000-01-01T05:58:33.000Z</time>
      </trkpt>
      <trkpt lat="44.88508" lon="5.71697">
        <ele>1264.4</ele>
        <time>2000-01-01T05:58:43.000Z</time>
      </trkpt>
      <trkpt lat="44.88513" lon="5.71696">
        <ele>1266</ele>
        <time>2000-01-01T05:58:53.000Z</time>
      </trkpt>
      <trkpt lat="44.88519" lon="5.71697">
        <ele>1262</ele>
        <time>2000-01-01T05:59:03.000Z</time>
      </trkpt>
      <trkpt lat="44.88524" lon="5.71697">
        <ele>1270.2</ele>
        <time>2000-01-01T05:59:13.000Z</time>
      </trkpt>
      <trkpt lat="44.88528" lon="5.71697">
        <ele>1271.6</ele>
        <time>2000-01-01T05:59:23.000Z</time>
      </trkpt>
      <trkpt lat="44.88532" lon="5.71695">
        <ele>1272.5</ele>
        <time>2000-01-01T05:59:33.000Z</time>
      </trkpt>
      <trkpt lat="44.88536" lon="5.71694">
        <ele>1273.5</ele>
        <time>2000-01-01T05:59:43.000Z</time>
      </trkpt>
      <trkpt lat="44.88541" lon="5.71693">
        <ele>1273</ele>
        <time>2000-01-01T05:59:53.000Z</time>
      </trkpt>
      <trkpt lat="44.88546" lon="5.71692">
        <ele>1276</ele>
        <time>2000-01-01T06:00:03.000Z</time>
      </trkpt>
      <trkpt lat="44.8855" lon="5.71693">
        <ele>1277.7</ele>
        <time>2000-01-01T06:00:13.000Z</time>
      </trkpt>
      <trkpt lat="44.88554" lon="5.71693">
        <ele>1279</ele>
        <time>2000-01-01T06:00:23.000Z</time>
      </trkpt>
      <trkpt lat="44.88558" lon="5.71696">
        <ele>1281.1</ele>
        <time>2000-01-01T06:00:33.000Z</time>
      </trkpt>
      <trkpt lat="44.88563" lon="5.71698">
        <ele>1280</ele>
        <time>2000-01-01T06:00:43.000Z</time>
      </trkpt>
      <trkpt lat="44.88567" lon="5.717">
        <ele>1284.7</ele>
        <time>2000-01-01T06:00:53.000Z</time>
      </trkpt>
      <trkpt lat="44.88573" lon="5.71703">
        <ele>1287.2</ele>
        <time>2000-01-01T06:01:03.000Z</time>
      </trkpt>
      <trkpt lat="44.8858" lon="5.71707">
        <ele>1290.2</ele>
        <time>2000-01-01T06:01:13.000Z</time>
      </trkpt>
      <trkpt lat="44.88594" lon="5.71711">
        <ele>1294</ele>
        <time>2000-01-01T06:01:23.000Z</time>
      </trkpt>
      <trkpt lat="44.88604" lon="5.71714">
        <ele>1296.3</ele>
        <time>2000-01-01T06:01:33.000Z</time>
      </trkpt>
      <trkpt lat="44.88608" lon="5.71714">
        <ele>1297</ele>
        <time>2000-01-01T06:01:43.000Z</time>
      </trkpt>
      <trkpt lat="44.88613" lon="5.71715">
        <ele>1298</ele>
        <time>2000-01-01T06:01:53.000Z</time>
      </trkpt>
      <trkpt lat="44.88618" lon="5.71717">
        <ele>1297</ele>
        <time>2000-01-01T06:02:03.000Z</time>
      </trkpt>
      <trkpt lat="44.88623" lon="5.71718">
        <ele>1300</ele>
        <time>2000-01-01T06:02:13.000Z</time>
      </trkpt>
      <trkpt lat="44.88629" lon="5.71719">
        <ele>1301.1</ele>
        <time>2000-01-01T06:02:23.000Z</time>
      </trkpt>
      <trkpt lat="44.88634" lon="5.7172">
        <ele>1302</ele>
        <time>2000-01-01T06:02:33.000Z</time>
      </trkpt>
      <trkpt lat="44.8864" lon="5.71721">
        <ele>1302</ele>
        <time>2000-01-01T06:02:43.000Z</time>
      </trkpt>
      <trkpt lat="44.88646" lon="5.71722">
        <ele>1304.2</ele>
        <time>2000-01-01T06:02:53.000Z</time>
      </trkpt>
      <trkpt lat="44.88653" lon="5.71722">
        <ele>1305.5</ele>
        <time>2000-01-01T06:03:03.000Z</time>
      </trkpt>
      <trkpt lat="44.88659" lon="5.71723">
        <ele>1306.5</ele>
        <time>2000-01-01T06:03:13.000Z</time>
      </trkpt>
      <trkpt lat="44.88666" lon="5.71724">
        <ele>1306</ele>
        <time>2000-01-01T06:03:23.000Z</time>
      </trkpt>
      <trkpt lat="44.88672" lon="5.71724">
        <ele>1308.8</ele>
        <time>2000-01-01T06:03:33.000Z</time>
      </trkpt>
      <trkpt lat="44.88677" lon="5.71724">
        <ele>1309.7</ele>
        <time>2000-01-01T06:03:43.000Z</time>
      </trkpt>
      <trkpt lat="44.88683" lon="5.71724">
        <ele>1310.8</ele>
        <time>2000-01-01T06:03:53.000Z</time>
      </trkpt>
      <trkpt lat="44.8869" lon="5.71724">
        <ele>1310</ele>
        <time>2000-01-01T06:04:03.000Z</time>
      </trkpt>
      <trkpt lat="44.88695" lon="5.71724">
        <ele>1313</ele>
        <time>2000-01-01T06:04:13.000Z</time>
      </trkpt>
      <trkpt lat="44.88701" lon="5.71723">
        <ele>1314.2</ele>
        <time>2000-01-01T06:04:23.000Z</time>
      </trkpt>
      <trkpt lat="44.88708" lon="5.71723">
        <ele>1315.4</ele>
        <time>2000-01-01T06:04:33.000Z</time>
      </trkpt>
      <trkpt lat="44.88716" lon="5.71722">
        <ele>1315</ele>
        <time>2000-01-01T06:04:43.000Z</time>
      </trkpt>
      <trkpt lat="44.88722" lon="5.71722">
        <ele>1317.9</ele>
        <time>2000-01-01T06:04:53.000Z</time>
      </trkpt>
      <trkpt lat="44.8873" lon="5.71721">
        <ele>1318.6</ele>
        <time>2000-01-01T06:05:03.000Z</time>
      </trkpt>
      <trkpt lat="44.88737" lon="5.7172">
        <ele>1316</ele>
        <time>2000-01-01T06:05:13.000Z</time>
      </trkpt>
      <trkpt lat="44.88744" lon="5.71719">
        <ele>1319.7</ele>
        <time>2000-01-01T06:05:23.000Z</time>
      </trkpt>
      <trkpt lat="44.8875" lon="5.71718">
        <ele>1320.1</ele>
        <time>2000-01-01T06:05:33.000Z</time>
      </trkpt>
      <trkpt lat="44.88756" lon="5.71717">
        <ele>1320.8</ele>
        <time>2000-01-01T06:05:43.000Z</time>
      </trkpt>
      <trkpt lat="44.88763" lon="5.71716">
        <ele>1320</ele>
        <time>2000-01-01T06:05:53.000Z</time>
      </trkpt>
      <trkpt lat="44.8877" lon="5.71715">
        <ele>1322.5</ele>
        <time>2000-01-01T06:06:03.000Z</time>
      </trkpt>
      <trkpt lat="44.88777" lon="5.71714">
        <ele>1323.4</ele>
        <time>2000-01-01T06:06:13.000Z</time>
      </trkpt>
      <trkpt lat="44.88783" lon="5.71713">
        <ele>1324</ele>
        <time>2000-01-01T06:06:23.000Z</time>
      </trkpt>
      <trkpt lat="44.88788" lon="5.71713">
        <ele>1324.3</ele>
        <time>2000-01-01T06:06:33.000Z</time>
      </trkpt>
      <trkpt lat="44.88793" lon="5.71713">
        <ele>1324.8</ele>
        <time>2000-01-01T06:06:43.000Z</time>
      </trkpt>
      <trkpt lat="44.88798" lon="5.71715">
        <ele>1325.5</ele>
        <time>2000-01-01T06:06:53.000Z</time>
      </trkpt>
      <trkpt lat="44.88803" lon="5.71716">
        <ele>1326</ele>
        <time>2000-01-01T06:07:03.000Z</time>
      </trkpt>
      <trkpt lat="44.88808" lon="5.71717">
        <ele>1326.6</ele>
        <time>2000-01-01T06:07:13.000Z</time>
      </trkpt>
      <trkpt lat="44.88814" lon="5.71718">
        <ele>1327.2</ele>
        <time>2000-01-01T06:07:23.000Z</time>
      </trkpt>
      <trkpt lat="44.88821" lon="5.71718">
        <ele>1327.7</ele>
        <time>2000-01-01T06:07:33.000Z</time>
      </trkpt>
      <trkpt lat="44.88833" lon="5.71715">
        <ele>1329</ele>
        <time>2000-01-01T06:07:43.000Z</time>
      </trkpt>
      <trkpt lat="44.88834" lon="5.71718">
        <ele>1328.8</ele>
        <time>2000-01-01T06:07:53.000Z</time>
      </trkpt>
      <trkpt lat="44.88836" lon="5.71721">
        <ele>1329.2</ele>
        <time>2000-01-01T06:08:03.000Z</time>
      </trkpt>
      <trkpt lat="44.88838" lon="5.71722">
        <ele>1329.5</ele>
        <time>2000-01-01T06:08:13.000Z</time>
      </trkpt>
      <trkpt lat="44.88842" lon="5.71723">
        <ele>1329.7</ele>
        <time>2000-01-01T06:08:23.000Z</time>
      </trkpt>
      <trkpt lat="44.88848" lon="5.71722">
        <ele>1330.6</ele>
        <time>2000-01-01T06:08:33.000Z</time>
      </trkpt>
      <trkpt lat="44.88854" lon="5.71722">
        <ele>1330</ele>
        <time>2000-01-01T06:08:43.000Z</time>
      </trkpt>
      <trkpt lat="44.88859" lon="5.71721">
        <ele>1331.6</ele>
        <time>2000-01-01T06:08:53.000Z</time>
      </trkpt>
      <trkpt lat="44.88865" lon="5.71721">
        <ele>1332.4</ele>
        <time>2000-01-01T06:09:03.000Z</time>
      </trkpt>
      <trkpt lat="44.88871" lon="5.71722">
        <ele>1333.4</ele>
        <time>2000-01-01T06:09:13.000Z</time>
      </trkpt>
      <trkpt lat="44.88878" lon="5.71722">
        <ele>1333</ele>
        <time>2000-01-01T06:09:23.000Z</time>
      </trkpt>
      <trkpt lat="44.88884" lon="5.71722">
        <ele>1335.3</ele>
        <time>2000-01-01T06:09:33.000Z</time>
      </trkpt>
      <trkpt lat="44.88889" lon="5.71722">
        <ele>1336</ele>
        <time>2000-01-01T06:09:43.000Z</time>
      </trkpt>
      <trkpt lat="44.88894" lon="5.71723">
        <ele>1336.9</ele>
        <time>2000-01-01T06:09:53.000Z</time>
      </trkpt>
      <trkpt lat="44.88898" lon="5.71725">
        <ele>1336</ele>
        <time>2000-01-01T06:10:03.000Z</time>
      </trkpt>
      <trkpt lat="44.88902" lon="5.71727">
        <ele>1337.5</ele>
        <time>2000-01-01T06:10:13.000Z</time>
      </trkpt>
      <trkpt lat="44.88907" lon="5.71728">
        <ele>1338.4</ele>
        <time>2000-01-01T06:10:23.000Z</time>
      </trkpt>
      <trkpt lat="44.88911" lon="5.71728">
        <ele>1339.3</ele>
        <time>2000-01-01T06:10:33.000Z</time>
      </trkpt>
      <trkpt lat="44.88914" lon="5.71728">
        <ele>1339.9</ele>
        <time>2000-01-01T06:10:43.000Z</time>
      </trkpt>
      <trkpt lat="44.88918" lon="5.71727">
        <ele>1340</ele>
        <time>2000-01-01T06:10:53.000Z</time>
      </trkpt>
      <trkpt lat="44.88923" lon="5.71726">
        <ele>1343.3</ele>
        <time>2000-01-01T06:11:03.000Z</time>
      </trkpt>
      <trkpt lat="44.88929" lon="5.71725">
        <ele>1345.7</ele>
        <time>2000-01-01T06:11:13.000Z</time>
      </trkpt>
      <trkpt lat="44.88939" lon="5.71723">
        <ele>1346</ele>
        <time>2000-01-01T06:11:23.000Z</time>
      </trkpt>
      <trkpt lat="44.88959" lon="5.71719">
        <ele>1353</ele>
        <time>2000-01-01T06:11:33.000Z</time>
      </trkpt>
      <trkpt lat="44.88971" lon="5.71715">
        <ele>1359.8</ele>
        <time>2000-01-01T06:11:43.000Z</time>
      </trkpt>
      <trkpt lat="44.88979" lon="5.71711">
        <ele>1360</ele>
        <time>2000-01-01T06:11:53.000Z</time>
      </trkpt>
      <trkpt lat="44.88989" lon="5.71706">
        <ele>1363.8</ele>
        <time>2000-01-01T06:12:03.000Z</time>
      </trkpt>
      <trkpt lat="44.88996" lon="5.71704">
        <ele>1365.6</ele>
        <time>2000-01-01T06:12:13.000Z</time>
      </trkpt>
      <trkpt lat="44.89" lon="5.71704">
        <ele>1366</ele>
        <time>2000-01-01T06:12:23.000Z</time>
      </trkpt>
      <trkpt lat="44.89004" lon="5.71704">
        <ele>1367.7</ele>
        <time>2000-01-01T06:12:33.000Z</time>
      </trkpt>
      <trkpt lat="44.89008" lon="5.71705">
        <ele>1368.8</ele>
        <time>2000-01-01T06:12:43.000Z</time>
      </trkpt>
      <trkpt lat="44.89012" lon="5.71705">
        <ele>1369.8</ele>
        <time>2000-01-01T06:12:53.000Z</time>
      </trkpt>
      <trkpt lat="44.89017" lon="5.71707">
        <ele>1371.2</ele>
        <time>2000-01-01T06:13:03.000Z</time>
      </trkpt>
      <trkpt lat="44.89022" lon="5.71707">
        <ele>1372</ele>
        <time>2000-01-01T06:13:13.000Z</time>
      </trkpt>
      <trkpt lat="44.89027" lon="5.71708">
        <ele>1373.8</ele>
        <time>2000-01-01T06:13:23.000Z</time>
      </trkpt>
      <trkpt lat="44.89032" lon="5.71708">
        <ele>1375</ele>
        <time>2000-01-01T06:13:33.000Z</time>
      </trkpt>
      <trkpt lat="44.89037" lon="5.71709">
        <ele>1376.4</ele>
        <time>2000-01-01T06:13:43.000Z</time>
      </trkpt>
      <trkpt lat="44.89045" lon="5.71709">
        <ele>1377</ele>
        <time>2000-01-01T06:13:53.000Z</time>
      </trkpt>
      <trkpt lat="44.8905" lon="5.71709">
        <ele>1379.6</ele>
        <time>2000-01-01T06:14:03.000Z</time>
      </trkpt>
      <trkpt lat="44.89054" lon="5.71708">
        <ele>1380.6</ele>
        <time>2000-01-01T06:14:13.000Z</time>
      </trkpt>
      <trkpt lat="44.89058" lon="5.71708">
        <ele>1381.7</ele>
        <time>2000-01-01T06:14:23.000Z</time>
      </trkpt>
      <trkpt lat="44.89063" lon="5.71709">
        <ele>1383.1</ele>
        <time>2000-01-01T06:14:33.000Z</time>
      </trkpt>
      <trkpt lat="44.89068" lon="5.71711">
        <ele>1383</ele>
        <time>2000-01-01T06:14:43.000Z</time>
      </trkpt>
      <trkpt lat="44.89073" lon="5.71711">
        <ele>1386</ele>
        <time>2000-01-01T06:14:53.000Z</time>
      </trkpt>
      <trkpt lat="44.89079" lon="5.71711">
        <ele>1387.8</ele>
        <time>2000-01-01T06:15:03.000Z</time>
      </trkpt>
      <trkpt lat="44.89092" lon="5.71711">
        <ele>1391</ele>
        <time>2000-01-01T06:15:13.000Z</time>
      </trkpt>
      <trkpt lat="44.89098" lon="5.71709">
        <ele>1393.2</ele>
        <time>2000-01-01T06:15:23.000Z</time>
      </trkpt>
      <trkpt lat="44.89106" lon="5.71708">
        <ele>1395.5</ele>
        <time>2000-01-01T06:15:33.000Z</time>
      </trkpt>
      <trkpt lat="44.89112" lon="5.71708">
        <ele>1397</ele>
        <time>2000-01-01T06:15:43.000Z</time>
      </trkpt>
      <trkpt lat="44.89118" lon="5.71708">
        <ele>1398.4</ele>
        <time>2000-01-01T06:15:53.000Z</time>
      </trkpt>
      <trkpt lat="44.89124" lon="5.71708">
        <ele>1399.5</ele>
        <time>2000-01-01T06:16:03.000Z</time>
      </trkpt>
      <trkpt lat="44.89131" lon="5.71709">
        <ele>1401</ele>
        <time>2000-01-01T06:16:13.000Z</time>
      </trkpt>
      <trkpt lat="44.89141" lon="5.7171">
        <ele>1404</ele>
        <time>2000-01-01T06:16:23.000Z</time>
      </trkpt>
      <trkpt lat="44.89149" lon="5.71712">
        <ele>1404.4</ele>
        <time>2000-01-01T06:16:33.000Z</time>
      </trkpt>
      <trkpt lat="44.89156" lon="5.71714">
        <ele>1405.8</ele>
        <time>2000-01-01T06:16:43.000Z</time>
      </trkpt>
      <trkpt lat="44.89166" lon="5.7172">
        <ele>1407</ele>
        <time>2000-01-01T06:16:53.000Z</time>
      </trkpt>
      <trkpt lat="44.89173" lon="5.71724">
        <ele>1409.9</ele>
        <time>2000-01-01T06:17:03.000Z</time>
      </trkpt>
      <trkpt lat="44.8918" lon="5.71727">
        <ele>1410.8</ele>
        <time>2000-01-01T06:17:13.000Z</time>
      </trkpt>
      <trkpt lat="44.89185" lon="5.7173">
        <ele>1410</ele>
        <time>2000-01-01T06:17:23.000Z</time>
      </trkpt>
      <trkpt lat="44.8919" lon="5.71731">
        <ele>1412.4</ele>
        <time>2000-01-01T06:17:33.000Z</time>
      </trkpt>
      <trkpt lat="44.89195" lon="5.71733">
        <ele>1413.4</ele>
        <time>2000-01-01T06:17:43.000Z</time>
      </trkpt>
      <trkpt lat="44.892" lon="5.71733">
        <ele>1414.7</ele>
        <time>2000-01-01T06:17:53.000Z</time>
      </trkpt>
      <trkpt lat="44.89215" lon="5.71741">
        <ele>1418</ele>
        <time>2000-01-01T06:18:03.000Z</time>
      </trkpt>
      <trkpt lat="44.89235" lon="5.71751">
        <ele>1423</ele>
        <time>2000-01-01T06:18:13.000Z</time>
      </trkpt>
      <trkpt lat="44.89242" lon="5.71755">
        <ele>1424.5</ele>
        <time>2000-01-01T06:18:23.000Z</time>
      </trkpt>
      <trkpt lat="44.89257" lon="5.71757">
        <ele>1429</ele>
        <time>2000-01-01T06:18:33.000Z</time>
      </trkpt>
      <trkpt lat="44.89272" lon="5.71759">
        <ele>1431.4</ele>
        <time>2000-01-01T06:18:43.000Z</time>
      </trkpt>
      <trkpt lat="44.89285" lon="5.71761">
        <ele>1436</ele>
        <time>2000-01-01T06:18:53.000Z</time>
      </trkpt>
      <trkpt lat="44.89297" lon="5.71761">
        <ele>1439.5</ele>
        <time>2000-01-01T06:19:03.000Z</time>
      </trkpt>
      <trkpt lat="44.89309" lon="5.71761">
        <ele>1442</ele>
        <time>2000-01-01T06:19:13.000Z</time>
      </trkpt>
      <trkpt lat="44.89322" lon="5.71761">
        <ele>1448.9</ele>
        <time>2000-01-01T06:19:23.000Z</time>
      </trkpt>
      <trkpt lat="44.89335" lon="5.7176">
        <ele>1453</ele>
        <time>2000-01-01T06:19:33.000Z</time>
      </trkpt>
      <trkpt lat="44.89347" lon="5.71764">
        <ele>1458.2</ele>
        <time>2000-01-01T06:19:43.000Z</time>
      </trkpt>
      <trkpt lat="44.89363" lon="5.71768">
        <ele>1464</ele>
        <time>2000-01-01T06:19:53.000Z</time>
      </trkpt>
      <trkpt lat="44.89375" lon="5.71771">
        <ele>1468</ele>
        <time>2000-01-01T06:20:03.000Z</time>
      </trkpt>
      <trkpt lat="44.89391" lon="5.71776">
        <ele>1473</ele>
        <time>2000-01-01T06:20:13.000Z</time>
      </trkpt>
      <trkpt lat="44.89409" lon="5.71781">
        <ele>1476.5</ele>
        <time>2000-01-01T06:20:23.000Z</time>
      </trkpt>
      <trkpt lat="44.8942" lon="5.71785">
        <ele>1478</ele>
        <time>2000-01-01T06:20:33.000Z</time>
      </trkpt>
      <trkpt lat="44.89429" lon="5.71789">
        <ele>1479.6</ele>
        <time>2000-01-01T06:20:43.000Z</time>
      </trkpt>
      <trkpt lat="44.89437" lon="5.71793">
        <ele>1481.2</ele>
        <time>2000-01-01T06:20:53.000Z</time>
      </trkpt>
      <trkpt lat="44.89448" lon="5.71798">
        <ele>1483</ele>
        <time>2000-01-01T06:21:03.000Z</time>
      </trkpt>
      <trkpt lat="44.89458" lon="5.71802">
        <ele>1487</ele>
        <time>2000-01-01T06:21:13.000Z</time>
      </trkpt>
      <trkpt lat="44.89478" lon="5.71811">
        <ele>1490</ele>
        <time>2000-01-01T06:21:23.000Z</time>
      </trkpt>
      <trkpt lat="44.89486" lon="5.71819">
        <ele>1494.3</ele>
        <time>2000-01-01T06:21:33.000Z</time>
      </trkpt>
      <trkpt lat="44.89494" lon="5.71827">
        <ele>1496</ele>
        <time>2000-01-01T06:21:43.000Z</time>
      </trkpt>
      <trkpt lat="44.89508" lon="5.7184">
        <ele>1500.2</ele>
        <time>2000-01-01T06:21:53.000Z</time>
      </trkpt>
      <trkpt lat="44.8952" lon="5.71846">
        <ele>1505</ele>
        <time>2000-01-01T06:22:03.000Z</time>
      </trkpt>
      <trkpt lat="44.89533" lon="5.71854">
        <ele>1507.6</ele>
        <time>2000-01-01T06:22:13.000Z</time>
      </trkpt>
      <trkpt lat="44.89546" lon="5.71856">
        <ele>1513</ele>
        <time>2000-01-01T06:22:23.000Z</time>
      </trkpt>
      <trkpt lat="44.8956" lon="5.71858">
        <ele>1517.7</ele>
        <time>2000-01-01T06:22:33.000Z</time>
      </trkpt>
      <trkpt lat="44.89574" lon="5.7186">
        <ele>1523</ele>
        <time>2000-01-01T06:22:43.000Z</time>
      </trkpt>
      <trkpt lat="44.89594" lon="5.71863">
        <ele>1528</ele>
        <time>2000-01-01T06:22:53.000Z</time>
      </trkpt>
      <trkpt lat="44.89621" lon="5.71865">
        <ele>1540</ele>
        <time>2000-01-01T06:23:03.000Z</time>
      </trkpt>
      <trkpt lat="44.89654" lon="5.71868">
        <ele>1550</ele>
        <time>2000-01-01T06:23:13.000Z</time>
      </trkpt>
      <trkpt lat="44.89683" lon="5.71865">
        <ele>1562</ele>
        <time>2000-01-01T06:23:23.000Z</time>
      </trkpt>
      <trkpt lat="44.89725" lon="5.71862">
        <ele>1579</ele>
        <time>2000-01-01T06:23:33.000Z</time>
      </trkpt>
      <trkpt lat="44.89754" lon="5.71865">
        <ele>1592</ele>
        <time>2000-01-01T06:23:43.000Z</time>
      </trkpt>
      <trkpt lat="44.89779" lon="5.71875">
        <ele>1601</ele>
        <time>2000-01-01T06:23:53.000Z</time>
      </trkpt>
      <trkpt lat="44.89792" lon="5.7188">
        <ele>1609.2</ele>
        <time>2000-01-01T06:24:03.000Z</time>
      </trkpt>
      <trkpt lat="44.89816" lon="5.71897">
        <ele>1618</ele>
        <time>2000-01-01T06:24:13.000Z</time>
      </trkpt>
      <trkpt lat="44.89847" lon="5.7192">
        <ele>1633</ele>
        <time>2000-01-01T06:24:23.000Z</time>
      </trkpt>
      <trkpt lat="44.89871" lon="5.71947">
        <ele>1646</ele>
        <time>2000-01-01T06:24:33.000Z</time>
      </trkpt>
      <trkpt lat="44.89888" lon="5.71946">
        <ele>1652.3</ele>
        <time>2000-01-01T06:24:43.000Z</time>
      </trkpt>
      <trkpt lat="44.89902" lon="5.71945">
        <ele>1655</ele>
        <time>2000-01-01T06:24:53.000Z</time>
      </trkpt>
      <trkpt lat="44.89919" lon="5.71945">
        <ele>1659.5</ele>
        <time>2000-01-01T06:25:03.000Z</time>
      </trkpt>
      <trkpt lat="44.89934" lon="5.71945">
        <ele>1661</ele>
        <time>2000-01-01T06:25:13.000Z</time>
      </trkpt>
      <trkpt lat="44.89947" lon="5.71946">
        <ele>1666.5</ele>
        <time>2000-01-01T06:25:23.000Z</time>
      </trkpt>
      <trkpt lat="44.89951" lon="5.71947">
        <ele>1667.3</ele>
        <time>2000-01-01T06:25:33.000Z</time>
      </trkpt>
      <trkpt lat="44.89956" lon="5.71948">
        <ele>1666</ele>
        <time>2000-01-01T06:25:43.000Z</time>
      </trkpt>
      <trkpt lat="44.89961" lon="5.71949">
        <ele>1669.5</ele>
        <time>2000-01-01T06:25:53.000Z</time>
      </trkpt>
      <trkpt lat="44.89966" lon="5.7195">
        <ele>1670.7</ele>
        <time>2000-01-01T06:26:03.000Z</time>
      </trkpt>
      <trkpt lat="44.89969" lon="5.71953">
        <ele>1671.5</ele>
        <time>2000-01-01T06:26:13.000Z</time>
      </trkpt>
      <trkpt lat="44.89973" lon="5.71954">
        <ele>1672.5</ele>
        <time>2000-01-01T06:26:23.000Z</time>
      </trkpt>
      <trkpt lat="44.89977" lon="5.71955">
        <ele>1672</ele>
        <time>2000-01-01T06:26:33.000Z</time>
      </trkpt>
      <trkpt lat="44.89981" lon="5.71956">
        <ele>1674.6</ele>
        <time>2000-01-01T06:26:43.000Z</time>
      </trkpt>
      <trkpt lat="44.89986" lon="5.71957">
        <ele>1675.9</ele>
        <time>2000-01-01T06:26:53.000Z</time>
      </trkpt>
      <trkpt lat="44.8999" lon="5.71958">
        <ele>1677</ele>
        <time>2000-01-01T06:27:03.000Z</time>
      </trkpt>
      <trkpt lat="44.89994" lon="5.71959">
        <ele>1678</ele>
        <time>2000-01-01T06:27:13.000Z</time>
      </trkpt>
      <trkpt lat="44.89998" lon="5.7196">
        <ele>1676</ele>
        <time>2000-01-01T06:27:23.000Z</time>
      </trkpt>
      <trkpt lat="44.90002" lon="5.71961">
        <ele>1680.3</ele>
        <time>2000-01-01T06:27:33.000Z</time>
      </trkpt>
      <trkpt lat="44.90006" lon="5.71961">
        <ele>1681.2</ele>
        <time>2000-01-01T06:27:43.000Z</time>
      </trkpt>
      <trkpt lat="44.90009" lon="5.71962">
        <ele>1682</ele>
        <time>2000-01-01T06:27:53.000Z</time>
      </trkpt>
      <trkpt lat="44.90013" lon="5.71961">
        <ele>1682.9</ele>
        <time>2000-01-01T06:28:03.000Z</time>
      </trkpt>
      <trkpt lat="44.90017" lon="5.7196">
        <ele>1683.7</ele>
        <time>2000-01-01T06:28:13.000Z</time>
      </trkpt>
      <trkpt lat="44.90021" lon="5.71962">
        <ele>1685</ele>
        <time>2000-01-01T06:28:23.000Z</time>
      </trkpt>
      <trkpt lat="44.90024" lon="5.71963">
        <ele>1685.8</ele>
        <time>2000-01-01T06:28:33.000Z</time>
      </trkpt>
      <trkpt lat="44.90028" lon="5.71964">
        <ele>1686.9</ele>
        <time>2000-01-01T06:28:43.000Z</time>
      </trkpt>
      <trkpt lat="44.90033" lon="5.71964">
        <ele>1688.1</ele>
        <time>2000-01-01T06:28:53.000Z</time>
      </trkpt>
      <trkpt lat="44.90037" lon="5.71965">
        <ele>1689.3</ele>
        <time>2000-01-01T06:29:03.000Z</time>
      </trkpt>
      <trkpt lat="44.9004" lon="5.71966">
        <ele>1690</ele>
        <time>2000-01-01T06:29:13.000Z</time>
      </trkpt>
      <trkpt lat="44.90044" lon="5.71968">
        <ele>1691.5</ele>
        <time>2000-01-01T06:29:23.000Z</time>
      </trkpt>
      <trkpt lat="44.90048" lon="5.71969">
        <ele>1692.6</ele>
        <time>2000-01-01T06:29:33.000Z</time>
      </trkpt>
      <trkpt lat="44.90052" lon="5.71969">
        <ele>1693.6</ele>
        <time>2000-01-01T06:29:43.000Z</time>
      </trkpt>
      <trkpt lat="44.90055" lon="5.7197">
        <ele>1694.5</ele>
        <time>2000-01-01T06:29:53.000Z</time>
      </trkpt>
      <trkpt lat="44.90059" lon="5.71971">
        <ele>1693</ele>
        <time>2000-01-01T06:30:03.000Z</time>
      </trkpt>
      <trkpt lat="44.90063" lon="5.71973">
        <ele>1696.9</ele>
        <time>2000-01-01T06:30:13.000Z</time>
      </trkpt>
      <trkpt lat="44.90067" lon="5.71974">
        <ele>1698</ele>
        <time>2000-01-01T06:30:23.000Z</time>
      </trkpt>
      <trkpt lat="44.90069" lon="5.71975">
        <ele>1698.6</ele>
        <time>2000-01-01T06:30:33.000Z</time>
      </trkpt>
      <trkpt lat="44.90073" lon="5.71977">
        <ele>1699.8</ele>
        <time>2000-01-01T06:30:43.000Z</time>
      </trkpt>
      <trkpt lat="44.90078" lon="5.7198">
        <ele>1698</ele>
        <time>2000-01-01T06:30:53.000Z</time>
      </trkpt>
      <trkpt lat="44.90083" lon="5.71982">
        <ele>1703</ele>
        <time>2000-01-01T06:31:03.000Z</time>
      </trkpt>
      <trkpt lat="44.90087" lon="5.71983">
        <ele>1704.3</ele>
        <time>2000-01-01T06:31:13.000Z</time>
      </trkpt>
      <trkpt lat="44.90091" lon="5.71984">
        <ele>1705.6</ele>
        <time>2000-01-01T06:31:23.000Z</time>
      </trkpt>
      <trkpt lat="44.90094" lon="5.71984">
        <ele>1706.6</ele>
        <time>2000-01-01T06:31:33.000Z</time>
      </trkpt>
      <trkpt lat="44.90097" lon="5.71984">
        <ele>1705</ele>
        <time>2000-01-01T06:31:43.000Z</time>
      </trkpt>
      <trkpt lat="44.90101" lon="5.71983">
        <ele>1708.6</ele>
        <time>2000-01-01T06:31:53.000Z</time>
      </trkpt>
      <trkpt lat="44.90104" lon="5.71981">
        <ele>1709.4</ele>
        <time>2000-01-01T06:32:03.000Z</time>
      </trkpt>
      <trkpt lat="44.90106" lon="5.71978">
        <ele>1709.8</ele>
        <time>2000-01-01T06:32:13.000Z</time>
      </trkpt>
      <trkpt lat="44.90109" lon="5.71977">
        <ele>1710.7</ele>
        <time>2000-01-01T06:32:23.000Z</time>
      </trkpt>
      <trkpt lat="44.90112" lon="5.71977">
        <ele>1711.6</ele>
        <time>2000-01-01T06:32:33.000Z</time>
      </trkpt>
      <trkpt lat="44.90116" lon="5.71977">
        <ele>1710</ele>
        <time>2000-01-01T06:32:43.000Z</time>
      </trkpt>
      <trkpt lat="44.9012" lon="5.71978">
        <ele>1713.9</ele>
        <time>2000-01-01T06:32:53.000Z</time>
      </trkpt>
      <trkpt lat="44.90124" lon="5.71979">
        <ele>1715.1</ele>
        <time>2000-01-01T06:33:03.000Z</time>
      </trkpt>
      <trkpt lat="44.90128" lon="5.7198">
        <ele>1716.3</ele>
        <time>2000-01-01T06:33:13.000Z</time>
      </trkpt>
      <trkpt lat="44.90133" lon="5.71981">
        <ele>1717.7</ele>
        <time>2000-01-01T06:33:23.000Z</time>
      </trkpt>
      <trkpt lat="44.90136" lon="5.71981">
        <ele>1718</ele>
        <time>2000-01-01T06:33:33.000Z</time>
      </trkpt>
      <trkpt lat="44.90139" lon="5.71981">
        <ele>1719.3</ele>
        <time>2000-01-01T06:33:43.000Z</time>
      </trkpt>
      <trkpt lat="44.90142" lon="5.7198">
        <ele>1720</ele>
        <time>2000-01-01T06:33:53.000Z</time>
      </trkpt>
      <trkpt lat="44.90144" lon="5.71979">
        <ele>1720.3</ele>
        <time>2000-01-01T06:34:03.000Z</time>
      </trkpt>
      <trkpt lat="44.90147" lon="5.71978">
        <ele>1721</ele>
        <time>2000-01-01T06:34:13.000Z</time>
      </trkpt>
      <trkpt lat="44.9015" lon="5.71978">
        <ele>1721.6</ele>
        <time>2000-01-01T06:34:23.000Z</time>
      </trkpt>
      <trkpt lat="44.90153" lon="5.71977">
        <ele>1722.2</ele>
        <time>2000-01-01T06:34:33.000Z</time>
      </trkpt>
      <trkpt lat="44.90156" lon="5.71975">
        <ele>1721</ele>
        <time>2000-01-01T06:34:43.000Z</time>
      </trkpt>
      <trkpt lat="44.90159" lon="5.71975">
        <ele>1723.4</ele>
        <time>2000-01-01T06:34:53.000Z</time>
      </trkpt>
      <trkpt lat="44.90162" lon="5.71974">
        <ele>1724.1</ele>
        <time>2000-01-01T06:35:03.000Z</time>
      </trkpt>
      <trkpt lat="44.90163" lon="5.71973">
        <ele>1724.2</ele>
        <time>2000-01-01T06:35:13.000Z</time>
      </trkpt>
      <trkpt lat="44.90167" lon="5.71972">
        <ele>1725</ele>
        <time>2000-01-01T06:35:23.000Z</time>
      </trkpt>
      <trkpt lat="44.90171" lon="5.71971">
        <ele>1725.5</ele>
        <time>2000-01-01T06:35:33.000Z</time>
      </trkpt>
      <trkpt lat="44.90175" lon="5.71971">
        <ele>1726</ele>
        <time>2000-01-01T06:35:43.000Z</time>
      </trkpt>
      <trkpt lat="44.90179" lon="5.7197">
        <ele>1725</ele>
        <time>2000-01-01T06:35:53.000Z</time>
      </trkpt>
      <trkpt lat="44.90184" lon="5.71971">
        <ele>1727.3</ele>
        <time>2000-01-01T06:36:03.000Z</time>
      </trkpt>
      <trkpt lat="44.90189" lon="5.71971">
        <ele>1728.1</ele>
        <time>2000-01-01T06:36:13.000Z</time>
      </trkpt>
      <trkpt lat="44.90194" lon="5.71971">
        <ele>1728.8</ele>
        <time>2000-01-01T06:36:23.000Z</time>
      </trkpt>
      <trkpt lat="44.90199" lon="5.7197">
        <ele>1728</ele>
        <time>2000-01-01T06:36:33.000Z</time>
      </trkpt>
      <trkpt lat="44.90204" lon="5.7197">
        <ele>1730.1</ele>
        <time>2000-01-01T06:36:43.000Z</time>
      </trkpt>
      <trkpt lat="44.90209" lon="5.71969">
        <ele>1730.7</ele>
        <time>2000-01-01T06:36:53.000Z</time>
      </trkpt>
      <trkpt lat="44.90213" lon="5.71969">
        <ele>1731.3</ele>
        <time>2000-01-01T06:37:03.000Z</time>
      </trkpt>
      <trkpt lat="44.90218" lon="5.71968">
        <ele>1731.9</ele>
        <time>2000-01-01T06:37:13.000Z</time>
      </trkpt>
      <trkpt lat="44.90221" lon="5.71967">
        <ele>1731</ele>
        <time>2000-01-01T06:37:23.000Z</time>
      </trkpt>
      <trkpt lat="44.90226" lon="5.71967">
        <ele>1732.9</ele>
        <time>2000-01-01T06:37:33.000Z</time>
      </trkpt>
      <trkpt lat="44.9023" lon="5.71967">
        <ele>1733.3</ele>
        <time>2000-01-01T06:37:43.000Z</time>
      </trkpt>
      <trkpt lat="44.90233" lon="5.71967">
        <ele>1733.7</ele>
        <time>2000-01-01T06:37:53.000Z</time>
      </trkpt>
      <trkpt lat="44.90237" lon="5.71967">
        <ele>1734.1</ele>
        <time>2000-01-01T06:38:03.000Z</time>
      </trkpt>
      <trkpt lat="44.90239" lon="5.71968">
        <ele>1734.4</ele>
        <time>2000-01-01T06:38:13.000Z</time>
      </trkpt>
      <trkpt lat="44.90244" lon="5.71969">
        <ele>1733</ele>
        <time>2000-01-01T06:38:23.000Z</time>
      </trkpt>
      <trkpt lat="44.90247" lon="5.71969">
        <ele>1735.4</ele>
        <time>2000-01-01T06:38:33.000Z</time>
      </trkpt>
      <trkpt lat="44.90251" lon="5.71968">
        <ele>1735.8</ele>
        <time>2000-01-01T06:38:43.000Z</time>
      </trkpt>
      <trkpt lat="44.90256" lon="5.71967">
        <ele>1736</ele>
        <time>2000-01-01T06:38:53.000Z</time>
      </trkpt>
      <trkpt lat="44.90281" lon="5.7195">
        <ele>1733</ele>
        <time>2000-01-01T06:39:03.000Z</time>
      </trkpt>
      <trkpt lat="44.90314" lon="5.71928">
        <ele>1733</ele>
        <time>2000-01-01T06:39:13.000Z</time>
      </trkpt>
      <trkpt lat="44.90352" lon="5.71913">
        <ele>1734</ele>
        <time>2000-01-01T06:39:23.000Z</time>
      </trkpt>
      <trkpt lat="44.90376" lon="5.71906">
        <ele>1736</ele>
        <time>2000-01-01T06:39:33.000Z</time>
      </trkpt>
      <trkpt lat="44.90402" lon="5.71898">
        <ele>1736</ele>
        <time>2000-01-01T06:39:43.000Z</time>
      </trkpt>
      <trkpt lat="44.90446" lon="5.71879">
        <ele>1736</ele>
        <time>2000-01-01T06:39:53.000Z</time>
      </trkpt>
      <trkpt lat="44.9047" lon="5.71872">
        <ele>1735</ele>
        <time>2000-01-01T06:40:03.000Z</time>
      </trkpt>
      <trkpt lat="44.90496" lon="5.71864">
        <ele>1735</ele>
        <time>2000-01-01T06:40:13.000Z</time>
      </trkpt>
      <trkpt lat="44.90542" lon="5.71862">
        <ele>1735</ele>
        <time>2000-01-01T06:40:23.000Z</time>
      </trkpt>
      <trkpt lat="44.9054" lon="5.71856">
        <ele>1737.1</ele>
        <time>2000-01-01T06:40:33.000Z</time>
      </trkpt>
      <trkpt lat="44.90543" lon="5.71855">
        <ele>1737.1</ele>
        <time>2000-01-01T06:40:43.000Z</time>
      </trkpt>
      <trkpt lat="44.90547" lon="5.71853">
        <ele>1737</ele>
        <time>2000-01-01T06:40:53.000Z</time>
      </trkpt>
      <trkpt lat="44.9055" lon="5.71851">
        <ele>1736.9</ele>
        <time>2000-01-01T06:41:03.000Z</time>
      </trkpt>
      <trkpt lat="44.90553" lon="5.71849">
        <ele>1736.7</ele>
        <time>2000-01-01T06:41:13.000Z</time>
      </trkpt>
      <trkpt lat="44.90557" lon="5.71847">
        <ele>1735</ele>
        <time>2000-01-01T06:41:23.000Z</time>
      </trkpt>
      <trkpt lat="44.9056" lon="5.71846">
        <ele>1736.5</ele>
        <time>2000-01-01T06:41:33.000Z</time>
      </trkpt>
      <trkpt lat="44.90564" lon="5.71844">
        <ele>1736.3</ele>
        <time>2000-01-01T06:41:43.000Z</time>
      </trkpt>
      <trkpt lat="44.90568" lon="5.71842">
        <ele>1736.1</ele>
        <time>2000-01-01T06:41:53.000Z</time>
      </trkpt>
      <trkpt lat="44.90572" lon="5.71841">
        <ele>1736.1</ele>
        <time>2000-01-01T06:42:03.000Z</time>
      </trkpt>
      <trkpt lat="44.90576" lon="5.7184">
        <ele>1734</ele>
        <time>2000-01-01T06:42:13.000Z</time>
      </trkpt>
      <trkpt lat="44.90579" lon="5.71839">
        <ele>1736</ele>
        <time>2000-01-01T06:42:23.000Z</time>
      </trkpt>
      <trkpt lat="44.90583" lon="5.71839">
        <ele>1736.2</ele>
        <time>2000-01-01T06:42:33.000Z</time>
      </trkpt>
      <trkpt lat="44.90587" lon="5.71838">
        <ele>1736</ele>
        <time>2000-01-01T06:42:43.000Z</time>
      </trkpt>
      <trkpt lat="44.90589" lon="5.71836">
        <ele>1735.6</ele>
        <time>2000-01-01T06:42:53.000Z</time>
      </trkpt>
      <trkpt lat="44.9059" lon="5.71835">
        <ele>1735.4</ele>
        <time>2000-01-01T06:43:03.000Z</time>
      </trkpt>
      <trkpt lat="44.90593" lon="5.71835">
        <ele>1735.4</ele>
        <time>2000-01-01T06:43:13.000Z</time>
      </trkpt>
      <trkpt lat="44.90597" lon="5.71835">
        <ele>1734</ele>
        <time>2000-01-01T06:43:23.000Z</time>
      </trkpt>
      <trkpt lat="44.90601" lon="5.71834">
        <ele>1735.1</ele>
        <time>2000-01-01T06:43:33.000Z</time>
      </trkpt>
      <trkpt lat="44.90606" lon="5.71834">
        <ele>1735.1</ele>
        <time>2000-01-01T06:43:43.000Z</time>
      </trkpt>
      <trkpt lat="44.9061" lon="5.71834">
        <ele>1735.1</ele>
        <time>2000-01-01T06:43:53.000Z</time>
      </trkpt>
      <trkpt lat="44.90614" lon="5.71833">
        <ele>1734.8</ele>
        <time>2000-01-01T06:44:03.000Z</time>
      </trkpt>
      <trkpt lat="44.90618" lon="5.71832">
        <ele>1734</ele>
        <time>2000-01-01T06:44:13.000Z</time>
      </trkpt>
      <trkpt lat="44.90621" lon="5.71832">
        <ele>1734.1</ele>
        <time>2000-01-01T06:44:23.000Z</time>
      </trkpt>
      <trkpt lat="44.90624" lon="5.71833">
        <ele>1734.4</ele>
        <time>2000-01-01T06:44:33.000Z</time>
      </trkpt>
      <trkpt lat="44.90628" lon="5.71833">
        <ele>1734.3</ele>
        <time>2000-01-01T06:44:43.000Z</time>
      </trkpt>
      <trkpt lat="44.90632" lon="5.71832">
        <ele>1733.7</ele>
        <time>2000-01-01T06:44:53.000Z</time>
      </trkpt>
      <trkpt lat="44.90636" lon="5.71832">
        <ele>1733.6</ele>
        <time>2000-01-01T06:45:03.000Z</time>
      </trkpt>
      <trkpt lat="44.9064" lon="5.71831">
        <ele>1733</ele>
        <time>2000-01-01T06:45:13.000Z</time>
      </trkpt>
      <trkpt lat="44.90644" lon="5.71831">
        <ele>1732.7</ele>
        <time>2000-01-01T06:45:23.000Z</time>
      </trkpt>
      <trkpt lat="44.90647" lon="5.7183">
        <ele>1732.1</ele>
        <time>2000-01-01T06:45:33.000Z</time>
      </trkpt>
      <trkpt lat="44.90649" lon="5.71828">
        <ele>1731.2</ele>
        <time>2000-01-01T06:45:43.000Z</time>
      </trkpt>
      <trkpt lat="44.90651" lon="5.71827">
        <ele>1730.7</ele>
        <time>2000-01-01T06:45:53.000Z</time>
      </trkpt>
      <trkpt lat="44.90655" lon="5.71827">
        <ele>1730.5</ele>
        <time>2000-01-01T06:46:03.000Z</time>
      </trkpt>
      <trkpt lat="44.90658" lon="5.71825">
        <ele>1729.5</ele>
        <time>2000-01-01T06:46:13.000Z</time>
      </trkpt>
      <trkpt lat="44.90662" lon="5.71825">
        <ele>1727</ele>
        <time>2000-01-01T06:46:23.000Z</time>
      </trkpt>
      <trkpt lat="44.90666" lon="5.71824">
        <ele>1728.7</ele>
        <time>2000-01-01T06:46:33.000Z</time>
      </trkpt>
      <trkpt lat="44.90669" lon="5.71824">
        <ele>1728.5</ele>
        <time>2000-01-01T06:46:43.000Z</time>
      </trkpt>
      <trkpt lat="44.90673" lon="5.71823">
        <ele>1728</ele>
        <time>2000-01-01T06:46:53.000Z</time>
      </trkpt>
      <trkpt lat="44.90676" lon="5.71823">
        <ele>1727.9</ele>
        <time>2000-01-01T06:47:03.000Z</time>
      </trkpt>
      <trkpt lat="44.90679" lon="5.71822">
        <ele>1727.4</ele>
        <time>2000-01-01T06:47:13.000Z</time>
      </trkpt>
      <trkpt lat="44.90682" lon="5.71821">
        <ele>1726</ele>
        <time>2000-01-01T06:47:23.000Z</time>
      </trkpt>
      <trkpt lat="44.90685" lon="5.71822">
        <ele>1727.1</ele>
        <time>2000-01-01T06:47:33.000Z</time>
      </trkpt>
      <trkpt lat="44.90687" lon="5.71821">
        <ele>1726.7</ele>
        <time>2000-01-01T06:47:43.000Z</time>
      </trkpt>
      <trkpt lat="44.90689" lon="5.7182">
        <ele>1726.4</ele>
        <time>2000-01-01T06:47:53.000Z</time>
      </trkpt>
      <trkpt lat="44.90691" lon="5.71819">
        <ele>1726</ele>
        <time>2000-01-01T06:48:03.000Z</time>
      </trkpt>
      <trkpt lat="44.90695" lon="5.71818">
        <ele>1725.6</ele>
        <time>2000-01-01T06:48:13.000Z</time>
      </trkpt>
      <trkpt lat="44.90699" lon="5.71817">
        <ele>1725.1</ele>
        <time>2000-01-01T06:48:23.000Z</time>
      </trkpt>
      <trkpt lat="44.90705" lon="5.71816">
        <ele>1723</ele>
        <time>2000-01-01T06:48:33.000Z</time>
      </trkpt>
      <trkpt lat="44.90708" lon="5.71816">
        <ele>1724.5</ele>
        <time>2000-01-01T06:48:43.000Z</time>
      </trkpt>
      <trkpt lat="44.9071" lon="5.71816">
        <ele>1724.4</ele>
        <time>2000-01-01T06:48:53.000Z</time>
      </trkpt>
      <trkpt lat="44.90712" lon="5.71815">
        <ele>1724.1</ele>
        <time>2000-01-01T06:49:03.000Z</time>
      </trkpt>
      <trkpt lat="44.90715" lon="5.71815">
        <ele>1724</ele>
        <time>2000-01-01T06:49:13.000Z</time>
      </trkpt>
      <trkpt lat="44.90718" lon="5.71813">
        <ele>1723.3</ele>
        <time>2000-01-01T06:49:23.000Z</time>
      </trkpt>
      <trkpt lat="44.9072" lon="5.71811">
        <ele>1722.6</ele>
        <time>2000-01-01T06:49:33.000Z</time>
      </trkpt>
      <trkpt lat="44.90723" lon="5.71809">
        <ele>1720</ele>
        <time>2000-01-01T06:49:43.000Z</time>
      </trkpt>
      <trkpt lat="44.90726" lon="5.71808">
        <ele>1721.7</ele>
        <time>2000-01-01T06:49:53.000Z</time>
      </trkpt>
      <trkpt lat="44.9073" lon="5.71806">
        <ele>1721.1</ele>
        <time>2000-01-01T06:50:03.000Z</time>
      </trkpt>
      <trkpt lat="44.90733" lon="5.71806">
        <ele>1721.1</ele>
        <time>2000-01-01T06:50:13.000Z</time>
      </trkpt>
      <trkpt lat="44.90737" lon="5.71805">
        <ele>1720.8</ele>
        <time>2000-01-01T06:50:23.000Z</time>
      </trkpt>
      <trkpt lat="44.90741" lon="5.71804">
        <ele>1720.5</ele>
        <time>2000-01-01T06:50:33.000Z</time>
      </trkpt>
      <trkpt lat="44.90745" lon="5.71804">
        <ele>1720</ele>
        <time>2000-01-01T06:50:43.000Z</time>
      </trkpt>
      <trkpt lat="44.90748" lon="5.71803">
        <ele>1720.3</ele>
        <time>2000-01-01T06:50:53.000Z</time>
      </trkpt>
      <trkpt lat="44.90752" lon="5.71802">
        <ele>1720</ele>
        <time>2000-01-01T06:51:03.000Z</time>
      </trkpt>
      <trkpt lat="44.90756" lon="5.71801">
        <ele>1719.7</ele>
        <time>2000-01-01T06:51:13.000Z</time>
      </trkpt>
      <trkpt lat="44.90758" lon="5.718">
        <ele>1719.5</ele>
        <time>2000-01-01T06:51:23.000Z</time>
      </trkpt>
      <trkpt lat="44.90762" lon="5.71799">
        <ele>1719.2</ele>
        <time>2000-01-01T06:51:33.000Z</time>
      </trkpt>
      <trkpt lat="44.90765" lon="5.71798">
        <ele>1716</ele>
        <time>2000-01-01T06:51:43.000Z</time>
      </trkpt>
      <trkpt lat="44.90769" lon="5.71798">
        <ele>1719</ele>
        <time>2000-01-01T06:51:53.000Z</time>
      </trkpt>
      <trkpt lat="44.90772" lon="5.71797">
        <ele>1718.8</ele>
        <time>2000-01-01T06:52:03.000Z</time>
      </trkpt>
      <trkpt lat="44.90776" lon="5.71796">
        <ele>1718.6</ele>
        <time>2000-01-01T06:52:13.000Z</time>
      </trkpt>
      <trkpt lat="44.9078" lon="5.71794">
        <ele>1718.2</ele>
        <time>2000-01-01T06:52:23.000Z</time>
      </trkpt>
      <trkpt lat="44.90784" lon="5.71792">
        <ele>1716</ele>
        <time>2000-01-01T06:52:33.000Z</time>
      </trkpt>
      <trkpt lat="44.90788" lon="5.7179">
        <ele>1717.6</ele>
        <time>2000-01-01T06:52:43.000Z</time>
      </trkpt>
      <trkpt lat="44.90793" lon="5.71789">
        <ele>1717.6</ele>
        <time>2000-01-01T06:52:53.000Z</time>
      </trkpt>
      <trkpt lat="44.90796" lon="5.71787">
        <ele>1717.2</ele>
        <time>2000-01-01T06:53:03.000Z</time>
      </trkpt>
      <trkpt lat="44.90799" lon="5.71786">
        <ele>1717.1</ele>
        <time>2000-01-01T06:53:13.000Z</time>
      </trkpt>
      <trkpt lat="44.90802" lon="5.71783">
        <ele>1715</ele>
        <time>2000-01-01T06:53:23.000Z</time>
      </trkpt>
      <trkpt lat="44.90805" lon="5.71781">
        <ele>1715.9</ele>
        <time>2000-01-01T06:53:33.000Z</time>
      </trkpt>
      <trkpt lat="44.90809" lon="5.7178">
        <ele>1715.9</ele>
        <time>2000-01-01T06:53:43.000Z</time>
      </trkpt>
      <trkpt lat="44.90814" lon="5.7178">
        <ele>1716.2</ele>
        <time>2000-01-01T06:53:53.000Z</time>
      </trkpt>
      <trkpt lat="44.90818" lon="5.71778">
        <ele>1716</ele>
        <time>2000-01-01T06:54:03.000Z</time>
      </trkpt>
      <trkpt lat="44.90821" lon="5.71777">
        <ele>1714</ele>
        <time>2000-01-01T06:54:13.000Z</time>
      </trkpt>
      <trkpt lat="44.90825" lon="5.71775">
        <ele>1715.6</ele>
        <time>2000-01-01T06:54:23.000Z</time>
      </trkpt>
      <trkpt lat="44.90828" lon="5.71775">
        <ele>1715.9</ele>
        <time>2000-01-01T06:54:33.000Z</time>
      </trkpt>
      <trkpt lat="44.90832" lon="5.71773">
        <ele>1715.7</ele>
        <time>2000-01-01T06:54:43.000Z</time>
      </trkpt>
      <trkpt lat="44.90836" lon="5.71771">
        <ele>1715.6</ele>
        <time>2000-01-01T06:54:53.000Z</time>
      </trkpt>
      <trkpt lat="44.9084" lon="5.71769">
        <ele>1712</ele>
        <time>2000-01-01T06:55:03.000Z</time>
      </trkpt>
      <trkpt lat="44.90844" lon="5.71768">
        <ele>1715.7</ele>
        <time>2000-01-01T06:55:13.000Z</time>
      </trkpt>
      <trkpt lat="44.90848" lon="5.71765">
        <ele>1715.4</ele>
        <time>2000-01-01T06:55:23.000Z</time>
      </trkpt>
      <trkpt lat="44.90852" lon="5.71763">
        <ele>1715.3</ele>
        <time>2000-01-01T06:55:33.000Z</time>
      </trkpt>
      <trkpt lat="44.90855" lon="5.7176">
        <ele>1714.9</ele>
        <time>2000-01-01T06:55:43.000Z</time>
      </trkpt>
      <trkpt lat="44.90858" lon="5.71758">
        <ele>1712</ele>
        <time>2000-01-01T06:55:53.000Z</time>
      </trkpt>
      <trkpt lat="44.90862" lon="5.71756">
        <ele>1714.6</ele>
        <time>2000-01-01T06:56:03.000Z</time>
      </trkpt>
      <trkpt lat="44.90866" lon="5.71753">
        <ele>1714.5</ele>
        <time>2000-01-01T06:56:13.000Z</time>
      </trkpt>
      <trkpt lat="44.9087" lon="5.7175">
        <ele>1714.3</ele>
        <time>2000-01-01T06:56:23.000Z</time>
      </trkpt>
      <trkpt lat="44.90873" lon="5.71746">
        <ele>1713.7</ele>
        <time>2000-01-01T06:56:33.000Z</time>
      </trkpt>
      <trkpt lat="44.90876" lon="5.71743">
        <ele>1712</ele>
        <time>2000-01-01T06:56:43.000Z</time>
      </trkpt>
      <trkpt lat="44.90879" lon="5.71741">
        <ele>1713.3</ele>
        <time>2000-01-01T06:56:53.000Z</time>
      </trkpt>
      <trkpt lat="44.90882" lon="5.71739">
        <ele>1713.2</ele>
        <time>2000-01-01T06:57:03.000Z</time>
      </trkpt>
      <trkpt lat="44.90886" lon="5.71736">
        <ele>1713.1</ele>
        <time>2000-01-01T06:57:13.000Z</time>
      </trkpt>
      <trkpt lat="44.9089" lon="5.71733">
        <ele>1712.9</ele>
        <time>2000-01-01T06:57:23.000Z</time>
      </trkpt>
      <trkpt lat="44.90894" lon="5.7173">
        <ele>1712</ele>
        <time>2000-01-01T06:57:33.000Z</time>
      </trkpt>
      <trkpt lat="44.90899" lon="5.71726">
        <ele>1712.8</ele>
        <time>2000-01-01T06:57:43.000Z</time>
      </trkpt>
      <trkpt lat="44.90903" lon="5.71723">
        <ele>1712.7</ele>
        <time>2000-01-01T06:57:53.000Z</time>
      </trkpt>
      <trkpt lat="44.90907" lon="5.71721">
        <ele>1712.9</ele>
        <time>2000-01-01T06:58:03.000Z</time>
      </trkpt>
      <trkpt lat="44.90912" lon="5.71717">
        <ele>1710</ele>
        <time>2000-01-01T06:58:13.000Z</time>
      </trkpt>
      <trkpt lat="44.90917" lon="5.71713">
        <ele>1712.1</ele>
        <time>2000-01-01T06:58:23.000Z</time>
      </trkpt>
      <trkpt lat="44.90921" lon="5.71711">
        <ele>1712</ele>
        <time>2000-01-01T06:58:33.000Z</time>
      </trkpt>
      <trkpt lat="44.90925" lon="5.71708">
        <ele>1711.6</ele>
        <time>2000-01-01T06:58:43.000Z</time>
      </trkpt>
      <trkpt lat="44.9093" lon="5.71706">
        <ele>1709</ele>
        <time>2000-01-01T06:58:53.000Z</time>
      </trkpt>
      <trkpt lat="44.90934" lon="5.71703">
        <ele>1711.3</ele>
        <time>2000-01-01T06:59:03.000Z</time>
      </trkpt>
      <trkpt lat="44.90939" lon="5.71701">
        <ele>1711.3</ele>
        <time>2000-01-01T06:59:13.000Z</time>
      </trkpt>
      <trkpt lat="44.90943" lon="5.717">
        <ele>1711.6</ele>
        <time>2000-01-01T06:59:23.000Z</time>
      </trkpt>
      <trkpt lat="44.90947" lon="5.71697">
        <ele>1711.1</ele>
        <time>2000-01-01T06:59:33.000Z</time>
      </trkpt>
      <trkpt lat="44.90951" lon="5.71695">
        <ele>1709</ele>
        <time>2000-01-01T06:59:43.000Z</time>
      </trkpt>
      <trkpt lat="44.90956" lon="5.71693">
        <ele>1710.8</ele>
        <time>2000-01-01T06:59:53.000Z</time>
      </trkpt>
      <trkpt lat="44.90959" lon="5.71691">
        <ele>1710.4</ele>
        <time>2000-01-01T07:00:03.000Z</time>
      </trkpt>
      <trkpt lat="44.90963" lon="5.7169">
        <ele>1710.5</ele>
        <time>2000-01-01T07:00:13.000Z</time>
      </trkpt>
      <trkpt lat="44.90969" lon="5.71688">
        <ele>1710.4</ele>
        <time>2000-01-01T07:00:23.000Z</time>
      </trkpt>
      <trkpt lat="44.90974" lon="5.71686">
        <ele>1709</ele>
        <time>2000-01-01T07:00:33.000Z</time>
      </trkpt>
      <trkpt lat="44.9098" lon="5.71686">
        <ele>1710.4</ele>
        <time>2000-01-01T07:00:43.000Z</time>
      </trkpt>
      <trkpt lat="44.90985" lon="5.71684">
        <ele>1710</ele>
        <time>2000-01-01T07:00:53.000Z</time>
      </trkpt>
      <trkpt lat="44.90989" lon="5.71683">
        <ele>1709.8</ele>
        <time>2000-01-01T07:01:03.000Z</time>
      </trkpt>
      <trkpt lat="44.90992" lon="5.71682">
        <ele>1709.6</ele>
        <time>2000-01-01T07:01:13.000Z</time>
      </trkpt>
      <trkpt lat="44.90996" lon="5.71681">
        <ele>1709</ele>
        <time>2000-01-01T07:01:23.000Z</time>
      </trkpt>
      <trkpt lat="44.91" lon="5.71681">
        <ele>1709.7</ele>
        <time>2000-01-01T07:01:33.000Z</time>
      </trkpt>
      <trkpt lat="44.91001" lon="5.71681">
        <ele>1709.7</ele>
        <time>2000-01-01T07:01:43.000Z</time>
      </trkpt>
      <trkpt lat="44.91016" lon="5.71717">
        <ele>1723</ele>
        <time>2000-01-01T07:01:53.000Z</time>
      </trkpt>
      <trkpt lat="44.91022" lon="5.7176">
        <ele>1741</ele>
        <time>2000-01-01T07:02:03.000Z</time>
      </trkpt>
      <trkpt lat="44.91022" lon="5.7182">
        <ele>1747</ele>
        <time>2000-01-01T07:02:13.000Z</time>
      </trkpt>
      <trkpt lat="44.91023" lon="5.71822">
        <ele>1753.9</ele>
        <time>2000-01-01T07:02:23.000Z</time>
      </trkpt>
      <trkpt lat="44.91004" lon="5.71845">
        <ele>1750</ele>
        <time>2000-01-01T07:02:33.000Z</time>
      </trkpt>
      <trkpt lat="44.90992" lon="5.7186">
        <ele>1754.4</ele>
        <time>2000-01-01T07:02:43.000Z</time>
      </trkpt>
      <trkpt lat="44.90984" lon="5.71868">
        <ele>1753</ele>
        <time>2000-01-01T07:02:53.000Z</time>
      </trkpt>
      <trkpt lat="44.90978" lon="5.71875">
        <ele>1753</ele>
        <time>2000-01-01T07:03:03.000Z</time>
      </trkpt>
      <trkpt lat="44.90974" lon="5.7188">
        <ele>1753</ele>
        <time>2000-01-01T07:03:13.000Z</time>
      </trkpt>
      <trkpt lat="44.90963" lon="5.71892">
        <ele>1753</ele>
        <time>2000-01-01T07:03:23.000Z</time>
      </trkpt>
      <trkpt lat="44.90954" lon="5.71903">
        <ele>1752.3</ele>
        <time>2000-01-01T07:03:33.000Z</time>
      </trkpt>
      <trkpt lat="44.90943" lon="5.71915">
        <ele>1753</ele>
        <time>2000-01-01T07:03:43.000Z</time>
      </trkpt>
      <trkpt lat="44.90938" lon="5.71924">
        <ele>1752.6</ele>
        <time>2000-01-01T07:03:53.000Z</time>
      </trkpt>
      <trkpt lat="44.90931" lon="5.71936">
        <ele>1752.5</ele>
        <time>2000-01-01T07:04:03.000Z</time>
      </trkpt>
      <trkpt lat="44.90915" lon="5.71956">
        <ele>1753</ele>
        <time>2000-01-01T07:04:13.000Z</time>
      </trkpt>
      <trkpt lat="44.90894" lon="5.71986">
        <ele>1756</ele>
        <time>2000-01-01T07:04:23.000Z</time>
      </trkpt>
      <trkpt lat="44.90874" lon="5.72007">
        <ele>1759</ele>
        <time>2000-01-01T07:04:33.000Z</time>
      </trkpt>
      <trkpt lat="44.90843" lon="5.72043">
        <ele>1763</ele>
        <time>2000-01-01T07:04:43.000Z</time>
      </trkpt>
      <trkpt lat="44.90835" lon="5.72051">
        <ele>1764.7</ele>
        <time>2000-01-01T07:04:53.000Z</time>
      </trkpt>
      <trkpt lat="44.90826" lon="5.72056">
        <ele>1765</ele>
        <time>2000-01-01T07:05:03.000Z</time>
      </trkpt>
      <trkpt lat="44.90816" lon="5.72059">
        <ele>1765.9</ele>
        <time>2000-01-01T07:05:13.000Z</time>
      </trkpt>
      <trkpt lat="44.90812" lon="5.72061">
        <ele>1766.2</ele>
        <time>2000-01-01T07:05:23.000Z</time>
      </trkpt>
      <trkpt lat="44.90806" lon="5.72064">
        <ele>1766</ele>
        <time>2000-01-01T07:05:33.000Z</time>
      </trkpt>
      <trkpt lat="44.90801" lon="5.72069">
        <ele>1767.1</ele>
        <time>2000-01-01T07:05:43.000Z</time>
      </trkpt>
      <trkpt lat="44.90796" lon="5.72072">
        <ele>1767.5</ele>
        <time>2000-01-01T07:05:53.000Z</time>
      </trkpt>
      <trkpt lat="44.90791" lon="5.72075">
        <ele>1767.7</ele>
        <time>2000-01-01T07:06:03.000Z</time>
      </trkpt>
      <trkpt lat="44.90785" lon="5.72079">
        <ele>1766</ele>
        <time>2000-01-01T07:06:13.000Z</time>
      </trkpt>
      <trkpt lat="44.90778" lon="5.72083">
        <ele>1768</ele>
        <time>2000-01-01T07:06:23.000Z</time>
      </trkpt>
      <trkpt lat="44.90769" lon="5.72087">
        <ele>1767.6</ele>
        <time>2000-01-01T07:06:33.000Z</time>
      </trkpt>
      <trkpt lat="44.90757" lon="5.72093">
        <ele>1766</ele>
        <time>2000-01-01T07:06:43.000Z</time>
      </trkpt>
      <trkpt lat="44.90756" lon="5.72097">
        <ele>1766.4</ele>
        <time>2000-01-01T07:06:53.000Z</time>
      </trkpt>
      <trkpt lat="44.90755" lon="5.72102">
        <ele>1766.1</ele>
        <time>2000-01-01T07:07:03.000Z</time>
      </trkpt>
      <trkpt lat="44.90753" lon="5.72106">
        <ele>1765.7</ele>
        <time>2000-01-01T07:07:13.000Z</time>
      </trkpt>
      <trkpt lat="44.90749" lon="5.7211">
        <ele>1765</ele>
        <time>2000-01-01T07:07:23.000Z</time>
      </trkpt>
      <trkpt lat="44.90746" lon="5.72114">
        <ele>1764.5</ele>
        <time>2000-01-01T07:07:33.000Z</time>
      </trkpt>
      <trkpt lat="44.90743" lon="5.72117">
        <ele>1764</ele>
        <time>2000-01-01T07:07:43.000Z</time>
      </trkpt>
      <trkpt lat="44.9074" lon="5.72122">
        <ele>1763.5</ele>
        <time>2000-01-01T07:07:53.000Z</time>
      </trkpt>
      <trkpt lat="44.90736" lon="5.72127">
        <ele>1762.8</ele>
        <time>2000-01-01T07:08:03.000Z</time>
      </trkpt>
      <trkpt lat="44.90732" lon="5.72136">
        <ele>1761.9</ele>
        <time>2000-01-01T07:08:13.000Z</time>
      </trkpt>
      <trkpt lat="44.9073" lon="5.7214">
        <ele>1761</ele>
        <time>2000-01-01T07:08:23.000Z</time>
      </trkpt>
      <trkpt lat="44.9073" lon="5.72144">
        <ele>1761.4</ele>
        <time>2000-01-01T07:08:33.000Z</time>
      </trkpt>
      <trkpt lat="44.90729" lon="5.72149">
        <ele>1761.2</ele>
        <time>2000-01-01T07:08:43.000Z</time>
      </trkpt>
      <trkpt lat="44.90728" lon="5.72153">
        <ele>1761.1</ele>
        <time>2000-01-01T07:08:53.000Z</time>
      </trkpt>
      <trkpt lat="44.90728" lon="5.72161">
        <ele>1760.9</ele>
        <time>2000-01-01T07:09:03.000Z</time>
      </trkpt>
      <trkpt lat="44.90728" lon="5.72167">
        <ele>1761</ele>
        <time>2000-01-01T07:09:13.000Z</time>
      </trkpt>
      <trkpt lat="44.90728" lon="5.72171">
        <ele>1760.6</ele>
        <time>2000-01-01T07:09:23.000Z</time>
      </trkpt>
      <trkpt lat="44.90728" lon="5.72176">
        <ele>1760.3</ele>
        <time>2000-01-01T07:09:33.000Z</time>
      </trkpt>
      <trkpt lat="44.90729" lon="5.72182">
        <ele>1759.9</ele>
        <time>2000-01-01T07:09:43.000Z</time>
      </trkpt>
      <trkpt lat="44.90728" lon="5.72187">
        <ele>1759.8</ele>
        <time>2000-01-01T07:09:53.000Z</time>
      </trkpt>
      <trkpt lat="44.90727" lon="5.72191">
        <ele>1759.7</ele>
        <time>2000-01-01T07:10:03.000Z</time>
      </trkpt>
      <trkpt lat="44.90726" lon="5.72197">
        <ele>1760</ele>
        <time>2000-01-01T07:10:13.000Z</time>
      </trkpt>
      <trkpt lat="44.90723" lon="5.72202">
        <ele>1759.4</ele>
        <time>2000-01-01T07:10:23.000Z</time>
      </trkpt>
      <trkpt lat="44.90722" lon="5.72207">
        <ele>1759.1</ele>
        <time>2000-01-01T07:10:33.000Z</time>
      </trkpt>
      <trkpt lat="44.90721" lon="5.72212">
        <ele>1758.8</ele>
        <time>2000-01-01T07:10:43.000Z</time>
      </trkpt>
      <trkpt lat="44.90719" lon="5.72216">
        <ele>1758.7</ele>
        <time>2000-01-01T07:10:53.000Z</time>
      </trkpt>
      <trkpt lat="44.90716" lon="5.72219">
        <ele>1758.7</ele>
        <time>2000-01-01T07:11:03.000Z</time>
      </trkpt>
      <trkpt lat="44.90714" lon="5.72223">
        <ele>1759</ele>
        <time>2000-01-01T07:11:13.000Z</time>
      </trkpt>
      <trkpt lat="44.90711" lon="5.72226">
        <ele>1758.2</ele>
        <time>2000-01-01T07:11:23.000Z</time>
      </trkpt>
      <trkpt lat="44.90708" lon="5.72228">
        <ele>1758.1</ele>
        <time>2000-01-01T07:11:33.000Z</time>
      </trkpt>
      <trkpt lat="44.90704" lon="5.72231">
        <ele>1757.9</ele>
        <time>2000-01-01T07:11:43.000Z</time>
      </trkpt>
      <trkpt lat="44.90701" lon="5.72232">
        <ele>1758</ele>
        <time>2000-01-01T07:11:53.000Z</time>
      </trkpt>
      <trkpt lat="44.90697" lon="5.72234">
        <ele>1758.1</ele>
        <time>2000-01-01T07:12:03.000Z</time>
      </trkpt>
      <trkpt lat="44.90695" lon="5.72237">
        <ele>1759</ele>
        <time>2000-01-01T07:12:13.000Z</time>
      </trkpt>
      <trkpt lat="44.90692" lon="5.7224">
        <ele>1757.4</ele>
        <time>2000-01-01T07:12:23.000Z</time>
      </trkpt>
      <trkpt lat="44.90689" lon="5.72242">
        <ele>1757</ele>
        <time>2000-01-01T07:12:33.000Z</time>
      </trkpt>
      <trkpt lat="44.90685" lon="5.72243">
        <ele>1756.7</ele>
        <time>2000-01-01T07:12:43.000Z</time>
      </trkpt>
      <trkpt lat="44.90682" lon="5.72244">
        <ele>1756.4</ele>
        <time>2000-01-01T07:12:53.000Z</time>
      </trkpt>
      <trkpt lat="44.90678" lon="5.72245">
        <ele>1756.1</ele>
        <time>2000-01-01T07:13:03.000Z</time>
      </trkpt>
      <trkpt lat="44.90674" lon="5.72247">
        <ele>1756</ele>
        <time>2000-01-01T07:13:13.000Z</time>
      </trkpt>
      <trkpt lat="44.90671" lon="5.72248">
        <ele>1755.4</ele>
        <time>2000-01-01T07:13:23.000Z</time>
      </trkpt>
      <trkpt lat="44.90666" lon="5.72249">
        <ele>1755.1</ele>
        <time>2000-01-01T07:13:33.000Z</time>
      </trkpt>
      <trkpt lat="44.90662" lon="5.72251">
        <ele>1754.6</ele>
        <time>2000-01-01T07:13:43.000Z</time>
      </trkpt>
      <trkpt lat="44.90658" lon="5.72252">
        <ele>1754.2</ele>
        <time>2000-01-01T07:13:53.000Z</time>
      </trkpt>
      <trkpt lat="44.90656" lon="5.72253">
        <ele>1754</ele>
        <time>2000-01-01T07:14:03.000Z</time>
      </trkpt>
      <trkpt lat="44.90654" lon="5.72253">
        <ele>1753.9</ele>
        <time>2000-01-01T07:14:13.000Z</time>
      </trkpt>
      <trkpt lat="44.90657" lon="5.72292">
        <ele>1750</ele>
        <time>2000-01-01T07:14:23.000Z</time>
      </trkpt>
      <trkpt lat="44.9067" lon="5.72333">
        <ele>1740</ele>
        <time>2000-01-01T07:14:33.000Z</time>
      </trkpt>
      <trkpt lat="44.90688" lon="5.72376">
        <ele>1727</ele>
        <time>2000-01-01T07:14:43.000Z</time>
      </trkpt>
      <trkpt lat="44.90686" lon="5.72379">
        <ele>1723.3</ele>
        <time>2000-01-01T07:14:53.000Z</time>
      </trkpt>
      <trkpt lat="44.90688" lon="5.72383">
        <ele>1722</ele>
        <time>2000-01-01T07:15:03.000Z</time>
      </trkpt>
      <trkpt lat="44.90694" lon="5.72387">
        <ele>1720.6</ele>
        <time>2000-01-01T07:15:13.000Z</time>
      </trkpt>
      <trkpt lat="44.90701" lon="5.72394">
        <ele>1719</ele>
        <time>2000-01-01T07:15:23.000Z</time>
      </trkpt>
      <trkpt lat="44.90709" lon="5.72401">
        <ele>1713.9</ele>
        <time>2000-01-01T07:15:33.000Z</time>
      </trkpt>
      <trkpt lat="44.90719" lon="5.72407">
        <ele>1715</ele>
        <time>2000-01-01T07:15:43.000Z</time>
      </trkpt>
      <trkpt lat="44.90736" lon="5.72415">
        <ele>1706.1</ele>
        <time>2000-01-01T07:15:53.000Z</time>
      </trkpt>
      <trkpt lat="44.90752" lon="5.72424">
        <ele>1702</ele>
        <time>2000-01-01T07:16:03.000Z</time>
      </trkpt>
      <trkpt lat="44.90763" lon="5.72429">
        <ele>1697.4</ele>
        <time>2000-01-01T07:16:13.000Z</time>
      </trkpt>
      <trkpt lat="44.90772" lon="5.72433">
        <ele>1696</ele>
        <time>2000-01-01T07:16:23.000Z</time>
      </trkpt>
      <trkpt lat="44.90776" lon="5.72435">
        <ele>1693.3</ele>
        <time>2000-01-01T07:16:33.000Z</time>
      </trkpt>
      <trkpt lat="44.9078" lon="5.72438">
        <ele>1691.6</ele>
        <time>2000-01-01T07:16:43.000Z</time>
      </trkpt>
      <trkpt lat="44.90784" lon="5.72439">
        <ele>1690.5</ele>
        <time>2000-01-01T07:16:53.000Z</time>
      </trkpt>
      <trkpt lat="44.90788" lon="5.7244">
        <ele>1689.3</ele>
        <time>2000-01-01T07:17:03.000Z</time>
      </trkpt>
      <trkpt lat="44.90792" lon="5.7244">
        <ele>1688</ele>
        <time>2000-01-01T07:17:13.000Z</time>
      </trkpt>
      <trkpt lat="44.90795" lon="5.7244">
        <ele>1687.8</ele>
        <time>2000-01-01T07:17:23.000Z</time>
      </trkpt>
      <trkpt lat="44.90797" lon="5.7244">
        <ele>1687.4</ele>
        <time>2000-01-01T07:17:33.000Z</time>
      </trkpt>
      <trkpt lat="44.908" lon="5.72442">
        <ele>1686.1</ele>
        <time>2000-01-01T07:17:43.000Z</time>
      </trkpt>
      <trkpt lat="44.90805" lon="5.72446">
        <ele>1683.6</ele>
        <time>2000-01-01T07:17:53.000Z</time>
      </trkpt>
      <trkpt lat="44.9081" lon="5.72451">
        <ele>1682</ele>
        <time>2000-01-01T07:18:03.000Z</time>
      </trkpt>
      <trkpt lat="44.90814" lon="5.72453">
        <ele>1679.5</ele>
        <time>2000-01-01T07:18:13.000Z</time>
      </trkpt>
      <trkpt lat="44.90818" lon="5.72454">
        <ele>1678.5</ele>
        <time>2000-01-01T07:18:23.000Z</time>
      </trkpt>
      <trkpt lat="44.90822" lon="5.72458">
        <ele>1676.2</ele>
        <time>2000-01-01T07:18:33.000Z</time>
      </trkpt>
      <trkpt lat="44.90828" lon="5.72461">
        <ele>1676</ele>
        <time>2000-01-01T07:18:43.000Z</time>
      </trkpt>
      <trkpt lat="44.90833" lon="5.72463">
        <ele>1672</ele>
        <time>2000-01-01T07:18:53.000Z</time>
      </trkpt>
      <trkpt lat="44.90836" lon="5.72466">
        <ele>1670.2</ele>
        <time>2000-01-01T07:19:03.000Z</time>
      </trkpt>
      <trkpt lat="44.9084" lon="5.7247">
        <ele>1667.8</ele>
        <time>2000-01-01T07:19:13.000Z</time>
      </trkpt>
      <trkpt lat="44.90845" lon="5.72471">
        <ele>1666</ele>
        <time>2000-01-01T07:19:23.000Z</time>
      </trkpt>
      <trkpt lat="44.90849" lon="5.72473">
        <ele>1664.8</ele>
        <time>2000-01-01T07:19:33.000Z</time>
      </trkpt>
      <trkpt lat="44.90854" lon="5.72475">
        <ele>1663</ele>
        <time>2000-01-01T07:19:43.000Z</time>
      </trkpt>
      <trkpt lat="44.9086" lon="5.72479">
        <ele>1660</ele>
        <time>2000-01-01T07:19:53.000Z</time>
      </trkpt>
      <trkpt lat="44.90868" lon="5.72484">
        <ele>1659</ele>
        <time>2000-01-01T07:20:03.000Z</time>
      </trkpt>
      <trkpt lat="44.90875" lon="5.72487">
        <ele>1654.6</ele>
        <time>2000-01-01T07:20:13.000Z</time>
      </trkpt>
      <trkpt lat="44.90882" lon="5.7249">
        <ele>1652.4</ele>
        <time>2000-01-01T07:20:23.000Z</time>
      </trkpt>
      <trkpt lat="44.90885" lon="5.72491">
        <ele>1651.6</ele>
        <time>2000-01-01T07:20:33.000Z</time>
      </trkpt>
      <trkpt lat="44.90889" lon="5.72493">
        <ele>1653</ele>
        <time>2000-01-01T07:20:43.000Z</time>
      </trkpt>
      <trkpt lat="44.90892" lon="5.72496">
        <ele>1648.6</ele>
        <time>2000-01-01T07:20:53.000Z</time>
      </trkpt>
      <trkpt lat="44.90895" lon="5.72499">
        <ele>1647</ele>
        <time>2000-01-01T07:21:03.000Z</time>
      </trkpt>
      <trkpt lat="44.90899" lon="5.72502">
        <ele>1645.3</ele>
        <time>2000-01-01T07:21:13.000Z</time>
      </trkpt>
      <trkpt lat="44.90905" lon="5.72504">
        <ele>1643.9</ele>
        <time>2000-01-01T07:21:23.000Z</time>
      </trkpt>
      <trkpt lat="44.90912" lon="5.72507">
        <ele>1644</ele>
        <time>2000-01-01T07:21:33.000Z</time>
      </trkpt>
      <trkpt lat="44.9092" lon="5.72509">
        <ele>1640.2</ele>
        <time>2000-01-01T07:21:43.000Z</time>
      </trkpt>
      <trkpt lat="44.90929" lon="5.72511">
        <ele>1637.7</ele>
        <time>2000-01-01T07:21:53.000Z</time>
      </trkpt>
      <trkpt lat="44.90937" lon="5.72512">
        <ele>1638</ele>
        <time>2000-01-01T07:22:03.000Z</time>
      </trkpt>
      <trkpt lat="44.90945" lon="5.72513">
        <ele>1634.2</ele>
        <time>2000-01-01T07:22:13.000Z</time>
      </trkpt>
      <trkpt lat="44.90954" lon="5.72515">
        <ele>1631.6</ele>
        <time>2000-01-01T07:22:23.000Z</time>
      </trkpt>
      <trkpt lat="44.90957" lon="5.72516">
        <ele>1633</ele>
        <time>2000-01-01T07:22:33.000Z</time>
      </trkpt>
      <trkpt lat="44.90962" lon="5.7252">
        <ele>1628.8</ele>
        <time>2000-01-01T07:22:43.000Z</time>
      </trkpt>
      <trkpt lat="44.9097" lon="5.72529">
        <ele>1626</ele>
        <time>2000-01-01T07:22:53.000Z</time>
      </trkpt>
      <trkpt lat="44.90976" lon="5.72537">
        <ele>1626</ele>
        <time>2000-01-01T07:23:03.000Z</time>
      </trkpt>
      <trkpt lat="44.90982" lon="5.72543">
        <ele>1621.1</ele>
        <time>2000-01-01T07:23:13.000Z</time>
      </trkpt>
      <trkpt lat="44.90987" lon="5.7255">
        <ele>1619.5</ele>
        <time>2000-01-01T07:23:23.000Z</time>
      </trkpt>
      <trkpt lat="44.90993" lon="5.72556">
        <ele>1620</ele>
        <time>2000-01-01T07:23:33.000Z</time>
      </trkpt>
      <trkpt lat="44.90997" lon="5.72559">
        <ele>1617.5</ele>
        <time>2000-01-01T07:23:43.000Z</time>
      </trkpt>
      <trkpt lat="44.90999" lon="5.72562">
        <ele>1616.9</ele>
        <time>2000-01-01T07:23:53.000Z</time>
      </trkpt>
      <trkpt lat="44.91001" lon="5.72565">
        <ele>1616.1</ele>
        <time>2000-01-01T07:24:03.000Z</time>
      </trkpt>
      <trkpt lat="44.91003" lon="5.7257">
        <ele>1615</ele>
        <time>2000-01-01T07:24:13.000Z</time>
      </trkpt>
      <trkpt lat="44.91004" lon="5.72574">
        <ele>1614.2</ele>
        <time>2000-01-01T07:24:23.000Z</time>
      </trkpt>
      <trkpt lat="44.91005" lon="5.72583">
        <ele>1614</ele>
        <time>2000-01-01T07:24:33.000Z</time>
      </trkpt>
      <trkpt lat="44.91006" lon="5.72588">
        <ele>1611.3</ele>
        <time>2000-01-01T07:24:43.000Z</time>
      </trkpt>
      <trkpt lat="44.91009" lon="5.72593">
        <ele>1609.9</ele>
        <time>2000-01-01T07:24:53.000Z</time>
      </trkpt>
      <trkpt lat="44.91012" lon="5.72596">
        <ele>1609.2</ele>
        <time>2000-01-01T07:25:03.000Z</time>
      </trkpt>
      <trkpt lat="44.91015" lon="5.726">
        <ele>1608.4</ele>
        <time>2000-01-01T07:25:13.000Z</time>
      </trkpt>
      <trkpt lat="44.91017" lon="5.72603">
        <ele>1608</ele>
        <time>2000-01-01T07:25:23.000Z</time>
      </trkpt>
      <trkpt lat="44.91019" lon="5.72607">
        <ele>1607.3</ele>
        <time>2000-01-01T07:25:33.000Z</time>
      </trkpt>
      <trkpt lat="44.9102" lon="5.72611">
        <ele>1606.6</ele>
        <time>2000-01-01T07:25:43.000Z</time>
      </trkpt>
      <trkpt lat="44.9102" lon="5.72613">
        <ele>1606.3</ele>
        <time>2000-01-01T07:25:53.000Z</time>
      </trkpt>
      <trkpt lat="44.91019" lon="5.72614">
        <ele>1606</ele>
        <time>2000-01-01T07:26:03.000Z</time>
      </trkpt>
      <trkpt lat="44.91016" lon="5.72615">
        <ele>1605.2</ele>
        <time>2000-01-01T07:26:13.000Z</time>
      </trkpt>
      <trkpt lat="44.91012" lon="5.7262">
        <ele>1603.5</ele>
        <time>2000-01-01T07:26:23.000Z</time>
      </trkpt>
      <trkpt lat="44.9101" lon="5.72623">
        <ele>1602</ele>
        <time>2000-01-01T07:26:33.000Z</time>
      </trkpt>
      <trkpt lat="44.91007" lon="5.72628">
        <ele>1600.6</ele>
        <time>2000-01-01T07:26:43.000Z</time>
      </trkpt>
      <trkpt lat="44.91004" lon="5.72632">
        <ele>1598.9</ele>
        <time>2000-01-01T07:26:53.000Z</time>
      </trkpt>
      <trkpt lat="44.91" lon="5.72636">
        <ele>1596.7</ele>
        <time>2000-01-01T07:27:03.000Z</time>
      </trkpt>
      <trkpt lat="44.90996" lon="5.72642">
        <ele>1594.3</ele>
        <time>2000-01-01T07:27:13.000Z</time>
      </trkpt>
      <trkpt lat="44.90992" lon="5.72648">
        <ele>1592</ele>
        <time>2000-01-01T07:27:23.000Z</time>
      </trkpt>
      <trkpt lat="44.90988" lon="5.7265">
        <ele>1590.4</ele>
        <time>2000-01-01T07:27:33.000Z</time>
      </trkpt>
      <trkpt lat="44.90984" lon="5.72651">
        <ele>1589.1</ele>
        <time>2000-01-01T07:27:43.000Z</time>
      </trkpt>
      <trkpt lat="44.90979" lon="5.72654">
        <ele>1587</ele>
        <time>2000-01-01T07:27:53.000Z</time>
      </trkpt>
      <trkpt lat="44.90974" lon="5.7266">
        <ele>1584</ele>
        <time>2000-01-01T07:28:03.000Z</time>
      </trkpt>
      <trkpt lat="44.90969" lon="5.72667">
        <ele>1581.4</ele>
        <time>2000-01-01T07:28:13.000Z</time>
      </trkpt>
      <trkpt lat="44.90968" lon="5.72673">
        <ele>1579.5</ele>
        <time>2000-01-01T07:28:23.000Z</time>
      </trkpt>
      <trkpt lat="44.90969" lon="5.72677">
        <ele>1578.5</ele>
        <time>2000-01-01T07:28:33.000Z</time>
      </trkpt>
      <trkpt lat="44.90969" lon="5.72684">
        <ele>1576.5</ele>
        <time>2000-01-01T07:28:43.000Z</time>
      </trkpt>
      <trkpt lat="44.90971" lon="5.72688">
        <ele>1577</ele>
        <time>2000-01-01T07:28:53.000Z</time>
      </trkpt>
      <trkpt lat="44.90974" lon="5.72695">
        <ele>1574.2</ele>
        <time>2000-01-01T07:29:03.000Z</time>
      </trkpt>
      <trkpt lat="44.90978" lon="5.72703">
        <ele>1572.2</ele>
        <time>2000-01-01T07:29:13.000Z</time>
      </trkpt>
      <trkpt lat="44.9098" lon="5.72708">
        <ele>1570.7</ele>
        <time>2000-01-01T07:29:23.000Z</time>
      </trkpt>
      <trkpt lat="44.90983" lon="5.72713">
        <ele>1569</ele>
        <time>2000-01-01T07:29:33.000Z</time>
      </trkpt>
      <trkpt lat="44.90988" lon="5.72722">
        <ele>1566.4</ele>
        <time>2000-01-01T07:29:43.000Z</time>
      </trkpt>
      <trkpt lat="44.90993" lon="5.72728">
        <ele>1564.5</ele>
        <time>2000-01-01T07:29:53.000Z</time>
      </trkpt>
      <trkpt lat="44.91001" lon="5.72733">
        <ele>1565</ele>
        <time>2000-01-01T07:30:03.000Z</time>
      </trkpt>
      <trkpt lat="44.91006" lon="5.72736">
        <ele>1562.6</ele>
        <time>2000-01-01T07:30:13.000Z</time>
      </trkpt>
      <trkpt lat="44.91009" lon="5.7274">
        <ele>1561.2</ele>
        <time>2000-01-01T07:30:23.000Z</time>
      </trkpt>
      <trkpt lat="44.91017" lon="5.72744">
        <ele>1560.3</ele>
        <time>2000-01-01T07:30:33.000Z</time>
      </trkpt>
      <trkpt lat="44.91027" lon="5.72751">
        <ele>1558</ele>
        <time>2000-01-01T07:30:43.000Z</time>
      </trkpt>
      <trkpt lat="44.91034" lon="5.72756">
        <ele>1556.9</ele>
        <time>2000-01-01T07:30:53.000Z</time>
      </trkpt>
      <trkpt lat="44.91045" lon="5.72766">
        <ele>1556</ele>
        <time>2000-01-01T07:31:03.000Z</time>
      </trkpt>
      <trkpt lat="44.91057" lon="5.72778">
        <ele>1549.9</ele>
        <time>2000-01-01T07:31:13.000Z</time>
      </trkpt>
      <trkpt lat="44.91066" lon="5.72785">
        <ele>1549</ele>
        <time>2000-01-01T07:31:23.000Z</time>
      </trkpt>
      <trkpt lat="44.91077" lon="5.72795">
        <ele>1546.1</ele>
        <time>2000-01-01T07:31:33.000Z</time>
      </trkpt>
      <trkpt lat="44.91085" lon="5.72801">
        <ele>1544</ele>
        <time>2000-01-01T07:31:43.000Z</time>
      </trkpt>
      <trkpt lat="44.91093" lon="5.72811">
        <ele>1542.2</ele>
        <time>2000-01-01T07:31:53.000Z</time>
      </trkpt>
      <trkpt lat="44.91099" lon="5.72828">
        <ele>1541</ele>
        <time>2000-01-01T07:32:03.000Z</time>
      </trkpt>
      <trkpt lat="44.91103" lon="5.72842">
        <ele>1537.2</ele>
        <time>2000-01-01T07:32:13.000Z</time>
      </trkpt>
      <trkpt lat="44.91105" lon="5.72852">
        <ele>1535.6</ele>
        <time>2000-01-01T07:32:23.000Z</time>
      </trkpt>
      <trkpt lat="44.91107" lon="5.72865">
        <ele>1534</ele>
        <time>2000-01-01T07:32:33.000Z</time>
      </trkpt>
      <trkpt lat="44.91109" lon="5.72876">
        <ele>1532.4</ele>
        <time>2000-01-01T07:32:43.000Z</time>
      </trkpt>
      <trkpt lat="44.9111" lon="5.72877">
        <ele>1532.3</ele>
        <time>2000-01-01T07:32:53.000Z</time>
      </trkpt>
      <trkpt lat="44.91106" lon="5.7288">
        <ele>1531.9</ele>
        <time>2000-01-01T07:33:03.000Z</time>
      </trkpt>
      <trkpt lat="44.91092" lon="5.7289">
        <ele>1529</ele>
        <time>2000-01-01T07:33:13.000Z</time>
      </trkpt>
      <trkpt lat="44.9108" lon="5.72897">
        <ele>1528.4</ele>
        <time>2000-01-01T07:33:23.000Z</time>
      </trkpt>
      <trkpt lat="44.9107" lon="5.729">
        <ele>1526</ele>
        <time>2000-01-01T07:33:33.000Z</time>
      </trkpt>
      <trkpt lat="44.91059" lon="5.72902">
        <ele>1525.1</ele>
        <time>2000-01-01T07:33:43.000Z</time>
      </trkpt>
      <trkpt lat="44.91049" lon="5.729">
        <ele>1522</ele>
        <time>2000-01-01T07:33:53.000Z</time>
      </trkpt>
      <trkpt lat="44.91035" lon="5.72896">
        <ele>1522</ele>
        <time>2000-01-01T07:34:03.000Z</time>
      </trkpt>
      <trkpt lat="44.91021" lon="5.72888">
        <ele>1521</ele>
        <time>2000-01-01T07:34:13.000Z</time>
      </trkpt>
      <trkpt lat="44.91011" lon="5.72874">
        <ele>1520.2</ele>
        <time>2000-01-01T07:34:23.000Z</time>
      </trkpt>
      <trkpt lat="44.91004" lon="5.72869">
        <ele>1519</ele>
        <time>2000-01-01T07:34:33.000Z</time>
      </trkpt>
      <trkpt lat="44.90998" lon="5.72869">
        <ele>1518.2</ele>
        <time>2000-01-01T07:34:43.000Z</time>
      </trkpt>
      <trkpt lat="44.90991" lon="5.72871">
        <ele>1517.2</ele>
        <time>2000-01-01T07:34:53.000Z</time>
      </trkpt>
      <trkpt lat="44.90986" lon="5.72876">
        <ele>1515.5</ele>
        <time>2000-01-01T07:35:03.000Z</time>
      </trkpt>
      <trkpt lat="44.9098" lon="5.72879">
        <ele>1515</ele>
        <time>2000-01-01T07:35:13.000Z</time>
      </trkpt>
      <trkpt lat="44.90971" lon="5.72878">
        <ele>1513.4</ele>
        <time>2000-01-01T07:35:23.000Z</time>
      </trkpt>
      <trkpt lat="44.90955" lon="5.72874">
        <ele>1512</ele>
        <time>2000-01-01T07:35:33.000Z</time>
      </trkpt>
      <trkpt lat="44.90937" lon="5.72872">
        <ele>1510.3</ele>
        <time>2000-01-01T07:35:43.000Z</time>
      </trkpt>
      <trkpt lat="44.9092" lon="5.72871">
        <ele>1507</ele>
        <time>2000-01-01T07:35:53.000Z</time>
      </trkpt>
      <trkpt lat="44.90907" lon="5.72873">
        <ele>1507</ele>
        <time>2000-01-01T07:36:03.000Z</time>
      </trkpt>
      <trkpt lat="44.90896" lon="5.72877">
        <ele>1506</ele>
        <time>2000-01-01T07:36:13.000Z</time>
      </trkpt>
      <trkpt lat="44.90881" lon="5.7288">
        <ele>1504.4</ele>
        <time>2000-01-01T07:36:23.000Z</time>
      </trkpt>
      <trkpt lat="44.90869" lon="5.72886">
        <ele>1505</ele>
        <time>2000-01-01T07:36:33.000Z</time>
      </trkpt>
      <trkpt lat="44.90857" lon="5.72898">
        <ele>1499.7</ele>
        <time>2000-01-01T07:36:43.000Z</time>
      </trkpt>
      <trkpt lat="44.90848" lon="5.72902">
        <ele>1499</ele>
        <time>2000-01-01T07:36:53.000Z</time>
      </trkpt>
      <trkpt lat="44.90838" lon="5.72904">
        <ele>1499.3</ele>
        <time>2000-01-01T07:37:03.000Z</time>
      </trkpt>
      <trkpt lat="44.90832" lon="5.72909">
        <ele>1498.4</ele>
        <time>2000-01-01T07:37:13.000Z</time>
      </trkpt>
      <trkpt lat="44.90824" lon="5.72918">
        <ele>1499</ele>
        <time>2000-01-01T07:37:23.000Z</time>
      </trkpt>
      <trkpt lat="44.90818" lon="5.72926">
        <ele>1495</ele>
        <time>2000-01-01T07:37:33.000Z</time>
      </trkpt>
      <trkpt lat="44.90809" lon="5.7293">
        <ele>1494.8</ele>
        <time>2000-01-01T07:37:43.000Z</time>
      </trkpt>
      <trkpt lat="44.90796" lon="5.72935">
        <ele>1494</ele>
        <time>2000-01-01T07:37:53.000Z</time>
      </trkpt>
      <trkpt lat="44.90783" lon="5.72938">
        <ele>1493</ele>
        <time>2000-01-01T07:38:03.000Z</time>
      </trkpt>
      <trkpt lat="44.90773" lon="5.72944">
        <ele>1493</ele>
        <time>2000-01-01T07:38:13.000Z</time>
      </trkpt>
      <trkpt lat="44.90765" lon="5.72953">
        <ele>1490.2</ele>
        <time>2000-01-01T07:38:23.000Z</time>
      </trkpt>
      <trkpt lat="44.90756" lon="5.7296">
        <ele>1491</ele>
        <time>2000-01-01T07:38:33.000Z</time>
      </trkpt>
      <trkpt lat="44.90746" lon="5.72965">
        <ele>1488.1</ele>
        <time>2000-01-01T07:38:43.000Z</time>
      </trkpt>
      <trkpt lat="44.90736" lon="5.7297">
        <ele>1489</ele>
        <time>2000-01-01T07:38:53.000Z</time>
      </trkpt>
      <trkpt lat="44.90717" lon="5.72979">
        <ele>1486</ele>
        <time>2000-01-01T07:39:03.000Z</time>
      </trkpt>
      <trkpt lat="44.90701" lon="5.72984">
        <ele>1482.3</ele>
        <time>2000-01-01T07:39:13.000Z</time>
      </trkpt>
      <trkpt lat="44.90688" lon="5.72988">
        <ele>1482</ele>
        <time>2000-01-01T07:39:23.000Z</time>
      </trkpt>
      <trkpt lat="44.90674" lon="5.72994">
        <ele>1479.5</ele>
        <time>2000-01-01T07:39:33.000Z</time>
      </trkpt>
      <trkpt lat="44.90666" lon="5.72996">
        <ele>1480</ele>
        <time>2000-01-01T07:39:43.000Z</time>
      </trkpt>
      <trkpt lat="44.90659" lon="5.73002">
        <ele>1477.4</ele>
        <time>2000-01-01T07:39:53.000Z</time>
      </trkpt>
      <trkpt lat="44.90649" lon="5.73007">
        <ele>1475.8</ele>
        <time>2000-01-01T07:40:03.000Z</time>
      </trkpt>
      <trkpt lat="44.90638" lon="5.7301">
        <ele>1477</ele>
        <time>2000-01-01T07:40:13.000Z</time>
      </trkpt>
      <trkpt lat="44.90627" lon="5.7301">
        <ele>1473.8</ele>
        <time>2000-01-01T07:40:23.000Z</time>
      </trkpt>
      <trkpt lat="44.90616" lon="5.7301">
        <ele>1471</ele>
        <time>2000-01-01T07:40:33.000Z</time>
      </trkpt>
      <trkpt lat="44.90606" lon="5.73013">
        <ele>1471.7</ele>
        <time>2000-01-01T07:40:43.000Z</time>
      </trkpt>
      <trkpt lat="44.90591" lon="5.73019">
        <ele>1471</ele>
        <time>2000-01-01T07:40:53.000Z</time>
      </trkpt>
      <trkpt lat="44.90577" lon="5.73027">
        <ele>1468.4</ele>
        <time>2000-01-01T07:41:03.000Z</time>
      </trkpt>
      <trkpt lat="44.9057" lon="5.73031">
        <ele>1468</ele>
        <time>2000-01-01T07:41:13.000Z</time>
      </trkpt>
      <trkpt lat="44.90548" lon="5.73044">
        <ele>1465</ele>
        <time>2000-01-01T07:41:23.000Z</time>
      </trkpt>
      <trkpt lat="44.90524" lon="5.73059">
        <ele>1463</ele>
        <time>2000-01-01T07:41:33.000Z</time>
      </trkpt>
      <trkpt lat="44.90506" lon="5.73074">
        <ele>1460</ele>
        <time>2000-01-01T07:41:43.000Z</time>
      </trkpt>
      <trkpt lat="44.90489" lon="5.73088">
        <ele>1458</ele>
        <time>2000-01-01T07:41:53.000Z</time>
      </trkpt>
      <trkpt lat="44.90475" lon="5.73096">
        <ele>1455.8</ele>
        <time>2000-01-01T07:42:03.000Z</time>
      </trkpt>
      <trkpt lat="44.90462" lon="5.73097">
        <ele>1455</ele>
        <time>2000-01-01T07:42:13.000Z</time>
      </trkpt>
      <trkpt lat="44.90445" lon="5.73096">
        <ele>1452.8</ele>
        <time>2000-01-01T07:42:23.000Z</time>
      </trkpt>
      <trkpt lat="44.90428" lon="5.73091">
        <ele>1448</ele>
        <time>2000-01-01T07:42:33.000Z</time>
      </trkpt>
      <trkpt lat="44.90418" lon="5.73083">
        <ele>1448.4</ele>
        <time>2000-01-01T07:42:43.000Z</time>
      </trkpt>
      <trkpt lat="44.90414" lon="5.73072">
        <ele>1446</ele>
        <time>2000-01-01T07:42:53.000Z</time>
      </trkpt>
      <trkpt lat="44.90411" lon="5.73063">
        <ele>1447.4</ele>
        <time>2000-01-01T07:43:03.000Z</time>
      </trkpt>
      <trkpt lat="44.90408" lon="5.73057">
        <ele>1446.8</ele>
        <time>2000-01-01T07:43:13.000Z</time>
      </trkpt>
      <trkpt lat="44.90404" lon="5.73049">
        <ele>1446</ele>
        <time>2000-01-01T07:43:23.000Z</time>
      </trkpt>
      <trkpt lat="44.90401" lon="5.73045">
        <ele>1445.2</ele>
        <time>2000-01-01T07:43:33.000Z</time>
      </trkpt>
      <trkpt lat="44.90399" lon="5.73043">
        <ele>1444.6</ele>
        <time>2000-01-01T07:43:43.000Z</time>
      </trkpt>
      <trkpt lat="44.90398" lon="5.73036">
        <ele>1444.7</ele>
        <time>2000-01-01T07:43:53.000Z</time>
      </trkpt>
      <trkpt lat="44.90397" lon="5.73028">
        <ele>1444.8</ele>
        <time>2000-01-01T07:44:03.000Z</time>
      </trkpt>
      <trkpt lat="44.90396" lon="5.73021">
        <ele>1446</ele>
        <time>2000-01-01T07:44:13.000Z</time>
      </trkpt>
      <trkpt lat="44.90393" lon="5.73014">
        <ele>1446.2</ele>
        <time>2000-01-01T07:44:23.000Z</time>
      </trkpt>
      <trkpt lat="44.9039" lon="5.73008">
        <ele>1446.4</ele>
        <time>2000-01-01T07:44:33.000Z</time>
      </trkpt>
      <trkpt lat="44.90386" lon="5.73006">
        <ele>1445.7</ele>
        <time>2000-01-01T07:44:43.000Z</time>
      </trkpt>
      <trkpt lat="44.90381" lon="5.73008">
        <ele>1446</ele>
        <time>2000-01-01T07:44:53.000Z</time>
      </trkpt>
      <trkpt lat="44.90375" lon="5.73008">
        <ele>1442.2</ele>
        <time>2000-01-01T07:45:03.000Z</time>
      </trkpt>
      <trkpt lat="44.90368" lon="5.73005">
        <ele>1441.2</ele>
        <time>2000-01-01T07:45:13.000Z</time>
      </trkpt>
      <trkpt lat="44.90361" lon="5.73001">
        <ele>1441</ele>
        <time>2000-01-01T07:45:23.000Z</time>
      </trkpt>
      <trkpt lat="44.90352" lon="5.72993">
        <ele>1440</ele>
        <time>2000-01-01T07:45:33.000Z</time>
      </trkpt>
      <trkpt lat="44.90341" lon="5.72975">
        <ele>1440</ele>
        <time>2000-01-01T07:45:43.000Z</time>
      </trkpt>
      <trkpt lat="44.90342" lon="5.72984">
        <ele>1438.5</ele>
        <time>2000-01-01T07:45:53.000Z</time>
      </trkpt>
      <trkpt lat="44.90343" lon="5.72991">
        <ele>1437.7</ele>
        <time>2000-01-01T07:46:03.000Z</time>
      </trkpt>
      <trkpt lat="44.90345" lon="5.72996">
        <ele>1437.6</ele>
        <time>2000-01-01T07:46:13.000Z</time>
      </trkpt>
      <trkpt lat="44.90348" lon="5.72999">
        <ele>1438</ele>
        <time>2000-01-01T07:46:23.000Z</time>
      </trkpt>
      <trkpt lat="44.90352" lon="5.73004">
        <ele>1437.3</ele>
        <time>2000-01-01T07:46:33.000Z</time>
      </trkpt>
      <trkpt lat="44.90363" lon="5.73013">
        <ele>1437.3</ele>
        <time>2000-01-01T07:46:43.000Z</time>
      </trkpt>
      <trkpt lat="44.90376" lon="5.73023">
        <ele>1437</ele>
        <time>2000-01-01T07:46:53.000Z</time>
      </trkpt>
      <trkpt lat="44.90379" lon="5.73027">
        <ele>1438</ele>
        <time>2000-01-01T07:47:03.000Z</time>
      </trkpt>
      <trkpt lat="44.90381" lon="5.7303">
        <ele>1438.3</ele>
        <time>2000-01-01T07:47:13.000Z</time>
      </trkpt>
      <trkpt lat="44.90382" lon="5.73033">
        <ele>1438.4</ele>
        <time>2000-01-01T07:47:23.000Z</time>
      </trkpt>
      <trkpt lat="44.90382" lon="5.73035">
        <ele>1438.3</ele>
        <time>2000-01-01T07:47:33.000Z</time>
      </trkpt>
      <trkpt lat="44.90381" lon="5.73038">
        <ele>1437.8</ele>
        <time>2000-01-01T07:47:43.000Z</time>
      </trkpt>
      <trkpt lat="44.9038" lon="5.73042">
        <ele>1437.1</ele>
        <time>2000-01-01T07:47:53.000Z</time>
      </trkpt>
      <trkpt lat="44.90378" lon="5.73047">
        <ele>1432</ele>
        <time>2000-01-01T07:48:03.000Z</time>
      </trkpt>
      <trkpt lat="44.90376" lon="5.73053">
        <ele>1434.7</ele>
        <time>2000-01-01T07:48:13.000Z</time>
      </trkpt>
      <trkpt lat="44.90375" lon="5.73054">
        <ele>1434.1</ele>
        <time>2000-01-01T07:48:23.000Z</time>
      </trkpt>
      <trkpt lat="44.90373" lon="5.7306">
        <ele>1432.8</ele>
        <time>2000-01-01T07:48:33.000Z</time>
      </trkpt>
      <trkpt lat="44.90373" lon="5.73064">
        <ele>1432.6</ele>
        <time>2000-01-01T07:48:43.000Z</time>
      </trkpt>
      <trkpt lat="44.90373" lon="5.73068">
        <ele>1432.3</ele>
        <time>2000-01-01T07:48:53.000Z</time>
      </trkpt>
      <trkpt lat="44.90375" lon="5.73072">
        <ele>1431</ele>
        <time>2000-01-01T07:49:03.000Z</time>
      </trkpt>
      <trkpt lat="44.90378" lon="5.73076">
        <ele>1433.7</ele>
        <time>2000-01-01T07:49:13.000Z</time>
      </trkpt>
      <trkpt lat="44.9038" lon="5.73079">
        <ele>1434.2</ele>
        <time>2000-01-01T07:49:23.000Z</time>
      </trkpt>
      <trkpt lat="44.90381" lon="5.73082">
        <ele>1434.3</ele>
        <time>2000-01-01T07:49:33.000Z</time>
      </trkpt>
      <trkpt lat="44.90381" lon="5.73088">
        <ele>1434.2</ele>
        <time>2000-01-01T07:49:43.000Z</time>
      </trkpt>
      <trkpt lat="44.9038" lon="5.73092">
        <ele>1433.9</ele>
        <time>2000-01-01T07:49:53.000Z</time>
      </trkpt>
      <trkpt lat="44.90377" lon="5.73097">
        <ele>1428</ele>
        <time>2000-01-01T07:50:03.000Z</time>
      </trkpt>
      <trkpt lat="44.90369" lon="5.73108">
        <ele>1429.5</ele>
        <time>2000-01-01T07:50:13.000Z</time>
      </trkpt>
      <trkpt lat="44.90361" lon="5.73119">
        <ele>1425</ele>
        <time>2000-01-01T07:50:23.000Z</time>
      </trkpt>
      <trkpt lat="44.90357" lon="5.73127">
        <ele>1425.7</ele>
        <time>2000-01-01T07:50:33.000Z</time>
      </trkpt>
      <trkpt lat="44.90353" lon="5.73138">
        <ele>1425.3</ele>
        <time>2000-01-01T07:50:43.000Z</time>
      </trkpt>
      <trkpt lat="44.9035" lon="5.73148">
        <ele>1424</ele>
        <time>2000-01-01T07:50:53.000Z</time>
      </trkpt>
      <trkpt lat="44.9034" lon="5.73155">
        <ele>1421.5</ele>
        <time>2000-01-01T07:51:03.000Z</time>
      </trkpt>
      <trkpt lat="44.90328" lon="5.73165">
        <ele>1416</ele>
        <time>2000-01-01T07:51:13.000Z</time>
      </trkpt>
      <trkpt lat="44.90321" lon="5.73178">
        <ele>1417.3</ele>
        <time>2000-01-01T07:51:23.000Z</time>
      </trkpt>
      <trkpt lat="44.9031" lon="5.73202">
        <ele>1416</ele>
        <time>2000-01-01T07:51:33.000Z</time>
      </trkpt>
      <trkpt lat="44.90299" lon="5.73229">
        <ele>1412</ele>
        <time>2000-01-01T07:51:43.000Z</time>
      </trkpt>
      <trkpt lat="44.90294" lon="5.73246">
        <ele>1411.5</ele>
        <time>2000-01-01T07:51:53.000Z</time>
      </trkpt>
      <trkpt lat="44.90293" lon="5.73264">
        <ele>1409</ele>
        <time>2000-01-01T07:52:03.000Z</time>
      </trkpt>
      <trkpt lat="44.90287" lon="5.73282">
        <ele>1406.8</ele>
        <time>2000-01-01T07:52:13.000Z</time>
      </trkpt>
      <trkpt lat="44.90282" lon="5.73307">
        <ele>1404</ele>
        <time>2000-01-01T07:52:23.000Z</time>
      </trkpt>
      <trkpt lat="44.90302" lon="5.73362">
        <ele>1396</ele>
        <time>2000-01-01T07:52:33.000Z</time>
      </trkpt>
      <trkpt lat="44.90312" lon="5.73422">
        <ele>1388</ele>
        <time>2000-01-01T07:52:43.000Z</time>
      </trkpt>
      <trkpt lat="44.90317" lon="5.73457">
        <ele>1385</ele>
        <time>2000-01-01T07:52:53.000Z</time>
      </trkpt>
      <trkpt lat="44.90324" lon="5.73493">
        <ele>1381</ele>
        <time>2000-01-01T07:53:03.000Z</time>
      </trkpt>
      <trkpt lat="44.90337" lon="5.73529">
        <ele>1376</ele>
        <time>2000-01-01T07:53:13.000Z</time>
      </trkpt>
      <trkpt lat="44.90356" lon="5.73581">
        <ele>1364</ele>
        <time>2000-01-01T07:53:23.000Z</time>
      </trkpt>
      <trkpt lat="44.90364" lon="5.73614">
        <ele>1358</ele>
        <time>2000-01-01T07:53:33.000Z</time>
      </trkpt>
      <trkpt lat="44.90372" lon="5.7365">
        <ele>1349</ele>
        <time>2000-01-01T07:53:43.000Z</time>
      </trkpt>
      <trkpt lat="44.90386" lon="5.73681">
        <ele>1343</ele>
        <time>2000-01-01T07:53:53.000Z</time>
      </trkpt>
      <trkpt lat="44.90403" lon="5.73719">
        <ele>1340</ele>
        <time>2000-01-01T07:54:03.000Z</time>
      </trkpt>
      <trkpt lat="44.90411" lon="5.73753">
        <ele>1335</ele>
        <time>2000-01-01T07:54:13.000Z</time>
      </trkpt>
      <trkpt lat="44.90421" lon="5.73794">
        <ele>1328</ele>
        <time>2000-01-01T07:54:23.000Z</time>
      </trkpt>
      <trkpt lat="44.90436" lon="5.73843">
        <ele>1319</ele>
        <time>2000-01-01T07:54:33.000Z</time>
      </trkpt>
      <trkpt lat="44.90448" lon="5.73873">
        <ele>1316</ele>
        <time>2000-01-01T07:54:43.000Z</time>
      </trkpt>
      <trkpt lat="44.90413" lon="5.73885">
        <ele>1314</ele>
        <time>2000-01-01T07:54:53.000Z</time>
      </trkpt>
      <trkpt lat="44.90392" lon="5.73896">
        <ele>1314</ele>
        <time>2000-01-01T07:55:03.000Z</time>
      </trkpt>
      <trkpt lat="44.90368" lon="5.73903">
        <ele>1316</ele>
        <time>2000-01-01T07:55:13.000Z</time>
      </trkpt>
      <trkpt lat="44.90348" lon="5.73904">
        <ele>1317</ele>
        <time>2000-01-01T07:55:23.000Z</time>
      </trkpt>
      <trkpt lat="44.90348" lon="5.73905">
        <ele>1316.7</ele>
        <time>2000-01-01T07:55:33.000Z</time>
      </trkpt>
      <trkpt lat="44.90342" lon="5.73905">
        <ele>1317.3</ele>
        <time>2000-01-01T07:55:43.000Z</time>
      </trkpt>
      <trkpt lat="44.90318" lon="5.73904">
        <ele>1321</ele>
        <time>2000-01-01T07:55:53.000Z</time>
      </trkpt>
      <trkpt lat="44.9031" lon="5.73904">
        <ele>1321.7</ele>
        <time>2000-01-01T07:56:03.000Z</time>
      </trkpt>
      <trkpt lat="44.90302" lon="5.73909">
        <ele>1322.5</ele>
        <time>2000-01-01T07:56:13.000Z</time>
      </trkpt>
      <trkpt lat="44.90286" lon="5.73927">
        <ele>1322</ele>
        <time>2000-01-01T07:56:23.000Z</time>
      </trkpt>
      <trkpt lat="44.90261" lon="5.73958">
        <ele>1324</ele>
        <time>2000-01-01T07:56:33.000Z</time>
      </trkpt>
      <trkpt lat="44.90237" lon="5.73986">
        <ele>1324</ele>
        <time>2000-01-01T07:56:43.000Z</time>
      </trkpt>
      <trkpt lat="44.90222" lon="5.74002">
        <ele>1321.7</ele>
        <time>2000-01-01T07:56:53.000Z</time>
      </trkpt>
      <trkpt lat="44.9021" lon="5.74011">
        <ele>1324</ele>
        <time>2000-01-01T07:57:03.000Z</time>
      </trkpt>
      <trkpt lat="44.90197" lon="5.74018">
        <ele>1323.4</ele>
        <time>2000-01-01T07:57:13.000Z</time>
      </trkpt>
      <trkpt lat="44.90187" lon="5.74024">
        <ele>1324</ele>
        <time>2000-01-01T07:57:23.000Z</time>
      </trkpt>
      <trkpt lat="44.90177" lon="5.74031">
        <ele>1322</ele>
        <time>2000-01-01T07:57:33.000Z</time>
      </trkpt>
      <trkpt lat="44.90167" lon="5.74036">
        <ele>1324</ele>
        <time>2000-01-01T07:57:43.000Z</time>
      </trkpt>
      <trkpt lat="44.90157" lon="5.74041">
        <ele>1322.1</ele>
        <time>2000-01-01T07:57:53.000Z</time>
      </trkpt>
      <trkpt lat="44.90145" lon="5.74049">
        <ele>1324</ele>
        <time>2000-01-01T07:58:03.000Z</time>
      </trkpt>
      <trkpt lat="44.90144" lon="5.74052">
        <ele>1320.6</ele>
        <time>2000-01-01T07:58:13.000Z</time>
      </trkpt>
      <trkpt lat="44.90127" lon="5.74051">
        <ele>1325</ele>
        <time>2000-01-01T07:58:23.000Z</time>
      </trkpt>
      <trkpt lat="44.90115" lon="5.74051">
        <ele>1325.2</ele>
        <time>2000-01-01T07:58:33.000Z</time>
      </trkpt>
      <trkpt lat="44.90092" lon="5.74052">
        <ele>1325</ele>
        <time>2000-01-01T07:58:43.000Z</time>
      </trkpt>
      <trkpt lat="44.90066" lon="5.74052">
        <ele>1327</ele>
        <time>2000-01-01T07:58:53.000Z</time>
      </trkpt>
      <trkpt lat="44.90057" lon="5.74053">
        <ele>1326.7</ele>
        <time>2000-01-01T07:59:03.000Z</time>
      </trkpt>
      <trkpt lat="44.90051" lon="5.74051">
        <ele>1327.4</ele>
        <time>2000-01-01T07:59:13.000Z</time>
      </trkpt>
      <trkpt lat="44.90046" lon="5.74049">
        <ele>1328</ele>
        <time>2000-01-01T07:59:23.000Z</time>
      </trkpt>
      <trkpt lat="44.9004" lon="5.74046">
        <ele>1328.9</ele>
        <time>2000-01-01T07:59:33.000Z</time>
      </trkpt>
      <trkpt lat="44.90035" lon="5.74044">
        <ele>1329.4</ele>
        <time>2000-01-01T07:59:43.000Z</time>
      </trkpt>
      <trkpt lat="44.90035" lon="5.74044">
        <ele>1329.4</ele>
        <time>2000-01-01T07:59:53.000Z</time>
      </trkpt>
      <trkpt lat="44.90029" lon="5.74043">
        <ele>1329.6</ele>
        <time>2000-01-01T08:00:03.000Z</time>
      </trkpt>
      <trkpt lat="44.90024" lon="5.74042">
        <ele>1329</ele>
        <time>2000-01-01T08:00:13.000Z</time>
      </trkpt>
      <trkpt lat="44.9002" lon="5.74041">
        <ele>1330</ele>
        <time>2000-01-01T08:00:23.000Z</time>
      </trkpt>
      <trkpt lat="44.90015" lon="5.7404">
        <ele>1330.2</ele>
        <time>2000-01-01T08:00:33.000Z</time>
      </trkpt>
      <trkpt lat="44.90009" lon="5.7404">
        <ele>1330</ele>
        <time>2000-01-01T08:00:43.000Z</time>
      </trkpt>
      <trkpt lat="44.90004" lon="5.74039">
        <ele>1331</ele>
        <time>2000-01-01T08:00:53.000Z</time>
      </trkpt>
      <trkpt lat="44.9" lon="5.74037">
        <ele>1330.3</ele>
        <time>2000-01-01T08:01:03.000Z</time>
      </trkpt>
      <trkpt lat="44.89995" lon="5.74036">
        <ele>1330.6</ele>
        <time>2000-01-01T08:01:13.000Z</time>
      </trkpt>
      <trkpt lat="44.89991" lon="5.74034">
        <ele>1331</ele>
        <time>2000-01-01T08:01:23.000Z</time>
      </trkpt>
      <trkpt lat="44.89987" lon="5.74033">
        <ele>1331.1</ele>
        <time>2000-01-01T08:01:33.000Z</time>
      </trkpt>
      <trkpt lat="44.89984" lon="5.74032">
        <ele>1331</ele>
        <time>2000-01-01T08:01:43.000Z</time>
      </trkpt>
      <trkpt lat="44.8998" lon="5.7403">
        <ele>1331.7</ele>
        <time>2000-01-01T08:01:53.000Z</time>
      </trkpt>
      <trkpt lat="44.89977" lon="5.74028">
        <ele>1332</ele>
        <time>2000-01-01T08:02:03.000Z</time>
      </trkpt>
      <trkpt lat="44.89974" lon="5.74027">
        <ele>1332.1</ele>
        <time>2000-01-01T08:02:13.000Z</time>
      </trkpt>
      <trkpt lat="44.89971" lon="5.74026">
        <ele>1332.3</ele>
        <time>2000-01-01T08:02:23.000Z</time>
      </trkpt>
      <trkpt lat="44.89968" lon="5.74026">
        <ele>1332.1</ele>
        <time>2000-01-01T08:02:33.000Z</time>
      </trkpt>
      <trkpt lat="44.89965" lon="5.74026">
        <ele>1331</ele>
        <time>2000-01-01T08:02:43.000Z</time>
      </trkpt>
      <trkpt lat="44.89962" lon="5.74028">
        <ele>1331.6</ele>
        <time>2000-01-01T08:02:53.000Z</time>
      </trkpt>
      <trkpt lat="44.89955" lon="5.74034">
        <ele>1330.8</ele>
        <time>2000-01-01T08:03:03.000Z</time>
      </trkpt>
      <trkpt lat="44.89946" lon="5.74039">
        <ele>1331</ele>
        <time>2000-01-01T08:03:13.000Z</time>
      </trkpt>
      <trkpt lat="44.89926" lon="5.73982">
        <ele>1329</ele>
        <time>2000-01-01T08:03:23.000Z</time>
      </trkpt>
      <trkpt lat="44.89898" lon="5.73932">
        <ele>1327</ele>
        <time>2000-01-01T08:03:33.000Z</time>
      </trkpt>
      <trkpt lat="44.89879" lon="5.73912">
        <ele>1323</ele>
        <time>2000-01-01T08:03:43.000Z</time>
      </trkpt>
      <trkpt lat="44.89856" lon="5.73885">
        <ele>1318</ele>
        <time>2000-01-01T08:03:53.000Z</time>
      </trkpt>
      <trkpt lat="44.89836" lon="5.73876">
        <ele>1315</ele>
        <time>2000-01-01T08:04:03.000Z</time>
      </trkpt>
      <trkpt lat="44.89816" lon="5.73871">
        <ele>1312</ele>
        <time>2000-01-01T08:04:13.000Z</time>
      </trkpt>
      <trkpt lat="44.89802" lon="5.73854">
        <ele>1308.8</ele>
        <time>2000-01-01T08:04:23.000Z</time>
      </trkpt>
      <trkpt lat="44.89786" lon="5.73829">
        <ele>1301</ele>
        <time>2000-01-01T08:04:33.000Z</time>
      </trkpt>
      <trkpt lat="44.89753" lon="5.73781">
        <ele>1293</ele>
        <time>2000-01-01T08:04:43.000Z</time>
      </trkpt>
      <trkpt lat="44.89733" lon="5.73767">
        <ele>1287</ele>
        <time>2000-01-01T08:04:53.000Z</time>
      </trkpt>
      <trkpt lat="44.89724" lon="5.73761">
        <ele>1289.2</ele>
        <time>2000-01-01T08:05:03.000Z</time>
      </trkpt>
      <trkpt lat="44.89724" lon="5.7374">
        <ele>1283</ele>
        <time>2000-01-01T08:05:13.000Z</time>
      </trkpt>
      <trkpt lat="44.89733" lon="5.737">
        <ele>1274</ele>
        <time>2000-01-01T08:05:23.000Z</time>
      </trkpt>
      <trkpt lat="44.89734" lon="5.73686">
        <ele>1273.3</ele>
        <time>2000-01-01T08:05:33.000Z</time>
      </trkpt>
      <trkpt lat="44.89724" lon="5.73676">
        <ele>1266</ele>
        <time>2000-01-01T08:05:43.000Z</time>
      </trkpt>
      <trkpt lat="44.89688" lon="5.73648">
        <ele>1252</ele>
        <time>2000-01-01T08:05:53.000Z</time>
      </trkpt>
      <trkpt lat="44.89665" lon="5.73634">
        <ele>1247</ele>
        <time>2000-01-01T08:06:03.000Z</time>
      </trkpt>
      <trkpt lat="44.89663" lon="5.73607">
        <ele>1241.4</ele>
        <time>2000-01-01T08:06:13.000Z</time>
      </trkpt>
      <trkpt lat="44.89662" lon="5.73569">
        <ele>1227</ele>
        <time>2000-01-01T08:06:23.000Z</time>
      </trkpt>
      <trkpt lat="44.89662" lon="5.73568">
        <ele>1230</ele>
        <time>2000-01-01T08:06:33.000Z</time>
      </trkpt>
      <trkpt lat="44.89677" lon="5.73533">
        <ele>1220</ele>
        <time>2000-01-01T08:06:43.000Z</time>
      </trkpt>
      <trkpt lat="44.89709" lon="5.73494">
        <ele>1210</ele>
        <time>2000-01-01T08:06:53.000Z</time>
      </trkpt>
      <trkpt lat="44.89736" lon="5.73445">
        <ele>1194</ele>
        <time>2000-01-01T08:07:03.000Z</time>
      </trkpt>
      <trkpt lat="44.89765" lon="5.73402">
        <ele>1180</ele>
        <time>2000-01-01T08:07:13.000Z</time>
      </trkpt>
      <trkpt lat="44.89787" lon="5.73344">
        <ele>1158</ele>
        <time>2000-01-01T08:07:23.000Z</time>
      </trkpt>
      <trkpt lat="44.89797" lon="5.73286">
        <ele>1154</ele>
        <time>2000-01-01T08:07:33.000Z</time>
      </trkpt>
      <trkpt lat="44.89793" lon="5.73253">
        <ele>1154</ele>
        <time>2000-01-01T08:07:43.000Z</time>
      </trkpt>
      <trkpt lat="44.8979" lon="5.73219">
        <ele>1155</ele>
        <time>2000-01-01T08:07:53.000Z</time>
      </trkpt>
      <trkpt lat="44.89777" lon="5.73181">
        <ele>1157</ele>
        <time>2000-01-01T08:08:03.000Z</time>
      </trkpt>
      <trkpt lat="44.89761" lon="5.73129">
        <ele>1157</ele>
        <time>2000-01-01T08:08:13.000Z</time>
      </trkpt>
      <trkpt lat="44.89764" lon="5.73091">
        <ele>1154</ele>
        <time>2000-01-01T08:08:23.000Z</time>
      </trkpt>
      <trkpt lat="44.89732" lon="5.73046">
        <ele>1133</ele>
        <time>2000-01-01T08:08:33.000Z</time>
      </trkpt>
      <trkpt lat="44.89707" lon="5.73052">
        <ele>1117</ele>
        <time>2000-01-01T08:08:43.000Z</time>
      </trkpt>
      <trkpt lat="44.89678" lon="5.73058">
        <ele>1103</ele>
        <time>2000-01-01T08:08:53.000Z</time>
      </trkpt>
      <trkpt lat="44.89652" lon="5.73071">
        <ele>1094</ele>
        <time>2000-01-01T08:09:03.000Z</time>
      </trkpt>
      <trkpt lat="44.89628" lon="5.73095">
        <ele>1079</ele>
        <time>2000-01-01T08:09:13.000Z</time>
      </trkpt>
      <trkpt lat="44.89584" lon="5.73101">
        <ele>1058</ele>
        <time>2000-01-01T08:09:23.000Z</time>
      </trkpt>
      <trkpt lat="44.89541" lon="5.73104">
        <ele>1044</ele>
        <time>2000-01-01T08:09:33.000Z</time>
      </trkpt>
      <trkpt lat="44.89517" lon="5.73108">
        <ele>1035</ele>
        <time>2000-01-01T08:09:43.000Z</time>
      </trkpt>
      <trkpt lat="44.89493" lon="5.73112">
        <ele>1029</ele>
        <time>2000-01-01T08:09:53.000Z</time>
      </trkpt>
      <trkpt lat="44.89452" lon="5.73108">
        <ele>1021</ele>
        <time>2000-01-01T08:10:03.000Z</time>
      </trkpt>
      <trkpt lat="44.8942" lon="5.73103">
        <ele>1010</ele>
        <time>2000-01-01T08:10:13.000Z</time>
      </trkpt>
      <trkpt lat="44.89387" lon="5.73099">
        <ele>1001</ele>
        <time>2000-01-01T08:10:23.000Z</time>
      </trkpt>
      <trkpt lat="44.89352" lon="5.73094">
        <ele>994</ele>
        <time>2000-01-01T08:10:33.000Z</time>
      </trkpt>
      <trkpt lat="44.89313" lon="5.73081">
        <ele>988</ele>
        <time>2000-01-01T08:10:43.000Z</time>
      </trkpt>
      <trkpt lat="44.89293" lon="5.7306">
        <ele>983</ele>
        <time>2000-01-01T08:10:53.000Z</time>
      </trkpt>
      <trkpt lat="44.89272" lon="5.73038">
        <ele>976</ele>
        <time>2000-01-01T08:11:03.000Z</time>
      </trkpt>
      <trkpt lat="44.8925" lon="5.73017">
        <ele>972</ele>
        <time>2000-01-01T08:11:13.000Z</time>
      </trkpt>
      <trkpt lat="44.89226" lon="5.73012">
        <ele>968</ele>
        <time>2000-01-01T08:11:23.000Z</time>
      </trkpt>
      <trkpt lat="44.892" lon="5.73006">
        <ele>963</ele>
        <time>2000-01-01T08:11:33.000Z</time>
      </trkpt>
      <trkpt lat="44.89155" lon="5.73002">
        <ele>961</ele>
        <time>2000-01-01T08:11:43.000Z</time>
      </trkpt>
      <trkpt lat="44.89129" lon="5.73">
        <ele>958</ele>
        <time>2000-01-01T08:11:53.000Z</time>
      </trkpt>
      <trkpt lat="44.89101" lon="5.72997">
        <ele>958</ele>
        <time>2000-01-01T08:12:03.000Z</time>
      </trkpt>
      <trkpt lat="44.89101" lon="5.72998">
        <ele>961.4</ele>
        <time>2000-01-01T08:12:13.000Z</time>
      </trkpt>
      <trkpt lat="44.89085" lon="5.73003">
        <ele>962.2</ele>
        <time>2000-01-01T08:12:23.000Z</time>
      </trkpt>
      <trkpt lat="44.89044" lon="5.73012">
        <ele>954</ele>
        <time>2000-01-01T08:12:33.000Z</time>
      </trkpt>
      <trkpt lat="44.88999" lon="5.73024">
        <ele>951</ele>
        <time>2000-01-01T08:12:43.000Z</time>
      </trkpt>
      <trkpt lat="44.88973" lon="5.73032">
        <ele>949</ele>
        <time>2000-01-01T08:12:53.000Z</time>
      </trkpt>
      <trkpt lat="44.88941" lon="5.73041">
        <ele>949</ele>
        <time>2000-01-01T08:13:03.000Z</time>
      </trkpt>
      <trkpt lat="44.88916" lon="5.73048">
        <ele>947</ele>
        <time>2000-01-01T08:13:13.000Z</time>
      </trkpt>
      <trkpt lat="44.88886" lon="5.73056">
        <ele>946</ele>
        <time>2000-01-01T08:13:23.000Z</time>
      </trkpt>
      <trkpt lat="44.88851" lon="5.73066">
        <ele>939</ele>
        <time>2000-01-01T08:13:33.000Z</time>
      </trkpt>
      <trkpt lat="44.88824" lon="5.73059">
        <ele>932</ele>
        <time>2000-01-01T08:13:43.000Z</time>
      </trkpt>
      <trkpt lat="44.88819" lon="5.73059">
        <ele>932.8</ele>
        <time>2000-01-01T08:13:53.000Z</time>
      </trkpt>
      <trkpt lat="44.88809" lon="5.73059">
        <ele>930.6</ele>
        <time>2000-01-01T08:14:03.000Z</time>
      </trkpt>
      <trkpt lat="44.88806" lon="5.7307">
        <ele>928</ele>
        <time>2000-01-01T08:14:13.000Z</time>
      </trkpt>
      <trkpt lat="44.88799" lon="5.73078">
        <ele>927.6</ele>
        <time>2000-01-01T08:14:23.000Z</time>
      </trkpt>
      <trkpt lat="44.88787" lon="5.73081">
        <ele>922</ele>
        <time>2000-01-01T08:14:33.000Z</time>
      </trkpt>
      <trkpt lat="44.8878" lon="5.7309">
        <ele>922.1</ele>
        <time>2000-01-01T08:14:43.000Z</time>
      </trkpt>
      <trkpt lat="44.88775" lon="5.73094">
        <ele>920.5</ele>
        <time>2000-01-01T08:14:53.000Z</time>
      </trkpt>
      <trkpt lat="44.88769" lon="5.73096">
        <ele>916</ele>
        <time>2000-01-01T08:15:03.000Z</time>
      </trkpt>
      <trkpt lat="44.88767" lon="5.73108">
        <ele>917.2</ele>
        <time>2000-01-01T08:15:13.000Z</time>
      </trkpt>
      <trkpt lat="44.88762" lon="5.73119">
        <ele>915.3</ele>
        <time>2000-01-01T08:15:23.000Z</time>
      </trkpt>
      <trkpt lat="44.88756" lon="5.73126">
        <ele>911</ele>
        <time>2000-01-01T08:15:33.000Z</time>
      </trkpt>
      <trkpt lat="44.88752" lon="5.73137">
        <ele>911.7</ele>
        <time>2000-01-01T08:15:43.000Z</time>
      </trkpt>
      <trkpt lat="44.88745" lon="5.73143">
        <ele>909.2</ele>
        <time>2000-01-01T08:15:53.000Z</time>
      </trkpt>
      <trkpt lat="44.88738" lon="5.73147">
        <ele>902</ele>
        <time>2000-01-01T08:16:03.000Z</time>
      </trkpt>
      <trkpt lat="44.8873" lon="5.73161">
        <ele>903.2</ele>
        <time>2000-01-01T08:16:13.000Z</time>
      </trkpt>
      <trkpt lat="44.88727" lon="5.73174">
        <ele>898</ele>
        <time>2000-01-01T08:16:23.000Z</time>
      </trkpt>
      <trkpt lat="44.88718" lon="5.7318">
        <ele>898.9</ele>
        <time>2000-01-01T08:16:33.000Z</time>
      </trkpt>
      <trkpt lat="44.88714" lon="5.73192">
        <ele>896</ele>
        <time>2000-01-01T08:16:43.000Z</time>
      </trkpt>
      <trkpt lat="44.88704" lon="5.73211">
        <ele>897.2</ele>
        <time>2000-01-01T08:16:53.000Z</time>
      </trkpt>
      <trkpt lat="44.88685" lon="5.7316">
        <ele>883</ele>
        <time>2000-01-01T08:17:03.000Z</time>
      </trkpt>
      <trkpt lat="44.88677" lon="5.73126">
        <ele>883</ele>
        <time>2000-01-01T08:17:13.000Z</time>
      </trkpt>
      <trkpt lat="44.88668" lon="5.73087">
        <ele>881</ele>
        <time>2000-01-01T08:17:23.000Z</time>
      </trkpt>
      <trkpt lat="44.88647" lon="5.73063">
        <ele>881</ele>
        <time>2000-01-01T08:17:33.000Z</time>
      </trkpt>
      <trkpt lat="44.88636" lon="5.73034">
        <ele>882</ele>
        <time>2000-01-01T08:17:43.000Z</time>
      </trkpt>
      <trkpt lat="44.88624" lon="5.73003">
        <ele>884</ele>
        <time>2000-01-01T08:17:53.000Z</time>
      </trkpt>
      <trkpt lat="44.88635" lon="5.72945">
        <ele>886</ele>
        <time>2000-01-01T08:18:03.000Z</time>
      </trkpt>
      <trkpt lat="44.88654" lon="5.72898">
        <ele>881</ele>
        <time>2000-01-01T08:18:13.000Z</time>
      </trkpt>
      <trkpt lat="44.88652" lon="5.72861">
        <ele>877</ele>
        <time>2000-01-01T08:18:23.000Z</time>
      </trkpt>
      <trkpt lat="44.88648" lon="5.72812">
        <ele>849</ele>
        <time>2000-01-01T08:18:33.000Z</time>
      </trkpt>
      <trkpt lat="44.88639" lon="5.72767">
        <ele>823</ele>
        <time>2000-01-01T08:18:43.000Z</time>
      </trkpt>
      <trkpt lat="44.88624" lon="5.72722">
        <ele>808</ele>
        <time>2000-01-01T08:18:53.000Z</time>
      </trkpt>
      <trkpt lat="44.886" lon="5.7272">
        <ele>805</ele>
        <time>2000-01-01T08:19:03.000Z</time>
      </trkpt>
      <trkpt lat="44.88574" lon="5.72718">
        <ele>803</ele>
        <time>2000-01-01T08:19:13.000Z</time>
      </trkpt>
      <trkpt lat="44.8853" lon="5.72733">
        <ele>800</ele>
        <time>2000-01-01T08:19:23.000Z</time>
      </trkpt>
      <trkpt lat="44.88509" lon="5.72749">
        <ele>797</ele>
        <time>2000-01-01T08:19:33.000Z</time>
      </trkpt>
      <trkpt lat="44.88487" lon="5.72765">
        <ele>791</ele>
        <time>2000-01-01T08:19:43.000Z</time>
      </trkpt>
      <trkpt lat="44.88465" lon="5.72785">
        <ele>786</ele>
        <time>2000-01-01T08:19:53.000Z</time>
      </trkpt>
      <trkpt lat="44.88439" lon="5.7281">
        <ele>779</ele>
        <time>2000-01-01T08:20:03.000Z</time>
      </trkpt>
      <trkpt lat="44.88424" lon="5.72837">
        <ele>775</ele>
        <time>2000-01-01T08:20:13.000Z</time>
      </trkpt>
      <trkpt lat="44.88408" lon="5.72864">
        <ele>770</ele>
        <time>2000-01-01T08:20:23.000Z</time>
      </trkpt>
      <trkpt lat="44.88409" lon="5.72864">
        <ele>771.5</ele>
        <time>2000-01-01T08:20:33.000Z</time>
      </trkpt>
      <trkpt lat="44.88409" lon="5.72866">
        <ele>771.4</ele>
        <time>2000-01-01T08:20:43.000Z</time>
      </trkpt>
      <trkpt lat="44.88407" lon="5.72871">
        <ele>770.8</ele>
        <time>2000-01-01T08:20:53.000Z</time>
      </trkpt>
      <trkpt lat="44.88396" lon="5.72881">
        <ele>767</ele>
        <time>2000-01-01T08:21:03.000Z</time>
      </trkpt>
      <trkpt lat="44.88379" lon="5.72897">
        <ele>765</ele>
        <time>2000-01-01T08:21:13.000Z</time>
      </trkpt>
      <trkpt lat="44.8837" lon="5.72906">
        <ele>765.1</ele>
        <time>2000-01-01T08:21:23.000Z</time>
      </trkpt>
      <trkpt lat="44.88361" lon="5.7291">
        <ele>763</ele>
        <time>2000-01-01T08:21:33.000Z</time>
      </trkpt>
      <trkpt lat="44.88352" lon="5.72911">
        <ele>762.8</ele>
        <time>2000-01-01T08:21:43.000Z</time>
      </trkpt>
      <trkpt lat="44.88346" lon="5.72911">
        <ele>762.2</ele>
        <time>2000-01-01T08:21:53.000Z</time>
      </trkpt>
      <trkpt lat="44.88338" lon="5.72911">
        <ele>759</ele>
        <time>2000-01-01T08:22:03.000Z</time>
      </trkpt>
      <trkpt lat="44.88324" lon="5.72911">
        <ele>759.8</ele>
        <time>2000-01-01T08:22:13.000Z</time>
      </trkpt>
      <trkpt lat="44.8831" lon="5.72911">
        <ele>757</ele>
        <time>2000-01-01T08:22:23.000Z</time>
      </trkpt>
      <trkpt lat="44.88297" lon="5.72912">
        <ele>756.5</ele>
        <time>2000-01-01T08:22:33.000Z</time>
      </trkpt>
      <trkpt lat="44.88277" lon="5.72916">
        <ele>754</ele>
        <time>2000-01-01T08:22:43.000Z</time>
      </trkpt>
      <trkpt lat="44.88255" lon="5.72924">
        <ele>751</ele>
        <time>2000-01-01T08:22:53.000Z</time>
      </trkpt>
      <trkpt lat="44.88231" lon="5.7293">
        <ele>749</ele>
        <time>2000-01-01T08:23:03.000Z</time>
      </trkpt>
      <trkpt lat="44.88209" lon="5.72936">
        <ele>746</ele>
        <time>2000-01-01T08:23:13.000Z</time>
      </trkpt>
      <trkpt lat="44.88195" lon="5.7294">
        <ele>745.9</ele>
        <time>2000-01-01T08:23:23.000Z</time>
      </trkpt>
      <trkpt lat="44.88185" lon="5.72941">
        <ele>744</ele>
        <time>2000-01-01T08:23:33.000Z</time>
      </trkpt>
      <trkpt lat="44.88175" lon="5.7294">
        <ele>744.5</ele>
        <time>2000-01-01T08:23:43.000Z</time>
      </trkpt>
      <trkpt lat="44.88167" lon="5.72942">
        <ele>743.6</ele>
        <time>2000-01-01T08:23:53.000Z</time>
      </trkpt>
      <trkpt lat="44.88162" lon="5.72944">
        <ele>743</ele>
        <time>2000-01-01T08:24:03.000Z</time>
      </trkpt>
      <trkpt lat="44.88157" lon="5.72947">
        <ele>742.5</ele>
        <time>2000-01-01T08:24:13.000Z</time>
      </trkpt>
      <trkpt lat="44.88149" lon="5.7295">
        <ele>741.9</ele>
        <time>2000-01-01T08:24:23.000Z</time>
      </trkpt>
      <trkpt lat="44.8814" lon="5.72952">
        <ele>740</ele>
        <time>2000-01-01T08:24:33.000Z</time>
      </trkpt>
      <trkpt lat="44.88133" lon="5.72953">
        <ele>740.8</ele>
        <time>2000-01-01T08:24:43.000Z</time>
      </trkpt>
      <trkpt lat="44.88128" lon="5.72955">
        <ele>740.4</ele>
        <time>2000-01-01T08:24:53.000Z</time>
      </trkpt>
      <trkpt lat="44.88119" lon="5.7296">
        <ele>737</ele>
        <time>2000-01-01T08:25:03.000Z</time>
      </trkpt>
      <trkpt lat="44.88117" lon="5.72961">
        <ele>739</ele>
        <time>2000-01-01T08:25:13.000Z</time>
      </trkpt>
      <trkpt lat="44.88105" lon="5.72973">
        <ele>735.7</ele>
        <time>2000-01-01T08:25:23.000Z</time>
      </trkpt>
      <trkpt lat="44.88098" lon="5.72978">
        <ele>735</ele>
        <time>2000-01-01T08:25:33.000Z</time>
      </trkpt>
      <trkpt lat="44.8809" lon="5.72982">
        <ele>734.1</ele>
        <time>2000-01-01T08:25:43.000Z</time>
      </trkpt>
      <trkpt lat="44.88082" lon="5.72982">
        <ele>733.5</ele>
        <time>2000-01-01T08:25:53.000Z</time>
      </trkpt>
      <trkpt lat="44.88067" lon="5.72975">
        <ele>735</ele>
        <time>2000-01-01T08:26:03.000Z</time>
      </trkpt>
      <trkpt lat="44.8805" lon="5.72966">
        <ele>735.4</ele>
        <time>2000-01-01T08:26:13.000Z</time>
      </trkpt>
      <trkpt lat="44.88042" lon="5.72962">
        <ele>734</ele>
        <time>2000-01-01T08:26:23.000Z</time>
      </trkpt>
      <trkpt lat="44.88037" lon="5.7296">
        <ele>735.9</ele>
        <time>2000-01-01T08:26:33.000Z</time>
      </trkpt>
      <trkpt lat="44.88031" lon="5.72957">
        <ele>735.9</ele>
        <time>2000-01-01T08:26:43.000Z</time>
      </trkpt>
      <trkpt lat="44.88025" lon="5.72951">
        <ele>734</ele>
        <time>2000-01-01T08:26:53.000Z</time>
      </trkpt>
      <trkpt lat="44.8802" lon="5.72942">
        <ele>734.7</ele>
        <time>2000-01-01T08:27:03.000Z</time>
      </trkpt>
      <trkpt lat="44.88016" lon="5.72924">
        <ele>731</ele>
        <time>2000-01-01T08:27:13.000Z</time>
      </trkpt>
      <trkpt lat="44.88013" lon="5.72903">
        <ele>731.5</ele>
        <time>2000-01-01T08:27:23.000Z</time>
      </trkpt>
      <trkpt lat="44.88009" lon="5.72875">
        <ele>728</ele>
        <time>2000-01-01T08:27:33.000Z</time>
      </trkpt>
      <trkpt lat="44.88003" lon="5.72852">
        <ele>730.3</ele>
        <time>2000-01-01T08:27:43.000Z</time>
      </trkpt>
      <trkpt lat="44.87997" lon="5.72834">
        <ele>728</ele>
        <time>2000-01-01T08:27:53.000Z</time>
      </trkpt>
      <trkpt lat="44.87994" lon="5.72829">
        <ele>730.2</ele>
        <time>2000-01-01T08:28:03.000Z</time>
      </trkpt>
      <trkpt lat="44.87987" lon="5.72817">
        <ele>730.4</ele>
        <time>2000-01-01T08:28:13.000Z</time>
      </trkpt>
      <trkpt lat="44.87978" lon="5.72809">
        <ele>728</ele>
        <time>2000-01-01T08:28:23.000Z</time>
      </trkpt>
      <trkpt lat="44.8797" lon="5.728">
        <ele>729.1</ele>
        <time>2000-01-01T08:28:33.000Z</time>
      </trkpt>
      <trkpt lat="44.87957" lon="5.72788">
        <ele>730</ele>
        <time>2000-01-01T08:28:43.000Z</time>
      </trkpt>
      <trkpt lat="44.87945" lon="5.7278">
        <ele>730.4</ele>
        <time>2000-01-01T08:28:53.000Z</time>
      </trkpt>
      <trkpt lat="44.8793" lon="5.72776">
        <ele>733</ele>
        <time>2000-01-01T08:29:03.000Z</time>
      </trkpt>
      <trkpt lat="44.87913" lon="5.72777">
        <ele>733.9</ele>
        <time>2000-01-01T08:29:13.000Z</time>
      </trkpt>
      <trkpt lat="44.87899" lon="5.72781">
        <ele>736</ele>
        <time>2000-01-01T08:29:23.000Z</time>
      </trkpt>
      <trkpt lat="44.87881" lon="5.7279">
        <ele>736.6</ele>
        <time>2000-01-01T08:29:33.000Z</time>
      </trkpt>
      <trkpt lat="44.87866" lon="5.72797">
        <ele>742</ele>
        <time>2000-01-01T08:29:43.000Z</time>
      </trkpt>
      <trkpt lat="44.87846" lon="5.7281">
        <ele>741</ele>
        <time>2000-01-01T08:29:53.000Z</time>
      </trkpt>
      <trkpt lat="44.87831" lon="5.72824">
        <ele>739.7</ele>
        <time>2000-01-01T08:30:03.000Z</time>
      </trkpt>
      <trkpt lat="44.87825" lon="5.7283">
        <ele>741</ele>
        <time>2000-01-01T08:30:13.000Z</time>
      </trkpt>
      <trkpt lat="44.87818" lon="5.72838">
        <ele>738.7</ele>
        <time>2000-01-01T08:30:23.000Z</time>
      </trkpt>
      <trkpt lat="44.87812" lon="5.72843">
        <ele>738.7</ele>
        <time>2000-01-01T08:30:33.000Z</time>
      </trkpt>
      <trkpt lat="44.87805" lon="5.72845">
        <ele>742</ele>
        <time>2000-01-01T08:30:43.000Z</time>
      </trkpt>
      <trkpt lat="44.87796" lon="5.72848">
        <ele>739.8</ele>
        <time>2000-01-01T08:30:53.000Z</time>
      </trkpt>
      <trkpt lat="44.87788" lon="5.72847">
        <ele>741</ele>
        <time>2000-01-01T08:31:03.000Z</time>
      </trkpt>
      <trkpt lat="44.87775" lon="5.72843">
        <ele>744</ele>
        <time>2000-01-01T08:31:13.000Z</time>
      </trkpt>
      <trkpt lat="44.87749" lon="5.72838">
        <ele>743</ele>
        <time>2000-01-01T08:31:23.000Z</time>
      </trkpt>
      <trkpt lat="44.87732" lon="5.72834">
        <ele>743.8</ele>
        <time>2000-01-01T08:31:33.000Z</time>
      </trkpt>
      <trkpt lat="44.87713" lon="5.72831">
        <ele>743</ele>
        <time>2000-01-01T08:31:43.000Z</time>
      </trkpt>
      <trkpt lat="44.87693" lon="5.72828">
        <ele>742</ele>
        <time>2000-01-01T08:31:53.000Z</time>
      </trkpt>
      <trkpt lat="44.87676" lon="5.72824">
        <ele>741</ele>
        <time>2000-01-01T08:32:03.000Z</time>
      </trkpt>
      <trkpt lat="44.87664" lon="5.72818">
        <ele>741</ele>
        <time>2000-01-01T08:32:13.000Z</time>
      </trkpt>
      <trkpt lat="44.87657" lon="5.72809">
        <ele>740.5</ele>
        <time>2000-01-01T08:32:23.000Z</time>
      </trkpt>
      <trkpt lat="44.87654" lon="5.72799">
        <ele>739.8</ele>
        <time>2000-01-01T08:32:33.000Z</time>
      </trkpt>
      <trkpt lat="44.87654" lon="5.72788">
        <ele>737</ele>
        <time>2000-01-01T08:32:43.000Z</time>
      </trkpt>
      <trkpt lat="44.87656" lon="5.72777">
        <ele>738.8</ele>
        <time>2000-01-01T08:32:53.000Z</time>
      </trkpt>
      <trkpt lat="44.87661" lon="5.72763">
        <ele>737</ele>
        <time>2000-01-01T08:33:03.000Z</time>
      </trkpt>
      <trkpt lat="44.87669" lon="5.72744">
        <ele>737.5</ele>
        <time>2000-01-01T08:33:13.000Z</time>
      </trkpt>
      <trkpt lat="44.87676" lon="5.72726">
        <ele>732</ele>
        <time>2000-01-01T08:33:23.000Z</time>
      </trkpt>
      <trkpt lat="44.87683" lon="5.72708">
        <ele>734.6</ele>
        <time>2000-01-01T08:33:33.000Z</time>
      </trkpt>
      <trkpt lat="44.8769" lon="5.72692">
        <ele>729</ele>
        <time>2000-01-01T08:33:43.000Z</time>
      </trkpt>
      <trkpt lat="44.87695" lon="5.72675">
        <ele>732</ele>
        <time>2000-01-01T08:33:53.000Z</time>
      </trkpt>
      <trkpt lat="44.87699" lon="5.72658">
        <ele>725</ele>
        <time>2000-01-01T08:34:03.000Z</time>
      </trkpt>
      <trkpt lat="44.877" lon="5.72646">
        <ele>728.4</ele>
        <time>2000-01-01T08:34:13.000Z</time>
      </trkpt>
      <trkpt lat="44.877" lon="5.72633">
        <ele>726.9</ele>
        <time>2000-01-01T08:34:23.000Z</time>
      </trkpt>
      <trkpt lat="44.87699" lon="5.7262">
        <ele>723</ele>
        <time>2000-01-01T08:34:33.000Z</time>
      </trkpt>
      <trkpt lat="44.87695" lon="5.72605">
        <ele>724.9</ele>
        <time>2000-01-01T08:34:43.000Z</time>
      </trkpt>
      <trkpt lat="44.87687" lon="5.72593">
        <ele>721</ele>
        <time>2000-01-01T08:34:53.000Z</time>
      </trkpt>
      <trkpt lat="44.87673" lon="5.72579">
        <ele>720</ele>
        <time>2000-01-01T08:35:03.000Z</time>
      </trkpt>
      <trkpt lat="44.87659" lon="5.72565">
        <ele>716</ele>
        <time>2000-01-01T08:35:13.000Z</time>
      </trkpt>
      <trkpt lat="44.87656" lon="5.72561">
        <ele>716.6</ele>
        <time>2000-01-01T08:35:23.000Z</time>
      </trkpt>
      <trkpt lat="44.87649" lon="5.72547">
        <ele>715.8</ele>
        <time>2000-01-01T08:35:33.000Z</time>
      </trkpt>
      <trkpt lat="44.87644" lon="5.72533">
        <ele>716</ele>
        <time>2000-01-01T08:35:43.000Z</time>
      </trkpt>
      <trkpt lat="44.87641" lon="5.72515">
        <ele>717.1</ele>
        <time>2000-01-01T08:35:53.000Z</time>
      </trkpt>
      <trkpt lat="44.87639" lon="5.72503">
        <ele>716</ele>
        <time>2000-01-01T08:36:03.000Z</time>
      </trkpt>
      <trkpt lat="44.87639" lon="5.72488">
        <ele>718.4</ele>
        <time>2000-01-01T08:36:13.000Z</time>
      </trkpt>
      <trkpt lat="44.87641" lon="5.72467">
        <ele>719</ele>
        <time>2000-01-01T08:36:23.000Z</time>
      </trkpt>
      <trkpt lat="44.87642" lon="5.72443">
        <ele>720.4</ele>
        <time>2000-01-01T08:36:33.000Z</time>
      </trkpt>
      <trkpt lat="44.87642" lon="5.72431">
        <ele>719</ele>
        <time>2000-01-01T08:36:43.000Z</time>
      </trkpt>
      <trkpt lat="44.87641" lon="5.72423">
        <ele>720.3</ele>
        <time>2000-01-01T08:36:53.000Z</time>
      </trkpt>
      <trkpt lat="44.87637" lon="5.72412">
        <ele>719.7</ele>
        <time>2000-01-01T08:37:03.000Z</time>
      </trkpt>
      <trkpt lat="44.87634" lon="5.72405">
        <ele>718</ele>
        <time>2000-01-01T08:37:13.000Z</time>
      </trkpt>
      <trkpt lat="44.87631" lon="5.724">
        <ele>718.9</ele>
        <time>2000-01-01T08:37:23.000Z</time>
      </trkpt>
      <trkpt lat="44.87626" lon="5.72386">
        <ele>718</ele>
        <time>2000-01-01T08:37:33.000Z</time>
      </trkpt>
      <trkpt lat="44.87624" lon="5.72371">
        <ele>716</ele>
        <time>2000-01-01T08:37:43.000Z</time>
      </trkpt>
      <trkpt lat="44.87623" lon="5.7235">
        <ele>716.4</ele>
        <time>2000-01-01T08:37:53.000Z</time>
      </trkpt>
      <trkpt lat="44.87622" lon="5.7233">
        <ele>715</ele>
        <time>2000-01-01T08:38:03.000Z</time>
      </trkpt>
      <trkpt lat="44.8762" lon="5.72312">
        <ele>714.7</ele>
        <time>2000-01-01T08:38:13.000Z</time>
      </trkpt>
      <trkpt lat="44.87616" lon="5.72293">
        <ele>710</ele>
        <time>2000-01-01T08:38:23.000Z</time>
      </trkpt>
      <trkpt lat="44.87611" lon="5.72277">
        <ele>711</ele>
        <time>2000-01-01T08:38:33.000Z</time>
      </trkpt>
      <trkpt lat="44.87604" lon="5.72263">
        <ele>708</ele>
        <time>2000-01-01T08:38:43.000Z</time>
      </trkpt>
      <trkpt lat="44.87596" lon="5.72254">
        <ele>708.5</ele>
        <time>2000-01-01T08:38:53.000Z</time>
      </trkpt>
      <trkpt lat="44.87587" lon="5.72249">
        <ele>704</ele>
        <time>2000-01-01T08:39:03.000Z</time>
      </trkpt>
      <trkpt lat="44.87583" lon="5.72247">
        <ele>705</ele>
        <time>2000-01-01T08:39:13.000Z</time>
      </trkpt>
      <trkpt lat="44.87578" lon="5.72246">
        <ele>704</ele>
        <time>2000-01-01T08:39:23.000Z</time>
      </trkpt>
      <trkpt lat="44.87561" lon="5.72242">
        <ele>700</ele>
        <time>2000-01-01T08:39:33.000Z</time>
      </trkpt>
      <trkpt lat="44.87539" lon="5.72239">
        <ele>694</ele>
        <time>2000-01-01T08:39:43.000Z</time>
      </trkpt>
      <trkpt lat="44.87523" lon="5.72236">
        <ele>693.7</ele>
        <time>2000-01-01T08:39:53.000Z</time>
      </trkpt>
      <trkpt lat="44.87506" lon="5.72232">
        <ele>689</ele>
        <time>2000-01-01T08:40:03.000Z</time>
      </trkpt>
      <trkpt lat="44.87504" lon="5.72231">
        <ele>690.3</ele>
        <time>2000-01-01T08:40:13.000Z</time>
      </trkpt>
      <trkpt lat="44.87499" lon="5.7223">
        <ele>689.4</ele>
        <time>2000-01-01T08:40:23.000Z</time>
      </trkpt>
      <trkpt lat="44.87477" lon="5.72235">
        <ele>685</ele>
        <time>2000-01-01T08:40:33.000Z</time>
      </trkpt>
      <trkpt lat="44.87464" lon="5.72239">
        <ele>685</ele>
        <time>2000-01-01T08:40:43.000Z</time>
      </trkpt>
      <trkpt lat="44.87458" lon="5.72238">
        <ele>682</ele>
        <time>2000-01-01T08:40:53.000Z</time>
      </trkpt>
      <trkpt lat="44.87448" lon="5.72236">
        <ele>682.5</ele>
        <time>2000-01-01T08:41:03.000Z</time>
      </trkpt>
      <trkpt lat="44.87437" lon="5.72231">
        <ele>679</ele>
        <time>2000-01-01T08:41:13.000Z</time>
      </trkpt>
      <trkpt lat="44.87432" lon="5.72227">
        <ele>679.6</ele>
        <time>2000-01-01T08:41:23.000Z</time>
      </trkpt>
      <trkpt lat="44.87432" lon="5.72221">
        <ele>679.1</ele>
        <time>2000-01-01T08:41:33.000Z</time>
      </trkpt>
      <trkpt lat="44.87434" lon="5.72212">
        <ele>679</ele>
        <time>2000-01-01T08:41:43.000Z</time>
      </trkpt>
      <trkpt lat="44.87436" lon="5.72197">
        <ele>676</ele>
        <time>2000-01-01T08:41:53.000Z</time>
      </trkpt>
      <trkpt lat="44.87437" lon="5.7219">
        <ele>678.5</ele>
        <time>2000-01-01T08:42:03.000Z</time>
      </trkpt>
      <trkpt lat="44.87437" lon="5.72186">
        <ele>678.4</ele>
        <time>2000-01-01T08:42:13.000Z</time>
      </trkpt>
      <trkpt lat="44.87434" lon="5.72179">
        <ele>677.6</ele>
        <time>2000-01-01T08:42:23.000Z</time>
      </trkpt>
      <trkpt lat="44.87431" lon="5.72169">
        <ele>676</ele>
        <time>2000-01-01T08:42:33.000Z</time>
      </trkpt>
      <trkpt lat="44.87428" lon="5.72158">
        <ele>676</ele>
        <time>2000-01-01T08:42:43.000Z</time>
      </trkpt>
      <trkpt lat="44.87424" lon="5.72149">
        <ele>675.3</ele>
        <time>2000-01-01T08:42:53.000Z</time>
      </trkpt>
      <trkpt lat="44.87424" lon="5.72142">
        <ele>674</ele>
        <time>2000-01-01T08:43:03.000Z</time>
      </trkpt>
      <trkpt lat="44.87417" lon="5.72136">
        <ele>674</ele>
        <time>2000-01-01T08:43:13.000Z</time>
      </trkpt>
      <trkpt lat="44.87393" lon="5.72119">
        <ele>668</ele>
        <time>2000-01-01T08:43:23.000Z</time>
      </trkpt>
      <trkpt lat="44.87387" lon="5.72113">
        <ele>667.7</ele>
        <time>2000-01-01T08:43:33.000Z</time>
      </trkpt>
      <trkpt lat="44.87373" lon="5.72103">
        <ele>664</ele>
        <time>2000-01-01T08:43:43.000Z</time>
      </trkpt>
      <trkpt lat="44.87362" lon="5.72096">
        <ele>663.2</ele>
        <time>2000-01-01T08:43:53.000Z</time>
      </trkpt>
      <trkpt lat="44.87355" lon="5.72092">
        <ele>662.1</ele>
        <time>2000-01-01T08:44:03.000Z</time>
      </trkpt>
      <trkpt lat="44.87351" lon="5.7209">
        <ele>661</ele>
        <time>2000-01-01T08:44:13.000Z</time>
      </trkpt>
      <trkpt lat="44.87348" lon="5.72089">
        <ele>661.1</ele>
        <time>2000-01-01T08:44:23.000Z</time>
      </trkpt>
      <trkpt lat="44.87332" lon="5.72082">
        <ele>657</ele>
        <time>2000-01-01T08:44:33.000Z</time>
      </trkpt>
      <trkpt lat="44.87324" lon="5.72077">
        <ele>657.3</ele>
        <time>2000-01-01T08:44:43.000Z</time>
      </trkpt>
      <trkpt lat="44.87325" lon="5.72067">
        <ele>657.5</ele>
        <time>2000-01-01T08:44:53.000Z</time>
      </trkpt>
      <trkpt lat="44.87326" lon="5.72041">
        <ele>657</ele>
        <time>2000-01-01T08:45:03.000Z</time>
      </trkpt>
      <trkpt lat="44.87325" lon="5.72018">
        <ele>657.9</ele>
        <time>2000-01-01T08:45:13.000Z</time>
      </trkpt>
      <trkpt lat="44.87318" lon="5.71996">
        <ele>657</ele>
        <time>2000-01-01T08:45:23.000Z</time>
      </trkpt>
      <trkpt lat="44.87308" lon="5.71974">
        <ele>658.2</ele>
        <time>2000-01-01T08:45:33.000Z</time>
      </trkpt>
      <trkpt lat="44.87291" lon="5.71944">
        <ele>657</ele>
        <time>2000-01-01T08:45:43.000Z</time>
      </trkpt>
      <trkpt lat="44.87279" lon="5.71916">
        <ele>657</ele>
        <time>2000-01-01T08:45:53.000Z</time>
      </trkpt>
      <trkpt lat="44.87279" lon="5.71916">
        <ele>658.2</ele>
        <time>2000-01-01T08:46:03.000Z</time>
      </trkpt>
      <trkpt lat="44.87275" lon="5.71899">
        <ele>658.8</ele>
        <time>2000-01-01T08:46:13.000Z</time>
      </trkpt>
      <trkpt lat="44.87273" lon="5.7189">
        <ele>657</ele>
        <time>2000-01-01T08:46:23.000Z</time>
      </trkpt>
      <trkpt lat="44.87273" lon="5.71878">
        <ele>659.1</ele>
        <time>2000-01-01T08:46:33.000Z</time>
      </trkpt>
      <trkpt lat="44.87274" lon="5.71859">
        <ele>657</ele>
        <time>2000-01-01T08:46:43.000Z</time>
      </trkpt>
      <trkpt lat="44.87275" lon="5.71844">
        <ele>658.8</ele>
        <time>2000-01-01T08:46:53.000Z</time>
      </trkpt>
      <trkpt lat="44.87277" lon="5.71825">
        <ele>656</ele>
        <time>2000-01-01T08:47:03.000Z</time>
      </trkpt>
      <trkpt lat="44.87286" lon="5.71785">
        <ele>656</ele>
        <time>2000-01-01T08:47:13.000Z</time>
      </trkpt>
      <trkpt lat="44.87294" lon="5.71747">
        <ele>654</ele>
        <time>2000-01-01T08:47:23.000Z</time>
      </trkpt>
      <trkpt lat="44.873" lon="5.71713">
        <ele>652</ele>
        <time>2000-01-01T08:47:33.000Z</time>
      </trkpt>
      <trkpt lat="44.87302" lon="5.71688">
        <ele>652.9</ele>
        <time>2000-01-01T08:47:43.000Z</time>
      </trkpt>
      <trkpt lat="44.87304" lon="5.71681">
        <ele>651</ele>
        <time>2000-01-01T08:47:53.000Z</time>
      </trkpt>
      <trkpt lat="44.87305" lon="5.71675">
        <ele>652.5</ele>
        <time>2000-01-01T08:48:03.000Z</time>
      </trkpt>
      <trkpt lat="44.87311" lon="5.71655">
        <ele>651</ele>
        <time>2000-01-01T08:48:13.000Z</time>
      </trkpt>
      <trkpt lat="44.87321" lon="5.71626">
        <ele>651</ele>
        <time>2000-01-01T08:48:23.000Z</time>
      </trkpt>
      <trkpt lat="44.87328" lon="5.71609">
        <ele>652.8</ele>
        <time>2000-01-01T08:48:33.000Z</time>
      </trkpt>
      <trkpt lat="44.87336" lon="5.71585">
        <ele>651</ele>
        <time>2000-01-01T08:48:43.000Z</time>
      </trkpt>
      <trkpt lat="44.87343" lon="5.71571">
        <ele>654.1</ele>
        <time>2000-01-01T08:48:53.000Z</time>
      </trkpt>
      <trkpt lat="44.87338" lon="5.71555">
        <ele>651</ele>
        <time>2000-01-01T08:49:03.000Z</time>
      </trkpt>
      <trkpt lat="44.87329" lon="5.71524">
        <ele>650</ele>
        <time>2000-01-01T08:49:13.000Z</time>
      </trkpt>
      <trkpt lat="44.87322" lon="5.7149">
        <ele>650</ele>
        <time>2000-01-01T08:49:23.000Z</time>
      </trkpt>
      <trkpt lat="44.87318" lon="5.71456">
        <ele>649</ele>
        <time>2000-01-01T08:49:33.000Z</time>
      </trkpt>
      <trkpt lat="44.87317" lon="5.71429">
        <ele>649</ele>
        <time>2000-01-01T08:49:43.000Z</time>
      </trkpt>
      <trkpt lat="44.87319" lon="5.71406">
        <ele>649.7</ele>
        <time>2000-01-01T08:49:53.000Z</time>
      </trkpt>
      <trkpt lat="44.87322" lon="5.7139">
        <ele>649</ele>
        <time>2000-01-01T08:50:03.000Z</time>
      </trkpt>
      <trkpt lat="44.8733" lon="5.7136">
        <ele>649</ele>
        <time>2000-01-01T08:50:13.000Z</time>
      </trkpt>
      <trkpt lat="44.87326" lon="5.71332">
        <ele>645</ele>
        <time>2000-01-01T08:50:23.000Z</time>
      </trkpt>
      <trkpt lat="44.87316" lon="5.71299">
        <ele>639</ele>
        <time>2000-01-01T08:50:33.000Z</time>
      </trkpt>
      <trkpt lat="44.87297" lon="5.71251">
        <ele>631</ele>
        <time>2000-01-01T08:50:43.000Z</time>
      </trkpt>
      <trkpt lat="44.87282" lon="5.71215">
        <ele>626</ele>
        <time>2000-01-01T08:50:53.000Z</time>
      </trkpt>
      <trkpt lat="44.87258" lon="5.71173">
        <ele>618</ele>
        <time>2000-01-01T08:51:03.000Z</time>
      </trkpt>
      <trkpt lat="44.87242" lon="5.7115">
        <ele>614</ele>
        <time>2000-01-01T08:51:13.000Z</time>
      </trkpt>
      <trkpt lat="44.8724" lon="5.71149">
        <ele>614.9</ele>
        <time>2000-01-01T08:51:23.000Z</time>
      </trkpt>
      <trkpt lat="44.87233" lon="5.7115">
        <ele>613.7</ele>
        <time>2000-01-01T08:51:33.000Z</time>
      </trkpt>
      <trkpt lat="44.87206" lon="5.71167">
        <ele>612</ele>
        <time>2000-01-01T08:51:43.000Z</time>
      </trkpt>
      <trkpt lat="44.87178" lon="5.71182">
        <ele>610</ele>
        <time>2000-01-01T08:51:53.000Z</time>
      </trkpt>
      <trkpt lat="44.87171" lon="5.71183">
        <ele>610.2</ele>
        <time>2000-01-01T08:52:03.000Z</time>
      </trkpt>
      <trkpt lat="44.87165" lon="5.71177">
        <ele>608.9</ele>
        <time>2000-01-01T08:52:13.000Z</time>
      </trkpt>
      <trkpt lat="44.87144" lon="5.71152">
        <ele>603</ele>
        <time>2000-01-01T08:52:23.000Z</time>
      </trkpt>
      <trkpt lat="44.87127" lon="5.71135">
        <ele>599</ele>
        <time>2000-01-01T08:52:33.000Z</time>
      </trkpt>
      <trkpt lat="44.87116" lon="5.71127">
        <ele>598.8</ele>
        <time>2000-01-01T08:52:43.000Z</time>
      </trkpt>
      <trkpt lat="44.87087" lon="5.71113">
        <ele>593</ele>
        <time>2000-01-01T08:52:53.000Z</time>
      </trkpt>
      <trkpt lat="44.87042" lon="5.71089">
        <ele>590</ele>
        <time>2000-01-01T08:53:03.000Z</time>
      </trkpt>
      <trkpt lat="44.87021" lon="5.71076">
        <ele>588</ele>
        <time>2000-01-01T08:53:13.000Z</time>
      </trkpt>
      <trkpt lat="44.87016" lon="5.71074">
        <ele>588.9</ele>
        <time>2000-01-01T08:53:23.000Z</time>
      </trkpt>
      <trkpt lat="44.87013" lon="5.71066">
        <ele>588.3</ele>
        <time>2000-01-01T08:53:33.000Z</time>
      </trkpt>
      <trkpt lat="44.87007" lon="5.7106">
        <ele>588</ele>
        <time>2000-01-01T08:53:43.000Z</time>
      </trkpt>
      <trkpt lat="44.86995" lon="5.71051">
        <ele>586</ele>
        <time>2000-01-01T08:53:53.000Z</time>
      </trkpt>
      <trkpt lat="44.86986" lon="5.71043">
        <ele>583</ele>
        <time>2000-01-01T08:54:03.000Z</time>
      </trkpt>
      <trkpt lat="44.8698" lon="5.71041">
        <ele>581.6</ele>
        <time>2000-01-01T08:54:13.000Z</time>
      </trkpt>
      <trkpt lat="44.86974" lon="5.71044">
        <ele>578</ele>
        <time>2000-01-01T08:54:23.000Z</time>
      </trkpt>
      <trkpt lat="44.86969" lon="5.71047">
        <ele>579.4</ele>
        <time>2000-01-01T08:54:33.000Z</time>
      </trkpt>
      <trkpt lat="44.86965" lon="5.71054">
        <ele>578.3</ele>
        <time>2000-01-01T08:54:43.000Z</time>
      </trkpt>
      <trkpt lat="44.86963" lon="5.71062">
        <ele>577.9</ele>
        <time>2000-01-01T08:54:53.000Z</time>
      </trkpt>
      <trkpt lat="44.86962" lon="5.71068">
        <ele>578</ele>
        <time>2000-01-01T08:55:03.000Z</time>
      </trkpt>
      <trkpt lat="44.8696" lon="5.7107">
        <ele>576.8</ele>
        <time>2000-01-01T08:55:13.000Z</time>
      </trkpt>
      <trkpt lat="44.86958" lon="5.71069">
        <ele>575.5</ele>
        <time>2000-01-01T08:55:23.000Z</time>
      </trkpt>
      <trkpt lat="44.86957" lon="5.71063">
        <ele>574.4</ele>
        <time>2000-01-01T08:55:33.000Z</time>
      </trkpt>
      <trkpt lat="44.86958" lon="5.71058">
        <ele>574.5</ele>
        <time>2000-01-01T08:55:43.000Z</time>
      </trkpt>
      <trkpt lat="44.86961" lon="5.71042">
        <ele>573</ele>
        <time>2000-01-01T08:55:53.000Z</time>
      </trkpt>
      <trkpt lat="44.86962" lon="5.71037">
        <ele>572.9</ele>
        <time>2000-01-01T08:56:03.000Z</time>
      </trkpt>
      <trkpt lat="44.86962" lon="5.71031">
        <ele>571.7</ele>
        <time>2000-01-01T08:56:13.000Z</time>
      </trkpt>
      <trkpt lat="44.86962" lon="5.71025">
        <ele>570.3</ele>
        <time>2000-01-01T08:56:23.000Z</time>
      </trkpt>
      <trkpt lat="44.8696" lon="5.71019">
        <ele>567.5</ele>
        <time>2000-01-01T08:56:33.000Z</time>
      </trkpt>
      <trkpt lat="44.86958" lon="5.71013">
        <ele>563</ele>
        <time>2000-01-01T08:56:43.000Z</time>
      </trkpt>
      <trkpt lat="44.86958" lon="5.71011">
        <ele>564.4</ele>
        <time>2000-01-01T08:56:53.000Z</time>
      </trkpt>
      <trkpt lat="44.86958" lon="5.7101">
        <ele>564.2</ele>
        <time>2000-01-01T08:57:03.000Z</time>
      </trkpt>
      <trkpt lat="44.86962" lon="5.71004">
        <ele>564.7</ele>
        <time>2000-01-01T08:57:13.000Z</time>
      </trkpt>
      <trkpt lat="44.86963" lon="5.71002">
        <ele>564.6</ele>
        <time>2000-01-01T08:57:23.000Z</time>
      </trkpt>
      <trkpt lat="44.86963" lon="5.71001">
        <ele>564.3</ele>
        <time>2000-01-01T08:57:33.000Z</time>
      </trkpt>
      <trkpt lat="44.86962" lon="5.71">
        <ele>563.6</ele>
        <time>2000-01-01T08:57:43.000Z</time>
      </trkpt>
      <trkpt lat="44.86957" lon="5.71002">
        <ele>561.9</ele>
        <time>2000-01-01T08:57:53.000Z</time>
      </trkpt>
      <trkpt lat="44.86954" lon="5.71003">
        <ele>561</ele>
        <time>2000-01-01T08:58:03.000Z</time>
      </trkpt>
      <trkpt lat="44.86953" lon="5.71003">
        <ele>560.3</ele>
        <time>2000-01-01T08:58:13.000Z</time>
      </trkpt>
      <trkpt lat="44.86952" lon="5.71001">
        <ele>559.4</ele>
        <time>2000-01-01T08:58:23.000Z</time>
      </trkpt>
      <trkpt lat="44.86952" lon="5.71">
        <ele>559.3</ele>
        <time>2000-01-01T08:58:33.000Z</time>
      </trkpt>
      <trkpt lat="44.86956" lon="5.70996">
        <ele>559.8</ele>
        <time>2000-01-01T08:58:43.000Z</time>
      </trkpt>
      <trkpt lat="44.86956" lon="5.70996">
        <ele>559.8</ele>
        <time>2000-01-01T08:58:53.000Z</time>
      </trkpt>
      <trkpt lat="44.86957" lon="5.70995">
        <ele>560</ele>
        <time>2000-01-01T08:59:03.000Z</time>
      </trkpt>
      <trkpt lat="44.86959" lon="5.70992">
        <ele>560</ele>
        <time>2000-01-01T08:59:13.000Z</time>
      </trkpt>
      <trkpt lat="44.8696" lon="5.70991">
        <ele>560.1</ele>
        <time>2000-01-01T08:59:23.000Z</time>
      </trkpt>
      <trkpt lat="44.86961" lon="5.70985">
        <ele>558.8</ele>
        <time>2000-01-01T08:59:33.000Z</time>
      </trkpt>
      <trkpt lat="44.86958" lon="5.70989">
        <ele>556</ele>
        <time>2000-01-01T08:59:43.000Z</time>
      </trkpt>
      <trkpt lat="44.86957" lon="5.7099">
        <ele>558.5</ele>
        <time>2000-01-01T08:59:53.000Z</time>
      </trkpt>
      <trkpt lat="44.86956" lon="5.70989">
        <ele>557.8</ele>
        <time>2000-01-01T09:00:03.000Z</time>
      </trkpt>
      <trkpt lat="44.86956" lon="5.70988">
        <ele>557.5</ele>
        <time>2000-01-01T09:00:13.000Z</time>
      </trkpt>
      <trkpt lat="44.86957" lon="5.70987">
        <ele>557.7</ele>
        <time>2000-01-01T09:00:23.000Z</time>
      </trkpt>
      <trkpt lat="44.86957" lon="5.70986">
        <ele>557.4</ele>
        <time>2000-01-01T09:00:33.000Z</time>
      </trkpt>
      <trkpt lat="44.86958" lon="5.70985">
        <ele>557.5</ele>
        <time>2000-01-01T09:00:43.000Z</time>
      </trkpt>
      <trkpt lat="44.86958" lon="5.70984">
        <ele>557.2</ele>
        <time>2000-01-01T09:00:53.000Z</time>
      </trkpt>
      <trkpt lat="44.86958" lon="5.70982">
        <ele>556.7</ele>
        <time>2000-01-01T09:01:03.000Z</time>
      </trkpt>
      <trkpt lat="44.8696" lon="5.70981">
        <ele>557.2</ele>
        <time>2000-01-01T09:01:13.000Z</time>
      </trkpt>
      <trkpt lat="44.86964" lon="5.70978">
        <ele>558.1</ele>
        <time>2000-01-01T09:01:23.000Z</time>
      </trkpt>
      <trkpt lat="44.86965" lon="5.70977">
        <ele>558.3</ele>
        <time>2000-01-01T09:01:33.000Z</time>
      </trkpt>
      <trkpt lat="44.86966" lon="5.70976">
        <ele>558.4</ele>
        <time>2000-01-01T09:01:43.000Z</time>
      </trkpt>
      <trkpt lat="44.86965" lon="5.70975">
        <ele>557.7</ele>
        <time>2000-01-01T09:01:53.000Z</time>
      </trkpt>
      <trkpt lat="44.86964" lon="5.70975">
        <ele>557.2</ele>
        <time>2000-01-01T09:02:03.000Z</time>
      </trkpt>
      <trkpt lat="44.86963" lon="5.70975">
        <ele>556</ele>
        <time>2000-01-01T09:02:13.000Z</time>
      </trkpt>
      <trkpt lat="44.86961" lon="5.70974">
        <ele>555.7</ele>
        <time>2000-01-01T09:02:23.000Z</time>
      </trkpt>
      <trkpt lat="44.8696" lon="5.70974">
        <ele>555.2</ele>
        <time>2000-01-01T09:02:33.000Z</time>
      </trkpt>
      <trkpt lat="44.86959" lon="5.70974">
        <ele>554.8</ele>
        <time>2000-01-01T09:02:43.000Z</time>
      </trkpt>
      <trkpt lat="44.86958" lon="5.70975">
        <ele>554.7</ele>
        <time>2000-01-01T09:02:53.000Z</time>
      </trkpt>
      <trkpt lat="44.86953" lon="5.70976">
        <ele>552.8</ele>
        <time>2000-01-01T09:03:03.000Z</time>
      </trkpt>
      <trkpt lat="44.86952" lon="5.70975">
        <ele>552.1</ele>
        <time>2000-01-01T09:03:13.000Z</time>
      </trkpt>
      <trkpt lat="44.86951" lon="5.70975">
        <ele>551.6</ele>
        <time>2000-01-01T09:03:23.000Z</time>
      </trkpt>
      <trkpt lat="44.8695" lon="5.70974">
        <ele>550.9</ele>
        <time>2000-01-01T09:03:33.000Z</time>
      </trkpt>
      <trkpt lat="44.8695" lon="5.70974">
        <ele>550.9</ele>
        <time>2000-01-01T09:03:43.000Z</time>
      </trkpt>
      <trkpt lat="44.8695" lon="5.70973">
        <ele>550.6</ele>
        <time>2000-01-01T09:03:53.000Z</time>
      </trkpt>
      <trkpt lat="44.8695" lon="5.70972">
        <ele>550.3</ele>
        <time>2000-01-01T09:04:03.000Z</time>
      </trkpt>
      <trkpt lat="44.8695" lon="5.70972">
        <ele>550.3</ele>
        <time>2000-01-01T09:04:13.000Z</time>
      </trkpt>
      <trkpt lat="44.86953" lon="5.7097">
        <ele>550.5</ele>
        <time>2000-01-01T09:04:23.000Z</time>
      </trkpt>
      <trkpt lat="44.86955" lon="5.70969">
        <ele>555</ele>
        <time>2000-01-01T09:04:33.000Z</time>
      </trkpt>
      <trkpt lat="44.86957" lon="5.70968">
        <ele>551.1</ele>
        <time>2000-01-01T09:04:43.000Z</time>
      </trkpt>
      <trkpt lat="44.86959" lon="5.70967">
        <ele>551.5</ele>
        <time>2000-01-01T09:04:53.000Z</time>
      </trkpt>
      <trkpt lat="44.86961" lon="5.70966">
        <ele>551.8</ele>
        <time>2000-01-01T09:05:03.000Z</time>
      </trkpt>
      <trkpt lat="44.86962" lon="5.70965">
        <ele>551.7</ele>
        <time>2000-01-01T09:05:13.000Z</time>
      </trkpt>
      <trkpt lat="44.86965" lon="5.70964">
        <ele>552.4</ele>
        <time>2000-01-01T09:05:23.000Z</time>
      </trkpt>
      <trkpt lat="44.86975" lon="5.70963">
        <ele>554</ele>
        <time>2000-01-01T09:05:33.000Z</time>
      </trkpt>
      <trkpt lat="44.86976" lon="5.70963">
        <ele>555</ele>
        <time>2000-01-01T09:05:43.000Z</time>
      </trkpt>
      <trkpt lat="44.86977" lon="5.70963">
        <ele>555</ele>
        <time>2000-01-01T09:05:53.000Z</time>
      </trkpt>
      <trkpt lat="44.86978" lon="5.70963">
        <ele>555</ele>
        <time>2000-01-01T09:06:03.000Z</time>
      </trkpt>
      <trkpt lat="44.86986" lon="5.70963">
        <ele>555</ele>
        <time>2000-01-01T09:06:13.000Z</time>
      </trkpt>
      <trkpt lat="44.86995" lon="5.70961">
        <ele>554</ele>
        <time>2000-01-01T09:06:23.000Z</time>
      </trkpt>
      <trkpt lat="44.86997" lon="5.70961">
        <ele>553.9</ele>
        <time>2000-01-01T09:06:33.000Z</time>
      </trkpt>
      <trkpt lat="44.86998" lon="5.7096">
        <ele>553.4</ele>
        <time>2000-01-01T09:06:43.000Z</time>
      </trkpt>
      <trkpt lat="44.86999" lon="5.70961">
        <ele>553.9</ele>
        <time>2000-01-01T09:06:53.000Z</time>
      </trkpt>
      <trkpt lat="44.86999" lon="5.70965">
        <ele>556.1</ele>
        <time>2000-01-01T09:07:03.000Z</time>
      </trkpt>
      <trkpt lat="44.86999" lon="5.70966">
        <ele>556.6</ele>
        <time>2000-01-01T09:07:13.000Z</time>
      </trkpt>
      <trkpt lat="44.87" lon="5.70965">
        <ele>556.1</ele>
        <time>2000-01-01T09:07:23.000Z</time>
      </trkpt>
      <trkpt lat="44.87001" lon="5.70961">
        <ele>554.2</ele>
        <time>2000-01-01T09:07:33.000Z</time>
      </trkpt>
      <trkpt lat="44.87003" lon="5.70961">
        <ele>554.6</ele>
        <time>2000-01-01T09:07:43.000Z</time>
      </trkpt>
      <trkpt lat="44.87003" lon="5.7096">
        <ele>554.1</ele>
        <time>2000-01-01T09:07:53.000Z</time>
      </trkpt>
      <trkpt lat="44.87004" lon="5.70958">
        <ele>553.3</ele>
        <time>2000-01-01T09:08:03.000Z</time>
      </trkpt>
      <trkpt lat="44.87002" lon="5.70957">
        <ele>552.3</ele>
        <time>2000-01-01T09:08:13.000Z</time>
      </trkpt>
      <trkpt lat="44.87001" lon="5.70956">
        <ele>551.5</ele>
        <time>2000-01-01T09:08:23.000Z</time>
      </trkpt>
      <trkpt lat="44.87" lon="5.70956">
        <ele>551.2</ele>
        <time>2000-01-01T09:08:33.000Z</time>
      </trkpt>
      <trkpt lat="44.86999" lon="5.70956">
        <ele>550</ele>
        <time>2000-01-01T09:08:43.000Z</time>
      </trkpt>
      <trkpt lat="44.86998" lon="5.70956">
        <ele>551.2</ele>
        <time>2000-01-01T09:08:53.000Z</time>
      </trkpt>
      <trkpt lat="44.86997" lon="5.70956">
        <ele>551.2</ele>
        <time>2000-01-01T09:09:03.000Z</time>
      </trkpt>
      <trkpt lat="44.86996" lon="5.70955">
        <ele>550.7</ele>
        <time>2000-01-01T09:09:13.000Z</time>
      </trkpt>
      <trkpt lat="44.86995" lon="5.70955">
        <ele>550.7</ele>
        <time>2000-01-01T09:09:23.000Z</time>
      </trkpt>
      <trkpt lat="44.86994" lon="5.70954">
        <ele>550.2</ele>
        <time>2000-01-01T09:09:33.000Z</time>
      </trkpt>
      <trkpt lat="44.86992" lon="5.70955">
        <ele>550.7</ele>
        <time>2000-01-01T09:09:43.000Z</time>
      </trkpt>
      <trkpt lat="44.86989" lon="5.70953">
        <ele>549.6</ele>
        <time>2000-01-01T09:09:53.000Z</time>
      </trkpt>
      <trkpt lat="44.86984" lon="5.7095">
        <ele>548</ele>
        <time>2000-01-01T09:10:03.000Z</time>
      </trkpt>
      <trkpt lat="44.8698" lon="5.70949">
        <ele>540</ele>
        <time>2000-01-01T09:10:13.000Z</time>
      </trkpt>
      <trkpt lat="44.86974" lon="5.70947">
        <ele>546.4</ele>
        <time>2000-01-01T09:10:23.000Z</time>
      </trkpt>
      <trkpt lat="44.86971" lon="5.70944">
        <ele>544.2</ele>
        <time>2000-01-01T09:10:33.000Z</time>
      </trkpt>
      <trkpt lat="44.86967" lon="5.7094">
        <ele>540.1</ele>
        <time>2000-01-01T09:10:43.000Z</time>
      </trkpt>
      <trkpt lat="44.86962" lon="5.70936">
        <ele>532</ele>
        <time>2000-01-01T09:10:53.000Z</time>
      </trkpt>
      <trkpt lat="44.86929" lon="5.70908">
        <ele>496</ele>
        <time>2000-01-01T09:11:03.000Z</time>
      </trkpt>
      <trkpt lat="44.86896" lon="5.70881">
        <ele>484</ele>
        <time>2000-01-01T09:11:13.000Z</time>
      </trkpt>
      <trkpt lat="44.86863" lon="5.70853">
        <ele>484</ele>
        <time>2000-01-01T09:11:23.000Z</time>
      </trkpt>
      <trkpt lat="44.8683" lon="5.70826">
        <ele>488</ele>
        <time>2000-01-01T09:11:33.000Z</time>
      </trkpt>
      <trkpt lat="44.86795" lon="5.70797">
        <ele>522</ele>
        <time>2000-01-01T09:11:43.000Z</time>
      </trkpt>
      <trkpt lat="44.86785" lon="5.7078">
        <ele>527.6</ele>
        <time>2000-01-01T09:11:53.000Z</time>
      </trkpt>
      <trkpt lat="44.86774" lon="5.70763">
        <ele>540</ele>
        <time>2000-01-01T09:12:03.000Z</time>
      </trkpt>
      <trkpt lat="44.86752" lon="5.70714">
        <ele>556</ele>
        <time>2000-01-01T09:12:13.000Z</time>
      </trkpt>
      <trkpt lat="44.8674" lon="5.70685">
        <ele>570</ele>
        <time>2000-01-01T09:12:23.000Z</time>
      </trkpt>
      <trkpt lat="44.86734" lon="5.70661">
        <ele>565.4</ele>
        <time>2000-01-01T09:12:33.000Z</time>
      </trkpt>
      <trkpt lat="44.86725" lon="5.70619">
        <ele>575</ele>
        <time>2000-01-01T09:12:43.000Z</time>
      </trkpt>
      <trkpt lat="44.86718" lon="5.70597">
        <ele>576.3</ele>
        <time>2000-01-01T09:12:53.000Z</time>
      </trkpt>
      <trkpt lat="44.86713" lon="5.70591">
        <ele>581</ele>
        <time>2000-01-01T09:13:03.000Z</time>
      </trkpt>
      <trkpt lat="44.86705" lon="5.70591">
        <ele>584.6</ele>
        <time>2000-01-01T09:13:13.000Z</time>
      </trkpt>
      <trkpt lat="44.867" lon="5.70601">
        <ele>588.5</ele>
        <time>2000-01-01T09:13:23.000Z</time>
      </trkpt>
      <trkpt lat="44.86694" lon="5.70628">
        <ele>596</ele>
        <time>2000-01-01T09:13:33.000Z</time>
      </trkpt>
      <trkpt lat="44.86692" lon="5.70635">
        <ele>595.4</ele>
        <time>2000-01-01T09:13:43.000Z</time>
      </trkpt>
      <trkpt lat="44.8669" lon="5.70636">
        <ele>596.7</ele>
        <time>2000-01-01T09:13:53.000Z</time>
      </trkpt>
      <trkpt lat="44.86688" lon="5.70634">
        <ele>597.9</ele>
        <time>2000-01-01T09:14:03.000Z</time>
      </trkpt>
      <trkpt lat="44.86682" lon="5.70586">
        <ele>596</ele>
        <time>2000-01-01T09:14:13.000Z</time>
      </trkpt>
      <trkpt lat="44.86675" lon="5.70556">
        <ele>592</ele>
        <time>2000-01-01T09:14:23.000Z</time>
      </trkpt>
      <trkpt lat="44.86672" lon="5.70546">
        <ele>590</ele>
        <time>2000-01-01T09:14:33.000Z</time>
      </trkpt>
      <trkpt lat="44.86667" lon="5.70541">
        <ele>589.7</ele>
        <time>2000-01-01T09:14:43.000Z</time>
      </trkpt>
      <trkpt lat="44.86659" lon="5.70539">
        <ele>592</ele>
        <time>2000-01-01T09:14:53.000Z</time>
      </trkpt>
      <trkpt lat="44.86635" lon="5.70543">
        <ele>592</ele>
        <time>2000-01-01T09:15:03.000Z</time>
      </trkpt>
      <trkpt lat="44.86621" lon="5.70546">
        <ele>595.4</ele>
        <time>2000-01-01T09:15:13.000Z</time>
      </trkpt>
      <trkpt lat="44.86616" lon="5.70549">
        <ele>594</ele>
        <time>2000-01-01T09:15:23.000Z</time>
      </trkpt>
      <trkpt lat="44.86616" lon="5.70549">
        <ele>596.4</ele>
        <time>2000-01-01T09:15:33.000Z</time>
      </trkpt>
      <trkpt lat="44.86611" lon="5.70552">
        <ele>597.2</ele>
        <time>2000-01-01T09:15:43.000Z</time>
      </trkpt>
      <trkpt lat="44.86592" lon="5.70576">
        <ele>601</ele>
        <time>2000-01-01T09:15:53.000Z</time>
      </trkpt>
      <trkpt lat="44.86574" lon="5.70597">
        <ele>606</ele>
        <time>2000-01-01T09:16:03.000Z</time>
      </trkpt>
      <trkpt lat="44.86559" lon="5.70619">
        <ele>609</ele>
        <time>2000-01-01T09:16:13.000Z</time>
      </trkpt>
      <trkpt lat="44.86539" lon="5.70673">
        <ele>623</ele>
        <time>2000-01-01T09:16:23.000Z</time>
      </trkpt>
      <trkpt lat="44.86533" lon="5.70701">
        <ele>633</ele>
        <time>2000-01-01T09:16:33.000Z</time>
      </trkpt>
      <trkpt lat="44.8655" lon="5.70693">
        <ele>635.3</ele>
        <time>2000-01-01T09:16:43.000Z</time>
      </trkpt>
      <trkpt lat="44.86571" lon="5.70683">
        <ele>635</ele>
        <time>2000-01-01T09:16:53.000Z</time>
      </trkpt>
      <trkpt lat="44.86584" lon="5.70681">
        <ele>637.6</ele>
        <time>2000-01-01T09:17:03.000Z</time>
      </trkpt>
      <trkpt lat="44.86593" lon="5.70684">
        <ele>638</ele>
        <time>2000-01-01T09:17:13.000Z</time>
      </trkpt>
      <trkpt lat="44.866" lon="5.70692">
        <ele>639.4</ele>
        <time>2000-01-01T09:17:23.000Z</time>
      </trkpt>
      <trkpt lat="44.86604" lon="5.70703">
        <ele>641</ele>
        <time>2000-01-01T09:17:33.000Z</time>
      </trkpt>
      <trkpt lat="44.86607" lon="5.70718">
        <ele>644</ele>
        <time>2000-01-01T09:17:43.000Z</time>
      </trkpt>
      <trkpt lat="44.86607" lon="5.70729">
        <ele>644.8</ele>
        <time>2000-01-01T09:17:53.000Z</time>
      </trkpt>
      <trkpt lat="44.86607" lon="5.70747">
        <ele>649</ele>
        <time>2000-01-01T09:18:03.000Z</time>
      </trkpt>
      <trkpt lat="44.86609" lon="5.70774">
        <ele>656</ele>
        <time>2000-01-01T09:18:13.000Z</time>
      </trkpt>
      <trkpt lat="44.86617" lon="5.70815">
        <ele>655</ele>
        <time>2000-01-01T09:18:23.000Z</time>
      </trkpt>
      <trkpt lat="44.86624" lon="5.70848">
        <ele>655</ele>
        <time>2000-01-01T09:18:33.000Z</time>
      </trkpt>
      <trkpt lat="44.86631" lon="5.70883">
        <ele>655</ele>
        <time>2000-01-01T09:18:43.000Z</time>
      </trkpt>
      <trkpt lat="44.8664" lon="5.70918">
        <ele>655</ele>
        <time>2000-01-01T09:18:53.000Z</time>
      </trkpt>
      <trkpt lat="44.86651" lon="5.70958">
        <ele>653</ele>
        <time>2000-01-01T09:19:03.000Z</time>
      </trkpt>
      <trkpt lat="44.86662" lon="5.70997">
        <ele>658</ele>
        <time>2000-01-01T09:19:13.000Z</time>
      </trkpt>
      <trkpt lat="44.86669" lon="5.71023">
        <ele>663</ele>
        <time>2000-01-01T09:19:23.000Z</time>
      </trkpt>
      <trkpt lat="44.86671" lon="5.71049">
        <ele>657.4</ele>
        <time>2000-01-01T09:19:33.000Z</time>
      </trkpt>
      <trkpt lat="44.86671" lon="5.71076">
        <ele>666</ele>
        <time>2000-01-01T09:19:43.000Z</time>
      </trkpt>
      <trkpt lat="44.86668" lon="5.71089">
        <ele>664.6</ele>
        <time>2000-01-01T09:19:53.000Z</time>
      </trkpt>
      <trkpt lat="44.86657" lon="5.71103">
        <ele>679</ele>
        <time>2000-01-01T09:20:03.000Z</time>
      </trkpt>
      <trkpt lat="44.86635" lon="5.71129">
        <ele>685</ele>
        <time>2000-01-01T09:20:13.000Z</time>
      </trkpt>
      <trkpt lat="44.86612" lon="5.71166">
        <ele>683</ele>
        <time>2000-01-01T09:20:23.000Z</time>
      </trkpt>
      <trkpt lat="44.86594" lon="5.71222">
        <ele>683</ele>
        <time>2000-01-01T09:20:33.000Z</time>
      </trkpt>
      <trkpt lat="44.86554" lon="5.71256">
        <ele>684</ele>
        <time>2000-01-01T09:20:43.000Z</time>
      </trkpt>
      <trkpt lat="44.86521" lon="5.71234">
        <ele>700</ele>
        <time>2000-01-01T09:20:53.000Z</time>
      </trkpt>
      <trkpt lat="44.8652" lon="5.71237">
        <ele>697</ele>
        <time>2000-01-01T09:21:03.000Z</time>
      </trkpt>
      <trkpt lat="44.86519" lon="5.71237">
        <ele>697.1</ele>
        <time>2000-01-01T09:21:13.000Z</time>
      </trkpt>
      <trkpt lat="44.86478" lon="5.71203">
        <ele>719</ele>
        <time>2000-01-01T09:21:23.000Z</time>
      </trkpt>
      <trkpt lat="44.86454" lon="5.71187">
        <ele>727</ele>
        <time>2000-01-01T09:21:33.000Z</time>
      </trkpt>
      <trkpt lat="44.86422" lon="5.71167">
        <ele>736</ele>
        <time>2000-01-01T09:21:43.000Z</time>
      </trkpt>
      <trkpt lat="44.86397" lon="5.7116">
        <ele>737</ele>
        <time>2000-01-01T09:21:53.000Z</time>
      </trkpt>
      <trkpt lat="44.86368" lon="5.71153">
        <ele>746</ele>
        <time>2000-01-01T09:22:03.000Z</time>
      </trkpt>
      <trkpt lat="44.86342" lon="5.71149">
        <ele>752</ele>
        <time>2000-01-01T09:22:13.000Z</time>
      </trkpt>
      <trkpt lat="44.86312" lon="5.71144">
        <ele>756</ele>
        <time>2000-01-01T09:22:23.000Z</time>
      </trkpt>
      <trkpt lat="44.86308" lon="5.71143">
        <ele>756.5</ele>
        <time>2000-01-01T09:22:33.000Z</time>
      </trkpt>
      <trkpt lat="44.86307" lon="5.71143">
        <ele>756.7</ele>
        <time>2000-01-01T09:22:43.000Z</time>
      </trkpt>
      <trkpt lat="44.86244" lon="5.71134">
        <ele>767</ele>
        <time>2000-01-01T09:22:53.000Z</time>
      </trkpt>
      <trkpt lat="44.86221" lon="5.71127">
        <ele>765</ele>
        <time>2000-01-01T09:23:03.000Z</time>
      </trkpt>
      <trkpt lat="44.86211" lon="5.71093">
        <ele>764</ele>
        <time>2000-01-01T09:23:13.000Z</time>
      </trkpt>
      <trkpt lat="44.86194" lon="5.71065">
        <ele>763</ele>
        <time>2000-01-01T09:23:23.000Z</time>
      </trkpt>
      <trkpt lat="44.86167" lon="5.71048">
        <ele>763</ele>
        <time>2000-01-01T09:23:33.000Z</time>
      </trkpt>
      <trkpt lat="44.86142" lon="5.71039">
        <ele>762</ele>
        <time>2000-01-01T09:23:43.000Z</time>
      </trkpt>
      <trkpt lat="44.86156" lon="5.71016">
        <ele>762</ele>
        <time>2000-01-01T09:23:53.000Z</time>
      </trkpt>
      <trkpt lat="44.86183" lon="5.7099">
        <ele>761</ele>
        <time>2000-01-01T09:24:03.000Z</time>
      </trkpt>
      <trkpt lat="44.86197" lon="5.7093">
        <ele>761</ele>
        <time>2000-01-01T09:24:13.000Z</time>
      </trkpt>
      <trkpt lat="44.86203" lon="5.70894">
        <ele>766</ele>
        <time>2000-01-01T09:24:23.000Z</time>
      </trkpt>
      <trkpt lat="44.86211" lon="5.70851">
        <ele>771</ele>
        <time>2000-01-01T09:24:33.000Z</time>
      </trkpt>
      <trkpt lat="44.86212" lon="5.70793">
        <ele>773</ele>
        <time>2000-01-01T09:24:43.000Z</time>
      </trkpt>
      <trkpt lat="44.86214" lon="5.70763">
        <ele>775</ele>
        <time>2000-01-01T09:24:53.000Z</time>
      </trkpt>
      <trkpt lat="44.86194" lon="5.70758">
        <ele>777</ele>
        <time>2000-01-01T09:25:03.000Z</time>
      </trkpt>
      <trkpt lat="44.86161" lon="5.70756">
        <ele>781</ele>
        <time>2000-01-01T09:25:13.000Z</time>
      </trkpt>
      <trkpt lat="44.86161" lon="5.70756">
        <ele>783.1</ele>
        <time>2000-01-01T09:25:23.000Z</time>
      </trkpt>
      <trkpt lat="44.86138" lon="5.70756">
        <ele>781</ele>
        <time>2000-01-01T09:25:33.000Z</time>
      </trkpt>
      <trkpt lat="44.86107" lon="5.7076">
        <ele>781</ele>
        <time>2000-01-01T09:25:43.000Z</time>
      </trkpt>
      <trkpt lat="44.86093" lon="5.70763">
        <ele>787.1</ele>
        <time>2000-01-01T09:25:53.000Z</time>
      </trkpt>
      <trkpt lat="44.86078" lon="5.70761">
        <ele>782</ele>
        <time>2000-01-01T09:26:03.000Z</time>
      </trkpt>
      <trkpt lat="44.86062" lon="5.70759">
        <ele>786.1</ele>
        <time>2000-01-01T09:26:13.000Z</time>
      </trkpt>
      <trkpt lat="44.86042" lon="5.7076">
        <ele>783</ele>
        <time>2000-01-01T09:26:23.000Z</time>
      </trkpt>
      <trkpt lat="44.86021" lon="5.70757">
        <ele>783</ele>
        <time>2000-01-01T09:26:33.000Z</time>
      </trkpt>
      <trkpt lat="44.85995" lon="5.70756">
        <ele>784</ele>
        <time>2000-01-01T09:26:43.000Z</time>
      </trkpt>
      <trkpt lat="44.85965" lon="5.70754">
        <ele>784</ele>
        <time>2000-01-01T09:26:53.000Z</time>
      </trkpt>
      <trkpt lat="44.85942" lon="5.70755">
        <ele>782</ele>
        <time>2000-01-01T09:27:03.000Z</time>
      </trkpt>
      <trkpt lat="44.85935" lon="5.70753">
        <ele>785.8</ele>
        <time>2000-01-01T09:27:13.000Z</time>
      </trkpt>
      <trkpt lat="44.8593" lon="5.7075">
        <ele>785</ele>
        <time>2000-01-01T09:27:23.000Z</time>
      </trkpt>
      <trkpt lat="44.85926" lon="5.70735">
        <ele>781</ele>
        <time>2000-01-01T09:27:33.000Z</time>
      </trkpt>
      <trkpt lat="44.85926" lon="5.70715">
        <ele>779.2</ele>
        <time>2000-01-01T09:27:43.000Z</time>
      </trkpt>
      <trkpt lat="44.85916" lon="5.70711">
        <ele>779</ele>
        <time>2000-01-01T09:27:53.000Z</time>
      </trkpt>
      <trkpt lat="44.85914" lon="5.70704">
        <ele>778.6</ele>
        <time>2000-01-01T09:28:03.000Z</time>
      </trkpt>
      <trkpt lat="44.85909" lon="5.70694">
        <ele>777.8</ele>
        <time>2000-01-01T09:28:13.000Z</time>
      </trkpt>
      <trkpt lat="44.8591" lon="5.70689">
        <ele>777.4</ele>
        <time>2000-01-01T09:28:23.000Z</time>
      </trkpt>
      <trkpt lat="44.85909" lon="5.70681">
        <ele>778</ele>
        <time>2000-01-01T09:28:33.000Z</time>
      </trkpt>
      <trkpt lat="44.85906" lon="5.70676">
        <ele>777.1</ele>
        <time>2000-01-01T09:28:43.000Z</time>
      </trkpt>
      <trkpt lat="44.85906" lon="5.70669">
        <ele>776.7</ele>
        <time>2000-01-01T09:28:53.000Z</time>
      </trkpt>
      <trkpt lat="44.85907" lon="5.70654">
        <ele>776</ele>
        <time>2000-01-01T09:29:03.000Z</time>
      </trkpt>
      <trkpt lat="44.85909" lon="5.70648">
        <ele>774.9</ele>
        <time>2000-01-01T09:29:13.000Z</time>
      </trkpt>
      <trkpt lat="44.85909" lon="5.70641">
        <ele>774.5</ele>
        <time>2000-01-01T09:29:23.000Z</time>
      </trkpt>
      <trkpt lat="44.85911" lon="5.70634">
        <ele>773.8</ele>
        <time>2000-01-01T09:29:33.000Z</time>
      </trkpt>
      <trkpt lat="44.8591" lon="5.70627">
        <ele>775</ele>
        <time>2000-01-01T09:29:43.000Z</time>
      </trkpt>
      <trkpt lat="44.85906" lon="5.70614">
        <ele>774</ele>
        <time>2000-01-01T09:29:53.000Z</time>
      </trkpt>
      <trkpt lat="44.85905" lon="5.70604">
        <ele>773.7</ele>
        <time>2000-01-01T09:30:03.000Z</time>
      </trkpt>
      <trkpt lat="44.85904" lon="5.70592">
        <ele>774</ele>
        <time>2000-01-01T09:30:13.000Z</time>
      </trkpt>
      <trkpt lat="44.85905" lon="5.70586">
        <ele>772.7</ele>
        <time>2000-01-01T09:30:23.000Z</time>
      </trkpt>
      <trkpt lat="44.85903" lon="5.70579">
        <ele>772.9</ele>
        <time>2000-01-01T09:30:33.000Z</time>
      </trkpt>
      <trkpt lat="44.85901" lon="5.70558">
        <ele>773</ele>
        <time>2000-01-01T09:30:43.000Z</time>
      </trkpt>
      <trkpt lat="44.85902" lon="5.70514">
        <ele>772</ele>
        <time>2000-01-01T09:30:53.000Z</time>
      </trkpt>
      <trkpt lat="44.85901" lon="5.70487">
        <ele>772</ele>
        <time>2000-01-01T09:31:03.000Z</time>
      </trkpt>
      <trkpt lat="44.85903" lon="5.7048">
        <ele>771.4</ele>
        <time>2000-01-01T09:31:13.000Z</time>
      </trkpt>
      <trkpt lat="44.85901" lon="5.70467">
        <ele>771.9</ele>
        <time>2000-01-01T09:31:23.000Z</time>
      </trkpt>
      <trkpt lat="44.85903" lon="5.70443">
        <ele>772</ele>
        <time>2000-01-01T09:31:33.000Z</time>
      </trkpt>
      <trkpt lat="44.85905" lon="5.70437">
        <ele>770.6</ele>
        <time>2000-01-01T09:31:43.000Z</time>
      </trkpt>
      <trkpt lat="44.85905" lon="5.70429">
        <ele>770.9</ele>
        <time>2000-01-01T09:31:53.000Z</time>
      </trkpt>
      <trkpt lat="44.85903" lon="5.70422">
        <ele>771.7</ele>
        <time>2000-01-01T09:32:03.000Z</time>
      </trkpt>
      <trkpt lat="44.85905" lon="5.70415">
        <ele>773</ele>
        <time>2000-01-01T09:32:13.000Z</time>
      </trkpt>
      <trkpt lat="44.85912" lon="5.70383">
        <ele>773</ele>
        <time>2000-01-01T09:32:23.000Z</time>
      </trkpt>
      <trkpt lat="44.85917" lon="5.70368">
        <ele>773.2</ele>
        <time>2000-01-01T09:32:33.000Z</time>
      </trkpt>
      <trkpt lat="44.85919" lon="5.70351">
        <ele>773</ele>
        <time>2000-01-01T09:32:43.000Z</time>
      </trkpt>
      <trkpt lat="44.85928" lon="5.70348">
        <ele>772.3</ele>
        <time>2000-01-01T09:32:53.000Z</time>
      </trkpt>
      <trkpt lat="44.85931" lon="5.70344">
        <ele>772.1</ele>
        <time>2000-01-01T09:33:03.000Z</time>
      </trkpt>
      <trkpt lat="44.85937" lon="5.70341">
        <ele>773</ele>
        <time>2000-01-01T09:33:13.000Z</time>
      </trkpt>
      <trkpt lat="44.85941" lon="5.70336">
        <ele>771.9</ele>
        <time>2000-01-01T09:33:23.000Z</time>
      </trkpt>
      <trkpt lat="44.85945" lon="5.70332">
        <ele>771.8</ele>
        <time>2000-01-01T09:33:33.000Z</time>
      </trkpt>
      <trkpt lat="44.85956" lon="5.70327">
        <ele>771</ele>
        <time>2000-01-01T09:33:43.000Z</time>
      </trkpt>
      <trkpt lat="44.85961" lon="5.70326">
        <ele>770.3</ele>
        <time>2000-01-01T09:33:53.000Z</time>
      </trkpt>
      <trkpt lat="44.85964" lon="5.70321">
        <ele>770.3</ele>
        <time>2000-01-01T09:34:03.000Z</time>
      </trkpt>
      <trkpt lat="44.85971" lon="5.70321">
        <ele>769.9</ele>
        <time>2000-01-01T09:34:13.000Z</time>
      </trkpt>
      <trkpt lat="44.85988" lon="5.70312">
        <ele>770</ele>
        <time>2000-01-01T09:34:23.000Z</time>
      </trkpt>
      <trkpt lat="44.85997" lon="5.70309">
        <ele>768.6</ele>
        <time>2000-01-01T09:34:33.000Z</time>
      </trkpt>
      <trkpt lat="44.86001" lon="5.70305">
        <ele>768.8</ele>
        <time>2000-01-01T09:34:43.000Z</time>
      </trkpt>
      <trkpt lat="44.86006" lon="5.70305">
        <ele>767.7</ele>
        <time>2000-01-01T09:34:53.000Z</time>
      </trkpt>
      <trkpt lat="44.86012" lon="5.70299">
        <ele>767</ele>
        <time>2000-01-01T09:35:03.000Z</time>
      </trkpt>
      <trkpt lat="44.86025" lon="5.70294">
        <ele>763.9</ele>
        <time>2000-01-01T09:35:13.000Z</time>
      </trkpt>
      <trkpt lat="44.86038" lon="5.70289">
        <ele>764</ele>
        <time>2000-01-01T09:35:23.000Z</time>
      </trkpt>
      <trkpt lat="44.86042" lon="5.70284">
        <ele>760.1</ele>
        <time>2000-01-01T09:35:33.000Z</time>
      </trkpt>
      <trkpt lat="44.86045" lon="5.70279">
        <ele>759.6</ele>
        <time>2000-01-01T09:35:43.000Z</time>
      </trkpt>
      <trkpt lat="44.86051" lon="5.70279">
        <ele>758.1</ele>
        <time>2000-01-01T09:35:53.000Z</time>
      </trkpt>
      <trkpt lat="44.86053" lon="5.70272">
        <ele>758</ele>
        <time>2000-01-01T09:36:03.000Z</time>
      </trkpt>
      <trkpt lat="44.86058" lon="5.70274">
        <ele>756</ele>
        <time>2000-01-01T09:36:13.000Z</time>
      </trkpt>
      <trkpt lat="44.86067" lon="5.70266">
        <ele>752.8</ele>
        <time>2000-01-01T09:36:23.000Z</time>
      </trkpt>
      <trkpt lat="44.86069" lon="5.7026">
        <ele>755</ele>
        <time>2000-01-01T09:36:33.000Z</time>
      </trkpt>
      <trkpt lat="44.8608" lon="5.70259">
        <ele>748.9</ele>
        <time>2000-01-01T09:36:43.000Z</time>
      </trkpt>
      <trkpt lat="44.86083" lon="5.70254">
        <ele>748.1</ele>
        <time>2000-01-01T09:36:53.000Z</time>
      </trkpt>
      <trkpt lat="44.86088" lon="5.70251">
        <ele>748</ele>
        <time>2000-01-01T09:37:03.000Z</time>
      </trkpt>
      <trkpt lat="44.86091" lon="5.70245">
        <ele>745.4</ele>
        <time>2000-01-01T09:37:13.000Z</time>
      </trkpt>
      <trkpt lat="44.86098" lon="5.70237">
        <ele>742.9</ele>
        <time>2000-01-01T09:37:23.000Z</time>
      </trkpt>
      <trkpt lat="44.8611" lon="5.7022">
        <ele>740</ele>
        <time>2000-01-01T09:37:33.000Z</time>
      </trkpt>
      <trkpt lat="44.86117" lon="5.70216">
        <ele>736.8</ele>
        <time>2000-01-01T09:37:43.000Z</time>
      </trkpt>
      <trkpt lat="44.86121" lon="5.70212">
        <ele>735.4</ele>
        <time>2000-01-01T09:37:53.000Z</time>
      </trkpt>
      <trkpt lat="44.86124" lon="5.70205">
        <ele>734.1</ele>
        <time>2000-01-01T09:38:03.000Z</time>
      </trkpt>
      <trkpt lat="44.86129" lon="5.70202">
        <ele>735</ele>
        <time>2000-01-01T09:38:13.000Z</time>
      </trkpt>
      <trkpt lat="44.86136" lon="5.70199">
        <ele>731.6</ele>
        <time>2000-01-01T09:38:23.000Z</time>
      </trkpt>
      <trkpt lat="44.86147" lon="5.70187">
        <ele>728</ele>
        <time>2000-01-01T09:38:33.000Z</time>
      </trkpt>
      <trkpt lat="44.86166" lon="5.70173">
        <ele>722</ele>
        <time>2000-01-01T09:38:43.000Z</time>
      </trkpt>
      <trkpt lat="44.86168" lon="5.70168">
        <ele>720.6</ele>
        <time>2000-01-01T09:38:53.000Z</time>
      </trkpt>
      <trkpt lat="44.8617" lon="5.70156">
        <ele>719.7</ele>
        <time>2000-01-01T09:39:03.000Z</time>
      </trkpt>
      <trkpt lat="44.86173" lon="5.70149">
        <ele>718.7</ele>
        <time>2000-01-01T09:39:13.000Z</time>
      </trkpt>
      <trkpt lat="44.86177" lon="5.70145">
        <ele>719</ele>
        <time>2000-01-01T09:39:23.000Z</time>
      </trkpt>
      <trkpt lat="44.86188" lon="5.70148">
        <ele>715</ele>
        <time>2000-01-01T09:39:33.000Z</time>
      </trkpt>
      <trkpt lat="44.86191" lon="5.70144">
        <ele>714.4</ele>
        <time>2000-01-01T09:39:43.000Z</time>
      </trkpt>
      <trkpt lat="44.86196" lon="5.70131">
        <ele>715</ele>
        <time>2000-01-01T09:39:53.000Z</time>
      </trkpt>
      <trkpt lat="44.86202" lon="5.70121">
        <ele>712</ele>
        <time>2000-01-01T09:40:03.000Z</time>
      </trkpt>
      <trkpt lat="44.86206" lon="5.70108">
        <ele>714</ele>
        <time>2000-01-01T09:40:13.000Z</time>
      </trkpt>
      <trkpt lat="44.86218" lon="5.70088">
        <ele>708.5</ele>
        <time>2000-01-01T09:40:23.000Z</time>
      </trkpt>
      <trkpt lat="44.86226" lon="5.70079">
        <ele>706</ele>
        <time>2000-01-01T09:40:33.000Z</time>
      </trkpt>
      <trkpt lat="44.86228" lon="5.70072">
        <ele>704.4</ele>
        <time>2000-01-01T09:40:43.000Z</time>
      </trkpt>
      <trkpt lat="44.86232" lon="5.70068">
        <ele>702.5</ele>
        <time>2000-01-01T09:40:53.000Z</time>
      </trkpt>
      <trkpt lat="44.86246" lon="5.70059">
        <ele>699</ele>
        <time>2000-01-01T09:41:03.000Z</time>
      </trkpt>
      <trkpt lat="44.86256" lon="5.70043">
        <ele>692</ele>
        <time>2000-01-01T09:41:13.000Z</time>
      </trkpt>
      <trkpt lat="44.86258" lon="5.70039">
        <ele>690.9</ele>
        <time>2000-01-01T09:41:23.000Z</time>
      </trkpt>
      <trkpt lat="44.86262" lon="5.70035">
        <ele>689</ele>
        <time>2000-01-01T09:41:33.000Z</time>
      </trkpt>
      <trkpt lat="44.86274" lon="5.70023">
        <ele>683.9</ele>
        <time>2000-01-01T09:41:43.000Z</time>
      </trkpt>
      <trkpt lat="44.86298" lon="5.70003">
        <ele>677</ele>
        <time>2000-01-01T09:41:53.000Z</time>
      </trkpt>
      <trkpt lat="44.86302" lon="5.70002">
        <ele>672.2</ele>
        <time>2000-01-01T09:42:03.000Z</time>
      </trkpt>
      <trkpt lat="44.86307" lon="5.69998">
        <ele>670.2</ele>
        <time>2000-01-01T09:42:13.000Z</time>
      </trkpt>
      <trkpt lat="44.86311" lon="5.69993">
        <ele>668.2</ele>
        <time>2000-01-01T09:42:23.000Z</time>
      </trkpt>
      <trkpt lat="44.86313" lon="5.69988">
        <ele>669</ele>
        <time>2000-01-01T09:42:33.000Z</time>
      </trkpt>
      <trkpt lat="44.86333" lon="5.69971">
        <ele>660</ele>
        <time>2000-01-01T09:42:43.000Z</time>
      </trkpt>
      <trkpt lat="44.86334" lon="5.6997">
        <ele>658.6</ele>
        <time>2000-01-01T09:42:53.000Z</time>
      </trkpt>
      <trkpt lat="44.8634" lon="5.69961">
        <ele>655.9</ele>
        <time>2000-01-01T09:43:03.000Z</time>
      </trkpt>
      <trkpt lat="44.86347" lon="5.69946">
        <ele>656</ele>
        <time>2000-01-01T09:43:13.000Z</time>
      </trkpt>
      <trkpt lat="44.86351" lon="5.69946">
        <ele>652.2</ele>
        <time>2000-01-01T09:43:23.000Z</time>
      </trkpt>
      <trkpt lat="44.86377" lon="5.69926">
        <ele>653</ele>
        <time>2000-01-01T09:43:33.000Z</time>
      </trkpt>
      <trkpt lat="44.86379" lon="5.6992">
        <ele>643.8</ele>
        <time>2000-01-01T09:43:43.000Z</time>
      </trkpt>
      <trkpt lat="44.86377" lon="5.69913">
        <ele>644.2</ele>
        <time>2000-01-01T09:43:53.000Z</time>
      </trkpt>
      <trkpt lat="44.86377" lon="5.69909">
        <ele>643.9</ele>
        <time>2000-01-01T09:44:03.000Z</time>
      </trkpt>
      <trkpt lat="44.86358" lon="5.69915">
        <ele>654</ele>
        <time>2000-01-01T09:44:13.000Z</time>
      </trkpt>
      <trkpt lat="44.8634" lon="5.69921">
        <ele>654.6</ele>
        <time>2000-01-01T09:44:23.000Z</time>
      </trkpt>
      <trkpt lat="44.86335" lon="5.69921">
        <ele>656</ele>
        <time>2000-01-01T09:44:33.000Z</time>
      </trkpt>
      <trkpt lat="44.86332" lon="5.6992">
        <ele>656.5</ele>
        <time>2000-01-01T09:44:43.000Z</time>
      </trkpt>
      <trkpt lat="44.86328" lon="5.69919">
        <ele>657.4</ele>
        <time>2000-01-01T09:44:53.000Z</time>
      </trkpt>
      <trkpt lat="44.86326" lon="5.69917">
        <ele>657.6</ele>
        <time>2000-01-01T09:45:03.000Z</time>
      </trkpt>
      <trkpt lat="44.86324" lon="5.69914">
        <ele>657.5</ele>
        <time>2000-01-01T09:45:13.000Z</time>
      </trkpt>
      <trkpt lat="44.86322" lon="5.69909">
        <ele>657</ele>
        <time>2000-01-01T09:45:23.000Z</time>
      </trkpt>
      <trkpt lat="44.86318" lon="5.69896">
        <ele>656</ele>
        <time>2000-01-01T09:45:33.000Z</time>
      </trkpt>
      <trkpt lat="44.86312" lon="5.69877">
        <ele>652.6</ele>
        <time>2000-01-01T09:45:43.000Z</time>
      </trkpt>
      <trkpt lat="44.86304" lon="5.69852">
        <ele>650</ele>
        <time>2000-01-01T09:45:53.000Z</time>
      </trkpt>
      <trkpt lat="44.86294" lon="5.69824">
        <ele>650</ele>
        <time>2000-01-01T09:46:03.000Z</time>
      </trkpt>
      <trkpt lat="44.86285" lon="5.69794">
        <ele>652</ele>
        <time>2000-01-01T09:46:13.000Z</time>
      </trkpt>
      <trkpt lat="44.8628" lon="5.69777">
        <ele>653.5</ele>
        <time>2000-01-01T09:46:23.000Z</time>
      </trkpt>
      <trkpt lat="44.86275" lon="5.69758">
        <ele>657</ele>
        <time>2000-01-01T09:46:33.000Z</time>
      </trkpt>
      <trkpt lat="44.86272" lon="5.69743">
        <ele>657.2</ele>
        <time>2000-01-01T09:46:43.000Z</time>
      </trkpt>
      <trkpt lat="44.8627" lon="5.69727">
        <ele>662</ele>
        <time>2000-01-01T09:46:53.000Z</time>
      </trkpt>
      <trkpt lat="44.8627" lon="5.69708">
        <ele>661.4</ele>
        <time>2000-01-01T09:47:03.000Z</time>
      </trkpt>
      <trkpt lat="44.86271" lon="5.69681">
        <ele>665</ele>
        <time>2000-01-01T09:47:13.000Z</time>
      </trkpt>
      <trkpt lat="44.86273" lon="5.69658">
        <ele>666.9</ele>
        <time>2000-01-01T09:47:23.000Z</time>
      </trkpt>
      <trkpt lat="44.86277" lon="5.69634">
        <ele>670</ele>
        <time>2000-01-01T09:47:33.000Z</time>
      </trkpt>
      <trkpt lat="44.86287" lon="5.69595">
        <ele>672</ele>
        <time>2000-01-01T09:47:43.000Z</time>
      </trkpt>
      <trkpt lat="44.86296" lon="5.69559">
        <ele>673</ele>
        <time>2000-01-01T09:47:53.000Z</time>
      </trkpt>
      <trkpt lat="44.86302" lon="5.69536">
        <ele>671.5</ele>
        <time>2000-01-01T09:48:03.000Z</time>
      </trkpt>
      <trkpt lat="44.8631" lon="5.69515">
        <ele>673</ele>
        <time>2000-01-01T09:48:13.000Z</time>
      </trkpt>
      <trkpt lat="44.86314" lon="5.69505">
        <ele>670</ele>
        <time>2000-01-01T09:48:23.000Z</time>
      </trkpt>
      <trkpt lat="44.86317" lon="5.695">
        <ele>669.5</ele>
        <time>2000-01-01T09:48:33.000Z</time>
      </trkpt>
      <trkpt lat="44.86325" lon="5.69492">
        <ele>669</ele>
        <time>2000-01-01T09:48:43.000Z</time>
      </trkpt>
      <trkpt lat="44.86335" lon="5.69486">
        <ele>666.1</ele>
        <time>2000-01-01T09:48:53.000Z</time>
      </trkpt>
      <trkpt lat="44.86342" lon="5.69481">
        <ele>664.7</ele>
        <time>2000-01-01T09:49:03.000Z</time>
      </trkpt>
      <trkpt lat="44.86351" lon="5.69468">
        <ele>663</ele>
        <time>2000-01-01T09:49:13.000Z</time>
      </trkpt>
      <trkpt lat="44.86358" lon="5.69457">
        <ele>662.2</ele>
        <time>2000-01-01T09:49:23.000Z</time>
      </trkpt>
      <trkpt lat="44.86365" lon="5.6944">
        <ele>663</ele>
        <time>2000-01-01T09:49:33.000Z</time>
      </trkpt>
      <trkpt lat="44.86368" lon="5.69425">
        <ele>661.2</ele>
        <time>2000-01-01T09:49:43.000Z</time>
      </trkpt>
      <trkpt lat="44.86368" lon="5.69413">
        <ele>663</ele>
        <time>2000-01-01T09:49:53.000Z</time>
      </trkpt>
      <trkpt lat="44.86362" lon="5.69411">
        <ele>663</ele>
        <time>2000-01-01T09:50:03.000Z</time>
      </trkpt>
      <trkpt lat="44.86351" lon="5.694">
        <ele>665</ele>
        <time>2000-01-01T09:50:13.000Z</time>
      </trkpt>
      <trkpt lat="44.86344" lon="5.69387">
        <ele>667.7</ele>
        <time>2000-01-01T09:50:23.000Z</time>
      </trkpt>
      <trkpt lat="44.86343" lon="5.69378">
        <ele>667.9</ele>
        <time>2000-01-01T09:50:33.000Z</time>
      </trkpt>
      <trkpt lat="44.86344" lon="5.69368">
        <ele>668</ele>
        <time>2000-01-01T09:50:43.000Z</time>
      </trkpt>
      <trkpt lat="44.86345" lon="5.69358">
        <ele>667.6</ele>
        <time>2000-01-01T09:50:53.000Z</time>
      </trkpt>
      <trkpt lat="44.86343" lon="5.69339">
        <ele>669</ele>
        <time>2000-01-01T09:51:03.000Z</time>
      </trkpt>
      <trkpt lat="44.86346" lon="5.69314">
        <ele>669</ele>
        <time>2000-01-01T09:51:13.000Z</time>
      </trkpt>
      <trkpt lat="44.86348" lon="5.69307">
        <ele>668</ele>
        <time>2000-01-01T09:51:23.000Z</time>
      </trkpt>
      <trkpt lat="44.8635" lon="5.69297">
        <ele>668.6</ele>
        <time>2000-01-01T09:51:33.000Z</time>
      </trkpt>
      <trkpt lat="44.86354" lon="5.69286">
        <ele>668.1</ele>
        <time>2000-01-01T09:51:43.000Z</time>
      </trkpt>
      <trkpt lat="44.8636" lon="5.69269">
        <ele>667</ele>
        <time>2000-01-01T09:51:53.000Z</time>
      </trkpt>
      <trkpt lat="44.86367" lon="5.69256">
        <ele>666.1</ele>
        <time>2000-01-01T09:52:03.000Z</time>
      </trkpt>
      <trkpt lat="44.86375" lon="5.69243">
        <ele>666</ele>
        <time>2000-01-01T09:52:13.000Z</time>
      </trkpt>
      <trkpt lat="44.86384" lon="5.69234">
        <ele>664.3</ele>
        <time>2000-01-01T09:52:23.000Z</time>
      </trkpt>
      <trkpt lat="44.86394" lon="5.69227">
        <ele>664</ele>
        <time>2000-01-01T09:52:33.000Z</time>
      </trkpt>
      <trkpt lat="44.86404" lon="5.6922">
        <ele>661.9</ele>
        <time>2000-01-01T09:52:43.000Z</time>
      </trkpt>
      <trkpt lat="44.86413" lon="5.69214">
        <ele>661</ele>
        <time>2000-01-01T09:52:53.000Z</time>
      </trkpt>
      <trkpt lat="44.86427" lon="5.69201">
        <ele>658.9</ele>
        <time>2000-01-01T09:53:03.000Z</time>
      </trkpt>
      <trkpt lat="44.86435" lon="5.69193">
        <ele>659</ele>
        <time>2000-01-01T09:53:13.000Z</time>
      </trkpt>
      <trkpt lat="44.86448" lon="5.6918">
        <ele>656.2</ele>
        <time>2000-01-01T09:53:23.000Z</time>
      </trkpt>
      <trkpt lat="44.86456" lon="5.69171">
        <ele>656</ele>
        <time>2000-01-01T09:53:33.000Z</time>
      </trkpt>
      <trkpt lat="44.86463" lon="5.69167">
        <ele>655</ele>
        <time>2000-01-01T09:53:43.000Z</time>
      </trkpt>
      <trkpt lat="44.86474" lon="5.6916">
        <ele>653</ele>
        <time>2000-01-01T09:53:53.000Z</time>
      </trkpt>
      <trkpt lat="44.86481" lon="5.69155">
        <ele>652.7</ele>
        <time>2000-01-01T09:54:03.000Z</time>
      </trkpt>
      <trkpt lat="44.86488" lon="5.69151">
        <ele>651.7</ele>
        <time>2000-01-01T09:54:13.000Z</time>
      </trkpt>
      <trkpt lat="44.86493" lon="5.69143">
        <ele>651</ele>
        <time>2000-01-01T09:54:23.000Z</time>
      </trkpt>
      <trkpt lat="44.865" lon="5.69135">
        <ele>650.1</ele>
        <time>2000-01-01T09:54:33.000Z</time>
      </trkpt>
      <trkpt lat="44.86504" lon="5.69126">
        <ele>649.9</ele>
        <time>2000-01-01T09:54:43.000Z</time>
      </trkpt>
      <trkpt lat="44.86508" lon="5.69116">
        <ele>650</ele>
        <time>2000-01-01T09:54:53.000Z</time>
      </trkpt>
      <trkpt lat="44.86515" lon="5.69098">
        <ele>649.3</ele>
        <time>2000-01-01T09:55:03.000Z</time>
      </trkpt>
      <trkpt lat="44.8652" lon="5.69086">
        <ele>649</ele>
        <time>2000-01-01T09:55:13.000Z</time>
      </trkpt>
      <trkpt lat="44.86523" lon="5.6908">
        <ele>648.8</ele>
        <time>2000-01-01T09:55:23.000Z</time>
      </trkpt>
      <trkpt lat="44.86535" lon="5.6906">
        <ele>650</ele>
        <time>2000-01-01T09:55:33.000Z</time>
      </trkpt>
      <trkpt lat="44.86539" lon="5.69053">
        <ele>647.9</ele>
        <time>2000-01-01T09:55:43.000Z</time>
      </trkpt>
      <trkpt lat="44.8654" lon="5.69051">
        <ele>647.9</ele>
        <time>2000-01-01T09:55:53.000Z</time>
      </trkpt>
      <trkpt lat="44.86515" lon="5.69041">
        <ele>651</ele>
        <time>2000-01-01T09:56:03.000Z</time>
      </trkpt>
      <trkpt lat="44.86497" lon="5.69032">
        <ele>653.2</ele>
        <time>2000-01-01T09:56:13.000Z</time>
      </trkpt>
      <trkpt lat="44.86497" lon="5.69032">
        <ele>653.2</ele>
        <time>2000-01-01T09:56:23.000Z</time>
      </trkpt>
      <trkpt lat="44.86497" lon="5.69032">
        <ele>653.2</ele>
        <time>2000-01-01T09:56:33.000Z</time>
      </trkpt>
      <trkpt lat="44.86489" lon="5.69023">
        <ele>655</ele>
        <time>2000-01-01T09:56:43.000Z</time>
      </trkpt>
      <trkpt lat="44.86462" lon="5.68999">
        <ele>659</ele>
        <time>2000-01-01T09:56:53.000Z</time>
      </trkpt>
      <trkpt lat="44.86454" lon="5.6899">
        <ele>660.4</ele>
        <time>2000-01-01T09:57:03.000Z</time>
      </trkpt>
      <trkpt lat="44.86443" lon="5.6897">
        <ele>662</ele>
        <time>2000-01-01T09:57:13.000Z</time>
      </trkpt>
      <trkpt lat="44.8644" lon="5.68967">
        <ele>663.2</ele>
        <time>2000-01-01T09:57:23.000Z</time>
      </trkpt>
      <trkpt lat="44.86439" lon="5.68967">
        <ele>663.4</ele>
        <time>2000-01-01T09:57:33.000Z</time>
      </trkpt>
      <trkpt lat="44.86436" lon="5.68964">
        <ele>664.2</ele>
        <time>2000-01-01T09:57:43.000Z</time>
      </trkpt>
      <trkpt lat="44.86431" lon="5.68954">
        <ele>665.9</ele>
        <time>2000-01-01T09:57:53.000Z</time>
      </trkpt>
      <trkpt lat="44.8642" lon="5.68943">
        <ele>671</ele>
        <time>2000-01-01T09:58:03.000Z</time>
      </trkpt>
      <trkpt lat="44.86414" lon="5.68936">
        <ele>671.5</ele>
        <time>2000-01-01T09:58:13.000Z</time>
      </trkpt>
      <trkpt lat="44.86413" lon="5.6893">
        <ele>672.4</ele>
        <time>2000-01-01T09:58:23.000Z</time>
      </trkpt>
      <trkpt lat="44.86412" lon="5.68928">
        <ele>672.9</ele>
        <time>2000-01-01T09:58:33.000Z</time>
      </trkpt>
      <trkpt lat="44.86411" lon="5.68927">
        <ele>673.2</ele>
        <time>2000-01-01T09:58:43.000Z</time>
      </trkpt>
      <trkpt lat="44.86405" lon="5.68926">
        <ele>677</ele>
        <time>2000-01-01T09:58:53.000Z</time>
      </trkpt>
      <trkpt lat="44.86403" lon="5.68925">
        <ele>675.4</ele>
        <time>2000-01-01T09:59:03.000Z</time>
      </trkpt>
      <trkpt lat="44.86401" lon="5.68915">
        <ele>677.2</ele>
        <time>2000-01-01T09:59:13.000Z</time>
      </trkpt>
      <trkpt lat="44.864" lon="5.68914">
        <ele>677.6</ele>
        <time>2000-01-01T09:59:23.000Z</time>
      </trkpt>
      <trkpt lat="44.86398" lon="5.68914">
        <ele>678.1</ele>
        <time>2000-01-01T09:59:33.000Z</time>
      </trkpt>
      <trkpt lat="44.86396" lon="5.68916">
        <ele>678.3</ele>
        <time>2000-01-01T09:59:43.000Z</time>
      </trkpt>
      <trkpt lat="44.86393" lon="5.68916">
        <ele>679</ele>
        <time>2000-01-01T09:59:53.000Z</time>
      </trkpt>
      <trkpt lat="44.86392" lon="5.68915">
        <ele>680</ele>
        <time>2000-01-01T10:00:03.000Z</time>
      </trkpt>
      <trkpt lat="44.86392" lon="5.68907">
        <ele>680.4</ele>
        <time>2000-01-01T10:00:13.000Z</time>
      </trkpt>
      <trkpt lat="44.86392" lon="5.68906">
        <ele>680.5</ele>
        <time>2000-01-01T10:00:23.000Z</time>
      </trkpt>
      <trkpt lat="44.8639" lon="5.68906">
        <ele>680.9</ele>
        <time>2000-01-01T10:00:33.000Z</time>
      </trkpt>
      <trkpt lat="44.86385" lon="5.68907">
        <ele>681.7</ele>
        <time>2000-01-01T10:00:43.000Z</time>
      </trkpt>
      <trkpt lat="44.86384" lon="5.68907">
        <ele>681.9</ele>
        <time>2000-01-01T10:00:53.000Z</time>
      </trkpt>
      <trkpt lat="44.86383" lon="5.68905">
        <ele>682.2</ele>
        <time>2000-01-01T10:01:03.000Z</time>
      </trkpt>
      <trkpt lat="44.86384" lon="5.68898">
        <ele>684</ele>
        <time>2000-01-01T10:01:13.000Z</time>
      </trkpt>
      <trkpt lat="44.86384" lon="5.68895">
        <ele>683.1</ele>
        <time>2000-01-01T10:01:23.000Z</time>
      </trkpt>
      <trkpt lat="44.86382" lon="5.68893">
        <ele>683.6</ele>
        <time>2000-01-01T10:01:33.000Z</time>
      </trkpt>
      <trkpt lat="44.8638" lon="5.68893">
        <ele>683.9</ele>
        <time>2000-01-01T10:01:43.000Z</time>
      </trkpt>
      <trkpt lat="44.86376" lon="5.68894">
        <ele>684.4</ele>
        <time>2000-01-01T10:01:53.000Z</time>
      </trkpt>
      <trkpt lat="44.86372" lon="5.68895">
        <ele>684.9</ele>
        <time>2000-01-01T10:02:03.000Z</time>
      </trkpt>
      <trkpt lat="44.8637" lon="5.68894">
        <ele>685.3</ele>
        <time>2000-01-01T10:02:13.000Z</time>
      </trkpt>
      <trkpt lat="44.86365" lon="5.68892">
        <ele>687</ele>
        <time>2000-01-01T10:02:23.000Z</time>
      </trkpt>
      <trkpt lat="44.86356" lon="5.68896">
        <ele>686.8</ele>
        <time>2000-01-01T10:02:33.000Z</time>
      </trkpt>
      <trkpt lat="44.8635" lon="5.68895">
        <ele>687.2</ele>
        <time>2000-01-01T10:02:43.000Z</time>
      </trkpt>
      <trkpt lat="44.86342" lon="5.68903">
        <ele>688</ele>
        <time>2000-01-01T10:02:53.000Z</time>
      </trkpt>
      <trkpt lat="44.86311" lon="5.68927">
        <ele>691</ele>
        <time>2000-01-01T10:03:03.000Z</time>
      </trkpt>
      <trkpt lat="44.86304" lon="5.68926">
        <ele>691.4</ele>
        <time>2000-01-01T10:03:13.000Z</time>
      </trkpt>
      <trkpt lat="44.86295" lon="5.68928">
        <ele>692.3</ele>
        <time>2000-01-01T10:03:23.000Z</time>
      </trkpt>
      <trkpt lat="44.8629" lon="5.68928">
        <ele>692</ele>
        <time>2000-01-01T10:03:33.000Z</time>
      </trkpt>
      <trkpt lat="44.86284" lon="5.6893">
        <ele>693.4</ele>
        <time>2000-01-01T10:03:43.000Z</time>
      </trkpt>
      <trkpt lat="44.86275" lon="5.68931">
        <ele>694.2</ele>
        <time>2000-01-01T10:03:53.000Z</time>
      </trkpt>
      <trkpt lat="44.86259" lon="5.68931">
        <ele>692</ele>
        <time>2000-01-01T10:04:03.000Z</time>
      </trkpt>
      <trkpt lat="44.8625" lon="5.6893">
        <ele>695.4</ele>
        <time>2000-01-01T10:04:13.000Z</time>
      </trkpt>
      <trkpt lat="44.86238" lon="5.68928">
        <ele>690</ele>
        <time>2000-01-01T10:04:23.000Z</time>
      </trkpt>
      <trkpt lat="44.86237" lon="5.68927">
        <ele>695</ele>
        <time>2000-01-01T10:04:33.000Z</time>
      </trkpt>
      <trkpt lat="44.86237" lon="5.68926">
        <ele>694.8</ele>
        <time>2000-01-01T10:04:43.000Z</time>
      </trkpt>
      <trkpt lat="44.86248" lon="5.68917">
        <ele>693.1</ele>
        <time>2000-01-01T10:04:53.000Z</time>
      </trkpt>
      <trkpt lat="44.86252" lon="5.68908">
        <ele>689</ele>
        <time>2000-01-01T10:05:03.000Z</time>
      </trkpt>
      <trkpt lat="44.86255" lon="5.68896">
        <ele>688.4</ele>
        <time>2000-01-01T10:05:13.000Z</time>
      </trkpt>
      <trkpt lat="44.86254" lon="5.68894">
        <ele>688</ele>
        <time>2000-01-01T10:05:23.000Z</time>
      </trkpt>
      <trkpt lat="44.86247" lon="5.6889">
        <ele>687.2</ele>
        <time>2000-01-01T10:05:33.000Z</time>
      </trkpt>
      <trkpt lat="44.86242" lon="5.68887">
        <ele>685</ele>
        <time>2000-01-01T10:05:43.000Z</time>
      </trkpt>
      <trkpt lat="44.86238" lon="5.68884">
        <ele>686.1</ele>
        <time>2000-01-01T10:05:53.000Z</time>
      </trkpt>
      <trkpt lat="44.86238" lon="5.68881">
        <ele>685.5</ele>
        <time>2000-01-01T10:06:03.000Z</time>
      </trkpt>
      <trkpt lat="44.8624" lon="5.68875">
        <ele>684.4</ele>
        <time>2000-01-01T10:06:13.000Z</time>
      </trkpt>
      <trkpt lat="44.86247" lon="5.68875">
        <ele>684.1</ele>
        <time>2000-01-01T10:06:23.000Z</time>
      </trkpt>
      <trkpt lat="44.8626" lon="5.68882">
        <ele>684</ele>
        <time>2000-01-01T10:06:33.000Z</time>
      </trkpt>
      <trkpt lat="44.86266" lon="5.68881">
        <ele>684.7</ele>
        <time>2000-01-01T10:06:43.000Z</time>
      </trkpt>
      <trkpt lat="44.86268" lon="5.68874">
        <ele>683.1</ele>
        <time>2000-01-01T10:06:53.000Z</time>
      </trkpt>
      <trkpt lat="44.86272" lon="5.68867">
        <ele>681.5</ele>
        <time>2000-01-01T10:07:03.000Z</time>
      </trkpt>
      <trkpt lat="44.86281" lon="5.68865">
        <ele>679</ele>
        <time>2000-01-01T10:07:13.000Z</time>
      </trkpt>
      <trkpt lat="44.86291" lon="5.6886">
        <ele>679.8</ele>
        <time>2000-01-01T10:07:23.000Z</time>
      </trkpt>
      <trkpt lat="44.86294" lon="5.6886">
        <ele>679.8</ele>
        <time>2000-01-01T10:07:33.000Z</time>
      </trkpt>
      <trkpt lat="44.86301" lon="5.68856">
        <ele>677</ele>
        <time>2000-01-01T10:07:43.000Z</time>
      </trkpt>
      <trkpt lat="44.86307" lon="5.6885">
        <ele>677.7</ele>
        <time>2000-01-01T10:07:53.000Z</time>
      </trkpt>
      <trkpt lat="44.86313" lon="5.6885">
        <ele>678.1</ele>
        <time>2000-01-01T10:08:03.000Z</time>
      </trkpt>
      <trkpt lat="44.86317" lon="5.68846">
        <ele>677.6</ele>
        <time>2000-01-01T10:08:13.000Z</time>
      </trkpt>
      <trkpt lat="44.86331" lon="5.68837">
        <ele>675</ele>
        <time>2000-01-01T10:08:23.000Z</time>
      </trkpt>
      <trkpt lat="44.86341" lon="5.68828">
        <ele>675.6</ele>
        <time>2000-01-01T10:08:33.000Z</time>
      </trkpt>
      <trkpt lat="44.86343" lon="5.68821">
        <ele>674.5</ele>
        <time>2000-01-01T10:08:43.000Z</time>
      </trkpt>
      <trkpt lat="44.86355" lon="5.68812">
        <ele>672</ele>
        <time>2000-01-01T10:08:53.000Z</time>
      </trkpt>
      <trkpt lat="44.8636" lon="5.68803">
        <ele>672.6</ele>
        <time>2000-01-01T10:09:03.000Z</time>
      </trkpt>
      <trkpt lat="44.86361" lon="5.68794">
        <ele>671.3</ele>
        <time>2000-01-01T10:09:13.000Z</time>
      </trkpt>
      <trkpt lat="44.8636" lon="5.68787">
        <ele>669</ele>
        <time>2000-01-01T10:09:23.000Z</time>
      </trkpt>
      <trkpt lat="44.86362" lon="5.68779">
        <ele>669.3</ele>
        <time>2000-01-01T10:09:33.000Z</time>
      </trkpt>
      <trkpt lat="44.86365" lon="5.68773">
        <ele>668.9</ele>
        <time>2000-01-01T10:09:43.000Z</time>
      </trkpt>
      <trkpt lat="44.86375" lon="5.68768">
        <ele>667</ele>
        <time>2000-01-01T10:09:53.000Z</time>
      </trkpt>
      <trkpt lat="44.86381" lon="5.68766">
        <ele>669.6</ele>
        <time>2000-01-01T10:10:03.000Z</time>
      </trkpt>
      <trkpt lat="44.86384" lon="5.68767">
        <ele>670</ele>
        <time>2000-01-01T10:10:13.000Z</time>
      </trkpt>
      <trkpt lat="44.86387" lon="5.68759">
        <ele>669.1</ele>
        <time>2000-01-01T10:10:23.000Z</time>
      </trkpt>
      <trkpt lat="44.86386" lon="5.68754">
        <ele>667</ele>
        <time>2000-01-01T10:10:33.000Z</time>
      </trkpt>
      <trkpt lat="44.86388" lon="5.68745">
        <ele>667.2</ele>
        <time>2000-01-01T10:10:43.000Z</time>
      </trkpt>
      <trkpt lat="44.86399" lon="5.68741">
        <ele>668.4</ele>
        <time>2000-01-01T10:10:53.000Z</time>
      </trkpt>
      <trkpt lat="44.86404" lon="5.68739">
        <ele>666</ele>
        <time>2000-01-01T10:11:03.000Z</time>
      </trkpt>
      <trkpt lat="44.86409" lon="5.68735">
        <ele>669.1</ele>
        <time>2000-01-01T10:11:13.000Z</time>
      </trkpt>
      <trkpt lat="44.86412" lon="5.68731">
        <ele>668.9</ele>
        <time>2000-01-01T10:11:23.000Z</time>
      </trkpt>
      <trkpt lat="44.86415" lon="5.68722">
        <ele>667.7</ele>
        <time>2000-01-01T10:11:33.000Z</time>
      </trkpt>
      <trkpt lat="44.86423" lon="5.6871">
        <ele>666</ele>
        <time>2000-01-01T10:11:43.000Z</time>
      </trkpt>
      <trkpt lat="44.86426" lon="5.68704">
        <ele>666.9</ele>
        <time>2000-01-01T10:11:53.000Z</time>
      </trkpt>
      <trkpt lat="44.8643" lon="5.68698">
        <ele>666.6</ele>
        <time>2000-01-01T10:12:03.000Z</time>
      </trkpt>
      <trkpt lat="44.86434" lon="5.68686">
        <ele>662</ele>
        <time>2000-01-01T10:12:13.000Z</time>
      </trkpt>
      <trkpt lat="44.86439" lon="5.68674">
        <ele>663.6</ele>
        <time>2000-01-01T10:12:23.000Z</time>
      </trkpt>
      <trkpt lat="44.86441" lon="5.68666">
        <ele>662.2</ele>
        <time>2000-01-01T10:12:33.000Z</time>
      </trkpt>
      <trkpt lat="44.86447" lon="5.68656">
        <ele>658</ele>
        <time>2000-01-01T10:12:43.000Z</time>
      </trkpt>
      <trkpt lat="44.86452" lon="5.68645">
        <ele>660.6</ele>
        <time>2000-01-01T10:12:53.000Z</time>
      </trkpt>
      <trkpt lat="44.86449" lon="5.68636">
        <ele>657.8</ele>
        <time>2000-01-01T10:13:03.000Z</time>
      </trkpt>
      <trkpt lat="44.86451" lon="5.68628">
        <ele>655</ele>
        <time>2000-01-01T10:13:13.000Z</time>
      </trkpt>
      <trkpt lat="44.86456" lon="5.68618">
        <ele>656.4</ele>
        <time>2000-01-01T10:13:23.000Z</time>
      </trkpt>
      <trkpt lat="44.86458" lon="5.68611">
        <ele>655.4</ele>
        <time>2000-01-01T10:13:33.000Z</time>
      </trkpt>
      <trkpt lat="44.86457" lon="5.68603">
        <ele>652</ele>
        <time>2000-01-01T10:13:43.000Z</time>
      </trkpt>
      <trkpt lat="44.86459" lon="5.68597">
        <ele>653.3</ele>
        <time>2000-01-01T10:13:53.000Z</time>
      </trkpt>
      <trkpt lat="44.86456" lon="5.68591">
        <ele>651.9</ele>
        <time>2000-01-01T10:14:03.000Z</time>
      </trkpt>
      <trkpt lat="44.86453" lon="5.68582">
        <ele>650.1</ele>
        <time>2000-01-01T10:14:13.000Z</time>
      </trkpt>
      <trkpt lat="44.86456" lon="5.68546">
        <ele>645</ele>
        <time>2000-01-01T10:14:23.000Z</time>
      </trkpt>
      <trkpt lat="44.86457" lon="5.68536">
        <ele>646.4</ele>
        <time>2000-01-01T10:14:33.000Z</time>
      </trkpt>
      <trkpt lat="44.8646" lon="5.68527">
        <ele>646.2</ele>
        <time>2000-01-01T10:14:43.000Z</time>
      </trkpt>
      <trkpt lat="44.8646" lon="5.68521">
        <ele>645.5</ele>
        <time>2000-01-01T10:14:53.000Z</time>
      </trkpt>
      <trkpt lat="44.86464" lon="5.68516">
        <ele>644</ele>
        <time>2000-01-01T10:15:03.000Z</time>
      </trkpt>
      <trkpt lat="44.86472" lon="5.68509">
        <ele>645.9</ele>
        <time>2000-01-01T10:15:13.000Z</time>
      </trkpt>
      <trkpt lat="44.86476" lon="5.68502">
        <ele>645.8</ele>
        <time>2000-01-01T10:15:23.000Z</time>
      </trkpt>
      <trkpt lat="44.8648" lon="5.68489">
        <ele>643</ele>
        <time>2000-01-01T10:15:33.000Z</time>
      </trkpt>
      <trkpt lat="44.86484" lon="5.68482">
        <ele>644.8</ele>
        <time>2000-01-01T10:15:43.000Z</time>
      </trkpt>
      <trkpt lat="44.86487" lon="5.68478">
        <ele>644.8</ele>
        <time>2000-01-01T10:15:53.000Z</time>
      </trkpt>
      <trkpt lat="44.86491" lon="5.68471">
        <ele>644.5</ele>
        <time>2000-01-01T10:16:03.000Z</time>
      </trkpt>
      <trkpt lat="44.86492" lon="5.68466">
        <ele>642</ele>
        <time>2000-01-01T10:16:13.000Z</time>
      </trkpt>
      <trkpt lat="44.86504" lon="5.68448">
        <ele>643.2</ele>
        <time>2000-01-01T10:16:23.000Z</time>
      </trkpt>
      <trkpt lat="44.8651" lon="5.68436">
        <ele>640</ele>
        <time>2000-01-01T10:16:33.000Z</time>
      </trkpt>
      <trkpt lat="44.86511" lon="5.68422">
        <ele>641.1</ele>
        <time>2000-01-01T10:16:43.000Z</time>
      </trkpt>
      <trkpt lat="44.86512" lon="5.68417">
        <ele>640.6</ele>
        <time>2000-01-01T10:16:53.000Z</time>
      </trkpt>
      <trkpt lat="44.86518" lon="5.68404">
        <ele>640</ele>
        <time>2000-01-01T10:17:03.000Z</time>
      </trkpt>
      <trkpt lat="44.86523" lon="5.68399">
        <ele>641</ele>
        <time>2000-01-01T10:17:13.000Z</time>
      </trkpt>
      <trkpt lat="44.86539" lon="5.68389">
        <ele>640</ele>
        <time>2000-01-01T10:17:23.000Z</time>
      </trkpt>
      <trkpt lat="44.86542" lon="5.68386">
        <ele>643.7</ele>
        <time>2000-01-01T10:17:33.000Z</time>
      </trkpt>
      <trkpt lat="44.86543" lon="5.68381">
        <ele>643.3</ele>
        <time>2000-01-01T10:17:43.000Z</time>
      </trkpt>
      <trkpt lat="44.86549" lon="5.68369">
        <ele>643.3</ele>
        <time>2000-01-01T10:17:53.000Z</time>
      </trkpt>
      <trkpt lat="44.86556" lon="5.68364">
        <ele>640</ele>
        <time>2000-01-01T10:18:03.000Z</time>
      </trkpt>
      <trkpt lat="44.86558" lon="5.68359">
        <ele>644.4</ele>
        <time>2000-01-01T10:18:13.000Z</time>
      </trkpt>
      <trkpt lat="44.86561" lon="5.68357">
        <ele>644.9</ele>
        <time>2000-01-01T10:18:23.000Z</time>
      </trkpt>
      <trkpt lat="44.86565" lon="5.68349">
        <ele>645.1</ele>
        <time>2000-01-01T10:18:33.000Z</time>
      </trkpt>
      <trkpt lat="44.86567" lon="5.68335">
        <ele>641</ele>
        <time>2000-01-01T10:18:43.000Z</time>
      </trkpt>
      <trkpt lat="44.86567" lon="5.68327">
        <ele>643</ele>
        <time>2000-01-01T10:18:53.000Z</time>
      </trkpt>
      <trkpt lat="44.86571" lon="5.68322">
        <ele>643.3</ele>
        <time>2000-01-01T10:19:03.000Z</time>
      </trkpt>
      <trkpt lat="44.86575" lon="5.68317">
        <ele>643.5</ele>
        <time>2000-01-01T10:19:13.000Z</time>
      </trkpt>
      <trkpt lat="44.86586" lon="5.68312">
        <ele>643</ele>
        <time>2000-01-01T10:19:23.000Z</time>
      </trkpt>
      <trkpt lat="44.8659" lon="5.68313">
        <ele>646.4</ele>
        <time>2000-01-01T10:19:33.000Z</time>
      </trkpt>
      <trkpt lat="44.86608" lon="5.68312">
        <ele>648</ele>
        <time>2000-01-01T10:19:43.000Z</time>
      </trkpt>
      <trkpt lat="44.86618" lon="5.68306">
        <ele>650.6</ele>
        <time>2000-01-01T10:19:53.000Z</time>
      </trkpt>
      <trkpt lat="44.86621" lon="5.68301">
        <ele>650</ele>
        <time>2000-01-01T10:20:03.000Z</time>
      </trkpt>
      <trkpt lat="44.86624" lon="5.68294">
        <ele>648</ele>
        <time>2000-01-01T10:20:13.000Z</time>
      </trkpt>
      <trkpt lat="44.86627" lon="5.68292">
        <ele>649</ele>
        <time>2000-01-01T10:20:23.000Z</time>
      </trkpt>
      <trkpt lat="44.86632" lon="5.68285">
        <ele>648.4</ele>
        <time>2000-01-01T10:20:33.000Z</time>
      </trkpt>
      <trkpt lat="44.86636" lon="5.68282">
        <ele>648.3</ele>
        <time>2000-01-01T10:20:43.000Z</time>
      </trkpt>
      <trkpt lat="44.86642" lon="5.68283">
        <ele>647</ele>
        <time>2000-01-01T10:20:53.000Z</time>
      </trkpt>
      <trkpt lat="44.86645" lon="5.68278">
        <ele>647.6</ele>
        <time>2000-01-01T10:21:03.000Z</time>
      </trkpt>
      <trkpt lat="44.86647" lon="5.6827">
        <ele>646.1</ele>
        <time>2000-01-01T10:21:13.000Z</time>
      </trkpt>
      <trkpt lat="44.86648" lon="5.68264">
        <ele>645</ele>
        <time>2000-01-01T10:21:23.000Z</time>
      </trkpt>
      <trkpt lat="44.86652" lon="5.68261">
        <ele>644</ele>
        <time>2000-01-01T10:21:33.000Z</time>
      </trkpt>
      <trkpt lat="44.86656" lon="5.68236">
        <ele>640.2</ele>
        <time>2000-01-01T10:21:43.000Z</time>
      </trkpt>
      <trkpt lat="44.86661" lon="5.68231">
        <ele>639</ele>
        <time>2000-01-01T10:21:53.000Z</time>
      </trkpt>
      <trkpt lat="44.86667" lon="5.68232">
        <ele>639.3</ele>
        <time>2000-01-01T10:22:03.000Z</time>
      </trkpt>
      <trkpt lat="44.8667" lon="5.68228">
        <ele>638.2</ele>
        <time>2000-01-01T10:22:13.000Z</time>
      </trkpt>
      <trkpt lat="44.86674" lon="5.68221">
        <ele>636.5</ele>
        <time>2000-01-01T10:22:23.000Z</time>
      </trkpt>
      <trkpt lat="44.86674" lon="5.68215">
        <ele>636</ele>
        <time>2000-01-01T10:22:33.000Z</time>
      </trkpt>
      <trkpt lat="44.86676" lon="5.68209">
        <ele>634.9</ele>
        <time>2000-01-01T10:22:43.000Z</time>
      </trkpt>
      <trkpt lat="44.8668" lon="5.682">
        <ele>633.6</ele>
        <time>2000-01-01T10:22:53.000Z</time>
      </trkpt>
      <trkpt lat="44.86686" lon="5.68181">
        <ele>632</ele>
        <time>2000-01-01T10:23:03.000Z</time>
      </trkpt>
      <trkpt lat="44.86687" lon="5.68165">
        <ele>629.8</ele>
        <time>2000-01-01T10:23:13.000Z</time>
      </trkpt>
      <trkpt lat="44.86687" lon="5.68151">
        <ele>628</ele>
        <time>2000-01-01T10:23:23.000Z</time>
      </trkpt>
      <trkpt lat="44.86688" lon="5.68142">
        <ele>626.5</ele>
        <time>2000-01-01T10:23:33.000Z</time>
      </trkpt>
      <trkpt lat="44.86692" lon="5.68137">
        <ele>626.3</ele>
        <time>2000-01-01T10:23:43.000Z</time>
      </trkpt>
      <trkpt lat="44.86698" lon="5.68132">
        <ele>625.3</ele>
        <time>2000-01-01T10:23:53.000Z</time>
      </trkpt>
      <trkpt lat="44.86705" lon="5.6812">
        <ele>622</ele>
        <time>2000-01-01T10:24:03.000Z</time>
      </trkpt>
      <trkpt lat="44.86711" lon="5.68118">
        <ele>622.5</ele>
        <time>2000-01-01T10:24:13.000Z</time>
      </trkpt>
      <trkpt lat="44.86716" lon="5.68107">
        <ele>621.9</ele>
        <time>2000-01-01T10:24:23.000Z</time>
      </trkpt>
      <trkpt lat="44.86718" lon="5.68099">
        <ele>622</ele>
        <time>2000-01-01T10:24:33.000Z</time>
      </trkpt>
      <trkpt lat="44.86718" lon="5.68093">
        <ele>622</ele>
        <time>2000-01-01T10:24:43.000Z</time>
      </trkpt>
      <trkpt lat="44.86722" lon="5.68077">
        <ele>622.3</ele>
        <time>2000-01-01T10:24:53.000Z</time>
      </trkpt>
      <trkpt lat="44.86722" lon="5.68067">
        <ele>619</ele>
        <time>2000-01-01T10:25:03.000Z</time>
      </trkpt>
      <trkpt lat="44.86721" lon="5.68062">
        <ele>620.3</ele>
        <time>2000-01-01T10:25:13.000Z</time>
      </trkpt>
      <trkpt lat="44.86725" lon="5.6805">
        <ele>618.9</ele>
        <time>2000-01-01T10:25:23.000Z</time>
      </trkpt>
      <trkpt lat="44.86732" lon="5.68038">
        <ele>618</ele>
        <time>2000-01-01T10:25:33.000Z</time>
      </trkpt>
      <trkpt lat="44.86741" lon="5.68025">
        <ele>618.1</ele>
        <time>2000-01-01T10:25:43.000Z</time>
      </trkpt>
      <trkpt lat="44.86746" lon="5.68013">
        <ele>618</ele>
        <time>2000-01-01T10:25:53.000Z</time>
      </trkpt>
      <trkpt lat="44.86754" lon="5.68002">
        <ele>617.3</ele>
        <time>2000-01-01T10:26:03.000Z</time>
      </trkpt>
      <trkpt lat="44.86761" lon="5.6799">
        <ele>616</ele>
        <time>2000-01-01T10:26:13.000Z</time>
      </trkpt>
      <trkpt lat="44.86765" lon="5.67986">
        <ele>615</ele>
        <time>2000-01-01T10:26:23.000Z</time>
      </trkpt>
      <trkpt lat="44.86771" lon="5.67972">
        <ele>615.8</ele>
        <time>2000-01-01T10:26:33.000Z</time>
      </trkpt>
      <trkpt lat="44.8678" lon="5.6796">
        <ele>615</ele>
        <time>2000-01-01T10:26:43.000Z</time>
      </trkpt>
      <trkpt lat="44.86786" lon="5.67948">
        <ele>614.1</ele>
        <time>2000-01-01T10:26:53.000Z</time>
      </trkpt>
      <trkpt lat="44.8679" lon="5.67943">
        <ele>613.8</ele>
        <time>2000-01-01T10:27:03.000Z</time>
      </trkpt>
      <trkpt lat="44.86793" lon="5.67936">
        <ele>613</ele>
        <time>2000-01-01T10:27:13.000Z</time>
      </trkpt>
      <trkpt lat="44.86799" lon="5.67929">
        <ele>612.9</ele>
        <time>2000-01-01T10:27:23.000Z</time>
      </trkpt>
      <trkpt lat="44.86801" lon="5.67923">
        <ele>612.7</ele>
        <time>2000-01-01T10:27:33.000Z</time>
      </trkpt>
      <trkpt lat="44.86807" lon="5.67909">
        <ele>611</ele>
        <time>2000-01-01T10:27:43.000Z</time>
      </trkpt>
      <trkpt lat="44.86813" lon="5.67899">
        <ele>611.2</ele>
        <time>2000-01-01T10:27:53.000Z</time>
      </trkpt>
      <trkpt lat="44.86822" lon="5.67883">
        <ele>611</ele>
        <time>2000-01-01T10:28:03.000Z</time>
      </trkpt>
      <trkpt lat="44.86824" lon="5.67873">
        <ele>609.8</ele>
        <time>2000-01-01T10:28:13.000Z</time>
      </trkpt>
      <trkpt lat="44.86833" lon="5.6786">
        <ele>610</ele>
        <time>2000-01-01T10:28:23.000Z</time>
      </trkpt>
      <trkpt lat="44.86837" lon="5.6785">
        <ele>609</ele>
        <time>2000-01-01T10:28:33.000Z</time>
      </trkpt>
      <trkpt lat="44.8685" lon="5.67828">
        <ele>607</ele>
        <time>2000-01-01T10:28:43.000Z</time>
      </trkpt>
      <trkpt lat="44.86853" lon="5.67817">
        <ele>606.4</ele>
        <time>2000-01-01T10:28:53.000Z</time>
      </trkpt>
      <trkpt lat="44.86857" lon="5.67801">
        <ele>606</ele>
        <time>2000-01-01T10:29:03.000Z</time>
      </trkpt>
      <trkpt lat="44.86864" lon="5.67787">
        <ele>603.9</ele>
        <time>2000-01-01T10:29:13.000Z</time>
      </trkpt>
      <trkpt lat="44.86867" lon="5.67779">
        <ele>602.8</ele>
        <time>2000-01-01T10:29:23.000Z</time>
      </trkpt>
      <trkpt lat="44.86875" lon="5.67767">
        <ele>601</ele>
        <time>2000-01-01T10:29:33.000Z</time>
      </trkpt>
      <trkpt lat="44.86875" lon="5.67763">
        <ele>600.2</ele>
        <time>2000-01-01T10:29:43.000Z</time>
      </trkpt>
      <trkpt lat="44.86886" lon="5.67735">
        <ele>598</ele>
        <time>2000-01-01T10:29:53.000Z</time>
      </trkpt>
      <trkpt lat="44.86891" lon="5.67729">
        <ele>596.4</ele>
        <time>2000-01-01T10:30:03.000Z</time>
      </trkpt>
      <trkpt lat="44.86895" lon="5.67715">
        <ele>595.4</ele>
        <time>2000-01-01T10:30:13.000Z</time>
      </trkpt>
      <trkpt lat="44.86898" lon="5.67709">
        <ele>596</ele>
        <time>2000-01-01T10:30:23.000Z</time>
      </trkpt>
      <trkpt lat="44.86901" lon="5.67702">
        <ele>594.5</ele>
        <time>2000-01-01T10:30:33.000Z</time>
      </trkpt>
      <trkpt lat="44.8691" lon="5.67685">
        <ele>594</ele>
        <time>2000-01-01T10:30:43.000Z</time>
      </trkpt>
      <trkpt lat="44.86918" lon="5.67679">
        <ele>592.8</ele>
        <time>2000-01-01T10:30:53.000Z</time>
      </trkpt>
      <trkpt lat="44.8692" lon="5.67672">
        <ele>593</ele>
        <time>2000-01-01T10:31:03.000Z</time>
      </trkpt>
      <trkpt lat="44.86925" lon="5.67666">
        <ele>593</ele>
        <time>2000-01-01T10:31:13.000Z</time>
      </trkpt>
      <trkpt lat="44.86928" lon="5.67659">
        <ele>592.5</ele>
        <time>2000-01-01T10:31:23.000Z</time>
      </trkpt>
      <trkpt lat="44.86929" lon="5.67654">
        <ele>592.4</ele>
        <time>2000-01-01T10:31:33.000Z</time>
      </trkpt>
      <trkpt lat="44.86938" lon="5.67633">
        <ele>592</ele>
        <time>2000-01-01T10:31:43.000Z</time>
      </trkpt>
      <trkpt lat="44.86953" lon="5.6761">
        <ele>590</ele>
        <time>2000-01-01T10:31:53.000Z</time>
      </trkpt>
      <trkpt lat="44.86955" lon="5.67602">
        <ele>589.2</ele>
        <time>2000-01-01T10:32:03.000Z</time>
      </trkpt>
      <trkpt lat="44.86957" lon="5.67587">
        <ele>589.1</ele>
        <time>2000-01-01T10:32:13.000Z</time>
      </trkpt>
      <trkpt lat="44.86956" lon="5.67578">
        <ele>590</ele>
        <time>2000-01-01T10:32:23.000Z</time>
      </trkpt>
      <trkpt lat="44.86958" lon="5.67571">
        <ele>588.8</ele>
        <time>2000-01-01T10:32:33.000Z</time>
      </trkpt>
      <trkpt lat="44.86953" lon="5.67552">
        <ele>589</ele>
        <time>2000-01-01T10:32:43.000Z</time>
      </trkpt>
      <trkpt lat="44.86951" lon="5.67543">
        <ele>589.1</ele>
        <time>2000-01-01T10:32:53.000Z</time>
      </trkpt>
      <trkpt lat="44.86953" lon="5.67532">
        <ele>588.3</ele>
        <time>2000-01-01T10:33:03.000Z</time>
      </trkpt>
      <trkpt lat="44.86966" lon="5.67505">
        <ele>587</ele>
        <time>2000-01-01T10:33:13.000Z</time>
      </trkpt>
      <trkpt lat="44.86971" lon="5.67499">
        <ele>586.2</ele>
        <time>2000-01-01T10:33:23.000Z</time>
      </trkpt>
      <trkpt lat="44.86975" lon="5.67492">
        <ele>586</ele>
        <time>2000-01-01T10:33:33.000Z</time>
      </trkpt>
      <trkpt lat="44.86983" lon="5.67484">
        <ele>585</ele>
        <time>2000-01-01T10:33:43.000Z</time>
      </trkpt>
      <trkpt lat="44.86985" lon="5.67476">
        <ele>585</ele>
        <time>2000-01-01T10:33:53.000Z</time>
      </trkpt>
      <trkpt lat="44.86994" lon="5.67459">
        <ele>585</ele>
        <time>2000-01-01T10:34:03.000Z</time>
      </trkpt>
      <trkpt lat="44.86997" lon="5.67451">
        <ele>584</ele>
        <time>2000-01-01T10:34:13.000Z</time>
      </trkpt>
      <trkpt lat="44.87001" lon="5.67439">
        <ele>583.4</ele>
        <time>2000-01-01T10:34:23.000Z</time>
      </trkpt>
      <trkpt lat="44.87006" lon="5.6743">
        <ele>583</ele>
        <time>2000-01-01T10:34:33.000Z</time>
      </trkpt>
      <trkpt lat="44.87008" lon="5.67423">
        <ele>581.1</ele>
        <time>2000-01-01T10:34:43.000Z</time>
      </trkpt>
      <trkpt lat="44.87016" lon="5.67401">
        <ele>577</ele>
        <time>2000-01-01T10:34:53.000Z</time>
      </trkpt>
      <trkpt lat="44.87021" lon="5.67399">
        <ele>575.5</ele>
        <time>2000-01-01T10:35:03.000Z</time>
      </trkpt>
      <trkpt lat="44.87025" lon="5.67404">
        <ele>576</ele>
        <time>2000-01-01T10:35:13.000Z</time>
      </trkpt>
      <trkpt lat="44.87034" lon="5.67411">
        <ele>576</ele>
        <time>2000-01-01T10:35:23.000Z</time>
      </trkpt>
      <trkpt lat="44.87039" lon="5.67416">
        <ele>572.6</ele>
        <time>2000-01-01T10:35:33.000Z</time>
      </trkpt>
      <trkpt lat="44.87044" lon="5.67419">
        <ele>570.3</ele>
        <time>2000-01-01T10:35:43.000Z</time>
      </trkpt>
      <trkpt lat="44.87045" lon="5.67427">
        <ele>569.6</ele>
        <time>2000-01-01T10:35:53.000Z</time>
      </trkpt>
      <trkpt lat="44.87041" lon="5.67431">
        <ele>577</ele>
        <time>2000-01-01T10:36:03.000Z</time>
      </trkpt>
      <trkpt lat="44.87036" lon="5.67438">
        <ele>573.4</ele>
        <time>2000-01-01T10:36:13.000Z</time>
      </trkpt>
      <trkpt lat="44.87035" lon="5.67442">
        <ele>573.7</ele>
        <time>2000-01-01T10:36:23.000Z</time>
      </trkpt>
      <trkpt lat="44.87031" lon="5.6745">
        <ele>574.6</ele>
        <time>2000-01-01T10:36:33.000Z</time>
      </trkpt>
      <trkpt lat="44.87027" lon="5.67455">
        <ele>575</ele>
        <time>2000-01-01T10:36:43.000Z</time>
      </trkpt>
      <trkpt lat="44.87024" lon="5.67463">
        <ele>575.5</ele>
        <time>2000-01-01T10:36:53.000Z</time>
      </trkpt>
      <trkpt lat="44.87024" lon="5.67475">
        <ele>573.9</ele>
        <time>2000-01-01T10:37:03.000Z</time>
      </trkpt>
      <trkpt lat="44.87026" lon="5.67483">
        <ele>574</ele>
        <time>2000-01-01T10:37:13.000Z</time>
      </trkpt>
      <trkpt lat="44.87027" lon="5.67496">
        <ele>569.9</ele>
        <time>2000-01-01T10:37:23.000Z</time>
      </trkpt>
      <trkpt lat="44.87028" lon="5.67502">
        <ele>568.7</ele>
        <time>2000-01-01T10:37:33.000Z</time>
      </trkpt>
      <trkpt lat="44.87032" lon="5.67509">
        <ele>568</ele>
        <time>2000-01-01T10:37:43.000Z</time>
      </trkpt>
      <trkpt lat="44.87032" lon="5.67519">
        <ele>564.9</ele>
        <time>2000-01-01T10:37:53.000Z</time>
      </trkpt>
      <trkpt lat="44.87034" lon="5.67524">
        <ele>563.2</ele>
        <time>2000-01-01T10:38:03.000Z</time>
      </trkpt>
      <trkpt lat="44.87038" lon="5.67528">
        <ele>560.4</ele>
        <time>2000-01-01T10:38:13.000Z</time>
      </trkpt>
      <trkpt lat="44.8704" lon="5.67536">
        <ele>566</ele>
        <time>2000-01-01T10:38:23.000Z</time>
      </trkpt>
      <trkpt lat="44.87034" lon="5.67555">
        <ele>562</ele>
        <time>2000-01-01T10:38:33.000Z</time>
      </trkpt>
      <trkpt lat="44.87033" lon="5.67562">
        <ele>564</ele>
        <time>2000-01-01T10:38:43.000Z</time>
      </trkpt>
      <trkpt lat="44.87035" lon="5.6757">
        <ele>561.5</ele>
        <time>2000-01-01T10:38:53.000Z</time>
      </trkpt>
      <trkpt lat="44.87035" lon="5.6757">
        <ele>561.5</ele>
        <time>2000-01-01T10:39:03.000Z</time>
      </trkpt>
      <trkpt lat="44.87039" lon="5.67575">
        <ele>559</ele>
        <time>2000-01-01T10:39:13.000Z</time>
      </trkpt>
      <trkpt lat="44.87039" lon="5.67582">
        <ele>559.1</ele>
        <time>2000-01-01T10:39:23.000Z</time>
      </trkpt>
      <trkpt lat="44.87041" lon="5.67589">
        <ele>557</ele>
        <time>2000-01-01T10:39:33.000Z</time>
      </trkpt>
      <trkpt lat="44.87044" lon="5.67592">
        <ele>556.1</ele>
        <time>2000-01-01T10:39:43.000Z</time>
      </trkpt>
      <trkpt lat="44.87055" lon="5.67592">
        <ele>549.6</ele>
        <time>2000-01-01T10:39:53.000Z</time>
      </trkpt>
      <trkpt lat="44.8706" lon="5.67594">
        <ele>546</ele>
        <time>2000-01-01T10:40:03.000Z</time>
      </trkpt>
      <trkpt lat="44.87065" lon="5.67599">
        <ele>542.5</ele>
        <time>2000-01-01T10:40:13.000Z</time>
      </trkpt>
      <trkpt lat="44.87067" lon="5.67604">
        <ele>541.5</ele>
        <time>2000-01-01T10:40:23.000Z</time>
      </trkpt>
      <trkpt lat="44.87075" lon="5.67611">
        <ele>543</ele>
        <time>2000-01-01T10:40:33.000Z</time>
      </trkpt>
      <trkpt lat="44.87077" lon="5.67617">
        <ele>535.6</ele>
        <time>2000-01-01T10:40:43.000Z</time>
      </trkpt>
      <trkpt lat="44.87077" lon="5.67623">
        <ele>535.9</ele>
        <time>2000-01-01T10:40:53.000Z</time>
      </trkpt>
      <trkpt lat="44.87076" lon="5.67629">
        <ele>536.8</ele>
        <time>2000-01-01T10:41:03.000Z</time>
      </trkpt>
      <trkpt lat="44.8708" lon="5.67643">
        <ele>540</ele>
        <time>2000-01-01T10:41:13.000Z</time>
      </trkpt>
      <trkpt lat="44.87081" lon="5.67642">
        <ele>534.2</ele>
        <time>2000-01-01T10:41:23.000Z</time>
      </trkpt>
      <trkpt lat="44.87083" lon="5.6764">
        <ele>533.2</ele>
        <time>2000-01-01T10:41:33.000Z</time>
      </trkpt>
      <trkpt lat="44.87084" lon="5.67636">
        <ele>532.4</ele>
        <time>2000-01-01T10:41:43.000Z</time>
      </trkpt>
      <trkpt lat="44.87085" lon="5.67636">
        <ele>531.7</ele>
        <time>2000-01-01T10:41:53.000Z</time>
      </trkpt>
      <trkpt lat="44.87086" lon="5.67639">
        <ele>531.3</ele>
        <time>2000-01-01T10:42:03.000Z</time>
      </trkpt>
      <trkpt lat="44.87086" lon="5.67644">
        <ele>531.1</ele>
        <time>2000-01-01T10:42:13.000Z</time>
      </trkpt>
      <trkpt lat="44.87084" lon="5.67648">
        <ele>532.2</ele>
        <time>2000-01-01T10:42:23.000Z</time>
      </trkpt>
      <trkpt lat="44.87087" lon="5.67648">
        <ele>535</ele>
        <time>2000-01-01T10:42:33.000Z</time>
      </trkpt>
      <trkpt lat="44.87091" lon="5.67645">
        <ele>527.8</ele>
        <time>2000-01-01T10:42:43.000Z</time>
      </trkpt>
      <trkpt lat="44.87094" lon="5.67646">
        <ele>525.8</ele>
        <time>2000-01-01T10:42:53.000Z</time>
      </trkpt>
      <trkpt lat="44.87082" lon="5.67657">
        <ele>534</ele>
        <time>2000-01-01T10:43:03.000Z</time>
      </trkpt>
      <trkpt lat="44.8709" lon="5.67657">
        <ele>528</ele>
        <time>2000-01-01T10:43:13.000Z</time>
      </trkpt>
      <trkpt lat="44.87101" lon="5.67656">
        <ele>520.9</ele>
        <time>2000-01-01T10:43:23.000Z</time>
      </trkpt>
      <trkpt lat="44.87105" lon="5.67654">
        <ele>521</ele>
        <time>2000-01-01T10:43:33.000Z</time>
      </trkpt>
      <trkpt lat="44.87108" lon="5.67652">
        <ele>516.5</ele>
        <time>2000-01-01T10:43:43.000Z</time>
      </trkpt>
      <trkpt lat="44.8711" lon="5.67647">
        <ele>515.4</ele>
        <time>2000-01-01T10:43:53.000Z</time>
      </trkpt>
      <trkpt lat="44.87112" lon="5.67645">
        <ele>514.2</ele>
        <time>2000-01-01T10:44:03.000Z</time>
      </trkpt>
      <trkpt lat="44.87113" lon="5.67645">
        <ele>513.6</ele>
        <time>2000-01-01T10:44:13.000Z</time>
      </trkpt>
      <trkpt lat="44.87145" lon="5.67659">
        <ele>496</ele>
        <time>2000-01-01T10:44:23.000Z</time>
      </trkpt>
      <trkpt lat="44.87172" lon="5.67672">
        <ele>490</ele>
        <time>2000-01-01T10:44:33.000Z</time>
      </trkpt>
      <trkpt lat="44.8721" lon="5.67689">
        <ele>490</ele>
        <time>2000-01-01T10:44:43.000Z</time>
      </trkpt>
      <trkpt lat="44.87237" lon="5.67702">
        <ele>496</ele>
        <time>2000-01-01T10:44:53.000Z</time>
      </trkpt>
      <trkpt lat="44.87282" lon="5.67723">
        <ele>518</ele>
        <time>2000-01-01T10:45:03.000Z</time>
      </trkpt>
      <trkpt lat="44.87288" lon="5.67726">
        <ele>519.2</ele>
        <time>2000-01-01T10:45:13.000Z</time>
      </trkpt>
      <trkpt lat="44.87292" lon="5.67726">
        <ele>521.3</ele>
        <time>2000-01-01T10:45:23.000Z</time>
      </trkpt>
      <trkpt lat="44.87294" lon="5.67724">
        <ele>523.1</ele>
        <time>2000-01-01T10:45:33.000Z</time>
      </trkpt>
      <trkpt lat="44.87296" lon="5.6772">
        <ele>525.4</ele>
        <time>2000-01-01T10:45:43.000Z</time>
      </trkpt>
      <trkpt lat="44.87296" lon="5.67715">
        <ele>526</ele>
        <time>2000-01-01T10:45:53.000Z</time>
      </trkpt>
      <trkpt lat="44.87288" lon="5.67697">
        <ele>526.9</ele>
        <time>2000-01-01T10:46:03.000Z</time>
      </trkpt>
      <trkpt lat="44.87283" lon="5.67682">
        <ele>527</ele>
        <time>2000-01-01T10:46:13.000Z</time>
      </trkpt>
      <trkpt lat="44.87282" lon="5.67674">
        <ele>528.7</ele>
        <time>2000-01-01T10:46:23.000Z</time>
      </trkpt>
      <trkpt lat="44.87284" lon="5.67667">
        <ele>531.3</ele>
        <time>2000-01-01T10:46:33.000Z</time>
      </trkpt>
      <trkpt lat="44.87287" lon="5.67663">
        <ele>533.7</ele>
        <time>2000-01-01T10:46:43.000Z</time>
      </trkpt>
      <trkpt lat="44.87296" lon="5.67661">
        <ele>538</ele>
        <time>2000-01-01T10:46:53.000Z</time>
      </trkpt>
      <trkpt lat="44.8731" lon="5.67657">
        <ele>545.9</ele>
        <time>2000-01-01T10:47:03.000Z</time>
      </trkpt>
      <trkpt lat="44.8732" lon="5.67654">
        <ele>549</ele>
        <time>2000-01-01T10:47:13.000Z</time>
      </trkpt>
      <trkpt lat="44.87323" lon="5.67654">
        <ele>549.2</ele>
        <time>2000-01-01T10:47:23.000Z</time>
      </trkpt>
      <trkpt lat="44.87325" lon="5.67655">
        <ele>549.3</ele>
        <time>2000-01-01T10:47:33.000Z</time>
      </trkpt>
      <trkpt lat="44.8734" lon="5.6766">
        <ele>551</ele>
        <time>2000-01-01T10:47:43.000Z</time>
      </trkpt>
      <trkpt lat="44.87341" lon="5.67652">
        <ele>552.5</ele>
        <time>2000-01-01T10:47:53.000Z</time>
      </trkpt>
      <trkpt lat="44.87345" lon="5.67651">
        <ele>553.3</ele>
        <time>2000-01-01T10:48:03.000Z</time>
      </trkpt>
      <trkpt lat="44.87344" lon="5.67645">
        <ele>554.8</ele>
        <time>2000-01-01T10:48:13.000Z</time>
      </trkpt>
      <trkpt lat="44.87336" lon="5.67635">
        <ele>557</ele>
        <time>2000-01-01T10:48:23.000Z</time>
      </trkpt>
      <trkpt lat="44.87334" lon="5.67629">
        <ele>558.7</ele>
        <time>2000-01-01T10:48:33.000Z</time>
      </trkpt>
      <trkpt lat="44.87329" lon="5.67626">
        <ele>558.5</ele>
        <time>2000-01-01T10:48:43.000Z</time>
      </trkpt>
      <trkpt lat="44.87317" lon="5.67604">
        <ele>561</ele>
        <time>2000-01-01T10:48:53.000Z</time>
      </trkpt>
      <trkpt lat="44.87314" lon="5.67599">
        <ele>561.6</ele>
        <time>2000-01-01T10:49:03.000Z</time>
      </trkpt>
      <trkpt lat="44.87317" lon="5.67595">
        <ele>563.8</ele>
        <time>2000-01-01T10:49:13.000Z</time>
      </trkpt>
      <trkpt lat="44.87328" lon="5.67591">
        <ele>567</ele>
        <time>2000-01-01T10:49:23.000Z</time>
      </trkpt>
      <trkpt lat="44.8735" lon="5.6759">
        <ele>580</ele>
        <time>2000-01-01T10:49:33.000Z</time>
      </trkpt>
      <trkpt lat="44.8735" lon="5.6759">
        <ele>577.4</ele>
        <time>2000-01-01T10:49:43.000Z</time>
      </trkpt>
      <trkpt lat="44.87361" lon="5.67585">
        <ele>583.1</ele>
        <time>2000-01-01T10:49:53.000Z</time>
      </trkpt>
      <trkpt lat="44.87369" lon="5.67579">
        <ele>590</ele>
        <time>2000-01-01T10:50:03.000Z</time>
      </trkpt>
      <trkpt lat="44.87386" lon="5.67572">
        <ele>595.4</ele>
        <time>2000-01-01T10:50:13.000Z</time>
      </trkpt>
      <trkpt lat="44.87389" lon="5.67572">
        <ele>595</ele>
        <time>2000-01-01T10:50:23.000Z</time>
      </trkpt>
      <trkpt lat="44.87394" lon="5.67569">
        <ele>598.4</ele>
        <time>2000-01-01T10:50:33.000Z</time>
      </trkpt>
      <trkpt lat="44.87403" lon="5.67568">
        <ele>600.1</ele>
        <time>2000-01-01T10:50:43.000Z</time>
      </trkpt>
      <trkpt lat="44.87408" lon="5.67566">
        <ele>603</ele>
        <time>2000-01-01T10:50:53.000Z</time>
      </trkpt>
      <trkpt lat="44.87417" lon="5.67567">
        <ele>602.4</ele>
        <time>2000-01-01T10:51:03.000Z</time>
      </trkpt>
      <trkpt lat="44.87424" lon="5.67563">
        <ele>605.5</ele>
        <time>2000-01-01T10:51:13.000Z</time>
      </trkpt>
      <trkpt lat="44.87429" lon="5.67564">
        <ele>605</ele>
        <time>2000-01-01T10:51:23.000Z</time>
      </trkpt>
      <trkpt lat="44.87435" lon="5.6756">
        <ele>608.4</ele>
        <time>2000-01-01T10:51:33.000Z</time>
      </trkpt>
      <trkpt lat="44.8744" lon="5.67559">
        <ele>609.5</ele>
        <time>2000-01-01T10:51:43.000Z</time>
      </trkpt>
      <trkpt lat="44.87446" lon="5.67557">
        <ele>611.3</ele>
        <time>2000-01-01T10:51:53.000Z</time>
      </trkpt>
      <trkpt lat="44.87455" lon="5.67556">
        <ele>615</ele>
        <time>2000-01-01T10:52:03.000Z</time>
      </trkpt>
      <trkpt lat="44.87458" lon="5.67555">
        <ele>613.3</ele>
        <time>2000-01-01T10:52:13.000Z</time>
      </trkpt>
      <trkpt lat="44.87452" lon="5.67552">
        <ele>614.6</ele>
        <time>2000-01-01T10:52:23.000Z</time>
      </trkpt>
      <trkpt lat="44.87439" lon="5.67542">
        <ele>619</ele>
        <time>2000-01-01T10:52:33.000Z</time>
      </trkpt>
      <trkpt lat="44.87435" lon="5.67538">
        <ele>621.3</ele>
        <time>2000-01-01T10:52:43.000Z</time>
      </trkpt>
      <trkpt lat="44.87431" lon="5.67537">
        <ele>621.6</ele>
        <time>2000-01-01T10:52:53.000Z</time>
      </trkpt>
      <trkpt lat="44.87424" lon="5.6753">
        <ele>625.2</ele>
        <time>2000-01-01T10:53:03.000Z</time>
      </trkpt>
      <trkpt lat="44.8742" lon="5.67524">
        <ele>631</ele>
        <time>2000-01-01T10:53:13.000Z</time>
      </trkpt>
      <trkpt lat="44.87421" lon="5.67519">
        <ele>631.7</ele>
        <time>2000-01-01T10:53:23.000Z</time>
      </trkpt>
      <trkpt lat="44.87417" lon="5.67518">
        <ele>632</ele>
        <time>2000-01-01T10:53:33.000Z</time>
      </trkpt>
      <trkpt lat="44.87415" lon="5.67515">
        <ele>633.7</ele>
        <time>2000-01-01T10:53:43.000Z</time>
      </trkpt>
      <trkpt lat="44.87405" lon="5.67508">
        <ele>640</ele>
        <time>2000-01-01T10:53:53.000Z</time>
      </trkpt>
      <trkpt lat="44.87402" lon="5.67503">
        <ele>640.1</ele>
        <time>2000-01-01T10:54:03.000Z</time>
      </trkpt>
      <trkpt lat="44.87403" lon="5.67497">
        <ele>643.6</ele>
        <time>2000-01-01T10:54:13.000Z</time>
      </trkpt>
      <trkpt lat="44.87399" lon="5.67494">
        <ele>644.8</ele>
        <time>2000-01-01T10:54:23.000Z</time>
      </trkpt>
      <trkpt lat="44.87393" lon="5.67492">
        <ele>646</ele>
        <time>2000-01-01T10:54:33.000Z</time>
      </trkpt>
      <trkpt lat="44.87386" lon="5.6748">
        <ele>649.8</ele>
        <time>2000-01-01T10:54:43.000Z</time>
      </trkpt>
      <trkpt lat="44.87388" lon="5.67475">
        <ele>652.5</ele>
        <time>2000-01-01T10:54:53.000Z</time>
      </trkpt>
      <trkpt lat="44.8738" lon="5.67466">
        <ele>658</ele>
        <time>2000-01-01T10:55:03.000Z</time>
      </trkpt>
      <trkpt lat="44.87378" lon="5.67461">
        <ele>658.5</ele>
        <time>2000-01-01T10:55:13.000Z</time>
      </trkpt>
      <trkpt lat="44.87374" lon="5.67457">
        <ele>660.1</ele>
        <time>2000-01-01T10:55:23.000Z</time>
      </trkpt>
      <trkpt lat="44.87369" lon="5.67456">
        <ele>659.8</ele>
        <time>2000-01-01T10:55:33.000Z</time>
      </trkpt>
      <trkpt lat="44.87366" lon="5.67454">
        <ele>660.4</ele>
        <time>2000-01-01T10:55:43.000Z</time>
      </trkpt>
      <trkpt lat="44.87358" lon="5.67443">
        <ele>664</ele>
        <time>2000-01-01T10:55:53.000Z</time>
      </trkpt>
      <trkpt lat="44.87353" lon="5.67432">
        <ele>670</ele>
        <time>2000-01-01T10:56:03.000Z</time>
      </trkpt>
      <trkpt lat="44.87349" lon="5.67428">
        <ele>671.1</ele>
        <time>2000-01-01T10:56:13.000Z</time>
      </trkpt>
      <trkpt lat="44.87346" lon="5.67423">
        <ele>673.2</ele>
        <time>2000-01-01T10:56:23.000Z</time>
      </trkpt>
      <trkpt lat="44.87337" lon="5.67416">
        <ele>673</ele>
        <time>2000-01-01T10:56:33.000Z</time>
      </trkpt>
      <trkpt lat="44.87334" lon="5.6741">
        <ele>676.8</ele>
        <time>2000-01-01T10:56:43.000Z</time>
      </trkpt>
      <trkpt lat="44.87327" lon="5.67405">
        <ele>674.6</ele>
        <time>2000-01-01T10:56:53.000Z</time>
      </trkpt>
      <trkpt lat="44.87321" lon="5.674">
        <ele>673</ele>
        <time>2000-01-01T10:57:03.000Z</time>
      </trkpt>
      <trkpt lat="44.8732" lon="5.67398">
        <ele>674.1</ele>
        <time>2000-01-01T10:57:13.000Z</time>
      </trkpt>
      <trkpt lat="44.87313" lon="5.67391">
        <ele>674.7</ele>
        <time>2000-01-01T10:57:23.000Z</time>
      </trkpt>
      <trkpt lat="44.87305" lon="5.67385">
        <ele>673</ele>
        <time>2000-01-01T10:57:33.000Z</time>
      </trkpt>
      <trkpt lat="44.87298" lon="5.67377">
        <ele>668.9</ele>
        <time>2000-01-01T10:57:43.000Z</time>
      </trkpt>
      <trkpt lat="44.87288" lon="5.67367">
        <ele>674</ele>
        <time>2000-01-01T10:57:53.000Z</time>
      </trkpt>
      <trkpt lat="44.87283" lon="5.67354">
        <ele>669.1</ele>
        <time>2000-01-01T10:58:03.000Z</time>
      </trkpt>
      <trkpt lat="44.87283" lon="5.67345">
        <ele>671.4</ele>
        <time>2000-01-01T10:58:13.000Z</time>
      </trkpt>
      <trkpt lat="44.87286" lon="5.67336">
        <ele>675</ele>
        <time>2000-01-01T10:58:23.000Z</time>
      </trkpt>
      <trkpt lat="44.87289" lon="5.67328">
        <ele>677.9</ele>
        <time>2000-01-01T10:58:33.000Z</time>
      </trkpt>
      <trkpt lat="44.87287" lon="5.6732">
        <ele>676</ele>
        <time>2000-01-01T10:58:43.000Z</time>
      </trkpt>
      <trkpt lat="44.87291" lon="5.673">
        <ele>678</ele>
        <time>2000-01-01T10:58:53.000Z</time>
      </trkpt>
      <trkpt lat="44.87292" lon="5.67284">
        <ele>678.2</ele>
        <time>2000-01-01T10:59:03.000Z</time>
      </trkpt>
      <trkpt lat="44.87291" lon="5.67279">
        <ele>677.7</ele>
        <time>2000-01-01T10:59:13.000Z</time>
      </trkpt>
      <trkpt lat="44.87294" lon="5.67267">
        <ele>681</ele>
        <time>2000-01-01T10:59:23.000Z</time>
      </trkpt>
      <trkpt lat="44.87295" lon="5.67256">
        <ele>682.7</ele>
        <time>2000-01-01T10:59:33.000Z</time>
      </trkpt>
      <trkpt lat="44.87291" lon="5.6725">
        <ele>682.3</ele>
        <time>2000-01-01T10:59:43.000Z</time>
      </trkpt>
      <trkpt lat="44.87281" lon="5.67246">
        <ele>674</ele>
        <time>2000-01-01T10:59:53.000Z</time>
      </trkpt>
      <trkpt lat="44.87271" lon="5.67239">
        <ele>670.5</ele>
        <time>2000-01-01T11:00:03.000Z</time>
      </trkpt>
      <trkpt lat="44.87267" lon="5.67233">
        <ele>666.5</ele>
        <time>2000-01-01T11:00:13.000Z</time>
      </trkpt>
      <trkpt lat="44.87261" lon="5.67222">
        <ele>668</ele>
        <time>2000-01-01T11:00:23.000Z</time>
      </trkpt>
      <trkpt lat="44.87256" lon="5.6721">
        <ele>662.4</ele>
        <time>2000-01-01T11:00:33.000Z</time>
      </trkpt>
      <trkpt lat="44.8725" lon="5.67198">
        <ele>678</ele>
        <time>2000-01-01T11:00:43.000Z</time>
      </trkpt>
      <trkpt lat="44.87254" lon="5.67192">
        <ele>670.3</ele>
        <time>2000-01-01T11:00:53.000Z</time>
      </trkpt>
      <trkpt lat="44.87259" lon="5.67189">
        <ele>676.6</ele>
        <time>2000-01-01T11:01:03.000Z</time>
      </trkpt>
      <trkpt lat="44.87262" lon="5.67185">
        <ele>681</ele>
        <time>2000-01-01T11:01:13.000Z</time>
      </trkpt>
      <trkpt lat="44.87261" lon="5.67178">
        <ele>681</ele>
        <time>2000-01-01T11:01:23.000Z</time>
      </trkpt>
      <trkpt lat="44.87258" lon="5.67174">
        <ele>681</ele>
        <time>2000-01-01T11:01:33.000Z</time>
      </trkpt>
      <trkpt lat="44.87254" lon="5.67161">
        <ele>681.7</ele>
        <time>2000-01-01T11:01:43.000Z</time>
      </trkpt>
      <trkpt lat="44.87254" lon="5.67154">
        <ele>683.3</ele>
        <time>2000-01-01T11:01:53.000Z</time>
      </trkpt>
      <trkpt lat="44.87252" lon="5.67148">
        <ele>685</ele>
        <time>2000-01-01T11:02:03.000Z</time>
      </trkpt>
      <trkpt lat="44.87252" lon="5.67133">
        <ele>686.3</ele>
        <time>2000-01-01T11:02:13.000Z</time>
      </trkpt>
      <trkpt lat="44.87251" lon="5.67126">
        <ele>686.6</ele>
        <time>2000-01-01T11:02:23.000Z</time>
      </trkpt>
      <trkpt lat="44.87257" lon="5.67126">
        <ele>687</ele>
        <time>2000-01-01T11:02:33.000Z</time>
      </trkpt>
      <trkpt lat="44.87256" lon="5.67119">
        <ele>691</ele>
        <time>2000-01-01T11:02:43.000Z</time>
      </trkpt>
      <trkpt lat="44.87255" lon="5.67111">
        <ele>691.4</ele>
        <time>2000-01-01T11:02:53.000Z</time>
      </trkpt>
      <trkpt lat="44.87252" lon="5.67098">
        <ele>691</ele>
        <time>2000-01-01T11:03:03.000Z</time>
      </trkpt>
      <trkpt lat="44.87251" lon="5.67084">
        <ele>690.6</ele>
        <time>2000-01-01T11:03:13.000Z</time>
      </trkpt>
      <trkpt lat="44.87253" lon="5.67079">
        <ele>691.5</ele>
        <time>2000-01-01T11:03:23.000Z</time>
      </trkpt>
      <trkpt lat="44.87258" lon="5.67079">
        <ele>694.4</ele>
        <time>2000-01-01T11:03:33.000Z</time>
      </trkpt>
      <trkpt lat="44.87263" lon="5.67081">
        <ele>697</ele>
        <time>2000-01-01T11:03:43.000Z</time>
      </trkpt>
      <trkpt lat="44.87269" lon="5.67089">
        <ele>701.5</ele>
        <time>2000-01-01T11:03:53.000Z</time>
      </trkpt>
      <trkpt lat="44.87274" lon="5.6709">
        <ele>704.6</ele>
        <time>2000-01-01T11:04:03.000Z</time>
      </trkpt>
      <trkpt lat="44.87282" lon="5.67096">
        <ele>709</ele>
        <time>2000-01-01T11:04:13.000Z</time>
      </trkpt>
      <trkpt lat="44.87287" lon="5.67099">
        <ele>710.7</ele>
        <time>2000-01-01T11:04:23.000Z</time>
      </trkpt>
      <trkpt lat="44.87345" lon="5.67093">
        <ele>724</ele>
        <time>2000-01-01T11:04:33.000Z</time>
      </trkpt>
      <trkpt lat="44.87365" lon="5.67093">
        <ele>725</ele>
        <time>2000-01-01T11:04:43.000Z</time>
      </trkpt>
      <trkpt lat="44.87374" lon="5.67091">
        <ele>725.5</ele>
        <time>2000-01-01T11:04:53.000Z</time>
      </trkpt>
      <trkpt lat="44.87377" lon="5.67091">
        <ele>725.5</ele>
        <time>2000-01-01T11:05:03.000Z</time>
      </trkpt>
      <trkpt lat="44.87386" lon="5.67091">
        <ele>726</ele>
        <time>2000-01-01T11:05:13.000Z</time>
      </trkpt>
      <trkpt lat="44.8739" lon="5.67088">
        <ele>725.9</ele>
        <time>2000-01-01T11:05:23.000Z</time>
      </trkpt>
      <trkpt lat="44.87411" lon="5.67085">
        <ele>727</ele>
        <time>2000-01-01T11:05:33.000Z</time>
      </trkpt>
      <trkpt lat="44.87421" lon="5.67082">
        <ele>728.4</ele>
        <time>2000-01-01T11:05:43.000Z</time>
      </trkpt>
      <trkpt lat="44.87431" lon="5.67078">
        <ele>728</ele>
        <time>2000-01-01T11:05:53.000Z</time>
      </trkpt>
      <trkpt lat="44.87436" lon="5.67077">
        <ele>729.5</ele>
        <time>2000-01-01T11:06:03.000Z</time>
      </trkpt>
      <trkpt lat="44.87445" lon="5.67073">
        <ele>729.9</ele>
        <time>2000-01-01T11:06:13.000Z</time>
      </trkpt>
      <trkpt lat="44.8745" lon="5.67072">
        <ele>729</ele>
        <time>2000-01-01T11:06:23.000Z</time>
      </trkpt>
      <trkpt lat="44.87456" lon="5.67069">
        <ele>730.7</ele>
        <time>2000-01-01T11:06:33.000Z</time>
      </trkpt>
      <trkpt lat="44.87459" lon="5.67062">
        <ele>730.3</ele>
        <time>2000-01-01T11:06:43.000Z</time>
      </trkpt>
      <trkpt lat="44.87465" lon="5.67066">
        <ele>730</ele>
        <time>2000-01-01T11:06:53.000Z</time>
      </trkpt>
      <trkpt lat="44.87472" lon="5.67075">
        <ele>733.1</ele>
        <time>2000-01-01T11:07:03.000Z</time>
      </trkpt>
      <trkpt lat="44.87482" lon="5.67085">
        <ele>735</ele>
        <time>2000-01-01T11:07:13.000Z</time>
      </trkpt>
      <trkpt lat="44.87487" lon="5.67096">
        <ele>735.5</ele>
        <time>2000-01-01T11:07:23.000Z</time>
      </trkpt>
      <trkpt lat="44.87546" lon="5.67083">
        <ele>747</ele>
        <time>2000-01-01T11:07:33.000Z</time>
      </trkpt>
      <trkpt lat="44.87574" lon="5.6707">
        <ele>754</ele>
        <time>2000-01-01T11:07:43.000Z</time>
      </trkpt>
      <trkpt lat="44.87595" lon="5.67046">
        <ele>760</ele>
        <time>2000-01-01T11:07:53.000Z</time>
      </trkpt>
      <trkpt lat="44.87612" lon="5.67027">
        <ele>761</ele>
        <time>2000-01-01T11:08:03.000Z</time>
      </trkpt>
      <trkpt lat="44.87604" lon="5.66993">
        <ele>762</ele>
        <time>2000-01-01T11:08:13.000Z</time>
      </trkpt>
      <trkpt lat="44.87607" lon="5.66969">
        <ele>763.3</ele>
        <time>2000-01-01T11:08:23.000Z</time>
      </trkpt>
      <trkpt lat="44.87629" lon="5.66956">
        <ele>766</ele>
        <time>2000-01-01T11:08:33.000Z</time>
      </trkpt>
      <trkpt lat="44.87645" lon="5.66932">
        <ele>770</ele>
        <time>2000-01-01T11:08:43.000Z</time>
      </trkpt>
      <trkpt lat="44.87662" lon="5.66911">
        <ele>772</ele>
        <time>2000-01-01T11:08:53.000Z</time>
      </trkpt>
      <trkpt lat="44.87664" lon="5.66879">
        <ele>774</ele>
        <time>2000-01-01T11:09:03.000Z</time>
      </trkpt>
      <trkpt lat="44.87668" lon="5.66853">
        <ele>780.3</ele>
        <time>2000-01-01T11:09:13.000Z</time>
      </trkpt>
      <trkpt lat="44.87688" lon="5.66862">
        <ele>787</ele>
        <time>2000-01-01T11:09:23.000Z</time>
      </trkpt>
      <trkpt lat="44.87691" lon="5.66856">
        <ele>791.8</ele>
        <time>2000-01-01T11:09:33.000Z</time>
      </trkpt>
      <trkpt lat="44.87696" lon="5.66861">
        <ele>793.6</ele>
        <time>2000-01-01T11:09:43.000Z</time>
      </trkpt>
      <trkpt lat="44.87705" lon="5.66866">
        <ele>795</ele>
        <time>2000-01-01T11:09:53.000Z</time>
      </trkpt>
      <trkpt lat="44.87723" lon="5.6687">
        <ele>801.6</ele>
        <time>2000-01-01T11:10:03.000Z</time>
      </trkpt>
      <trkpt lat="44.87751" lon="5.66879">
        <ele>808</ele>
        <time>2000-01-01T11:10:13.000Z</time>
      </trkpt>
      <trkpt lat="44.87773" lon="5.66887">
        <ele>811</ele>
        <time>2000-01-01T11:10:23.000Z</time>
      </trkpt>
      <trkpt lat="44.87784" lon="5.66892">
        <ele>810.8</ele>
        <time>2000-01-01T11:10:33.000Z</time>
      </trkpt>
      <trkpt lat="44.87793" lon="5.66898">
        <ele>811</ele>
        <time>2000-01-01T11:10:43.000Z</time>
      </trkpt>
      <trkpt lat="44.87802" lon="5.66908">
        <ele>811.8</ele>
        <time>2000-01-01T11:10:53.000Z</time>
      </trkpt>
      <trkpt lat="44.87812" lon="5.66922">
        <ele>811</ele>
        <time>2000-01-01T11:11:03.000Z</time>
      </trkpt>
      <trkpt lat="44.87821" lon="5.66937">
        <ele>810.9</ele>
        <time>2000-01-01T11:11:13.000Z</time>
      </trkpt>
      <trkpt lat="44.87832" lon="5.66962">
        <ele>810</ele>
        <time>2000-01-01T11:11:23.000Z</time>
      </trkpt>
      <trkpt lat="44.8784" lon="5.6698">
        <ele>809.7</ele>
        <time>2000-01-01T11:11:33.000Z</time>
      </trkpt>
      <trkpt lat="44.87844" lon="5.66994">
        <ele>809</ele>
        <time>2000-01-01T11:11:43.000Z</time>
      </trkpt>
      <trkpt lat="44.87848" lon="5.67015">
        <ele>809.6</ele>
        <time>2000-01-01T11:11:53.000Z</time>
      </trkpt>
      <trkpt lat="44.87852" lon="5.67034">
        <ele>809</ele>
        <time>2000-01-01T11:12:03.000Z</time>
      </trkpt>
      <trkpt lat="44.87857" lon="5.67054">
        <ele>810.4</ele>
        <time>2000-01-01T11:12:13.000Z</time>
      </trkpt>
      <trkpt lat="44.87859" lon="5.67061">
        <ele>809</ele>
        <time>2000-01-01T11:12:23.000Z</time>
      </trkpt>
      <trkpt lat="44.87862" lon="5.67064">
        <ele>811.1</ele>
        <time>2000-01-01T11:12:33.000Z</time>
      </trkpt>
      <trkpt lat="44.87867" lon="5.67068">
        <ele>811.4</ele>
        <time>2000-01-01T11:12:43.000Z</time>
      </trkpt>
      <trkpt lat="44.87873" lon="5.67068">
        <ele>811.9</ele>
        <time>2000-01-01T11:12:53.000Z</time>
      </trkpt>
      <trkpt lat="44.87877" lon="5.67067">
        <ele>812</ele>
        <time>2000-01-01T11:13:03.000Z</time>
      </trkpt>
      <trkpt lat="44.87884" lon="5.67063">
        <ele>813</ele>
        <time>2000-01-01T11:13:13.000Z</time>
      </trkpt>
      <trkpt lat="44.87897" lon="5.67054">
        <ele>813</ele>
        <time>2000-01-01T11:13:23.000Z</time>
      </trkpt>
      <trkpt lat="44.87922" lon="5.67037">
        <ele>813</ele>
        <time>2000-01-01T11:13:33.000Z</time>
      </trkpt>
      <trkpt lat="44.87944" lon="5.67023">
        <ele>812</ele>
        <time>2000-01-01T11:13:43.000Z</time>
      </trkpt>
      <trkpt lat="44.8796" lon="5.67012">
        <ele>809.6</ele>
        <time>2000-01-01T11:13:53.000Z</time>
      </trkpt>
      <trkpt lat="44.87966" lon="5.67005">
        <ele>810</ele>
        <time>2000-01-01T11:14:03.000Z</time>
      </trkpt>
      <trkpt lat="44.87972" lon="5.66997">
        <ele>808.1</ele>
        <time>2000-01-01T11:14:13.000Z</time>
      </trkpt>
      <trkpt lat="44.87976" lon="5.66988">
        <ele>807.5</ele>
        <time>2000-01-01T11:14:23.000Z</time>
      </trkpt>
      <trkpt lat="44.8798" lon="5.66979">
        <ele>807</ele>
        <time>2000-01-01T11:14:33.000Z</time>
      </trkpt>
      <trkpt lat="44.87988" lon="5.66956">
        <ele>806.8</ele>
        <time>2000-01-01T11:14:43.000Z</time>
      </trkpt>
      <trkpt lat="44.87994" lon="5.66944">
        <ele>807</ele>
        <time>2000-01-01T11:14:53.000Z</time>
      </trkpt>
      <trkpt lat="44.88001" lon="5.66935">
        <ele>805.8</ele>
        <time>2000-01-01T11:15:03.000Z</time>
      </trkpt>
      <trkpt lat="44.88007" lon="5.66929">
        <ele>805.2</ele>
        <time>2000-01-01T11:15:13.000Z</time>
      </trkpt>
      <trkpt lat="44.88016" lon="5.66923">
        <ele>805</ele>
        <time>2000-01-01T11:15:23.000Z</time>
      </trkpt>
      <trkpt lat="44.88029" lon="5.66917">
        <ele>802.7</ele>
        <time>2000-01-01T11:15:33.000Z</time>
      </trkpt>
      <trkpt lat="44.88043" lon="5.66911">
        <ele>801</ele>
        <time>2000-01-01T11:15:43.000Z</time>
      </trkpt>
      <trkpt lat="44.88052" lon="5.66908">
        <ele>800.5</ele>
        <time>2000-01-01T11:15:53.000Z</time>
      </trkpt>
      <trkpt lat="44.88063" lon="5.66903">
        <ele>801</ele>
        <time>2000-01-01T11:16:03.000Z</time>
      </trkpt>
      <trkpt lat="44.88079" lon="5.66895">
        <ele>800</ele>
        <time>2000-01-01T11:16:13.000Z</time>
      </trkpt>
      <trkpt lat="44.88082" lon="5.66895">
        <ele>801</ele>
        <time>2000-01-01T11:16:23.000Z</time>
      </trkpt>
      <trkpt lat="44.88088" lon="5.66896">
        <ele>798.5</ele>
        <time>2000-01-01T11:16:33.000Z</time>
      </trkpt>
      <trkpt lat="44.88099" lon="5.66895">
        <ele>797.2</ele>
        <time>2000-01-01T11:16:43.000Z</time>
      </trkpt>
      <trkpt lat="44.8811" lon="5.66893">
        <ele>798</ele>
        <time>2000-01-01T11:16:53.000Z</time>
      </trkpt>
      <trkpt lat="44.88122" lon="5.6689">
        <ele>795.2</ele>
        <time>2000-01-01T11:17:03.000Z</time>
      </trkpt>
      <trkpt lat="44.88135" lon="5.66887">
        <ele>796</ele>
        <time>2000-01-01T11:17:13.000Z</time>
      </trkpt>
      <trkpt lat="44.88145" lon="5.66884">
        <ele>792.3</ele>
        <time>2000-01-01T11:17:23.000Z</time>
      </trkpt>
      <trkpt lat="44.88153" lon="5.66881">
        <ele>790.9</ele>
        <time>2000-01-01T11:17:33.000Z</time>
      </trkpt>
      <trkpt lat="44.88161" lon="5.66877">
        <ele>790</ele>
        <time>2000-01-01T11:17:43.000Z</time>
      </trkpt>
      <trkpt lat="44.88165" lon="5.66873">
        <ele>789.3</ele>
        <time>2000-01-01T11:17:53.000Z</time>
      </trkpt>
      <trkpt lat="44.88168" lon="5.6687">
        <ele>788.9</ele>
        <time>2000-01-01T11:18:03.000Z</time>
      </trkpt>
      <trkpt lat="44.8817" lon="5.66866">
        <ele>788.9</ele>
        <time>2000-01-01T11:18:13.000Z</time>
      </trkpt>
      <trkpt lat="44.88187" lon="5.66861">
        <ele>787</ele>
        <time>2000-01-01T11:18:23.000Z</time>
      </trkpt>
      <trkpt lat="44.88207" lon="5.66851">
        <ele>781</ele>
        <time>2000-01-01T11:18:33.000Z</time>
      </trkpt>
      <trkpt lat="44.88224" lon="5.66842">
        <ele>774.1</ele>
        <time>2000-01-01T11:18:43.000Z</time>
      </trkpt>
      <trkpt lat="44.8825" lon="5.66819">
        <ele>774</ele>
        <time>2000-01-01T11:18:53.000Z</time>
      </trkpt>
      <trkpt lat="44.88269" lon="5.66798">
        <ele>773</ele>
        <time>2000-01-01T11:19:03.000Z</time>
      </trkpt>
      <trkpt lat="44.88281" lon="5.66781">
        <ele>767.1</ele>
        <time>2000-01-01T11:19:13.000Z</time>
      </trkpt>
      <trkpt lat="44.88295" lon="5.66747">
        <ele>773</ele>
        <time>2000-01-01T11:19:23.000Z</time>
      </trkpt>
      <trkpt lat="44.88302" lon="5.66729">
        <ele>771.3</ele>
        <time>2000-01-01T11:19:33.000Z</time>
      </trkpt>
      <trkpt lat="44.8831" lon="5.667">
        <ele>772</ele>
        <time>2000-01-01T11:19:43.000Z</time>
      </trkpt>
      <trkpt lat="44.88319" lon="5.66687">
        <ele>776.4</ele>
        <time>2000-01-01T11:19:53.000Z</time>
      </trkpt>
      <trkpt lat="44.88338" lon="5.66696">
        <ele>772</ele>
        <time>2000-01-01T11:20:03.000Z</time>
      </trkpt>
      <trkpt lat="44.88351" lon="5.66711">
        <ele>764.8</ele>
        <time>2000-01-01T11:20:13.000Z</time>
      </trkpt>
      <trkpt lat="44.88363" lon="5.66723">
        <ele>760</ele>
        <time>2000-01-01T11:20:23.000Z</time>
      </trkpt>
      <trkpt lat="44.88378" lon="5.66729">
        <ele>757.3</ele>
        <time>2000-01-01T11:20:33.000Z</time>
      </trkpt>
      <trkpt lat="44.88396" lon="5.66733">
        <ele>757</ele>
        <time>2000-01-01T11:20:43.000Z</time>
      </trkpt>
      <trkpt lat="44.8841" lon="5.6673">
        <ele>754.1</ele>
        <time>2000-01-01T11:20:53.000Z</time>
      </trkpt>
      <trkpt lat="44.88424" lon="5.66724">
        <ele>757</ele>
        <time>2000-01-01T11:21:03.000Z</time>
      </trkpt>
      <trkpt lat="44.88434" lon="5.66719">
        <ele>754.6</ele>
        <time>2000-01-01T11:21:13.000Z</time>
      </trkpt>
      <trkpt lat="44.8844" lon="5.66712">
        <ele>755.9</ele>
        <time>2000-01-01T11:21:23.000Z</time>
      </trkpt>
      <trkpt lat="44.88446" lon="5.66703">
        <ele>758</ele>
        <time>2000-01-01T11:21:33.000Z</time>
      </trkpt>
      <trkpt lat="44.8846" lon="5.66697">
        <ele>761.6</ele>
        <time>2000-01-01T11:21:43.000Z</time>
      </trkpt>
      <trkpt lat="44.88476" lon="5.66705">
        <ele>762</ele>
        <time>2000-01-01T11:21:53.000Z</time>
      </trkpt>
      <trkpt lat="44.88495" lon="5.6672">
        <ele>762</ele>
        <time>2000-01-01T11:22:03.000Z</time>
      </trkpt>
      <trkpt lat="44.88518" lon="5.66744">
        <ele>762</ele>
        <time>2000-01-01T11:22:13.000Z</time>
      </trkpt>
      <trkpt lat="44.88538" lon="5.66755">
        <ele>766</ele>
        <time>2000-01-01T11:22:23.000Z</time>
      </trkpt>
      <trkpt lat="44.88561" lon="5.66762">
        <ele>763</ele>
        <time>2000-01-01T11:22:33.000Z</time>
      </trkpt>
      <trkpt lat="44.88577" lon="5.66762">
        <ele>766.1</ele>
        <time>2000-01-01T11:22:43.000Z</time>
      </trkpt>
      <trkpt lat="44.88601" lon="5.66751">
        <ele>769</ele>
        <time>2000-01-01T11:22:53.000Z</time>
      </trkpt>
      <trkpt lat="44.88607" lon="5.6673">
        <ele>761.4</ele>
        <time>2000-01-01T11:23:03.000Z</time>
      </trkpt>
      <trkpt lat="44.88652" lon="5.66618">
        <ele>775</ele>
        <time>2000-01-01T11:23:13.000Z</time>
      </trkpt>
      <trkpt lat="44.88668" lon="5.66584">
        <ele>783</ele>
        <time>2000-01-01T11:23:23.000Z</time>
      </trkpt>
      <trkpt lat="44.88691" lon="5.66534">
        <ele>783</ele>
        <time>2000-01-01T11:23:33.000Z</time>
      </trkpt>
      <trkpt lat="44.88704" lon="5.66471">
        <ele>785</ele>
        <time>2000-01-01T11:23:43.000Z</time>
      </trkpt>
      <trkpt lat="44.88702" lon="5.66415">
        <ele>788</ele>
        <time>2000-01-01T11:23:53.000Z</time>
      </trkpt>
      <trkpt lat="44.88701" lon="5.66392">
        <ele>786.4</ele>
        <time>2000-01-01T11:24:03.000Z</time>
      </trkpt>
      <trkpt lat="44.88699" lon="5.66364">
        <ele>788</ele>
        <time>2000-01-01T11:24:13.000Z</time>
      </trkpt>
      <trkpt lat="44.8871" lon="5.66338">
        <ele>787</ele>
        <time>2000-01-01T11:24:23.000Z</time>
      </trkpt>
      <trkpt lat="44.88735" lon="5.66314">
        <ele>787</ele>
        <time>2000-01-01T11:24:33.000Z</time>
      </trkpt>
      <trkpt lat="44.88769" lon="5.66305">
        <ele>788</ele>
        <time>2000-01-01T11:24:43.000Z</time>
      </trkpt>
      <trkpt lat="44.88795" lon="5.66278">
        <ele>789</ele>
        <time>2000-01-01T11:24:53.000Z</time>
      </trkpt>
      <trkpt lat="44.88813" lon="5.66232">
        <ele>790</ele>
        <time>2000-01-01T11:25:03.000Z</time>
      </trkpt>
      <trkpt lat="44.88818" lon="5.66197">
        <ele>791</ele>
        <time>2000-01-01T11:25:13.000Z</time>
      </trkpt>
      <trkpt lat="44.88824" lon="5.66158">
        <ele>792</ele>
        <time>2000-01-01T11:25:23.000Z</time>
      </trkpt>
      <trkpt lat="44.88827" lon="5.66123">
        <ele>794</ele>
        <time>2000-01-01T11:25:33.000Z</time>
      </trkpt>
      <trkpt lat="44.88834" lon="5.66107">
        <ele>790.7</ele>
        <time>2000-01-01T11:25:43.000Z</time>
      </trkpt>
      <trkpt lat="44.88857" lon="5.66076">
        <ele>795</ele>
        <time>2000-01-01T11:25:53.000Z</time>
      </trkpt>
      <trkpt lat="44.8887" lon="5.66071">
        <ele>798.5</ele>
        <time>2000-01-01T11:26:03.000Z</time>
      </trkpt>
      <trkpt lat="44.88881" lon="5.66072">
        <ele>801</ele>
        <time>2000-01-01T11:26:13.000Z</time>
      </trkpt>
      <trkpt lat="44.88899" lon="5.66079">
        <ele>806.7</ele>
        <time>2000-01-01T11:26:23.000Z</time>
      </trkpt>
      <trkpt lat="44.88968" lon="5.66119">
        <ele>818</ele>
        <time>2000-01-01T11:26:33.000Z</time>
      </trkpt>
      <trkpt lat="44.88995" lon="5.6613">
        <ele>825</ele>
        <time>2000-01-01T11:26:43.000Z</time>
      </trkpt>
      <trkpt lat="44.89017" lon="5.66134">
        <ele>828</ele>
        <time>2000-01-01T11:26:53.000Z</time>
      </trkpt>
      <trkpt lat="44.89031" lon="5.6613">
        <ele>831</ele>
        <time>2000-01-01T11:27:03.000Z</time>
      </trkpt>
      <trkpt lat="44.89044" lon="5.66118">
        <ele>829</ele>
        <time>2000-01-01T11:27:13.000Z</time>
      </trkpt>
      <trkpt lat="44.89063" lon="5.66142">
        <ele>827</ele>
        <time>2000-01-01T11:27:23.000Z</time>
      </trkpt>
      <trkpt lat="44.89084" lon="5.6617">
        <ele>826</ele>
        <time>2000-01-01T11:27:33.000Z</time>
      </trkpt>
      <trkpt lat="44.8908" lon="5.66198">
        <ele>823</ele>
        <time>2000-01-01T11:27:43.000Z</time>
      </trkpt>
      <trkpt lat="44.89101" lon="5.66204">
        <ele>821</ele>
        <time>2000-01-01T11:27:53.000Z</time>
      </trkpt>
      <trkpt lat="44.89105" lon="5.66203">
        <ele>821.2</ele>
        <time>2000-01-01T11:28:03.000Z</time>
      </trkpt>
      <trkpt lat="44.89107" lon="5.6621">
        <ele>820.4</ele>
        <time>2000-01-01T11:28:13.000Z</time>
      </trkpt>
      <trkpt lat="44.89112" lon="5.66215">
        <ele>819.7</ele>
        <time>2000-01-01T11:28:23.000Z</time>
      </trkpt>
      <trkpt lat="44.89117" lon="5.66219">
        <ele>820</ele>
        <time>2000-01-01T11:28:33.000Z</time>
      </trkpt>
      <trkpt lat="44.89119" lon="5.66222">
        <ele>818.2</ele>
        <time>2000-01-01T11:28:43.000Z</time>
      </trkpt>
      <trkpt lat="44.89135" lon="5.66197">
        <ele>820</ele>
        <time>2000-01-01T11:28:53.000Z</time>
      </trkpt>
      <trkpt lat="44.89151" lon="5.66167">
        <ele>820</ele>
        <time>2000-01-01T11:29:03.000Z</time>
      </trkpt>
      <trkpt lat="44.89165" lon="5.6614">
        <ele>819</ele>
        <time>2000-01-01T11:29:13.000Z</time>
      </trkpt>
      <trkpt lat="44.89179" lon="5.66112">
        <ele>819</ele>
        <time>2000-01-01T11:29:23.000Z</time>
      </trkpt>
      <trkpt lat="44.89197" lon="5.66071">
        <ele>817</ele>
        <time>2000-01-01T11:29:33.000Z</time>
      </trkpt>
      <trkpt lat="44.89208" lon="5.66052">
        <ele>812.9</ele>
        <time>2000-01-01T11:29:43.000Z</time>
      </trkpt>
      <trkpt lat="44.89217" lon="5.66042">
        <ele>813</ele>
        <time>2000-01-01T11:29:53.000Z</time>
      </trkpt>
      <trkpt lat="44.89222" lon="5.66035">
        <ele>809.6</ele>
        <time>2000-01-01T11:30:03.000Z</time>
      </trkpt>
      <trkpt lat="44.89226" lon="5.66023">
        <ele>808.8</ele>
        <time>2000-01-01T11:30:13.000Z</time>
      </trkpt>
      <trkpt lat="44.89228" lon="5.66011">
        <ele>811</ele>
        <time>2000-01-01T11:30:23.000Z</time>
      </trkpt>
      <trkpt lat="44.89232" lon="5.66001">
        <ele>807.7</ele>
        <time>2000-01-01T11:30:33.000Z</time>
      </trkpt>
      <trkpt lat="44.89236" lon="5.65991">
        <ele>806.5</ele>
        <time>2000-01-01T11:30:43.000Z</time>
      </trkpt>
      <trkpt lat="44.89239" lon="5.65983">
        <ele>809</ele>
        <time>2000-01-01T11:30:53.000Z</time>
      </trkpt>
      <trkpt lat="44.8924" lon="5.65954">
        <ele>809</ele>
        <time>2000-01-01T11:31:03.000Z</time>
      </trkpt>
      <trkpt lat="44.89235" lon="5.65891">
        <ele>809</ele>
        <time>2000-01-01T11:31:13.000Z</time>
      </trkpt>
      <trkpt lat="44.89235" lon="5.65863">
        <ele>811</ele>
        <time>2000-01-01T11:31:23.000Z</time>
      </trkpt>
      <trkpt lat="44.89236" lon="5.65848">
        <ele>811.9</ele>
        <time>2000-01-01T11:31:33.000Z</time>
      </trkpt>
      <trkpt lat="44.89239" lon="5.65841">
        <ele>812.5</ele>
        <time>2000-01-01T11:31:43.000Z</time>
      </trkpt>
      <trkpt lat="44.89242" lon="5.65837">
        <ele>810</ele>
        <time>2000-01-01T11:31:53.000Z</time>
      </trkpt>
      <trkpt lat="44.89248" lon="5.65834">
        <ele>812.2</ele>
        <time>2000-01-01T11:32:03.000Z</time>
      </trkpt>
      <trkpt lat="44.89275" lon="5.65844">
        <ele>809</ele>
        <time>2000-01-01T11:32:13.000Z</time>
      </trkpt>
      <trkpt lat="44.89305" lon="5.6586">
        <ele>809</ele>
        <time>2000-01-01T11:32:23.000Z</time>
      </trkpt>
      <trkpt lat="44.89317" lon="5.65864">
        <ele>810.5</ele>
        <time>2000-01-01T11:32:33.000Z</time>
      </trkpt>
      <trkpt lat="44.89322" lon="5.65866">
        <ele>810.9</ele>
        <time>2000-01-01T11:32:43.000Z</time>
      </trkpt>
      <trkpt lat="44.89334" lon="5.65865">
        <ele>815</ele>
        <time>2000-01-01T11:32:53.000Z</time>
      </trkpt>
      <trkpt lat="44.89345" lon="5.65868">
        <ele>815</ele>
        <time>2000-01-01T11:33:03.000Z</time>
      </trkpt>
      <trkpt lat="44.8935" lon="5.65872">
        <ele>814.7</ele>
        <time>2000-01-01T11:33:13.000Z</time>
      </trkpt>
      <trkpt lat="44.89355" lon="5.65876">
        <ele>815</ele>
        <time>2000-01-01T11:33:23.000Z</time>
      </trkpt>
      <trkpt lat="44.8936" lon="5.65877">
        <ele>815</ele>
        <time>2000-01-01T11:33:33.000Z</time>
      </trkpt>
      <trkpt lat="44.89369" lon="5.65876">
        <ele>817.5</ele>
        <time>2000-01-01T11:33:43.000Z</time>
      </trkpt>
      <trkpt lat="44.89374" lon="5.65879">
        <ele>817.6</ele>
        <time>2000-01-01T11:33:53.000Z</time>
      </trkpt>
      <trkpt lat="44.89378" lon="5.65884">
        <ele>814</ele>
        <time>2000-01-01T11:34:03.000Z</time>
      </trkpt>
      <trkpt lat="44.89382" lon="5.65891">
        <ele>815.6</ele>
        <time>2000-01-01T11:34:13.000Z</time>
      </trkpt>
      <trkpt lat="44.89386" lon="5.65896">
        <ele>814.9</ele>
        <time>2000-01-01T11:34:23.000Z</time>
      </trkpt>
      <trkpt lat="44.89392" lon="5.65903">
        <ele>814</ele>
        <time>2000-01-01T11:34:33.000Z</time>
      </trkpt>
      <trkpt lat="44.89399" lon="5.6591">
        <ele>814.7</ele>
        <time>2000-01-01T11:34:43.000Z</time>
      </trkpt>
      <trkpt lat="44.89406" lon="5.65916">
        <ele>815.4</ele>
        <time>2000-01-01T11:34:53.000Z</time>
      </trkpt>
      <trkpt lat="44.89412" lon="5.65921">
        <ele>816</ele>
        <time>2000-01-01T11:35:03.000Z</time>
      </trkpt>
      <trkpt lat="44.89416" lon="5.65924">
        <ele>816.4</ele>
        <time>2000-01-01T11:35:13.000Z</time>
      </trkpt>
      <trkpt lat="44.89427" lon="5.6593">
        <ele>817.7</ele>
        <time>2000-01-01T11:35:23.000Z</time>
      </trkpt>
      <trkpt lat="44.89438" lon="5.65941">
        <ele>816</ele>
        <time>2000-01-01T11:35:33.000Z</time>
      </trkpt>
      <trkpt lat="44.89457" lon="5.65957">
        <ele>818</ele>
        <time>2000-01-01T11:35:43.000Z</time>
      </trkpt>
      <trkpt lat="44.89477" lon="5.65969">
        <ele>819</ele>
        <time>2000-01-01T11:35:53.000Z</time>
      </trkpt>
      <trkpt lat="44.89502" lon="5.65982">
        <ele>819</ele>
        <time>2000-01-01T11:36:03.000Z</time>
      </trkpt>
      <trkpt lat="44.89526" lon="5.6599">
        <ele>818</ele>
        <time>2000-01-01T11:36:13.000Z</time>
      </trkpt>
      <trkpt lat="44.89539" lon="5.65996">
        <ele>817.1</ele>
        <time>2000-01-01T11:36:23.000Z</time>
      </trkpt>
      <trkpt lat="44.89552" lon="5.65993">
        <ele>818</ele>
        <time>2000-01-01T11:36:33.000Z</time>
      </trkpt>
      <trkpt lat="44.89576" lon="5.65981">
        <ele>819</ele>
        <time>2000-01-01T11:36:43.000Z</time>
      </trkpt>
      <trkpt lat="44.89598" lon="5.65968">
        <ele>819</ele>
        <time>2000-01-01T11:36:53.000Z</time>
      </trkpt>
      <trkpt lat="44.89621" lon="5.65953">
        <ele>819</ele>
        <time>2000-01-01T11:37:03.000Z</time>
      </trkpt>
      <trkpt lat="44.89656" lon="5.65931">
        <ele>822</ele>
        <time>2000-01-01T11:37:13.000Z</time>
      </trkpt>
      <trkpt lat="44.89672" lon="5.65919">
        <ele>828</ele>
        <time>2000-01-01T11:37:23.000Z</time>
      </trkpt>
      <trkpt lat="44.89682" lon="5.65914">
        <ele>825</ele>
        <time>2000-01-01T11:37:33.000Z</time>
      </trkpt>
      <trkpt lat="44.89687" lon="5.65914">
        <ele>831.7</ele>
        <time>2000-01-01T11:37:43.000Z</time>
      </trkpt>
      <trkpt lat="44.89689" lon="5.65916">
        <ele>831.4</ele>
        <time>2000-01-01T11:37:53.000Z</time>
      </trkpt>
      <trkpt lat="44.89693" lon="5.65924">
        <ele>829.7</ele>
        <time>2000-01-01T11:38:03.000Z</time>
      </trkpt>
      <trkpt lat="44.89695" lon="5.65929">
        <ele>828.6</ele>
        <time>2000-01-01T11:38:13.000Z</time>
      </trkpt>
      <trkpt lat="44.89702" lon="5.65939">
        <ele>828</ele>
        <time>2000-01-01T11:38:23.000Z</time>
      </trkpt>
      <trkpt lat="44.89714" lon="5.65951">
        <ele>827.2</ele>
        <time>2000-01-01T11:38:33.000Z</time>
      </trkpt>
      <trkpt lat="44.89731" lon="5.65957">
        <ele>831</ele>
        <time>2000-01-01T11:38:43.000Z</time>
      </trkpt>
      <trkpt lat="44.8975" lon="5.65959">
        <ele>832</ele>
        <time>2000-01-01T11:38:53.000Z</time>
      </trkpt>
      <trkpt lat="44.89754" lon="5.65961">
        <ele>835.9</ele>
        <time>2000-01-01T11:39:03.000Z</time>
      </trkpt>
      <trkpt lat="44.8976" lon="5.65967">
        <ele>836.9</ele>
        <time>2000-01-01T11:39:13.000Z</time>
      </trkpt>
      <trkpt lat="44.89763" lon="5.65975">
        <ele>837.1</ele>
        <time>2000-01-01T11:39:23.000Z</time>
      </trkpt>
      <trkpt lat="44.89764" lon="5.65988">
        <ele>832</ele>
        <time>2000-01-01T11:39:33.000Z</time>
      </trkpt>
      <trkpt lat="44.89765" lon="5.6602">
        <ele>833</ele>
        <time>2000-01-01T11:39:43.000Z</time>
      </trkpt>
      <trkpt lat="44.89766" lon="5.6605">
        <ele>834</ele>
        <time>2000-01-01T11:39:53.000Z</time>
      </trkpt>
      <trkpt lat="44.89766" lon="5.66058">
        <ele>840.3</ele>
        <time>2000-01-01T11:40:03.000Z</time>
      </trkpt>
      <trkpt lat="44.89765" lon="5.66068">
        <ele>840.7</ele>
        <time>2000-01-01T11:40:13.000Z</time>
      </trkpt>
      <trkpt lat="44.89762" lon="5.66081">
        <ele>835</ele>
        <time>2000-01-01T11:40:23.000Z</time>
      </trkpt>
      <trkpt lat="44.89759" lon="5.66094">
        <ele>840.6</ele>
        <time>2000-01-01T11:40:33.000Z</time>
      </trkpt>
      <trkpt lat="44.89757" lon="5.6611">
        <ele>837</ele>
        <time>2000-01-01T11:40:43.000Z</time>
      </trkpt>
      <trkpt lat="44.89752" lon="5.66134">
        <ele>843</ele>
        <time>2000-01-01T11:40:53.000Z</time>
      </trkpt>
      <trkpt lat="44.89748" lon="5.66156">
        <ele>841</ele>
        <time>2000-01-01T11:41:03.000Z</time>
      </trkpt>
      <trkpt lat="44.89748" lon="5.66162">
        <ele>844.7</ele>
        <time>2000-01-01T11:41:13.000Z</time>
      </trkpt>
      <trkpt lat="44.89748" lon="5.66174">
        <ele>845.2</ele>
        <time>2000-01-01T11:41:23.000Z</time>
      </trkpt>
      <trkpt lat="44.89749" lon="5.66182">
        <ele>843</ele>
        <time>2000-01-01T11:41:33.000Z</time>
      </trkpt>
      <trkpt lat="44.89751" lon="5.66188">
        <ele>846.3</ele>
        <time>2000-01-01T11:41:43.000Z</time>
      </trkpt>
      <trkpt lat="44.89751" lon="5.66199">
        <ele>845.9</ele>
        <time>2000-01-01T11:41:53.000Z</time>
      </trkpt>
      <trkpt lat="44.89752" lon="5.66208">
        <ele>845.5</ele>
        <time>2000-01-01T11:42:03.000Z</time>
      </trkpt>
      <trkpt lat="44.89756" lon="5.66212">
        <ele>845</ele>
        <time>2000-01-01T11:42:13.000Z</time>
      </trkpt>
      <trkpt lat="44.8976" lon="5.66215">
        <ele>846.8</ele>
        <time>2000-01-01T11:42:23.000Z</time>
      </trkpt>
      <trkpt lat="44.89765" lon="5.66219">
        <ele>847.5</ele>
        <time>2000-01-01T11:42:33.000Z</time>
      </trkpt>
      <trkpt lat="44.89767" lon="5.6622">
        <ele>847.9</ele>
        <time>2000-01-01T11:42:43.000Z</time>
      </trkpt>
      <trkpt lat="44.89772" lon="5.66247">
        <ele>843</ele>
        <time>2000-01-01T11:42:53.000Z</time>
      </trkpt>
      <trkpt lat="44.89782" lon="5.66297">
        <ele>842</ele>
        <time>2000-01-01T11:43:03.000Z</time>
      </trkpt>
      <trkpt lat="44.89784" lon="5.66319">
        <ele>838.8</ele>
        <time>2000-01-01T11:43:13.000Z</time>
      </trkpt>
      <trkpt lat="44.89774" lon="5.66347">
        <ele>839</ele>
        <time>2000-01-01T11:43:23.000Z</time>
      </trkpt>
      <trkpt lat="44.89762" lon="5.66384">
        <ele>837</ele>
        <time>2000-01-01T11:43:33.000Z</time>
      </trkpt>
      <trkpt lat="44.89754" lon="5.66396">
        <ele>836.6</ele>
        <time>2000-01-01T11:43:43.000Z</time>
      </trkpt>
      <trkpt lat="44.89752" lon="5.66406">
        <ele>836.8</ele>
        <time>2000-01-01T11:43:53.000Z</time>
      </trkpt>
      <trkpt lat="44.8975" lon="5.66435">
        <ele>837</ele>
        <time>2000-01-01T11:44:03.000Z</time>
      </trkpt>
      <trkpt lat="44.8975" lon="5.66471">
        <ele>837</ele>
        <time>2000-01-01T11:44:13.000Z</time>
      </trkpt>
      <trkpt lat="44.89748" lon="5.66477">
        <ele>836.9</ele>
        <time>2000-01-01T11:44:23.000Z</time>
      </trkpt>
      <trkpt lat="44.89744" lon="5.6648">
        <ele>837</ele>
        <time>2000-01-01T11:44:33.000Z</time>
      </trkpt>
      <trkpt lat="44.89734" lon="5.66489">
        <ele>836</ele>
        <time>2000-01-01T11:44:43.000Z</time>
      </trkpt>
      <trkpt lat="44.89732" lon="5.66491">
        <ele>837.4</ele>
        <time>2000-01-01T11:44:53.000Z</time>
      </trkpt>
      <trkpt lat="44.89729" lon="5.66498">
        <ele>837.5</ele>
        <time>2000-01-01T11:45:03.000Z</time>
      </trkpt>
      <trkpt lat="44.89727" lon="5.66511">
        <ele>836.4</ele>
        <time>2000-01-01T11:45:13.000Z</time>
      </trkpt>
      <trkpt lat="44.8973" lon="5.66528">
        <ele>836</ele>
        <time>2000-01-01T11:45:23.000Z</time>
      </trkpt>
      <trkpt lat="44.89728" lon="5.66538">
        <ele>830.7</ele>
        <time>2000-01-01T11:45:33.000Z</time>
      </trkpt>
      <trkpt lat="44.89733" lon="5.6655">
        <ele>825.8</ele>
        <time>2000-01-01T11:45:43.000Z</time>
      </trkpt>
      <trkpt lat="44.89742" lon="5.66548">
        <ele>834</ele>
        <time>2000-01-01T11:45:53.000Z</time>
      </trkpt>
      <trkpt lat="44.89758" lon="5.66529">
        <ele>833</ele>
        <time>2000-01-01T11:46:03.000Z</time>
      </trkpt>
      <trkpt lat="44.89764" lon="5.66521">
        <ele>828.2</ele>
        <time>2000-01-01T11:46:13.000Z</time>
      </trkpt>
      <trkpt lat="44.89771" lon="5.66499">
        <ele>833</ele>
        <time>2000-01-01T11:46:23.000Z</time>
      </trkpt>
      <trkpt lat="44.89777" lon="5.66477">
        <ele>829.9</ele>
        <time>2000-01-01T11:46:33.000Z</time>
      </trkpt>
      <trkpt lat="44.89777" lon="5.66455">
        <ele>833</ele>
        <time>2000-01-01T11:46:43.000Z</time>
      </trkpt>
      <trkpt lat="44.89777" lon="5.66439">
        <ele>831.5</ele>
        <time>2000-01-01T11:46:53.000Z</time>
      </trkpt>
      <trkpt lat="44.89789" lon="5.66423">
        <ele>834</ele>
        <time>2000-01-01T11:47:03.000Z</time>
      </trkpt>
      <trkpt lat="44.89786" lon="5.66406">
        <ele>830.6</ele>
        <time>2000-01-01T11:47:13.000Z</time>
      </trkpt>
      <trkpt lat="44.89786" lon="5.66379">
        <ele>835</ele>
        <time>2000-01-01T11:47:23.000Z</time>
      </trkpt>
      <trkpt lat="44.89786" lon="5.66358">
        <ele>834.6</ele>
        <time>2000-01-01T11:47:33.000Z</time>
      </trkpt>
      <trkpt lat="44.8979" lon="5.66337">
        <ele>833</ele>
        <time>2000-01-01T11:47:43.000Z</time>
      </trkpt>
      <trkpt lat="44.898" lon="5.66322">
        <ele>835.2</ele>
        <time>2000-01-01T11:47:53.000Z</time>
      </trkpt>
      <trkpt lat="44.89813" lon="5.66322">
        <ele>832</ele>
        <time>2000-01-01T11:48:03.000Z</time>
      </trkpt>
      <trkpt lat="44.89839" lon="5.66331">
        <ele>825</ele>
        <time>2000-01-01T11:48:13.000Z</time>
      </trkpt>
      <trkpt lat="44.89874" lon="5.66343">
        <ele>824</ele>
        <time>2000-01-01T11:48:23.000Z</time>
      </trkpt>
      <trkpt lat="44.89897" lon="5.66373">
        <ele>818</ele>
        <time>2000-01-01T11:48:33.000Z</time>
      </trkpt>
      <trkpt lat="44.89935" lon="5.66407">
        <ele>809</ele>
        <time>2000-01-01T11:48:43.000Z</time>
      </trkpt>
      <trkpt lat="44.89959" lon="5.66418">
        <ele>803</ele>
        <time>2000-01-01T11:48:53.000Z</time>
      </trkpt>
      <trkpt lat="44.89988" lon="5.66431">
        <ele>794</ele>
        <time>2000-01-01T11:49:03.000Z</time>
      </trkpt>
      <trkpt lat="44.9002" lon="5.66448">
        <ele>788</ele>
        <time>2000-01-01T11:49:13.000Z</time>
      </trkpt>
      <trkpt lat="44.90046" lon="5.66456">
        <ele>783</ele>
        <time>2000-01-01T11:49:23.000Z</time>
      </trkpt>
      <trkpt lat="44.9008" lon="5.66465">
        <ele>776</ele>
        <time>2000-01-01T11:49:33.000Z</time>
      </trkpt>
      <trkpt lat="44.90106" lon="5.66471">
        <ele>766</ele>
        <time>2000-01-01T11:49:43.000Z</time>
      </trkpt>
      <trkpt lat="44.90138" lon="5.66478">
        <ele>757</ele>
        <time>2000-01-01T11:49:53.000Z</time>
      </trkpt>
      <trkpt lat="44.90172" lon="5.66478">
        <ele>742</ele>
        <time>2000-01-01T11:50:03.000Z</time>
      </trkpt>
      <trkpt lat="44.90205" lon="5.66482">
        <ele>726</ele>
        <time>2000-01-01T11:50:13.000Z</time>
      </trkpt>
      <trkpt lat="44.90205" lon="5.6648">
        <ele>724.3</ele>
        <time>2000-01-01T11:50:23.000Z</time>
      </trkpt>
      <trkpt lat="44.90256" lon="5.66468">
        <ele>715</ele>
        <time>2000-01-01T11:50:33.000Z</time>
      </trkpt>
      <trkpt lat="44.90276" lon="5.66482">
        <ele>707</ele>
        <time>2000-01-01T11:50:43.000Z</time>
      </trkpt>
      <trkpt lat="44.90303" lon="5.66528">
        <ele>704</ele>
        <time>2000-01-01T11:50:53.000Z</time>
      </trkpt>
      <trkpt lat="44.90332" lon="5.66558">
        <ele>699</ele>
        <time>2000-01-01T11:51:03.000Z</time>
      </trkpt>
      <trkpt lat="44.90338" lon="5.6656">
        <ele>694.8</ele>
        <time>2000-01-01T11:51:13.000Z</time>
      </trkpt>
      <trkpt lat="44.90375" lon="5.66573">
        <ele>695</ele>
        <time>2000-01-01T11:51:23.000Z</time>
      </trkpt>
      <trkpt lat="44.90416" lon="5.66569">
        <ele>691</ele>
        <time>2000-01-01T11:51:33.000Z</time>
      </trkpt>
      <trkpt lat="44.90448" lon="5.6657">
        <ele>684</ele>
        <time>2000-01-01T11:51:43.000Z</time>
      </trkpt>
      <trkpt lat="44.9048" lon="5.66591">
        <ele>670</ele>
        <time>2000-01-01T11:51:53.000Z</time>
      </trkpt>
      <trkpt lat="44.90504" lon="5.66601">
        <ele>663</ele>
        <time>2000-01-01T11:52:03.000Z</time>
      </trkpt>
      <trkpt lat="44.90534" lon="5.66613">
        <ele>658</ele>
        <time>2000-01-01T11:52:13.000Z</time>
      </trkpt>
      <trkpt lat="44.90564" lon="5.66625">
        <ele>650</ele>
        <time>2000-01-01T11:52:23.000Z</time>
      </trkpt>
      <trkpt lat="44.90591" lon="5.66635">
        <ele>643</ele>
        <time>2000-01-01T11:52:33.000Z</time>
      </trkpt>
      <trkpt lat="44.90632" lon="5.66643">
        <ele>629</ele>
        <time>2000-01-01T11:52:43.000Z</time>
      </trkpt>
      <trkpt lat="44.90647" lon="5.6666">
        <ele>618</ele>
        <time>2000-01-01T11:52:53.000Z</time>
      </trkpt>
      <trkpt lat="44.90669" lon="5.66675">
        <ele>609</ele>
        <time>2000-01-01T11:53:03.000Z</time>
      </trkpt>
      <trkpt lat="44.90692" lon="5.66691">
        <ele>597</ele>
        <time>2000-01-01T11:53:13.000Z</time>
      </trkpt>
      <trkpt lat="44.90733" lon="5.66706">
        <ele>591</ele>
        <time>2000-01-01T11:53:23.000Z</time>
      </trkpt>
      <trkpt lat="44.90759" lon="5.66709">
        <ele>590</ele>
        <time>2000-01-01T11:53:33.000Z</time>
      </trkpt>
      <trkpt lat="44.90792" lon="5.66712">
        <ele>582</ele>
        <time>2000-01-01T11:53:43.000Z</time>
      </trkpt>
      <trkpt lat="44.90834" lon="5.66701">
        <ele>581</ele>
        <time>2000-01-01T11:53:53.000Z</time>
      </trkpt>
      <trkpt lat="44.90839" lon="5.66703">
        <ele>579.9</ele>
        <time>2000-01-01T11:54:03.000Z</time>
      </trkpt>
      <trkpt lat="44.90845" lon="5.66703">
        <ele>579.6</ele>
        <time>2000-01-01T11:54:13.000Z</time>
      </trkpt>
      <trkpt lat="44.90852" lon="5.66704">
        <ele>579</ele>
        <time>2000-01-01T11:54:23.000Z</time>
      </trkpt>
      <trkpt lat="44.9086" lon="5.66705">
        <ele>580</ele>
        <time>2000-01-01T11:54:33.000Z</time>
      </trkpt>
      <trkpt lat="44.90877" lon="5.66708">
        <ele>576.7</ele>
        <time>2000-01-01T11:54:43.000Z</time>
      </trkpt>
      <trkpt lat="44.90889" lon="5.66712">
        <ele>575</ele>
        <time>2000-01-01T11:54:53.000Z</time>
      </trkpt>
      <trkpt lat="44.909" lon="5.66717">
        <ele>573.7</ele>
        <time>2000-01-01T11:55:03.000Z</time>
      </trkpt>
      <trkpt lat="44.90908" lon="5.66719">
        <ele>575</ele>
        <time>2000-01-01T11:55:13.000Z</time>
      </trkpt>
      <trkpt lat="44.90915" lon="5.66714">
        <ele>573.8</ele>
        <time>2000-01-01T11:55:23.000Z</time>
      </trkpt>
      <trkpt lat="44.90934" lon="5.66701">
        <ele>576</ele>
        <time>2000-01-01T11:55:33.000Z</time>
      </trkpt>
      <trkpt lat="44.90955" lon="5.66689">
        <ele>578</ele>
        <time>2000-01-01T11:55:43.000Z</time>
      </trkpt>
      <trkpt lat="44.90966" lon="5.66683">
        <ele>577.3</ele>
        <time>2000-01-01T11:55:53.000Z</time>
      </trkpt>
      <trkpt lat="44.9099" lon="5.66669">
        <ele>580</ele>
        <time>2000-01-01T11:56:03.000Z</time>
      </trkpt>
      <trkpt lat="44.91005" lon="5.66658">
        <ele>579.8</ele>
        <time>2000-01-01T11:56:13.000Z</time>
      </trkpt>
      <trkpt lat="44.91029" lon="5.66639">
        <ele>580</ele>
        <time>2000-01-01T11:56:23.000Z</time>
      </trkpt>
      <trkpt lat="44.91046" lon="5.66625">
        <ele>580</ele>
        <time>2000-01-01T11:56:33.000Z</time>
      </trkpt>
      <trkpt lat="44.9105" lon="5.66622">
        <ele>579.7</ele>
        <time>2000-01-01T11:56:43.000Z</time>
      </trkpt>
      <trkpt lat="44.91054" lon="5.66621">
        <ele>579.4</ele>
        <time>2000-01-01T11:56:53.000Z</time>
      </trkpt>
      <trkpt lat="44.91061" lon="5.66621">
        <ele>578.6</ele>
        <time>2000-01-01T11:57:03.000Z</time>
      </trkpt>
      <trkpt lat="44.91074" lon="5.66618">
        <ele>579</ele>
        <time>2000-01-01T11:57:13.000Z</time>
      </trkpt>
      <trkpt lat="44.91096" lon="5.66612">
        <ele>577</ele>
        <time>2000-01-01T11:57:23.000Z</time>
      </trkpt>
      <trkpt lat="44.91113" lon="5.66608">
        <ele>575</ele>
        <time>2000-01-01T11:57:33.000Z</time>
      </trkpt>
      <trkpt lat="44.91125" lon="5.66606">
        <ele>575</ele>
        <time>2000-01-01T11:57:43.000Z</time>
      </trkpt>
      <trkpt lat="44.91137" lon="5.66605">
        <ele>571.5</ele>
        <time>2000-01-01T11:57:53.000Z</time>
      </trkpt>
      <trkpt lat="44.91139" lon="5.66599">
        <ele>571.4</ele>
        <time>2000-01-01T11:58:03.000Z</time>
      </trkpt>
      <trkpt lat="44.91141" lon="5.66588">
        <ele>572</ele>
        <time>2000-01-01T11:58:13.000Z</time>
      </trkpt>
      <trkpt lat="44.91143" lon="5.66577">
        <ele>571.4</ele>
        <time>2000-01-01T11:58:23.000Z</time>
      </trkpt>
      <trkpt lat="44.91143" lon="5.66574">
        <ele>571.6</ele>
        <time>2000-01-01T11:58:33.000Z</time>
      </trkpt>
      <trkpt lat="44.91151" lon="5.66577">
        <ele>569.3</ele>
        <time>2000-01-01T11:58:43.000Z</time>
      </trkpt>
      <trkpt lat="44.91156" lon="5.66581">
        <ele>569</ele>
        <time>2000-01-01T11:58:53.000Z</time>
      </trkpt>
      <trkpt lat="44.91161" lon="5.66587">
        <ele>566.4</ele>
        <time>2000-01-01T11:59:03.000Z</time>
      </trkpt>
      <trkpt lat="44.91175" lon="5.66619">
        <ele>563</ele>
        <time>2000-01-01T11:59:13.000Z</time>
      </trkpt>
      <trkpt lat="44.91178" lon="5.66625">
        <ele>562.9</ele>
        <time>2000-01-01T11:59:23.000Z</time>
      </trkpt>
      <trkpt lat="44.91189" lon="5.66657">
        <ele>562</ele>
        <time>2000-01-01T11:59:33.000Z</time>
      </trkpt>
      <trkpt lat="44.91199" lon="5.66679">
        <ele>557.4</ele>
        <time>2000-01-01T11:59:43.000Z</time>
      </trkpt>
      <trkpt lat="44.91205" lon="5.66692">
        <ele>557</ele>
        <time>2000-01-01T11:59:53.000Z</time>
      </trkpt>
      <trkpt lat="44.91209" lon="5.66692">
        <ele>555</ele>
        <time>2000-01-01T12:00:03.000Z</time>
      </trkpt>
      <trkpt lat="44.91221" lon="5.66702">
        <ele>552.3</ele>
        <time>2000-01-01T12:00:13.000Z</time>
      </trkpt>
      <trkpt lat="44.91225" lon="5.66711">
        <ele>551</ele>
        <time>2000-01-01T12:00:23.000Z</time>
      </trkpt>
      <trkpt lat="44.91229" lon="5.66721">
        <ele>549.1</ele>
        <time>2000-01-01T12:00:33.000Z</time>
      </trkpt>
      <trkpt lat="44.9123" lon="5.6673">
        <ele>547.9</ele>
        <time>2000-01-01T12:00:43.000Z</time>
      </trkpt>
      <trkpt lat="44.91237" lon="5.66732">
        <ele>548</ele>
        <time>2000-01-01T12:00:53.000Z</time>
      </trkpt>
      <trkpt lat="44.91243" lon="5.66735">
        <ele>545.9</ele>
        <time>2000-01-01T12:01:03.000Z</time>
      </trkpt>
      <trkpt lat="44.91257" lon="5.66746">
        <ele>544</ele>
        <time>2000-01-01T12:01:13.000Z</time>
      </trkpt>
      <trkpt lat="44.91266" lon="5.66756">
        <ele>539.7</ele>
        <time>2000-01-01T12:01:23.000Z</time>
      </trkpt>
      <trkpt lat="44.91272" lon="5.66761">
        <ele>538.1</ele>
        <time>2000-01-01T12:01:33.000Z</time>
      </trkpt>
      <trkpt lat="44.91277" lon="5.66763">
        <ele>540</ele>
        <time>2000-01-01T12:01:43.000Z</time>
      </trkpt>
      <trkpt lat="44.91281" lon="5.66763">
        <ele>536.2</ele>
        <time>2000-01-01T12:01:53.000Z</time>
      </trkpt>
      <trkpt lat="44.91284" lon="5.66762">
        <ele>535.4</ele>
        <time>2000-01-01T12:02:03.000Z</time>
      </trkpt>
      <trkpt lat="44.91287" lon="5.6676">
        <ele>534.6</ele>
        <time>2000-01-01T12:02:13.000Z</time>
      </trkpt>
      <trkpt lat="44.91331" lon="5.66805">
        <ele>524</ele>
        <time>2000-01-01T12:02:23.000Z</time>
      </trkpt>
      <trkpt lat="44.91364" lon="5.66824">
        <ele>512</ele>
        <time>2000-01-01T12:02:33.000Z</time>
      </trkpt>
      <trkpt lat="44.91372" lon="5.6686">
        <ele>507</ele>
        <time>2000-01-01T12:02:43.000Z</time>
      </trkpt>
      <trkpt lat="44.91382" lon="5.6688">
        <ele>504.1</ele>
        <time>2000-01-01T12:02:53.000Z</time>
      </trkpt>
      <trkpt lat="44.91384" lon="5.66914">
        <ele>505</ele>
        <time>2000-01-01T12:03:03.000Z</time>
      </trkpt>
      <trkpt lat="44.91402" lon="5.66931">
        <ele>497</ele>
        <time>2000-01-01T12:03:13.000Z</time>
      </trkpt>
      <trkpt lat="44.914" lon="5.66966">
        <ele>495</ele>
        <time>2000-01-01T12:03:23.000Z</time>
      </trkpt>
      <trkpt lat="44.91379" lon="5.66972">
        <ele>493</ele>
        <time>2000-01-01T12:03:33.000Z</time>
      </trkpt>
      <trkpt lat="44.9138" lon="5.66974">
        <ele>490.9</ele>
        <time>2000-01-01T12:03:43.000Z</time>
      </trkpt>
      <trkpt lat="44.91377" lon="5.66976">
        <ele>490.9</ele>
        <time>2000-01-01T12:03:53.000Z</time>
      </trkpt>
      <trkpt lat="44.91368" lon="5.66979">
        <ele>491.5</ele>
        <time>2000-01-01T12:04:03.000Z</time>
      </trkpt>
      <trkpt lat="44.91355" lon="5.66983">
        <ele>493</ele>
        <time>2000-01-01T12:04:13.000Z</time>
      </trkpt>
      <trkpt lat="44.91346" lon="5.66985">
        <ele>492.9</ele>
        <time>2000-01-01T12:04:23.000Z</time>
      </trkpt>
      <trkpt lat="44.91334" lon="5.66988">
        <ele>493</ele>
        <time>2000-01-01T12:04:33.000Z</time>
      </trkpt>
      <trkpt lat="44.91319" lon="5.66992">
        <ele>493.2</ele>
        <time>2000-01-01T12:04:43.000Z</time>
      </trkpt>
      <trkpt lat="44.91305" lon="5.66996">
        <ele>494</ele>
        <time>2000-01-01T12:04:53.000Z</time>
      </trkpt>
      <trkpt lat="44.91293" lon="5.66998">
        <ele>492.9</ele>
        <time>2000-01-01T12:05:03.000Z</time>
      </trkpt>
      <trkpt lat="44.91284" lon="5.66999">
        <ele>494</ele>
        <time>2000-01-01T12:05:13.000Z</time>
      </trkpt>
      <trkpt lat="44.91276" lon="5.66998">
        <ele>493.5</ele>
        <time>2000-01-01T12:05:23.000Z</time>
      </trkpt>
      <trkpt lat="44.91265" lon="5.66998">
        <ele>493.9</ele>
        <time>2000-01-01T12:05:33.000Z</time>
      </trkpt>
      <trkpt lat="44.91253" lon="5.66998">
        <ele>494</ele>
        <time>2000-01-01T12:05:43.000Z</time>
      </trkpt>
      <trkpt lat="44.91241" lon="5.67">
        <ele>494.3</ele>
        <time>2000-01-01T12:05:53.000Z</time>
      </trkpt>
      <trkpt lat="44.91228" lon="5.67001">
        <ele>494</ele>
        <time>2000-01-01T12:06:03.000Z</time>
      </trkpt>
      <trkpt lat="44.91213" lon="5.67004">
        <ele>494.3</ele>
        <time>2000-01-01T12:06:13.000Z</time>
      </trkpt>
      <trkpt lat="44.91212" lon="5.67004">
        <ele>494.3</ele>
        <time>2000-01-01T12:06:23.000Z</time>
      </trkpt>
      <trkpt lat="44.91202" lon="5.67038">
        <ele>491</ele>
        <time>2000-01-01T12:06:33.000Z</time>
      </trkpt>
      <trkpt lat="44.91192" lon="5.67063">
        <ele>488</ele>
        <time>2000-01-01T12:06:43.000Z</time>
      </trkpt>
      <trkpt lat="44.91172" lon="5.67074">
        <ele>488</ele>
        <time>2000-01-01T12:06:53.000Z</time>
      </trkpt>
      <trkpt lat="44.9115" lon="5.67087">
        <ele>488</ele>
        <time>2000-01-01T12:07:03.000Z</time>
      </trkpt>
      <trkpt lat="44.91126" lon="5.671">
        <ele>488</ele>
        <time>2000-01-01T12:07:13.000Z</time>
      </trkpt>
      <trkpt lat="44.91087" lon="5.67104">
        <ele>488</ele>
        <time>2000-01-01T12:07:23.000Z</time>
      </trkpt>
      <trkpt lat="44.91053" lon="5.67111">
        <ele>488</ele>
        <time>2000-01-01T12:07:33.000Z</time>
      </trkpt>
      <trkpt lat="44.91029" lon="5.67114">
        <ele>488</ele>
        <time>2000-01-01T12:07:43.000Z</time>
      </trkpt>
      <trkpt lat="44.91002" lon="5.67117">
        <ele>488</ele>
        <time>2000-01-01T12:07:53.000Z</time>
      </trkpt>
      <trkpt lat="44.90983" lon="5.67114">
        <ele>488</ele>
        <time>2000-01-01T12:08:03.000Z</time>
      </trkpt>
      <trkpt lat="44.90969" lon="5.6711">
        <ele>489.1</ele>
        <time>2000-01-01T12:08:13.000Z</time>
      </trkpt>
      <trkpt lat="44.90967" lon="5.67098">
        <ele>490</ele>
        <time>2000-01-01T12:08:23.000Z</time>
      </trkpt>
      <trkpt lat="44.90976" lon="5.67095">
        <ele>490.2</ele>
        <time>2000-01-01T12:08:33.000Z</time>
      </trkpt>
      <trkpt lat="44.9099" lon="5.67093">
        <ele>490</ele>
        <time>2000-01-01T12:08:43.000Z</time>
      </trkpt>
    </trkseg>
  </trk>
</gpx>